﻿<?xml version="1.0" encoding="utf-8"?><gpx creator="Garmin Desktop App" version="1.1" xsi:schemaLocation="http://www.topografix.com/GPX/1/1 http://www.topografix.com/GPX/1/1/gpx.xsd http://www.garmin.com/xmlschemas/WaypointExtension/v1 http://www8.garmin.com/xmlschemas/WaypointExtensionv1.xsd http://www.garmin.com/xmlschemas/TrackPointExtension/v1 http://www.garmin.com/xmlschemas/TrackPointExtensionv1.xsd http://www.garmin.com/xmlschemas/GpxExtensions/v3 http://www8.garmin.com/xmlschemas/GpxExtensionsv3.xsd http://www.garmin.com/xmlschemas/ActivityExtension/v1 http://www8.garmin.com/xmlschemas/ActivityExtensionv1.xsd http://www.garmin.com/xmlschemas/AdventuresExtensions/v1 http://www8.garmin.com/xmlschemas/AdventuresExtensionv1.xsd http://www.garmin.com/xmlschemas/PressureExtension/v1 http://www.garmin.com/xmlschemas/PressureExtensionv1.xsd http://www.garmin.com/xmlschemas/TripExtensions/v1 http://www.garmin.com/xmlschemas/TripExtensionsv1.xsd http://www.garmin.com/xmlschemas/TripMetaDataExtensions/v1 http://www.garmin.com/xmlschemas/TripMetaDataExtensionsv1.xsd http://www.garmin.com/xmlschemas/ViaPointTransportationModeExtensions/v1 http://www.garmin.com/xmlschemas/ViaPointTransportationModeExtensionsv1.xsd http://www.garmin.com/xmlschemas/CreationTimeExtension/v1 http://www.garmin.com/xmlschemas/CreationTimeExtensionsv1.xsd http://www.garmin.com/xmlschemas/AccelerationExtension/v1 http://www.garmin.com/xmlschemas/AccelerationExtensionv1.xsd http://www.garmin.com/xmlschemas/PowerExtension/v1 http://www.garmin.com/xmlschemas/PowerExtensionv1.xsd http://www.garmin.com/xmlschemas/VideoExtension/v1 http://www.garmin.com/xmlschemas/VideoExtensionv1.xsd" xmlns="http://www.topografix.com/GPX/1/1" xmlns:xsi="http://www.w3.org/2001/XMLSchema-instance" xmlns:wptx1="http://www.garmin.com/xmlschemas/WaypointExtension/v1" xmlns:gpxtrx="http://www.garmin.com/xmlschemas/GpxExtensions/v3" xmlns:gpxtpx="http://www.garmin.com/xmlschemas/TrackPointExtension/v1" xmlns:gpxx="http://www.garmin.com/xmlschemas/GpxExtensions/v3" xmlns:trp="http://www.garmin.com/xmlschemas/TripExtensions/v1" xmlns:adv="http://www.garmin.com/xmlschemas/AdventuresExtensions/v1" xmlns:prs="http://www.garmin.com/xmlschemas/PressureExtension/v1" xmlns:tmd="http://www.garmin.com/xmlschemas/TripMetaDataExtensions/v1" xmlns:vptm="http://www.garmin.com/xmlschemas/ViaPointTransportationModeExtensions/v1" xmlns:ctx="http://www.garmin.com/xmlschemas/CreationTimeExtension/v1" xmlns:gpxacc="http://www.garmin.com/xmlschemas/AccelerationExtension/v1" xmlns:gpxpx="http://www.garmin.com/xmlschemas/PowerExtension/v1" xmlns:vidx1="http://www.garmin.com/xmlschemas/VideoExtension/v1">

  <metadata>
    <link href="http://www.garmin.com">
      <text>Garmin International</text>
    </link>
    <time>2026-07-13T16:22:39Z</time>
    <bounds maxlat="51.218243027105927" maxlon="8.4782799705863" minlat="50.054583996534348" minlon="3.201469006016851" />
  </metadata>

  <trk>
    <name>Track vom: 2026-07-13 10:31</name>
    <extensions>
      <gpxx:TrackExtension>
        <gpxx:DisplayColor>DarkGray</gpxx:DisplayColor>
      </gpxx:TrackExtension>
    </extensions>
    <trkseg>
      <trkpt lat="51.209910996258259" lon="3.223835024982691">
        <ele>20.32</ele>
        <time>2026-07-13T08:31:40Z</time>
      </trkpt>
      <trkpt lat="51.20993597432971" lon="3.223799988627434">
        <ele>16</ele>
        <time>2026-07-13T08:32:23Z</time>
      </trkpt>
      <trkpt lat="51.209942009299994" lon="3.223797976970673">
        <ele>16.48</ele>
        <time>2026-07-13T08:33:15Z</time>
      </trkpt>
      <trkpt lat="51.209948966279626" lon="3.223797976970673">
        <ele>16.960000000000001</ele>
        <time>2026-07-13T08:34:07Z</time>
      </trkpt>
      <trkpt lat="51.209949972108006" lon="3.223799988627434">
        <ele>17.440000000000001</ele>
        <time>2026-07-13T08:34:53Z</time>
      </trkpt>
      <trkpt lat="51.209950977936387" lon="3.223805017769337">
        <ele>17.920000000000002</ele>
        <time>2026-07-13T08:35:30Z</time>
      </trkpt>
      <trkpt lat="51.209950977936387" lon="3.223805017769337">
        <ele>17.920000000000002</ele>
        <time>2026-07-13T08:35:49Z</time>
      </trkpt>
      <trkpt lat="51.209973022341728" lon="3.223870983347297">
        <ele>18.399999999999999</ele>
        <time>2026-07-13T08:35:53Z</time>
      </trkpt>
      <trkpt lat="51.210014009848237" lon="3.22409100830555">
        <ele>19.359999999999999</ele>
        <time>2026-07-13T08:36:07Z</time>
      </trkpt>
      <trkpt lat="51.210124986246228" lon="3.224556958302856">
        <ele>16.48</ele>
        <time>2026-07-13T08:36:17Z</time>
      </trkpt>
      <trkpt lat="51.210533017292619" lon="3.224443970248103">
        <ele>14.56</ele>
        <time>2026-07-13T08:36:28Z</time>
      </trkpt>
      <trkpt lat="51.210675006732345" lon="3.224366018548608">
        <ele>14.08</ele>
        <time>2026-07-13T08:36:31Z</time>
      </trkpt>
      <trkpt lat="51.210719011723995" lon="3.224341040477157">
        <ele>14.08</ele>
        <time>2026-07-13T08:36:32Z</time>
      </trkpt>
      <trkpt lat="51.210764022544026" lon="3.224315978586674">
        <ele>13.6</ele>
        <time>2026-07-13T08:36:33Z</time>
      </trkpt>
      <trkpt lat="51.211072979494929" lon="3.224182035773993">
        <ele>15.039999999999999</ele>
        <time>2026-07-13T08:36:43Z</time>
      </trkpt>
      <trkpt lat="51.211276995018125" lon="3.22409100830555">
        <ele>13.6</ele>
        <time>2026-07-13T08:36:50Z</time>
      </trkpt>
      <trkpt lat="51.211297027766705" lon="3.224073993042111">
        <ele>13.119999999999999</ele>
        <time>2026-07-13T08:36:51Z</time>
      </trkpt>
      <trkpt lat="51.21133198030293" lon="3.224045997485519">
        <ele>12.630000000000001</ele>
        <time>2026-07-13T08:36:52Z</time>
      </trkpt>
      <trkpt lat="51.211416972801089" lon="3.223975002765656">
        <ele>12.15</ele>
        <time>2026-07-13T08:36:54Z</time>
      </trkpt>
      <trkpt lat="51.211462989449501" lon="3.223938038572669">
        <ele>11.67</ele>
        <time>2026-07-13T08:36:55Z</time>
      </trkpt>
      <trkpt lat="51.211602967232466" lon="3.223823038861156">
        <ele>10.710000000000001</ele>
        <time>2026-07-13T08:36:58Z</time>
      </trkpt>
      <trkpt lat="51.211760966107249" lon="3.223693035542965">
        <ele>10.23</ele>
        <time>2026-07-13T08:36:59Z</time>
      </trkpt>
      <trkpt lat="51.211760966107249" lon="3.223693035542965">
        <ele>10.23</ele>
        <time>2026-07-13T08:37:00Z</time>
      </trkpt>
      <trkpt lat="51.212014015763998" lon="3.223377037793398">
        <ele>10.710000000000001</ele>
        <time>2026-07-13T08:37:07Z</time>
      </trkpt>
      <trkpt lat="51.212085010483861" lon="3.22327402420342">
        <ele>10.23</ele>
        <time>2026-07-13T08:37:09Z</time>
      </trkpt>
      <trkpt lat="51.212119041010737" lon="3.223224990069866">
        <ele>9.75</ele>
        <time>2026-07-13T08:37:10Z</time>
      </trkpt>
      <trkpt lat="51.212243009358644" lon="3.222985016182065">
        <ele>9.27</ele>
        <time>2026-07-13T08:37:14Z</time>
      </trkpt>
      <trkpt lat="51.21247099712491" lon="3.222447987645865">
        <ele>10.23</ele>
        <time>2026-07-13T08:37:23Z</time>
      </trkpt>
      <trkpt lat="51.212493041530252" lon="3.222385039553046">
        <ele>10.23</ele>
        <time>2026-07-13T08:37:24Z</time>
      </trkpt>
      <trkpt lat="51.21251399628818" lon="3.222323013469577">
        <ele>10.23</ele>
        <time>2026-07-13T08:37:25Z</time>
      </trkpt>
      <trkpt lat="51.212535034865141" lon="3.222262999042869">
        <ele>9.75</ele>
        <time>2026-07-13T08:37:26Z</time>
      </trkpt>
      <trkpt lat="51.21255598962307" lon="3.22220298461616">
        <ele>9.75</ele>
        <time>2026-07-13T08:37:27Z</time>
      </trkpt>
      <trkpt lat="51.21257602237165" lon="3.222144981846213">
        <ele>9.75</ele>
        <time>2026-07-13T08:37:28Z</time>
      </trkpt>
      <trkpt lat="51.212695967406034" lon="3.221949012950063">
        <ele>9.27</ele>
        <time>2026-07-13T08:37:34Z</time>
      </trkpt>
      <trkpt lat="51.212712982669473" lon="3.221925040706992">
        <ele>9.27</ele>
        <time>2026-07-13T08:37:35Z</time>
      </trkpt>
      <trkpt lat="51.212735027074814" lon="3.221895033493638">
        <ele>9.27</ele>
        <time>2026-07-13T08:37:36Z</time>
      </trkpt>
      <trkpt lat="51.212926972657442" lon="3.221784979104996">
        <ele>9.75</ele>
        <time>2026-07-13T08:37:42Z</time>
      </trkpt>
      <trkpt lat="51.213505994528532" lon="3.221695041283965">
        <ele>11.67</ele>
        <time>2026-07-13T08:37:53Z</time>
      </trkpt>
      <trkpt lat="51.213558968156576" lon="3.221688000485301">
        <ele>11.67</ele>
        <time>2026-07-13T08:37:54Z</time>
      </trkpt>
      <trkpt lat="51.21367497369647" lon="3.221672996878624">
        <ele>11.67</ele>
        <time>2026-07-13T08:37:56Z</time>
      </trkpt>
      <trkpt lat="51.213728031143546" lon="3.221666039898992">
        <ele>11.67</ele>
        <time>2026-07-13T08:37:57Z</time>
      </trkpt>
      <trkpt lat="51.213840013369918" lon="3.221651036292315">
        <ele>11.19</ele>
        <time>2026-07-13T08:37:59Z</time>
      </trkpt>
      <trkpt lat="51.214186018332839" lon="3.221594039350748">
        <ele>11.19</ele>
        <time>2026-07-13T08:38:05Z</time>
      </trkpt>
      <trkpt lat="51.215097969397902" lon="3.221243005245924">
        <ele>10.710000000000001</ele>
        <time>2026-07-13T08:38:20Z</time>
      </trkpt>
      <trkpt lat="51.215221015736461" lon="3.221203023567796">
        <ele>10.23</ele>
        <time>2026-07-13T08:38:22Z</time>
      </trkpt>
      <trkpt lat="51.215282035991549" lon="3.22119003161788">
        <ele>10.23</ele>
        <time>2026-07-13T08:38:23Z</time>
      </trkpt>
      <trkpt lat="51.215345989912748" lon="3.221175028011203">
        <ele>10.710000000000001</ele>
        <time>2026-07-13T08:38:24Z</time>
      </trkpt>
      <trkpt lat="51.215679002925754" lon="3.221096992492676">
        <ele>10.710000000000001</ele>
        <time>2026-07-13T08:38:29Z</time>
      </trkpt>
      <trkpt lat="51.215739017352462" lon="3.221079977229238">
        <ele>11.19</ele>
        <time>2026-07-13T08:38:30Z</time>
      </trkpt>
      <trkpt lat="51.215798025950789" lon="3.22106396779418">
        <ele>10.710000000000001</ele>
        <time>2026-07-13T08:38:31Z</time>
      </trkpt>
      <trkpt lat="51.216031964868307" lon="3.22099800221622">
        <ele>11.19</ele>
        <time>2026-07-13T08:38:35Z</time>
      </trkpt>
      <trkpt lat="51.216662032529712" lon="3.220821982249618">
        <ele>13.6</ele>
        <time>2026-07-13T08:38:46Z</time>
      </trkpt>
      <trkpt lat="51.216725986450911" lon="3.220797004178166">
        <ele>14.56</ele>
        <time>2026-07-13T08:38:47Z</time>
      </trkpt>
      <trkpt lat="51.216791030019522" lon="3.220770014449954">
        <ele>15.039999999999999</ele>
        <time>2026-07-13T08:38:48Z</time>
      </trkpt>
      <trkpt lat="51.216855989769101" lon="3.220743024721742">
        <ele>15.039999999999999</ele>
        <time>2026-07-13T08:38:49Z</time>
      </trkpt>
      <trkpt lat="51.216918015852571" lon="3.220717962831259">
        <ele>16</ele>
        <time>2026-07-13T08:38:50Z</time>
      </trkpt>
      <trkpt lat="51.216978030279279" lon="3.220692984759808">
        <ele>16.48</ele>
        <time>2026-07-13T08:38:51Z</time>
      </trkpt>
      <trkpt lat="51.217164024710655" lon="3.220616038888693">
        <ele>18.399999999999999</ele>
        <time>2026-07-13T08:38:54Z</time>
      </trkpt>
      <trkpt lat="51.217222027480602" lon="3.220591982826591">
        <ele>18.879999999999999</ele>
        <time>2026-07-13T08:38:55Z</time>
      </trkpt>
      <trkpt lat="51.217277012765408" lon="3.220569016411901">
        <ele>19.359999999999999</ele>
        <time>2026-07-13T08:38:56Z</time>
      </trkpt>
      <trkpt lat="51.217333003878593" lon="3.220545966178179">
        <ele>19.359999999999999</ele>
        <time>2026-07-13T08:38:57Z</time>
      </trkpt>
      <trkpt lat="51.21739100664854" lon="3.220521993935108">
        <ele>19.84</ele>
        <time>2026-07-13T08:38:58Z</time>
      </trkpt>
      <trkpt lat="51.217448003590107" lon="3.220499027520418">
        <ele>19.84</ele>
        <time>2026-07-13T08:38:59Z</time>
      </trkpt>
      <trkpt lat="51.217505000531673" lon="3.220474971458316">
        <ele>19.84</ele>
        <time>2026-07-13T08:39:00Z</time>
      </trkpt>
      <trkpt lat="51.217779004946351" lon="3.220368018373847">
        <ele>19.359999999999999</ele>
        <time>2026-07-13T08:39:08Z</time>
      </trkpt>
      <trkpt lat="51.218053009361029" lon="3.220268022269011">
        <ele>16</ele>
        <time>2026-07-13T08:39:18Z</time>
      </trkpt>
      <trkpt lat="51.218217965215445" lon="3.220213036984205">
        <ele>13.6</ele>
        <time>2026-07-13T08:39:24Z</time>
      </trkpt>
      <trkpt lat="51.218243027105927" lon="3.220056965947151">
        <ele>13.119999999999999</ele>
        <time>2026-07-13T08:39:25Z</time>
      </trkpt>
      <trkpt lat="51.218222994357347" lon="3.220035005360842">
        <ele>12.630000000000001</ele>
        <time>2026-07-13T08:39:26Z</time>
      </trkpt>
      <trkpt lat="51.218191981315613" lon="3.220000974833965">
        <ele>12.15</ele>
        <time>2026-07-13T08:39:27Z</time>
      </trkpt>
      <trkpt lat="51.218150993809104" lon="3.219954036176205">
        <ele>12.15</ele>
        <time>2026-07-13T08:39:28Z</time>
      </trkpt>
      <trkpt lat="51.21756300330162" lon="3.219204023480415">
        <ele>9.75</ele>
        <time>2026-07-13T08:39:37Z</time>
      </trkpt>
      <trkpt lat="51.216871999204159" lon="3.218318978324533">
        <ele>7.83</ele>
        <time>2026-07-13T08:39:44Z</time>
      </trkpt>
      <trkpt lat="51.215923000127077" lon="3.217009976506233">
        <ele>7.83</ele>
        <time>2026-07-13T08:39:55Z</time>
      </trkpt>
      <trkpt lat="51.215674979612231" lon="3.216639999300242">
        <ele>8.310000000000001</ele>
        <time>2026-07-13T08:40:00Z</time>
      </trkpt>
      <trkpt lat="51.215652013197541" lon="3.216603035107255">
        <ele>8.310000000000001</ele>
        <time>2026-07-13T08:40:01Z</time>
      </trkpt>
      <trkpt lat="51.215652013197541" lon="3.216603035107255">
        <ele>8.310000000000001</ele>
        <time>2026-07-13T08:40:10Z</time>
      </trkpt>
      <trkpt lat="51.215559979900718" lon="3.216455010697246">
        <ele>7.35</ele>
        <time>2026-07-13T08:40:14Z</time>
      </trkpt>
      <trkpt lat="51.215514969080687" lon="3.216380998492241">
        <ele>7.35</ele>
        <time>2026-07-13T08:40:15Z</time>
      </trkpt>
      <trkpt lat="51.215451015159488" lon="3.216269016265869">
        <ele>7.35</ele>
        <time>2026-07-13T08:40:16Z</time>
      </trkpt>
      <trkpt lat="51.214713994413614" lon="3.21569200605154">
        <ele>7.83</ele>
        <time>2026-07-13T08:40:25Z</time>
      </trkpt>
      <trkpt lat="51.213574977591634" lon="3.215017011389136">
        <ele>8.789999999999999</ele>
        <time>2026-07-13T08:40:35Z</time>
      </trkpt>
      <trkpt lat="51.212588008493185" lon="3.214578973129392">
        <ele>6.39</ele>
        <time>2026-07-13T08:40:45Z</time>
      </trkpt>
      <trkpt lat="51.212339987978339" lon="3.214483000338078">
        <ele>5.42</ele>
        <time>2026-07-13T08:40:48Z</time>
      </trkpt>
      <trkpt lat="51.212249966338277" lon="3.214448969811201">
        <ele>4.46</ele>
        <time>2026-07-13T08:40:49Z</time>
      </trkpt>
      <trkpt lat="51.210928978398442" lon="3.214019984006882">
        <ele>2.54</ele>
        <time>2026-07-13T08:41:02Z</time>
      </trkpt>
      <trkpt lat="51.210824958980083" lon="3.213992994278669">
        <ele>1.58</ele>
        <time>2026-07-13T08:41:03Z</time>
      </trkpt>
      <trkpt lat="51.210724962875247" lon="3.213984025642276">
        <ele>1.1</ele>
        <time>2026-07-13T08:41:04Z</time>
      </trkpt>
      <trkpt lat="51.210393961519003" lon="3.213952006772161">
        <ele>0.14</ele>
        <time>2026-07-13T08:41:08Z</time>
      </trkpt>
      <trkpt lat="51.210007974877954" lon="3.213920993730426">
        <ele>0.14</ele>
        <time>2026-07-13T08:41:17Z</time>
      </trkpt>
      <trkpt lat="51.210007974877954" lon="3.213920993730426">
        <ele>0.14</ele>
        <time>2026-07-13T08:41:34Z</time>
      </trkpt>
      <trkpt lat="51.209963969886303" lon="3.213917976245284">
        <ele>3.02</ele>
        <time>2026-07-13T08:42:21Z</time>
      </trkpt>
      <trkpt lat="51.209509000182152" lon="3.21395100094378">
        <ele>5.42</ele>
        <time>2026-07-13T08:42:28Z</time>
      </trkpt>
      <trkpt lat="51.209423001855612" lon="3.213980002328754">
        <ele>5.42</ele>
        <time>2026-07-13T08:42:29Z</time>
      </trkpt>
      <trkpt lat="51.209341026842594" lon="3.214006992056966">
        <ele>5.42</ele>
        <time>2026-07-13T08:42:30Z</time>
      </trkpt>
      <trkpt lat="51.209259973838925" lon="3.214088967069984">
        <ele>5.42</ele>
        <time>2026-07-13T08:42:31Z</time>
      </trkpt>
      <trkpt lat="51.209185961633921" lon="3.214188041165471">
        <ele>4.94</ele>
        <time>2026-07-13T08:42:32Z</time>
      </trkpt>
      <trkpt lat="51.209115972742438" lon="3.214279990643263">
        <ele>4.94</ele>
        <time>2026-07-13T08:42:33Z</time>
      </trkpt>
      <trkpt lat="51.209039026871324" lon="3.214383004233241">
        <ele>4.94</ele>
        <time>2026-07-13T08:42:34Z</time>
      </trkpt>
      <trkpt lat="51.208961997181177" lon="3.214486017823219">
        <ele>4.94</ele>
        <time>2026-07-13T08:42:35Z</time>
      </trkpt>
      <trkpt lat="51.20888396166265" lon="3.214589031413198">
        <ele>4.46</ele>
        <time>2026-07-13T08:42:36Z</time>
      </trkpt>
      <trkpt lat="51.208030013367534" lon="3.215490002185106">
        <ele>3.98</ele>
        <time>2026-07-13T08:42:46Z</time>
      </trkpt>
      <trkpt lat="51.207942003384233" lon="3.215568037703633">
        <ele>4.46</ele>
        <time>2026-07-13T08:42:47Z</time>
      </trkpt>
      <trkpt lat="51.206986969336867" lon="3.21640002541244">
        <ele>6.87</ele>
        <time>2026-07-13T08:42:56Z</time>
      </trkpt>
      <trkpt lat="51.205837978050113" lon="3.216998996213079">
        <ele>5.42</ele>
        <time>2026-07-13T08:43:06Z</time>
      </trkpt>
      <trkpt lat="51.205403041094542" lon="3.217122964560986">
        <ele>2.54</ele>
        <time>2026-07-13T08:43:09Z</time>
      </trkpt>
      <trkpt lat="51.202416988089681" lon="3.217908013612032">
        <ele>5.42</ele>
        <time>2026-07-13T08:43:34Z</time>
      </trkpt>
      <trkpt lat="51.201161965727806" lon="3.217801982536912">
        <ele>5.91</ele>
        <time>2026-07-13T08:43:45Z</time>
      </trkpt>
      <trkpt lat="51.200784025713801" lon="3.217691006138921">
        <ele>5.91</ele>
        <time>2026-07-13T08:43:50Z</time>
      </trkpt>
      <trkpt lat="51.200724011287093" lon="3.217628980055451">
        <ele>5.91</ele>
        <time>2026-07-13T08:43:51Z</time>
      </trkpt>
      <trkpt lat="51.200659973546863" lon="3.21756100282073">
        <ele>5.91</ele>
        <time>2026-07-13T08:43:52Z</time>
      </trkpt>
      <trkpt lat="51.200513960793614" lon="3.217407027259469">
        <ele>5.91</ele>
        <time>2026-07-13T08:43:54Z</time>
      </trkpt>
      <trkpt lat="51.20043802075088" lon="3.217310970649123">
        <ele>5.91</ele>
        <time>2026-07-13T08:43:55Z</time>
      </trkpt>
      <trkpt lat="51.200320003554225" lon="3.217050964012742">
        <ele>6.39</ele>
        <time>2026-07-13T08:43:57Z</time>
      </trkpt>
      <trkpt lat="51.200064020231366" lon="3.216364989057183">
        <ele>6.87</ele>
        <time>2026-07-13T08:44:01Z</time>
      </trkpt>
      <trkpt lat="51.199862016364932" lon="3.215560996904969">
        <ele>6.87</ele>
        <time>2026-07-13T08:44:05Z</time>
      </trkpt>
      <trkpt lat="51.19979202747345" lon="3.215422024950385">
        <ele>6.87</ele>
        <time>2026-07-13T08:44:06Z</time>
      </trkpt>
      <trkpt lat="51.19970602914691" lon="3.21530501358211">
        <ele>7.35</ele>
        <time>2026-07-13T08:44:07Z</time>
      </trkpt>
      <trkpt lat="51.19962003082037" lon="3.215213986113668">
        <ele>7.35</ele>
        <time>2026-07-13T08:44:08Z</time>
      </trkpt>
      <trkpt lat="51.199520034715533" lon="3.215149026364088">
        <ele>7.35</ele>
        <time>2026-07-13T08:44:09Z</time>
      </trkpt>
      <trkpt lat="51.199437975883484" lon="3.215096974745393">
        <ele>7.83</ele>
        <time>2026-07-13T08:44:10Z</time>
      </trkpt>
      <trkpt lat="51.199356000870466" lon="3.215042995288968">
        <ele>8.789999999999999</ele>
        <time>2026-07-13T08:44:11Z</time>
      </trkpt>
      <trkpt lat="51.199293974786997" lon="3.21500301361084">
        <ele>9.75</ele>
        <time>2026-07-13T08:44:12Z</time>
      </trkpt>
      <trkpt lat="51.19917000643909" lon="3.214954985305667">
        <ele>10.710000000000001</ele>
        <time>2026-07-13T08:44:13Z</time>
      </trkpt>
      <trkpt lat="51.198925003409386" lon="3.214860018342733">
        <ele>11.19</ele>
        <time>2026-07-13T08:44:15Z</time>
      </trkpt>
      <trkpt lat="51.197191039100289" lon="3.214402031153441">
        <ele>7.35</ele>
        <time>2026-07-13T08:44:26Z</time>
      </trkpt>
      <trkpt lat="51.196074988692999" lon="3.2142089959234">
        <ele>7.35</ele>
        <time>2026-07-13T08:44:35Z</time>
      </trkpt>
      <trkpt lat="51.195943979546428" lon="3.214282002300024">
        <ele>7.83</ele>
        <time>2026-07-13T08:44:36Z</time>
      </trkpt>
      <trkpt lat="51.19584096595645" lon="3.214334975928068">
        <ele>7.83</ele>
        <time>2026-07-13T08:44:37Z</time>
      </trkpt>
      <trkpt lat="51.195666035637259" lon="3.214416028931737">
        <ele>8.789999999999999</ele>
        <time>2026-07-13T08:44:39Z</time>
      </trkpt>
      <trkpt lat="51.19551700539887" lon="3.214359031990171">
        <ele>9.27</ele>
        <time>2026-07-13T08:44:40Z</time>
      </trkpt>
      <trkpt lat="51.195504013448954" lon="3.214359031990171">
        <ele>9.27</ele>
        <time>2026-07-13T08:44:41Z</time>
      </trkpt>
      <trkpt lat="51.195413991808891" lon="3.214359031990171">
        <ele>9.27</ele>
        <time>2026-07-13T08:44:42Z</time>
      </trkpt>
      <trkpt lat="51.19534601457417" lon="3.21438099257648">
        <ele>8.789999999999999</ele>
        <time>2026-07-13T08:44:43Z</time>
      </trkpt>
      <trkpt lat="51.195219028741121" lon="3.214404964819551">
        <ele>8.310000000000001</ele>
        <time>2026-07-13T08:44:44Z</time>
      </trkpt>
      <trkpt lat="51.195134958252311" lon="3.214349979534745">
        <ele>7.83</ele>
        <time>2026-07-13T08:44:45Z</time>
      </trkpt>
      <trkpt lat="51.195048959925771" lon="3.21429499424994">
        <ele>6.87</ele>
        <time>2026-07-13T08:44:46Z</time>
      </trkpt>
      <trkpt lat="51.19448896497488" lon="3.213900038972497">
        <ele>4.46</ele>
        <time>2026-07-13T08:44:52Z</time>
      </trkpt>
      <trkpt lat="51.193449022248387" lon="3.213238036260009">
        <ele>5.42</ele>
        <time>2026-07-13T08:45:02Z</time>
      </trkpt>
      <trkpt lat="51.19240103289485" lon="3.212550971657038">
        <ele>10.23</ele>
        <time>2026-07-13T08:45:12Z</time>
      </trkpt>
      <trkpt lat="51.192304976284504" lon="3.212490035220981">
        <ele>10.23</ele>
        <time>2026-07-13T08:45:13Z</time>
      </trkpt>
      <trkpt lat="51.192206991836429" lon="3.212423985823989">
        <ele>10.23</ele>
        <time>2026-07-13T08:45:14Z</time>
      </trkpt>
      <trkpt lat="51.191365029662848" lon="3.21186700835824">
        <ele>11.19</ele>
        <time>2026-07-13T08:45:22Z</time>
      </trkpt>
      <trkpt lat="51.190382000058889" lon="3.211235012859106">
        <ele>9.75</ele>
        <time>2026-07-13T08:45:32Z</time>
      </trkpt>
      <trkpt lat="51.189472982659936" lon="3.210602011531591">
        <ele>11.67</ele>
        <time>2026-07-13T08:45:41Z</time>
      </trkpt>
      <trkpt lat="51.189151033759117" lon="3.210368994623423">
        <ele>14.56</ele>
        <time>2026-07-13T08:45:45Z</time>
      </trkpt>
      <trkpt lat="51.189022036269307" lon="3.210276961326599">
        <ele>15.52</ele>
        <time>2026-07-13T08:45:47Z</time>
      </trkpt>
      <trkpt lat="51.188968978822231" lon="3.210237985476852">
        <ele>16</ele>
        <time>2026-07-13T08:45:48Z</time>
      </trkpt>
      <trkpt lat="51.18892296217382" lon="3.210204960778356">
        <ele>16.48</ele>
        <time>2026-07-13T08:45:49Z</time>
      </trkpt>
      <trkpt lat="51.188879041001201" lon="3.210173025727272">
        <ele>16.48</ele>
        <time>2026-07-13T08:45:50Z</time>
      </trkpt>
      <trkpt lat="51.18883796967566" lon="3.210143018513918">
        <ele>16.48</ele>
        <time>2026-07-13T08:45:51Z</time>
      </trkpt>
      <trkpt lat="51.1887910310179" lon="3.21010697633028">
        <ele>16.48</ele>
        <time>2026-07-13T08:45:52Z</time>
      </trkpt>
      <trkpt lat="51.18872900493443" lon="3.210057020187378">
        <ele>16.48</ele>
        <time>2026-07-13T08:45:53Z</time>
      </trkpt>
      <trkpt lat="51.188693968579173" lon="3.209874965250492">
        <ele>16.960000000000001</ele>
        <time>2026-07-13T08:45:54Z</time>
      </trkpt>
      <trkpt lat="51.188651975244284" lon="3.209818974137306">
        <ele>17.440000000000001</ele>
        <time>2026-07-13T08:45:55Z</time>
      </trkpt>
      <trkpt lat="51.188596989959478" lon="3.209788966923952">
        <ele>17.920000000000002</ele>
        <time>2026-07-13T08:45:56Z</time>
      </trkpt>
      <trkpt lat="51.188543010503054" lon="3.209788966923952">
        <ele>18.399999999999999</ele>
        <time>2026-07-13T08:45:57Z</time>
      </trkpt>
      <trkpt lat="51.188543010503054" lon="3.209788966923952">
        <ele>17.920000000000002</ele>
        <time>2026-07-13T08:45:58Z</time>
      </trkpt>
      <trkpt lat="51.188345029950142" lon="3.209857027977705">
        <ele>17.920000000000002</ele>
        <time>2026-07-13T08:45:59Z</time>
      </trkpt>
      <trkpt lat="51.188270011916757" lon="3.209801958873868">
        <ele>17.440000000000001</ele>
        <time>2026-07-13T08:46:00Z</time>
      </trkpt>
      <trkpt lat="51.188185019418597" lon="3.209745967760682">
        <ele>17.440000000000001</ele>
        <time>2026-07-13T08:46:01Z</time>
      </trkpt>
      <trkpt lat="51.188090974465013" lon="3.209690982475877">
        <ele>17.440000000000001</ele>
        <time>2026-07-13T08:46:02Z</time>
      </trkpt>
      <trkpt lat="51.187992990016937" lon="3.20963398553431">
        <ele>17.440000000000001</ele>
        <time>2026-07-13T08:46:03Z</time>
      </trkpt>
      <trkpt lat="51.18789198808372" lon="3.209574976935983">
        <ele>17.440000000000001</ele>
        <time>2026-07-13T08:46:04Z</time>
      </trkpt>
      <trkpt lat="51.187789980322123" lon="3.209515968337655">
        <ele>17.920000000000002</ele>
        <time>2026-07-13T08:46:05Z</time>
      </trkpt>
      <trkpt lat="51.187686966732144" lon="3.209453020244837">
        <ele>18.399999999999999</ele>
        <time>2026-07-13T08:46:06Z</time>
      </trkpt>
      <trkpt lat="51.187588982284069" lon="3.209383031353355">
        <ele>18.879999999999999</ele>
        <time>2026-07-13T08:46:07Z</time>
      </trkpt>
      <trkpt lat="51.187484040856361" lon="3.20930901914835">
        <ele>18.399999999999999</ele>
        <time>2026-07-13T08:46:08Z</time>
      </trkpt>
      <trkpt lat="51.187369041144848" lon="3.2092269603163">
        <ele>18.399999999999999</ele>
        <time>2026-07-13T08:46:09Z</time>
      </trkpt>
      <trkpt lat="51.18593598715961" lon="3.208289025351405">
        <ele>17.920000000000002</ele>
        <time>2026-07-13T08:46:21Z</time>
      </trkpt>
      <trkpt lat="51.184815997257829" lon="3.207558039575815">
        <ele>18.879999999999999</ele>
        <time>2026-07-13T08:46:30Z</time>
      </trkpt>
      <trkpt lat="51.183542031794786" lon="3.206723034381867">
        <ele>16</ele>
        <time>2026-07-13T08:46:40Z</time>
      </trkpt>
      <trkpt lat="51.182415001094341" lon="3.205975033342838">
        <ele>13.119999999999999</ele>
        <time>2026-07-13T08:46:49Z</time>
      </trkpt>
      <trkpt lat="51.182039994746447" lon="3.205666998401284">
        <ele>9.27</ele>
        <time>2026-07-13T08:46:55Z</time>
      </trkpt>
      <trkpt lat="51.181904962286353" lon="3.205531965941191">
        <ele>6.87</ele>
        <time>2026-07-13T08:46:59Z</time>
      </trkpt>
      <trkpt lat="51.181848971173167" lon="3.205411015078425">
        <ele>6.39</ele>
        <time>2026-07-13T08:47:00Z</time>
      </trkpt>
      <trkpt lat="51.181821981444955" lon="3.205367010086775">
        <ele>5.91</ele>
        <time>2026-07-13T08:47:01Z</time>
      </trkpt>
      <trkpt lat="51.181784011423588" lon="3.205303978174925">
        <ele>5.91</ele>
        <time>2026-07-13T08:47:02Z</time>
      </trkpt>
      <trkpt lat="51.181716034188867" lon="3.205276988446713">
        <ele>5.91</ele>
        <time>2026-07-13T08:47:03Z</time>
      </trkpt>
      <trkpt lat="51.181664988398552" lon="3.205267013981938">
        <ele>5.42</ele>
        <time>2026-07-13T08:47:04Z</time>
      </trkpt>
      <trkpt lat="51.18159499950707" lon="3.205301966518164">
        <ele>4.94</ele>
        <time>2026-07-13T08:47:05Z</time>
      </trkpt>
      <trkpt lat="51.181506989523768" lon="3.205261984840035">
        <ele>4.46</ele>
        <time>2026-07-13T08:47:06Z</time>
      </trkpt>
      <trkpt lat="51.181420991197228" lon="3.20520699955523">
        <ele>3.98</ele>
        <time>2026-07-13T08:47:07Z</time>
      </trkpt>
      <trkpt lat="51.18131797760725" lon="3.20514002814889">
        <ele>3.5</ele>
        <time>2026-07-13T08:47:08Z</time>
      </trkpt>
      <trkpt lat="51.180240986868739" lon="3.204447012394667">
        <ele>4.46</ele>
        <time>2026-07-13T08:47:16Z</time>
      </trkpt>
      <trkpt lat="51.178499981760979" lon="3.20331503637135">
        <ele>6.39</ele>
        <time>2026-07-13T08:47:26Z</time>
      </trkpt>
      <trkpt lat="51.177386026829481" lon="3.202577009797096">
        <ele>8.310000000000001</ele>
        <time>2026-07-13T08:47:34Z</time>
      </trkpt>
      <trkpt lat="51.177264992147684" lon="3.202497968450189">
        <ele>7.83</ele>
        <time>2026-07-13T08:47:38Z</time>
      </trkpt>
      <trkpt lat="51.1772779840976" lon="3.202385986223817">
        <ele>7.35</ele>
        <time>2026-07-13T08:47:39Z</time>
      </trkpt>
      <trkpt lat="51.1772779840976" lon="3.202338041737676">
        <ele>7.35</ele>
        <time>2026-07-13T08:47:40Z</time>
      </trkpt>
      <trkpt lat="51.1772779840976" lon="3.202202003449202">
        <ele>6.87</ele>
        <time>2026-07-13T08:47:41Z</time>
      </trkpt>
      <trkpt lat="51.177248982712626" lon="3.202020032331348">
        <ele>6.87</ele>
        <time>2026-07-13T08:47:42Z</time>
      </trkpt>
      <trkpt lat="51.177198020741343" lon="3.201845018193126">
        <ele>6.87</ele>
        <time>2026-07-13T08:47:43Z</time>
      </trkpt>
      <trkpt lat="51.177110010758042" lon="3.201699005439878">
        <ele>6.87</ele>
        <time>2026-07-13T08:47:44Z</time>
      </trkpt>
      <trkpt lat="51.177011020481586" lon="3.2015769649297">
        <ele>6.87</ele>
        <time>2026-07-13T08:47:45Z</time>
      </trkpt>
      <trkpt lat="51.176898032426834" lon="3.201519967988133">
        <ele>6.87</ele>
        <time>2026-07-13T08:47:46Z</time>
      </trkpt>
      <trkpt lat="51.176771968603134" lon="3.201469006016851">
        <ele>6.39</ele>
        <time>2026-07-13T08:47:47Z</time>
      </trkpt>
      <trkpt lat="51.176655041053891" lon="3.201521979644895">
        <ele>5.91</ele>
        <time>2026-07-13T08:47:48Z</time>
      </trkpt>
      <trkpt lat="51.176538029685616" lon="3.201584005728364">
        <ele>5.91</ele>
        <time>2026-07-13T08:47:49Z</time>
      </trkpt>
      <trkpt lat="51.17644096724689" lon="3.201699005439878">
        <ele>5.91</ele>
        <time>2026-07-13T08:47:50Z</time>
      </trkpt>
      <trkpt lat="51.176377013325691" lon="3.201869996264577">
        <ele>5.42</ele>
        <time>2026-07-13T08:47:51Z</time>
      </trkpt>
      <trkpt lat="51.176318004727364" lon="3.202029000967741">
        <ele>5.42</ele>
        <time>2026-07-13T08:47:52Z</time>
      </trkpt>
      <trkpt lat="51.176291014999151" lon="3.202170990407467">
        <ele>4.94</ele>
        <time>2026-07-13T08:47:53Z</time>
      </trkpt>
      <trkpt lat="51.176240975037217" lon="3.202490005642176">
        <ele>4.94</ele>
        <time>2026-07-13T08:47:54Z</time>
      </trkpt>
      <trkpt lat="51.176131004467607" lon="3.202583966776729">
        <ele>3.98</ele>
        <time>2026-07-13T08:47:55Z</time>
      </trkpt>
      <trkpt lat="51.176007036119699" lon="3.202689997851849">
        <ele>3.02</ele>
        <time>2026-07-13T08:47:56Z</time>
      </trkpt>
      <trkpt lat="51.175874015316367" lon="3.202802985906601">
        <ele>2.54</ele>
        <time>2026-07-13T08:47:57Z</time>
      </trkpt>
      <trkpt lat="51.175731020048261" lon="3.202925026416779">
        <ele>2.06</ele>
        <time>2026-07-13T08:47:58Z</time>
      </trkpt>
      <trkpt lat="51.174416989088058" lon="3.204134032130241">
        <ele>-1.3</ele>
        <time>2026-07-13T08:48:06Z</time>
      </trkpt>
      <trkpt lat="51.172562995925546" lon="3.205861961469054">
        <ele>-1.3</ele>
        <time>2026-07-13T08:48:17Z</time>
      </trkpt>
      <trkpt lat="51.17083003744483" lon="3.207375984638929">
        <ele>2.54</ele>
        <time>2026-07-13T08:48:27Z</time>
      </trkpt>
      <trkpt lat="51.168170040473342" lon="3.209709003567696">
        <ele>9.75</ele>
        <time>2026-07-13T08:48:42Z</time>
      </trkpt>
      <trkpt lat="51.166342031210661" lon="3.211262002587318">
        <ele>11.19</ele>
        <time>2026-07-13T08:48:52Z</time>
      </trkpt>
      <trkpt lat="51.164044970646501" lon="3.212775019928813">
        <ele>12.630000000000001</ele>
        <time>2026-07-13T08:49:04Z</time>
      </trkpt>
      <trkpt lat="51.1617879755795" lon="3.21365000680089">
        <ele>8.310000000000001</ele>
        <time>2026-07-13T08:49:15Z</time>
      </trkpt>
      <trkpt lat="51.159741031005979" lon="3.213783027604222">
        <ele>7.83</ele>
        <time>2026-07-13T08:49:25Z</time>
      </trkpt>
      <trkpt lat="51.157925007864833" lon="3.213253039866686">
        <ele>9.27</ele>
        <time>2026-07-13T08:49:34Z</time>
      </trkpt>
      <trkpt lat="51.155894994735718" lon="3.212271016091108">
        <ele>10.710000000000001</ele>
        <time>2026-07-13T08:49:44Z</time>
      </trkpt>
      <trkpt lat="51.154623962938786" lon="3.211326040327549">
        <ele>10.710000000000001</ele>
        <time>2026-07-13T08:49:51Z</time>
      </trkpt>
      <trkpt lat="51.154501000419259" lon="3.211182961240411">
        <ele>10.710000000000001</ele>
        <time>2026-07-13T08:49:52Z</time>
      </trkpt>
      <trkpt lat="51.154407961294055" lon="3.210997972637415">
        <ele>10.710000000000001</ele>
        <time>2026-07-13T08:49:53Z</time>
      </trkpt>
      <trkpt lat="51.154356999322772" lon="3.210777025669813">
        <ele>10.23</ele>
        <time>2026-07-13T08:49:54Z</time>
      </trkpt>
      <trkpt lat="51.154321962967515" lon="3.210549959912896">
        <ele>10.23</ele>
        <time>2026-07-13T08:49:55Z</time>
      </trkpt>
      <trkpt lat="51.154307965189219" lon="3.21031803265214">
        <ele>10.23</ele>
        <time>2026-07-13T08:49:56Z</time>
      </trkpt>
      <trkpt lat="51.154345013201237" lon="3.210085015743971">
        <ele>9.75</ele>
        <time>2026-07-13T08:49:57Z</time>
      </trkpt>
      <trkpt lat="51.154381977394223" lon="3.209846969693899">
        <ele>9.27</ele>
        <time>2026-07-13T08:49:58Z</time>
      </trkpt>
      <trkpt lat="51.154451966285706" lon="3.209628034383059">
        <ele>9.27</ele>
        <time>2026-07-13T08:49:59Z</time>
      </trkpt>
      <trkpt lat="51.154563026502728" lon="3.209453020244837">
        <ele>8.789999999999999</ele>
        <time>2026-07-13T08:50:00Z</time>
      </trkpt>
      <trkpt lat="51.1546750087291" lon="3.209278006106615">
        <ele>8.310000000000001</ele>
        <time>2026-07-13T08:50:01Z</time>
      </trkpt>
      <trkpt lat="51.154827978461981" lon="3.209172980859876">
        <ele>7.83</ele>
        <time>2026-07-13T08:50:02Z</time>
      </trkpt>
      <trkpt lat="51.154986983165145" lon="3.209098968654871">
        <ele>7.35</ele>
        <time>2026-07-13T08:50:03Z</time>
      </trkpt>
      <trkpt lat="51.155145987868309" lon="3.209100980311632">
        <ele>7.35</ele>
        <time>2026-07-13T08:50:04Z</time>
      </trkpt>
      <trkpt lat="51.155304992571473" lon="3.209126964211464">
        <ele>6.87</ele>
        <time>2026-07-13T08:50:05Z</time>
      </trkpt>
      <trkpt lat="51.15544899366796" lon="3.209178010001779">
        <ele>6.39</ele>
        <time>2026-07-13T08:50:06Z</time>
      </trkpt>
      <trkpt lat="51.155580002814531" lon="3.209299966692925">
        <ele>5.91</ele>
        <time>2026-07-13T08:50:07Z</time>
      </trkpt>
      <trkpt lat="51.15570698864758" lon="3.20941898971796">
        <ele>5.91</ele>
        <time>2026-07-13T08:50:08Z</time>
      </trkpt>
      <trkpt lat="51.155788041651249" lon="3.209603978320956">
        <ele>5.42</ele>
        <time>2026-07-13T08:50:09Z</time>
      </trkpt>
      <trkpt lat="51.155866999179125" lon="3.209795001894236">
        <ele>4.94</ele>
        <time>2026-07-13T08:50:10Z</time>
      </trkpt>
      <trkpt lat="51.155945034697652" lon="3.209985019639134">
        <ele>4.94</ele>
        <time>2026-07-13T08:50:11Z</time>
      </trkpt>
      <trkpt lat="51.155976969748735" lon="3.210203032940626">
        <ele>4.46</ele>
        <time>2026-07-13T08:50:12Z</time>
      </trkpt>
      <trkpt lat="51.155986022204161" lon="3.210424985736609">
        <ele>4.46</ele>
        <time>2026-07-13T08:50:13Z</time>
      </trkpt>
      <trkpt lat="51.155978981405497" lon="3.210660014301539">
        <ele>3.98</ele>
        <time>2026-07-13T08:50:14Z</time>
      </trkpt>
      <trkpt lat="51.155936988070607" lon="3.210894959047437">
        <ele>3.98</ele>
        <time>2026-07-13T08:50:15Z</time>
      </trkpt>
      <trkpt lat="51.155866999179125" lon="3.211123030632734">
        <ele>3.5</ele>
        <time>2026-07-13T08:50:16Z</time>
      </trkpt>
      <trkpt lat="51.155789969488978" lon="3.211343977600336">
        <ele>3.5</ele>
        <time>2026-07-13T08:50:17Z</time>
      </trkpt>
      <trkpt lat="51.155700031667948" lon="3.211567020043731">
        <ele>3.02</ele>
        <time>2026-07-13T08:50:18Z</time>
      </trkpt>
      <trkpt lat="51.154830995947123" lon="3.213061010465026">
        <ele>6.87</ele>
        <time>2026-07-13T08:50:25Z</time>
      </trkpt>
      <trkpt lat="51.153614027425647" lon="3.215242987498641">
        <ele>5.42</ele>
        <time>2026-07-13T08:50:32Z</time>
      </trkpt>
      <trkpt lat="51.151974024251103" lon="3.218465996906161">
        <ele>3.5</ele>
        <time>2026-07-13T08:50:42Z</time>
      </trkpt>
      <trkpt lat="51.150443991646171" lon="3.221447020769119">
        <ele>1.58</ele>
        <time>2026-07-13T08:50:52Z</time>
      </trkpt>
      <trkpt lat="51.149095008149743" lon="3.224600963294506">
        <ele>2.06</ele>
        <time>2026-07-13T08:51:00Z</time>
      </trkpt>
      <trkpt lat="51.14756103605032" lon="3.229282004758716">
        <ele>7.35</ele>
        <time>2026-07-13T08:51:11Z</time>
      </trkpt>
      <trkpt lat="51.146089006215334" lon="3.234477024525404">
        <ele>5.91</ele>
        <time>2026-07-13T08:51:23Z</time>
      </trkpt>
      <trkpt lat="51.143950028344989" lon="3.242150992155075">
        <ele>1.58</ele>
        <time>2026-07-13T08:51:41Z</time>
      </trkpt>
      <trkpt lat="51.142409015446901" lon="3.247718000784516">
        <ele>0.14</ele>
        <time>2026-07-13T08:51:54Z</time>
      </trkpt>
      <trkpt lat="51.140973027795553" lon="3.252845965325832">
        <ele>-2.75</ele>
        <time>2026-07-13T08:52:06Z</time>
      </trkpt>
      <trkpt lat="51.140027968212962" lon="3.256287993863225">
        <ele>-2.75</ele>
        <time>2026-07-13T08:52:14Z</time>
      </trkpt>
      <trkpt lat="51.138586029410362" lon="3.261403972283006">
        <ele>0.14</ele>
        <time>2026-07-13T08:52:26Z</time>
      </trkpt>
      <trkpt lat="51.136673027649522" lon="3.268236983567476">
        <ele>-2.75</ele>
        <time>2026-07-13T08:52:42Z</time>
      </trkpt>
      <trkpt lat="51.134762037545443" lon="3.275066977366805">
        <ele>-1.79</ele>
        <time>2026-07-13T08:52:58Z</time>
      </trkpt>
      <trkpt lat="51.133088003844023" lon="3.281064983457327">
        <ele>2.06</ele>
        <time>2026-07-13T08:53:12Z</time>
      </trkpt>
      <trkpt lat="51.131066959351301" lon="3.288281969726086">
        <ele>1.58</ele>
        <time>2026-07-13T08:53:29Z</time>
      </trkpt>
      <trkpt lat="51.129037030041218" lon="3.295542038977146">
        <ele>2.54</ele>
        <time>2026-07-13T08:53:46Z</time>
      </trkpt>
      <trkpt lat="51.127364002168179" lon="3.301540967077017">
        <ele>3.98</ele>
        <time>2026-07-13T08:54:00Z</time>
      </trkpt>
      <trkpt lat="51.126295980066061" lon="3.305375017225742">
        <ele>3.02</ele>
        <time>2026-07-13T08:54:09Z</time>
      </trkpt>
      <trkpt lat="51.124154990538955" lon="3.313044039532542">
        <ele>3.5</ele>
        <time>2026-07-13T08:54:27Z</time>
      </trkpt>
      <trkpt lat="51.122825033962727" lon="3.317773025482893">
        <ele>5.42</ele>
        <time>2026-07-13T08:54:38Z</time>
      </trkpt>
      <trkpt lat="51.12126599997282" lon="3.323321007192135">
        <ele>4.94</ele>
        <time>2026-07-13T08:54:51Z</time>
      </trkpt>
      <trkpt lat="51.12008498981595" lon="3.327579014003277">
        <ele>1.1</ele>
        <time>2026-07-13T08:55:01Z</time>
      </trkpt>
      <trkpt lat="51.118651013821363" lon="3.332703961059451">
        <ele>1.58</ele>
        <time>2026-07-13T08:55:13Z</time>
      </trkpt>
      <trkpt lat="51.116849994286895" lon="3.33912399597466">
        <ele>5.42</ele>
        <time>2026-07-13T08:55:28Z</time>
      </trkpt>
      <trkpt lat="51.115779038518667" lon="3.342930972576141">
        <ele>5.42</ele>
        <time>2026-07-13T08:55:37Z</time>
      </trkpt>
      <trkpt lat="51.114103998988867" lon="3.348912969231606">
        <ele>5.91</ele>
        <time>2026-07-13T08:55:51Z</time>
      </trkpt>
      <trkpt lat="51.112780999392271" lon="3.353639021515846">
        <ele>5.91</ele>
        <time>2026-07-13T08:56:02Z</time>
      </trkpt>
      <trkpt lat="51.111534023657441" lon="3.357854029163718">
        <ele>4.94</ele>
        <time>2026-07-13T08:56:12Z</time>
      </trkpt>
      <trkpt lat="51.109695034101605" lon="3.362645963206887">
        <ele>7.35</ele>
        <time>2026-07-13T08:56:24Z</time>
      </trkpt>
      <trkpt lat="51.107967020943761" lon="3.367013018578291">
        <ele>9.75</ele>
        <time>2026-07-13T08:56:35Z</time>
      </trkpt>
      <trkpt lat="51.105932984501123" lon="3.372153975069523">
        <ele>12.630000000000001</ele>
        <time>2026-07-13T08:56:48Z</time>
      </trkpt>
      <trkpt lat="51.103449007496238" lon="3.378461021929979">
        <ele>13.6</ele>
        <time>2026-07-13T08:57:04Z</time>
      </trkpt>
      <trkpt lat="51.102183004841208" lon="3.381627034395933">
        <ele>17.440000000000001</ele>
        <time>2026-07-13T08:57:12Z</time>
      </trkpt>
      <trkpt lat="51.10044501721859" lon="3.385971039533615">
        <ele>17.440000000000001</ele>
        <time>2026-07-13T08:57:23Z</time>
      </trkpt>
      <trkpt lat="51.098873997107148" lon="3.389899972826242">
        <ele>17.920000000000002</ele>
        <time>2026-07-13T08:57:33Z</time>
      </trkpt>
      <trkpt lat="51.096805008128285" lon="3.395059034228325">
        <ele>13.6</ele>
        <time>2026-07-13T08:57:46Z</time>
      </trkpt>
      <trkpt lat="51.093642013147473" lon="3.402931988239288">
        <ele>10.710000000000001</ele>
        <time>2026-07-13T08:58:06Z</time>
      </trkpt>
      <trkpt lat="51.090982016175985" lon="3.409556038677692">
        <ele>9.75</ele>
        <time>2026-07-13T08:58:23Z</time>
      </trkpt>
      <trkpt lat="51.089246962219477" lon="3.41387297026813">
        <ele>8.789999999999999</ele>
        <time>2026-07-13T08:58:34Z</time>
      </trkpt>
      <trkpt lat="51.086398037150502" lon="3.420965988188982">
        <ele>8.789999999999999</ele>
        <time>2026-07-13T08:58:52Z</time>
      </trkpt>
      <trkpt lat="51.085132034495473" lon="3.424118002876639">
        <ele>7.83</ele>
        <time>2026-07-13T08:59:00Z</time>
      </trkpt>
      <trkpt lat="51.083067990839481" lon="3.429247979074717">
        <ele>13.6</ele>
        <time>2026-07-13T08:59:13Z</time>
      </trkpt>
      <trkpt lat="51.08052802272141" lon="3.435586960986257">
        <ele>13.119999999999999</ele>
        <time>2026-07-13T08:59:29Z</time>
      </trkpt>
      <trkpt lat="51.077573988586664" lon="3.443103013560176">
        <ele>13.6</ele>
        <time>2026-07-13T08:59:48Z</time>
      </trkpt>
      <trkpt lat="51.076095001772046" lon="3.447650028392673">
        <ele>17.440000000000001</ele>
        <time>2026-07-13T08:59:59Z</time>
      </trkpt>
      <trkpt lat="51.074585001915693" lon="3.453269004821777">
        <ele>15.039999999999999</ele>
        <time>2026-07-13T09:00:12Z</time>
      </trkpt>
      <trkpt lat="51.073694005608559" lon="3.457248983904719">
        <ele>11.19</ele>
        <time>2026-07-13T09:00:21Z</time>
      </trkpt>
      <trkpt lat="51.072520036250353" lon="3.462565038353205">
        <ele>8.789999999999999</ele>
        <time>2026-07-13T09:00:33Z</time>
      </trkpt>
      <trkpt lat="51.071067033335567" lon="3.469185987487435">
        <ele>5.42</ele>
        <time>2026-07-13T09:00:48Z</time>
      </trkpt>
      <trkpt lat="51.069693993777037" lon="3.475336963310838">
        <ele>4.94</ele>
        <time>2026-07-13T09:01:02Z</time>
      </trkpt>
      <trkpt lat="51.068621026352048" lon="3.480183966457844">
        <ele>5.42</ele>
        <time>2026-07-13T09:01:13Z</time>
      </trkpt>
      <trkpt lat="51.067257039248943" lon="3.486363021656871">
        <ele>4.94</ele>
        <time>2026-07-13T09:01:27Z</time>
      </trkpt>
      <trkpt lat="51.065977960824966" lon="3.492116024717689">
        <ele>3.02</ele>
        <time>2026-07-13T09:01:40Z</time>
      </trkpt>
      <trkpt lat="51.065390976145864" lon="3.494750959798694">
        <ele>3.5</ele>
        <time>2026-07-13T09:01:46Z</time>
      </trkpt>
      <trkpt lat="51.064235027879477" lon="3.500060979276896">
        <ele>3.02</ele>
        <time>2026-07-13T09:01:58Z</time>
      </trkpt>
      <trkpt lat="51.06286701746285" lon="3.507195990532637">
        <ele>2.06</ele>
        <time>2026-07-13T09:02:14Z</time>
      </trkpt>
      <trkpt lat="51.061847023665905" lon="3.51253098808229">
        <ele>2.54</ele>
        <time>2026-07-13T09:02:26Z</time>
      </trkpt>
      <trkpt lat="51.060480019077659" lon="3.519644038751721">
        <ele>1.58</ele>
        <time>2026-07-13T09:02:42Z</time>
      </trkpt>
      <trkpt lat="51.059274030849338" lon="3.525881012901664">
        <ele>1.58</ele>
        <time>2026-07-13T09:02:56Z</time>
      </trkpt>
      <trkpt lat="51.057820022106171" lon="3.533519022166729">
        <ele>3.02</ele>
        <time>2026-07-13T09:03:13Z</time>
      </trkpt>
      <trkpt lat="51.056450000032783" lon="3.540640035644174">
        <ele>1.1</ele>
        <time>2026-07-13T09:03:29Z</time>
      </trkpt>
      <trkpt lat="51.054900018498302" lon="3.54869001545012">
        <ele>2.54</ele>
        <time>2026-07-13T09:03:47Z</time>
      </trkpt>
      <trkpt lat="51.05354399420321" lon="3.555353041738272">
        <ele>3.02</ele>
        <time>2026-07-13T09:04:02Z</time>
      </trkpt>
      <trkpt lat="51.052315039560199" lon="3.561093974858522">
        <ele>3.02</ele>
        <time>2026-07-13T09:04:15Z</time>
      </trkpt>
      <trkpt lat="51.051270989701152" lon="3.565961010754108">
        <ele>7.35</ele>
        <time>2026-07-13T09:04:26Z</time>
      </trkpt>
      <trkpt lat="51.050001969560981" lon="3.571739997714758">
        <ele>4.94</ele>
        <time>2026-07-13T09:04:39Z</time>
      </trkpt>
      <trkpt lat="51.048662960529327" lon="3.577908994629979">
        <ele>1.58</ele>
        <time>2026-07-13T09:04:53Z</time>
      </trkpt>
      <trkpt lat="51.047223033383489" lon="3.5845270100981">
        <ele>1.1</ele>
        <time>2026-07-13T09:05:08Z</time>
      </trkpt>
      <trkpt lat="51.046063983812928" lon="3.589821020141244">
        <ele>1.58</ele>
        <time>2026-07-13T09:05:20Z</time>
      </trkpt>
      <trkpt lat="51.044528000056744" lon="3.596871038898826">
        <ele>1.1</ele>
        <time>2026-07-13T09:05:36Z</time>
      </trkpt>
      <trkpt lat="51.042728992179036" lon="3.605235004797578">
        <ele>2.06</ele>
        <time>2026-07-13T09:05:55Z</time>
      </trkpt>
      <trkpt lat="51.041678991168737" lon="3.610105980187655">
        <ele>2.06</ele>
        <time>2026-07-13T09:06:06Z</time>
      </trkpt>
      <trkpt lat="51.040710965171456" lon="3.614531960338354">
        <ele>1.1</ele>
        <time>2026-07-13T09:06:16Z</time>
      </trkpt>
      <trkpt lat="51.039510006085038" lon="3.619770985096693">
        <ele>1.1</ele>
        <time>2026-07-13T09:06:28Z</time>
      </trkpt>
      <trkpt lat="51.038787988945842" lon="3.622474987059832">
        <ele>1.58</ele>
        <time>2026-07-13T09:06:35Z</time>
      </trkpt>
      <trkpt lat="51.037820968776941" lon="3.625771002843976">
        <ele>2.06</ele>
        <time>2026-07-13T09:06:43Z</time>
      </trkpt>
      <trkpt lat="51.036467039957643" lon="3.630490014329553">
        <ele>3.98</ele>
        <time>2026-07-13T09:06:54Z</time>
      </trkpt>
      <trkpt lat="51.034876992926002" lon="3.636012012138963">
        <ele>6.39</ele>
        <time>2026-07-13T09:07:07Z</time>
      </trkpt>
      <trkpt lat="51.033078990876675" lon="3.64238703623414">
        <ele>7.83</ele>
        <time>2026-07-13T09:07:22Z</time>
      </trkpt>
      <trkpt lat="51.031614001840353" lon="3.647490022704005">
        <ele>14.08</ele>
        <time>2026-07-13T09:07:34Z</time>
      </trkpt>
      <trkpt lat="51.030153958126903" lon="3.652595020830631">
        <ele>12.15</ele>
        <time>2026-07-13T09:07:46Z</time>
      </trkpt>
      <trkpt lat="51.028208015486598" lon="3.659386960789561">
        <ele>6.87</ele>
        <time>2026-07-13T09:08:02Z</time>
      </trkpt>
      <trkpt lat="51.026750989258289" lon="3.664481984451413">
        <ele>7.83</ele>
        <time>2026-07-13T09:08:14Z</time>
      </trkpt>
      <trkpt lat="51.024933960288763" lon="3.670817026868463">
        <ele>12.630000000000001</ele>
        <time>2026-07-13T09:08:29Z</time>
      </trkpt>
      <trkpt lat="51.022977959364653" lon="3.677627993747592">
        <ele>13.6</ele>
        <time>2026-07-13T09:08:45Z</time>
      </trkpt>
      <trkpt lat="51.021290011703968" lon="3.683543018996716">
        <ele>16</ele>
        <time>2026-07-13T09:08:59Z</time>
      </trkpt>
      <trkpt lat="51.019595023244619" lon="3.690018961206079">
        <ele>14.08</ele>
        <time>2026-07-13T09:09:14Z</time>
      </trkpt>
      <trkpt lat="51.017774976789951" lon="3.69745496660471">
        <ele>5.91</ele>
        <time>2026-07-13T09:09:31Z</time>
      </trkpt>
      <trkpt lat="51.016604024916887" lon="3.702209014445543">
        <ele>4.46</ele>
        <time>2026-07-13T09:09:42Z</time>
      </trkpt>
      <trkpt lat="51.015220005065203" lon="3.707885993644595">
        <ele>4.46</ele>
        <time>2026-07-13T09:09:55Z</time>
      </trkpt>
      <trkpt lat="51.014401009306312" lon="3.711371021345258">
        <ele>5.42</ele>
        <time>2026-07-13T09:10:03Z</time>
      </trkpt>
      <trkpt lat="51.013000980019569" lon="3.717013970017433">
        <ele>3.98</ele>
        <time>2026-07-13T09:10:16Z</time>
      </trkpt>
      <trkpt lat="51.012057010084391" lon="3.721424024552107">
        <ele>7.35</ele>
        <time>2026-07-13T09:10:26Z</time>
      </trkpt>
      <trkpt lat="51.011122008785605" lon="3.72534298337996">
        <ele>12.15</ele>
        <time>2026-07-13T09:10:35Z</time>
      </trkpt>
      <trkpt lat="51.010127998888493" lon="3.72923000715673">
        <ele>14.08</ele>
        <time>2026-07-13T09:10:44Z</time>
      </trkpt>
      <trkpt lat="51.008784966543317" lon="3.73389202170074">
        <ele>14.56</ele>
        <time>2026-07-13T09:10:55Z</time>
      </trkpt>
      <trkpt lat="51.007085032761097" lon="3.739738985896111">
        <ele>11.67</ele>
        <time>2026-07-13T09:11:09Z</time>
      </trkpt>
      <trkpt lat="51.005920032039285" lon="3.743758024647832">
        <ele>12.15</ele>
        <time>2026-07-13T09:11:19Z</time>
      </trkpt>
      <trkpt lat="51.004513967782259" lon="3.748644003644586">
        <ele>12.15</ele>
        <time>2026-07-13T09:11:31Z</time>
      </trkpt>
      <trkpt lat="51.003068005666137" lon="3.75387598760426">
        <ele>15.039999999999999</ele>
        <time>2026-07-13T09:11:45Z</time>
      </trkpt>
      <trkpt lat="51.002269964665174" lon="3.757162028923631">
        <ele>14.56</ele>
        <time>2026-07-13T09:11:53Z</time>
      </trkpt>
      <trkpt lat="51.000789972022176" lon="3.76373503357172">
        <ele>15.039999999999999</ele>
        <time>2026-07-13T09:12:08Z</time>
      </trkpt>
      <trkpt lat="50.999416010454297" lon="3.769401032477617">
        <ele>17.440000000000001</ele>
        <time>2026-07-13T09:12:21Z</time>
      </trkpt>
      <trkpt lat="50.998528031632304" lon="3.772824034094811">
        <ele>20.809999999999999</ele>
        <time>2026-07-13T09:12:29Z</time>
      </trkpt>
      <trkpt lat="50.997354984283447" lon="3.777094027027488">
        <ele>27.530000000000001</ele>
        <time>2026-07-13T09:12:39Z</time>
      </trkpt>
      <trkpt lat="50.996163999661803" lon="3.781383968889713">
        <ele>29.940000000000001</ele>
        <time>2026-07-13T09:12:49Z</time>
      </trkpt>
      <trkpt lat="50.994312018156052" lon="3.787268986925483">
        <ele>29.460000000000001</ele>
        <time>2026-07-13T09:13:03Z</time>
      </trkpt>
      <trkpt lat="50.993317002430558" lon="3.7902279663831">
        <ele>29.940000000000001</ele>
        <time>2026-07-13T09:13:11Z</time>
      </trkpt>
      <trkpt lat="50.992026021704078" lon="3.794026980176568">
        <ele>28.98</ele>
        <time>2026-07-13T09:13:22Z</time>
      </trkpt>
      <trkpt lat="50.990634961053729" lon="3.798083988949657">
        <ele>28.02</ele>
        <time>2026-07-13T09:13:33Z</time>
      </trkpt>
      <trkpt lat="50.989335011690855" lon="3.801751993596554">
        <ele>25.609999999999999</ele>
        <time>2026-07-13T09:13:42Z</time>
      </trkpt>
      <trkpt lat="50.987646980211139" lon="3.806173028424382">
        <ele>20.32</ele>
        <time>2026-07-13T09:13:53Z</time>
      </trkpt>
      <trkpt lat="50.985878985375166" lon="3.810434974730015">
        <ele>14.08</ele>
        <time>2026-07-13T09:14:04Z</time>
      </trkpt>
      <trkpt lat="50.983491986989975" lon="3.815723033621907">
        <ele>15.52</ele>
        <time>2026-07-13T09:14:18Z</time>
      </trkpt>
      <trkpt lat="50.981157040223479" lon="3.820508010685444">
        <ele>18.399999999999999</ele>
        <time>2026-07-13T09:14:31Z</time>
      </trkpt>
      <trkpt lat="50.978764006868005" lon="3.825242025777698">
        <ele>19.84</ele>
        <time>2026-07-13T09:14:44Z</time>
      </trkpt>
      <trkpt lat="50.976224960759282" lon="3.830349035561085">
        <ele>25.129999999999999</ele>
        <time>2026-07-13T09:14:58Z</time>
      </trkpt>
      <trkpt lat="50.973480977118015" lon="3.835838008671999">
        <ele>29.940000000000001</ele>
        <time>2026-07-13T09:15:13Z</time>
      </trkpt>
      <trkpt lat="50.970377996563911" lon="3.842109013348818">
        <ele>29.460000000000001</ele>
        <time>2026-07-13T09:15:30Z</time>
      </trkpt>
      <trkpt lat="50.968219991773367" lon="3.846845040097833">
        <ele>27.050000000000001</ele>
        <time>2026-07-13T09:15:43Z</time>
      </trkpt>
      <trkpt lat="50.966993970796466" lon="3.849722966551781">
        <ele>23.690000000000001</ele>
        <time>2026-07-13T09:15:52Z</time>
      </trkpt>
      <trkpt lat="50.965701984241605" lon="3.852839022874832">
        <ele>20.809999999999999</ele>
        <time>2026-07-13T09:16:01Z</time>
      </trkpt>
      <trkpt lat="50.964083019644022" lon="3.856760999187827">
        <ele>24.649999999999999</ele>
        <time>2026-07-13T09:16:12Z</time>
      </trkpt>
      <trkpt lat="50.962599003687501" lon="3.860405031591654">
        <ele>31.379999999999999</ele>
        <time>2026-07-13T09:16:22Z</time>
      </trkpt>
      <trkpt lat="50.960885994136333" lon="3.864629007875919">
        <ele>33.299999999999997</ele>
        <time>2026-07-13T09:16:34Z</time>
      </trkpt>
      <trkpt lat="50.959165021777153" lon="3.868892965838313">
        <ele>28.98</ele>
        <time>2026-07-13T09:16:45Z</time>
      </trkpt>
      <trkpt lat="50.95662203617394" lon="3.875139998272061">
        <ele>27.530000000000001</ele>
        <time>2026-07-13T09:17:01Z</time>
      </trkpt>
      <trkpt lat="50.954410973936319" lon="3.880630983039737">
        <ele>28.02</ele>
        <time>2026-07-13T09:17:15Z</time>
      </trkpt>
      <trkpt lat="50.952021963894367" lon="3.88650300912559">
        <ele>31.379999999999999</ele>
        <time>2026-07-13T09:17:30Z</time>
      </trkpt>
      <trkpt lat="50.949638988822699" lon="3.892347039654851">
        <ele>39.549999999999997</ele>
        <time>2026-07-13T09:17:45Z</time>
      </trkpt>
      <trkpt lat="50.947558013722301" lon="3.897443991154432">
        <ele>44.359999999999999</ele>
        <time>2026-07-13T09:17:58Z</time>
      </trkpt>
      <trkpt lat="50.945325996726751" lon="3.902932964265347">
        <ele>47.240000000000002</ele>
        <time>2026-07-13T09:18:12Z</time>
      </trkpt>
      <trkpt lat="50.94343101605773" lon="3.90762297436595">
        <ele>53.490000000000002</ele>
        <time>2026-07-13T09:18:24Z</time>
      </trkpt>
      <trkpt lat="50.940413028001785" lon="3.915092004463077">
        <ele>57.82</ele>
        <time>2026-07-13T09:18:43Z</time>
      </trkpt>
      <trkpt lat="50.938161984086037" lon="3.920610984787345">
        <ele>48.68</ele>
        <time>2026-07-13T09:18:57Z</time>
      </trkpt>
      <trkpt lat="50.935628972947598" lon="3.92687201499939">
        <ele>44.359999999999999</ele>
        <time>2026-07-13T09:19:13Z</time>
      </trkpt>
      <trkpt lat="50.933871958404779" lon="3.931210990995169">
        <ele>39.549999999999997</ele>
        <time>2026-07-13T09:19:24Z</time>
      </trkpt>
      <trkpt lat="50.931710014119744" lon="3.936741035431624">
        <ele>34.259999999999998</ele>
        <time>2026-07-13T09:19:38Z</time>
      </trkpt>
      <trkpt lat="50.930630005896091" lon="3.940530996769667">
        <ele>32.82</ele>
        <time>2026-07-13T09:19:47Z</time>
      </trkpt>
      <trkpt lat="50.929727023467422" lon="3.944927975535393">
        <ele>36.670000000000002</ele>
        <time>2026-07-13T09:19:57Z</time>
      </trkpt>
      <trkpt lat="50.928579038009048" lon="3.951714970171452">
        <ele>39.07</ele>
        <time>2026-07-13T09:20:12Z</time>
      </trkpt>
      <trkpt lat="50.927669014781713" lon="3.957092966884375">
        <ele>40.990000000000002</ele>
        <time>2026-07-13T09:20:24Z</time>
      </trkpt>
      <trkpt lat="50.926792016252875" lon="3.962548999115825">
        <ele>32.340000000000003</ele>
        <time>2026-07-13T09:20:36Z</time>
      </trkpt>
      <trkpt lat="50.926292035728693" lon="3.966666022315621">
        <ele>26.09</ele>
        <time>2026-07-13T09:20:45Z</time>
      </trkpt>
      <trkpt lat="50.92609497718513" lon="3.971766997128725">
        <ele>28.5</ele>
        <time>2026-07-13T09:20:56Z</time>
      </trkpt>
      <trkpt lat="50.926249958574772" lon="3.975450005382299">
        <ele>33.299999999999997</ele>
        <time>2026-07-13T09:21:04Z</time>
      </trkpt>
      <trkpt lat="50.92678003013134" lon="3.980008000507951">
        <ele>36.670000000000002</ele>
        <time>2026-07-13T09:21:14Z</time>
      </trkpt>
      <trkpt lat="50.927678989246488" lon="3.984924992546439">
        <ele>38.590000000000003</ele>
        <time>2026-07-13T09:21:25Z</time>
      </trkpt>
      <trkpt lat="50.928425984457135" lon="3.988976972177625">
        <ele>40.509999999999998</ele>
        <time>2026-07-13T09:21:34Z</time>
      </trkpt>
      <trkpt lat="50.929010035470128" lon="3.993524992838502">
        <ele>39.549999999999997</ele>
        <time>2026-07-13T09:21:44Z</time>
      </trkpt>
      <trkpt lat="50.929269958287477" lon="3.99865597486496">
        <ele>33.299999999999997</ele>
        <time>2026-07-13T09:21:55Z</time>
      </trkpt>
      <trkpt lat="50.929148001596332" lon="4.002869976684451">
        <ele>26.09</ele>
        <time>2026-07-13T09:22:04Z</time>
      </trkpt>
      <trkpt lat="50.929107014089823" lon="4.003329975530505">
        <ele>25.129999999999999</ele>
        <time>2026-07-13T09:22:05Z</time>
      </trkpt>
      <trkpt lat="50.92850100249052" lon="4.008371019735932">
        <ele>20.32</ele>
        <time>2026-07-13T09:22:16Z</time>
      </trkpt>
      <trkpt lat="50.927593996748328" lon="4.012798005715013">
        <ele>18.399999999999999</ele>
        <time>2026-07-13T09:22:26Z</time>
      </trkpt>
      <trkpt lat="50.926328999921679" lon="4.016972025856376">
        <ele>16</ele>
        <time>2026-07-13T09:22:36Z</time>
      </trkpt>
      <trkpt lat="50.924581959843636" lon="4.021269008517265">
        <ele>16</ele>
        <time>2026-07-13T09:22:47Z</time>
      </trkpt>
      <trkpt lat="50.922696031630039" lon="4.024814972653985">
        <ele>15.52</ele>
        <time>2026-07-13T09:22:57Z</time>
      </trkpt>
      <trkpt lat="50.922494027763605" lon="4.025145974010229">
        <ele>15.039999999999999</ele>
        <time>2026-07-13T09:22:58Z</time>
      </trkpt>
      <trkpt lat="50.920834997668862" lon="4.027801025658846">
        <ele>15.039999999999999</ele>
        <time>2026-07-13T09:23:06Z</time>
      </trkpt>
      <trkpt lat="50.918639022856951" lon="4.031560979783535">
        <ele>16</ele>
        <time>2026-07-13T09:23:17Z</time>
      </trkpt>
      <trkpt lat="50.917256008833647" lon="4.034589026123285">
        <ele>16.48</ele>
        <time>2026-07-13T09:23:25Z</time>
      </trkpt>
      <trkpt lat="50.916049014776945" lon="4.037786973640323">
        <ele>16.48</ele>
        <time>2026-07-13T09:23:33Z</time>
      </trkpt>
      <trkpt lat="50.915918005630374" lon="4.038215959444642">
        <ele>16</ele>
        <time>2026-07-13T09:23:34Z</time>
      </trkpt>
      <trkpt lat="50.914775971323252" lon="4.042499028146267">
        <ele>14.56</ele>
        <time>2026-07-13T09:23:44Z</time>
      </trkpt>
      <trkpt lat="50.91382403858006" lon="4.047883981838822">
        <ele>15.039999999999999</ele>
        <time>2026-07-13T09:23:56Z</time>
      </trkpt>
      <trkpt lat="50.913307964801788" lon="4.051093999296427">
        <ele>13.6</ele>
        <time>2026-07-13T09:24:03Z</time>
      </trkpt>
      <trkpt lat="50.912226028740406" lon="4.05784604139626">
        <ele>14.08</ele>
        <time>2026-07-13T09:24:18Z</time>
      </trkpt>
      <trkpt lat="50.910907974466681" lon="4.06354296952486">
        <ele>12.15</ele>
        <time>2026-07-13T09:24:31Z</time>
      </trkpt>
      <trkpt lat="50.909429993480444" lon="4.068100964650512">
        <ele>13.119999999999999</ele>
        <time>2026-07-13T09:24:42Z</time>
      </trkpt>
      <trkpt lat="50.907482961192727" lon="4.07387500628829">
        <ele>15.039999999999999</ele>
        <time>2026-07-13T09:24:56Z</time>
      </trkpt>
      <trkpt lat="50.905971033498645" lon="4.078376004472375">
        <ele>19.84</ele>
        <time>2026-07-13T09:25:07Z</time>
      </trkpt>
      <trkpt lat="50.904045961797237" lon="4.084108974784613">
        <ele>29.940000000000001</ele>
        <time>2026-07-13T09:25:21Z</time>
      </trkpt>
      <trkpt lat="50.903052035719156" lon="4.087094021961093">
        <ele>33.299999999999997</ele>
        <time>2026-07-13T09:25:29Z</time>
      </trkpt>
      <trkpt lat="50.901683019474149" lon="4.091180032119155">
        <ele>38.109999999999999</ele>
        <time>2026-07-13T09:25:41Z</time>
      </trkpt>
      <trkpt lat="50.900384997949004" lon="4.095035959035158">
        <ele>40.030000000000001</ele>
        <time>2026-07-13T09:25:52Z</time>
      </trkpt>
      <trkpt lat="50.89895898476243" lon="4.099243003875017">
        <ele>41.469999999999999</ele>
        <time>2026-07-13T09:26:04Z</time>
      </trkpt>
      <trkpt lat="50.897473962977529" lon="4.103664038702846">
        <ele>37.630000000000003</ele>
        <time>2026-07-13T09:26:17Z</time>
      </trkpt>
      <trkpt lat="50.896469978615642" lon="4.10666199401021">
        <ele>35.710000000000001</ele>
        <time>2026-07-13T09:26:25Z</time>
      </trkpt>
      <trkpt lat="50.894683040678501" lon="4.112020041793585">
        <ele>28.98</ele>
        <time>2026-07-13T09:26:38Z</time>
      </trkpt>
      <trkpt lat="50.892680017277598" lon="4.118228014558554">
        <ele>18.399999999999999</ele>
        <time>2026-07-13T09:26:53Z</time>
      </trkpt>
      <trkpt lat="50.890962984412909" lon="4.124675961211324">
        <ele>13.119999999999999</ele>
        <time>2026-07-13T09:27:08Z</time>
      </trkpt>
      <trkpt lat="50.889206975698471" lon="4.131546020507813">
        <ele>13.6</ele>
        <time>2026-07-13T09:27:24Z</time>
      </trkpt>
      <trkpt lat="50.887659005820751" lon="4.137602029368281">
        <ele>13.119999999999999</ele>
        <time>2026-07-13T09:27:38Z</time>
      </trkpt>
      <trkpt lat="50.886019002646208" lon="4.144055005162954">
        <ele>13.119999999999999</ele>
        <time>2026-07-13T09:27:53Z</time>
      </trkpt>
      <trkpt lat="50.884935976937413" lon="4.14887904189527">
        <ele>14.56</ele>
        <time>2026-07-13T09:28:04Z</time>
      </trkpt>
      <trkpt lat="50.884054033085704" lon="4.154801024124026">
        <ele>13.6</ele>
        <time>2026-07-13T09:28:17Z</time>
      </trkpt>
      <trkpt lat="50.883138980716467" lon="4.16159899905324">
        <ele>18.879999999999999</ele>
        <time>2026-07-13T09:28:32Z</time>
      </trkpt>
      <trkpt lat="50.882497010752559" lon="4.166593020781875">
        <ele>25.609999999999999</ele>
        <time>2026-07-13T09:28:43Z</time>
      </trkpt>
      <trkpt lat="50.881753033027053" lon="4.172096997499466">
        <ele>24.649999999999999</ele>
        <time>2026-07-13T09:28:55Z</time>
      </trkpt>
      <trkpt lat="50.881093963980675" lon="4.177100993692875">
        <ele>20.32</ele>
        <time>2026-07-13T09:29:06Z</time>
      </trkpt>
      <trkpt lat="50.880597000941634" lon="4.181680027395487">
        <ele>22.73</ele>
        <time>2026-07-13T09:29:16Z</time>
      </trkpt>
      <trkpt lat="50.880444031208754" lon="4.183805007487536">
        <ele>25.129999999999999</ele>
        <time>2026-07-13T09:29:21Z</time>
      </trkpt>
      <trkpt lat="50.880387034267187" lon="4.188761981204152">
        <ele>33.780000000000001</ele>
        <time>2026-07-13T09:29:33Z</time>
      </trkpt>
      <trkpt lat="50.880689034238458" lon="4.193531032651663">
        <ele>37.149999999999999</ele>
        <time>2026-07-13T09:29:44Z</time>
      </trkpt>
      <trkpt lat="50.88123201392591" lon="4.198064971715212">
        <ele>33.780000000000001</ele>
        <time>2026-07-13T09:29:54Z</time>
      </trkpt>
      <trkpt lat="50.882268017157912" lon="4.205832984298468">
        <ele>38.109999999999999</ele>
        <time>2026-07-13T09:30:11Z</time>
      </trkpt>
      <trkpt lat="50.882931025698781" lon="4.210823988541961">
        <ele>40.509999999999998</ele>
        <time>2026-07-13T09:30:22Z</time>
      </trkpt>
      <trkpt lat="50.883547011762857" lon="4.215863021090627">
        <ele>48.200000000000003</ele>
        <time>2026-07-13T09:30:33Z</time>
      </trkpt>
      <trkpt lat="50.883770976215601" lon="4.219577964395285">
        <ele>52.049999999999997</ele>
        <time>2026-07-13T09:30:41Z</time>
      </trkpt>
      <trkpt lat="50.883724959567189" lon="4.223291985690594">
        <ele>49.159999999999997</ele>
        <time>2026-07-13T09:30:49Z</time>
      </trkpt>
      <trkpt lat="50.883383983746171" lon="4.227441027760506">
        <ele>50.609999999999999</ele>
        <time>2026-07-13T09:30:58Z</time>
      </trkpt>
      <trkpt lat="50.88286698795855" lon="4.232236985117197">
        <ele>53.490000000000002</ele>
        <time>2026-07-13T09:31:09Z</time>
      </trkpt>
      <trkpt lat="50.882389973849058" lon="4.236656008288264">
        <ele>55.409999999999997</ele>
        <time>2026-07-13T09:31:20Z</time>
      </trkpt>
      <trkpt lat="50.881898961961269" lon="4.241263959556818">
        <ele>61.18</ele>
        <time>2026-07-13T09:31:31Z</time>
      </trkpt>
      <trkpt lat="50.881366040557623" lon="4.246173994615674">
        <ele>67.909999999999997</ele>
        <time>2026-07-13T09:31:43Z</time>
      </trkpt>
      <trkpt lat="50.881022969260812" lon="4.249360961839557">
        <ele>68.870000000000005</ele>
        <time>2026-07-13T09:31:51Z</time>
      </trkpt>
      <trkpt lat="50.880678975954652" lon="4.252429995685816">
        <ele>67.909999999999997</ele>
        <time>2026-07-13T09:32:00Z</time>
      </trkpt>
      <trkpt lat="50.880186036229134" lon="4.255978977307677">
        <ele>63.100000000000001</ele>
        <time>2026-07-13T09:32:11Z</time>
      </trkpt>
      <trkpt lat="50.879367040470243" lon="4.260156014934182">
        <ele>54.450000000000003</ele>
        <time>2026-07-13T09:32:25Z</time>
      </trkpt>
      <trkpt lat="50.878821965306997" lon="4.262989014387131">
        <ele>48.68</ele>
        <time>2026-07-13T09:32:34Z</time>
      </trkpt>
      <trkpt lat="50.878130961209536" lon="4.266486028209329">
        <ele>41.469999999999999</ele>
        <time>2026-07-13T09:32:44Z</time>
      </trkpt>
      <trkpt lat="50.877696024253964" lon="4.268545964732766">
        <ele>38.109999999999999</ele>
        <time>2026-07-13T09:32:51Z</time>
      </trkpt>
      <trkpt lat="50.876927990466356" lon="4.270603973418474">
        <ele>37.630000000000003</ele>
        <time>2026-07-13T09:32:59Z</time>
      </trkpt>
      <trkpt lat="50.876131961122155" lon="4.271767968311906">
        <ele>39.07</ele>
        <time>2026-07-13T09:33:05Z</time>
      </trkpt>
      <trkpt lat="50.875458978116512" lon="4.272523010149598">
        <ele>41.950000000000003</ele>
        <time>2026-07-13T09:33:10Z</time>
      </trkpt>
      <trkpt lat="50.87519695982337" lon="4.272865997627378">
        <ele>42.439999999999998</ele>
        <time>2026-07-13T09:33:12Z</time>
      </trkpt>
      <trkpt lat="50.87511096149683" lon="4.273027013987303">
        <ele>41.950000000000003</ele>
        <time>2026-07-13T09:33:13Z</time>
      </trkpt>
      <trkpt lat="50.874881967902184" lon="4.27366697229445">
        <ele>42.920000000000002</ele>
        <time>2026-07-13T09:33:16Z</time>
      </trkpt>
      <trkpt lat="50.874812984839082" lon="4.273886997252703">
        <ele>43.399999999999999</ele>
        <time>2026-07-13T09:33:17Z</time>
      </trkpt>
      <trkpt lat="50.87476696819067" lon="4.274132000282407">
        <ele>43.880000000000003</ele>
        <time>2026-07-13T09:33:18Z</time>
      </trkpt>
      <trkpt lat="50.874734027311206" lon="4.274383960291743">
        <ele>44.840000000000003</ele>
        <time>2026-07-13T09:33:19Z</time>
      </trkpt>
      <trkpt lat="50.874732015654445" lon="4.274642961099744">
        <ele>45.32</ele>
        <time>2026-07-13T09:33:20Z</time>
      </trkpt>
      <trkpt lat="50.874741990119219" lon="4.274897016584873">
        <ele>46.280000000000001</ele>
        <time>2026-07-13T09:33:21Z</time>
      </trkpt>
      <trkpt lat="50.874773003160954" lon="4.27514998242259">
        <ele>46.759999999999998</ele>
        <time>2026-07-13T09:33:22Z</time>
      </trkpt>
      <trkpt lat="50.874820025637746" lon="4.275399008765817">
        <ele>47.719999999999999</ele>
        <time>2026-07-13T09:33:23Z</time>
      </trkpt>
      <trkpt lat="50.874884985387325" lon="4.275628002360463">
        <ele>48.200000000000003</ele>
        <time>2026-07-13T09:33:24Z</time>
      </trkpt>
      <trkpt lat="50.87495899759233" lon="4.275859007611871">
        <ele>48.68</ele>
        <time>2026-07-13T09:33:25Z</time>
      </trkpt>
      <trkpt lat="50.875036027282476" lon="4.27605296485126">
        <ele>48.68</ele>
        <time>2026-07-13T09:33:26Z</time>
      </trkpt>
      <trkpt lat="50.875141974538565" lon="4.276229990646243">
        <ele>48.68</ele>
        <time>2026-07-13T09:33:27Z</time>
      </trkpt>
      <trkpt lat="50.875265020877123" lon="4.276398969814181">
        <ele>48.200000000000003</ele>
        <time>2026-07-13T09:33:28Z</time>
      </trkpt>
      <trkpt lat="50.87540902197361" lon="4.27656501531601">
        <ele>48.200000000000003</ele>
        <time>2026-07-13T09:33:29Z</time>
      </trkpt>
      <trkpt lat="50.875556962564588" lon="4.276702981442213">
        <ele>47.719999999999999</ele>
        <time>2026-07-13T09:33:30Z</time>
      </trkpt>
      <trkpt lat="50.875716973096132" lon="4.276804989203811">
        <ele>47.240000000000002</ele>
        <time>2026-07-13T09:33:31Z</time>
      </trkpt>
      <trkpt lat="50.875885030254722" lon="4.276885036379099">
        <ele>46.280000000000001</ele>
        <time>2026-07-13T09:33:32Z</time>
      </trkpt>
      <trkpt lat="50.876046968623996" lon="4.276962988078594">
        <ele>45.799999999999997</ele>
        <time>2026-07-13T09:33:33Z</time>
      </trkpt>
      <trkpt lat="50.877052964642644" lon="4.277440002188087">
        <ele>42.439999999999998</ele>
        <time>2026-07-13T09:33:41Z</time>
      </trkpt>
      <trkpt lat="50.877480022609234" lon="4.27761803381145">
        <ele>41.950000000000003</ele>
        <time>2026-07-13T09:33:46Z</time>
      </trkpt>
      <trkpt lat="50.878248978406191" lon="4.278348013758659">
        <ele>40.990000000000002</ele>
        <time>2026-07-13T09:33:57Z</time>
      </trkpt>
      <trkpt lat="50.878907041624188" lon="4.279374964535236">
        <ele>38.590000000000003</ele>
        <time>2026-07-13T09:34:08Z</time>
      </trkpt>
      <trkpt lat="50.879798037931323" lon="4.280908014625311">
        <ele>39.549999999999997</ele>
        <time>2026-07-13T09:34:23Z</time>
      </trkpt>
      <trkpt lat="50.880341017618775" lon="4.28187302313745">
        <ele>40.030000000000001</ele>
        <time>2026-07-13T09:34:33Z</time>
      </trkpt>
      <trkpt lat="50.881037972867489" lon="4.28301103413105">
        <ele>40.030000000000001</ele>
        <time>2026-07-13T09:34:46Z</time>
      </trkpt>
      <trkpt lat="50.881196977570653" lon="4.283270034939051">
        <ele>40.990000000000002</ele>
        <time>2026-07-13T09:34:50Z</time>
      </trkpt>
      <trkpt lat="50.881823021918535" lon="4.284233031794429">
        <ele>41.469999999999999</ele>
        <time>2026-07-13T09:35:01Z</time>
      </trkpt>
      <trkpt lat="50.882660038769245" lon="4.28535302169621">
        <ele>44.359999999999999</ele>
        <time>2026-07-13T09:35:13Z</time>
      </trkpt>
      <trkpt lat="50.883612977340817" lon="4.286561021581292">
        <ele>50.130000000000003</ele>
        <time>2026-07-13T09:35:25Z</time>
      </trkpt>
      <trkpt lat="50.88467001914978" lon="4.287901036441326">
        <ele>54.93</ele>
        <time>2026-07-13T09:35:38Z</time>
      </trkpt>
      <trkpt lat="50.88546303100884" lon="4.288935028016567">
        <ele>58.780000000000001</ele>
        <time>2026-07-13T09:35:48Z</time>
      </trkpt>
      <trkpt lat="50.886200973764062" lon="4.289918979629874">
        <ele>59.740000000000002</ele>
        <time>2026-07-13T09:35:58Z</time>
      </trkpt>
      <trkpt lat="50.887314006686211" lon="4.29137097671628">
        <ele>62.140000000000001</ele>
        <time>2026-07-13T09:36:09Z</time>
      </trkpt>
      <trkpt lat="50.888710012659431" lon="4.293294036760926">
        <ele>64.069999999999993</ele>
        <time>2026-07-13T09:36:21Z</time>
      </trkpt>
      <trkpt lat="50.889962017536163" lon="4.295629989355803">
        <ele>66.469999999999999</ele>
        <time>2026-07-13T09:36:31Z</time>
      </trkpt>
      <trkpt lat="50.890864999964833" lon="4.298358969390392">
        <ele>70.310000000000002</ele>
        <time>2026-07-13T09:36:40Z</time>
      </trkpt>
      <trkpt lat="50.891772005707026" lon="4.301851037889719">
        <ele>68.870000000000005</ele>
        <time>2026-07-13T09:36:50Z</time>
      </trkpt>
      <trkpt lat="50.892780013382435" lon="4.305730015039444">
        <ele>61.659999999999997</ele>
        <time>2026-07-13T09:37:01Z</time>
      </trkpt>
      <trkpt lat="50.893937973305583" lon="4.310192037373781">
        <ele>56.859999999999999</ele>
        <time>2026-07-13T09:37:14Z</time>
      </trkpt>
      <trkpt lat="50.89513398706913" lon="4.314676020294428">
        <ele>68.390000000000001</ele>
        <time>2026-07-13T09:37:27Z</time>
      </trkpt>
      <trkpt lat="50.896397978067398" lon="4.318342013284564">
        <ele>69.349999999999994</ele>
        <time>2026-07-13T09:37:38Z</time>
      </trkpt>
      <trkpt lat="50.898149041458964" lon="4.321572985500097">
        <ele>63.579999999999998</ele>
        <time>2026-07-13T09:37:49Z</time>
      </trkpt>
      <trkpt lat="50.899808993563056" lon="4.323827968910337">
        <ele>57.340000000000003</ele>
        <time>2026-07-13T09:37:58Z</time>
      </trkpt>
      <trkpt lat="50.902131032198668" lon="4.326429041102529">
        <ele>53.969999999999999</ele>
        <time>2026-07-13T09:38:10Z</time>
      </trkpt>
      <trkpt lat="50.903867008164525" lon="4.328638007864356">
        <ele>55.890000000000001</ele>
        <time>2026-07-13T09:38:20Z</time>
      </trkpt>
      <trkpt lat="50.906481994315982" lon="4.332506004720926">
        <ele>63.579999999999998</ele>
        <time>2026-07-13T09:38:36Z</time>
      </trkpt>
      <trkpt lat="50.907971039414406" lon="4.334735004231334">
        <ele>60.700000000000003</ele>
        <time>2026-07-13T09:38:46Z</time>
      </trkpt>
      <trkpt lat="50.909888986498117" lon="4.337607985362411">
        <ele>53.490000000000002</ele>
        <time>2026-07-13T09:39:01Z</time>
      </trkpt>
      <trkpt lat="50.912184035405517" lon="4.341078009456396">
        <ele>44.840000000000003</ele>
        <time>2026-07-13T09:39:19Z</time>
      </trkpt>
      <trkpt lat="50.913045024499297" lon="4.342449959367514">
        <ele>43.880000000000003</ele>
        <time>2026-07-13T09:39:27Z</time>
      </trkpt>
      <trkpt lat="50.913823032751679" lon="4.343919977545738">
        <ele>44.840000000000003</ele>
        <time>2026-07-13T09:39:36Z</time>
      </trkpt>
      <trkpt lat="50.914689972996712" lon="4.345806995406747">
        <ele>40.030000000000001</ele>
        <time>2026-07-13T09:39:47Z</time>
      </trkpt>
      <trkpt lat="50.915761012583971" lon="4.348637983202934">
        <ele>36.670000000000002</ele>
        <time>2026-07-13T09:40:03Z</time>
      </trkpt>
      <trkpt lat="50.916421003639698" lon="4.350867988541722">
        <ele>41.950000000000003</ele>
        <time>2026-07-13T09:40:15Z</time>
      </trkpt>
      <trkpt lat="50.916649997234344" lon="4.351863004267216">
        <ele>46.280000000000001</ele>
        <time>2026-07-13T09:40:22Z</time>
      </trkpt>
      <trkpt lat="50.917021986097097" lon="4.353485992178321">
        <ele>46.280000000000001</ele>
        <time>2026-07-13T09:40:35Z</time>
      </trkpt>
      <trkpt lat="50.917235976085067" lon="4.354735985398293">
        <ele>48.68</ele>
        <time>2026-07-13T09:40:45Z</time>
      </trkpt>
      <trkpt lat="50.91730697080493" lon="4.355191038921475">
        <ele>48.68</ele>
        <time>2026-07-13T09:40:49Z</time>
      </trkpt>
      <trkpt lat="50.917320968583226" lon="4.355302015319467">
        <ele>48.68</ele>
        <time>2026-07-13T09:40:50Z</time>
      </trkpt>
      <trkpt lat="50.917365979403257" lon="4.355669980868697">
        <ele>48.200000000000003</ele>
        <time>2026-07-13T09:40:54Z</time>
      </trkpt>
      <trkpt lat="50.917377965524793" lon="4.355758996680379">
        <ele>48.200000000000003</ele>
        <time>2026-07-13T09:40:55Z</time>
      </trkpt>
      <trkpt lat="50.917389029636979" lon="4.355852035805583">
        <ele>48.200000000000003</ele>
        <time>2026-07-13T09:40:56Z</time>
      </trkpt>
      <trkpt lat="50.917402021586895" lon="4.355950020253658">
        <ele>48.200000000000003</ele>
        <time>2026-07-13T09:40:57Z</time>
      </trkpt>
      <trkpt lat="50.91741400770843" lon="4.356046998873353">
        <ele>48.200000000000003</ele>
        <time>2026-07-13T09:40:58Z</time>
      </trkpt>
      <trkpt lat="50.917425993829966" lon="4.356143977493048">
        <ele>48.200000000000003</ele>
        <time>2026-07-13T09:40:59Z</time>
      </trkpt>
      <trkpt lat="50.917437979951501" lon="4.356240034103394">
        <ele>47.719999999999999</ele>
        <time>2026-07-13T09:41:00Z</time>
      </trkpt>
      <trkpt lat="50.917461030185223" lon="4.356422005221248">
        <ele>46.759999999999998</ele>
        <time>2026-07-13T09:41:02Z</time>
      </trkpt>
      <trkpt lat="50.917504029348493" lon="4.356769016012549">
        <ele>46.280000000000001</ele>
        <time>2026-07-13T09:41:06Z</time>
      </trkpt>
      <trkpt lat="50.917525989934802" lon="4.356943024322391">
        <ele>45.799999999999997</ele>
        <time>2026-07-13T09:41:08Z</time>
      </trkpt>
      <trkpt lat="50.917533030733466" lon="4.357002032920718">
        <ele>45.32</ele>
        <time>2026-07-13T09:41:09Z</time>
      </trkpt>
      <trkpt lat="50.917545016855001" lon="4.357113009318709">
        <ele>45.32</ele>
        <time>2026-07-13T09:41:10Z</time>
      </trkpt>
      <trkpt lat="50.917553985491395" lon="4.357205964624882">
        <ele>45.32</ele>
        <time>2026-07-13T09:41:11Z</time>
      </trkpt>
      <trkpt lat="50.91756496578455" lon="4.357303027063608">
        <ele>44.840000000000003</ele>
        <time>2026-07-13T09:41:12Z</time>
      </trkpt>
      <trkpt lat="50.917656999081373" lon="4.358492000028491">
        <ele>48.200000000000003</ele>
        <time>2026-07-13T09:41:21Z</time>
      </trkpt>
      <trkpt lat="50.91771500185132" lon="4.359512999653816">
        <ele>50.609999999999999</ele>
        <time>2026-07-13T09:41:29Z</time>
      </trkpt>
      <trkpt lat="50.917752971872687" lon="4.360483037307859">
        <ele>54.450000000000003</ele>
        <time>2026-07-13T09:41:39Z</time>
      </trkpt>
      <trkpt lat="50.917753977701068" lon="4.360549002885819">
        <ele>54.450000000000003</ele>
        <time>2026-07-13T09:41:40Z</time>
      </trkpt>
      <trkpt lat="50.917754983529449" lon="4.360622009262443">
        <ele>54.93</ele>
        <time>2026-07-13T09:41:41Z</time>
      </trkpt>
      <trkpt lat="50.917755989357829" lon="4.36070398427546">
        <ele>55.409999999999997</ele>
        <time>2026-07-13T09:41:42Z</time>
      </trkpt>
      <trkpt lat="50.91775800101459" lon="4.360798029229045">
        <ele>55.409999999999997</ele>
        <time>2026-07-13T09:41:43Z</time>
      </trkpt>
      <trkpt lat="50.917768981307745" lon="4.361809976398945">
        <ele>55.890000000000001</ele>
        <time>2026-07-13T09:41:53Z</time>
      </trkpt>
      <trkpt lat="50.917747020721436" lon="4.362882021814585">
        <ele>55.409999999999997</ele>
        <time>2026-07-13T09:42:00Z</time>
      </trkpt>
      <trkpt lat="50.917688012123108" lon="4.364559995010495">
        <ele>55.409999999999997</ele>
        <time>2026-07-13T09:42:11Z</time>
      </trkpt>
      <trkpt lat="50.917595978826284" lon="4.365834966301918">
        <ele>53.490000000000002</ele>
        <time>2026-07-13T09:42:19Z</time>
      </trkpt>
      <trkpt lat="50.917583992704749" lon="4.366005035117269">
        <ele>53.490000000000002</ele>
        <time>2026-07-13T09:42:20Z</time>
      </trkpt>
      <trkpt lat="50.917396992444992" lon="4.367821980267763">
        <ele>50.609999999999999</ele>
        <time>2026-07-13T09:42:29Z</time>
      </trkpt>
      <trkpt lat="50.91700698249042" lon="4.370653973892331">
        <ele>44.359999999999999</ele>
        <time>2026-07-13T09:42:42Z</time>
      </trkpt>
      <trkpt lat="50.916454028338194" lon="4.373641032725573">
        <ele>43.399999999999999</ele>
        <time>2026-07-13T09:42:56Z</time>
      </trkpt>
      <trkpt lat="50.91597500257194" lon="4.375952007248998">
        <ele>42.920000000000002</ele>
        <time>2026-07-13T09:43:08Z</time>
      </trkpt>
      <trkpt lat="50.915513997897506" lon="4.378018984571099">
        <ele>43.399999999999999</ele>
        <time>2026-07-13T09:43:21Z</time>
      </trkpt>
      <trkpt lat="50.915234964340925" lon="4.3792640324682">
        <ele>42.920000000000002</ele>
        <time>2026-07-13T09:43:31Z</time>
      </trkpt>
      <trkpt lat="50.914799021556973" lon="4.381089024245739">
        <ele>43.399999999999999</ele>
        <time>2026-07-13T09:43:43Z</time>
      </trkpt>
      <trkpt lat="50.914141964167356" lon="4.383807023987174">
        <ele>46.280000000000001</ele>
        <time>2026-07-13T09:43:58Z</time>
      </trkpt>
      <trkpt lat="50.913671990856528" lon="4.385771993547678">
        <ele>44.840000000000003</ele>
        <time>2026-07-13T09:44:10Z</time>
      </trkpt>
      <trkpt lat="50.913354987278581" lon="4.387117037549615">
        <ele>47.719999999999999</ele>
        <time>2026-07-13T09:44:22Z</time>
      </trkpt>
      <trkpt lat="50.913072014227509" lon="4.388322019949555">
        <ele>49.159999999999997</ele>
        <time>2026-07-13T09:44:32Z</time>
      </trkpt>
      <trkpt lat="50.91279499232769" lon="4.389496995136142">
        <ele>48.200000000000003</ele>
        <time>2026-07-13T09:44:43Z</time>
      </trkpt>
      <trkpt lat="50.91277102008462" lon="4.38960000872612">
        <ele>48.200000000000003</ele>
        <time>2026-07-13T09:44:44Z</time>
      </trkpt>
      <trkpt lat="50.912478994578123" lon="4.390989979729056">
        <ele>48.200000000000003</ele>
        <time>2026-07-13T09:44:56Z</time>
      </trkpt>
      <trkpt lat="50.91210599988699" lon="4.393225014209747">
        <ele>47.240000000000002</ele>
        <time>2026-07-13T09:45:13Z</time>
      </trkpt>
      <trkpt lat="50.911859991028905" lon="4.394922014325857">
        <ele>45.799999999999997</ele>
        <time>2026-07-13T09:45:25Z</time>
      </trkpt>
      <trkpt lat="50.911679025739431" lon="4.396685985848308">
        <ele>42.439999999999998</ele>
        <time>2026-07-13T09:45:36Z</time>
      </trkpt>
      <trkpt lat="50.911593027412891" lon="4.398522041738033">
        <ele>41.469999999999999</ele>
        <time>2026-07-13T09:45:46Z</time>
      </trkpt>
      <trkpt lat="50.911574000492692" lon="4.39972098916769">
        <ele>40.030000000000001</ele>
        <time>2026-07-13T09:45:52Z</time>
      </trkpt>
      <trkpt lat="50.911624962463975" lon="4.401918975636363">
        <ele>39.07</ele>
        <time>2026-07-13T09:46:04Z</time>
      </trkpt>
      <trkpt lat="50.911883963271976" lon="4.40453396178782">
        <ele>39.549999999999997</ele>
        <time>2026-07-13T09:46:18Z</time>
      </trkpt>
      <trkpt lat="50.912076998502016" lon="4.405839024111629">
        <ele>41.469999999999999</ele>
        <time>2026-07-13T09:46:27Z</time>
      </trkpt>
      <trkpt lat="50.912117986008525" lon="4.40608000382781">
        <ele>42.439999999999998</ele>
        <time>2026-07-13T09:46:30Z</time>
      </trkpt>
      <trkpt lat="50.912135001271963" lon="4.406177988275886">
        <ele>42.439999999999998</ele>
        <time>2026-07-13T09:46:31Z</time>
      </trkpt>
      <trkpt lat="50.912302974611521" lon="4.407151965424418">
        <ele>43.880000000000003</ele>
        <time>2026-07-13T09:46:40Z</time>
      </trkpt>
      <trkpt lat="50.912319989874959" lon="4.407251039519906">
        <ele>44.359999999999999</ele>
        <time>2026-07-13T09:46:41Z</time>
      </trkpt>
      <trkpt lat="50.912564992904663" lon="4.408412016928196">
        <ele>44.840000000000003</ele>
        <time>2026-07-13T09:46:50Z</time>
      </trkpt>
      <trkpt lat="50.913149965927005" lon="4.410953996703029">
        <ele>48.200000000000003</ele>
        <time>2026-07-13T09:47:03Z</time>
      </trkpt>
      <trkpt lat="50.913810040801764" lon="4.413864025846124">
        <ele>50.609999999999999</ele>
        <time>2026-07-13T09:47:19Z</time>
      </trkpt>
      <trkpt lat="50.914054038003087" lon="4.416217999532819">
        <ele>51.57</ele>
        <time>2026-07-13T09:47:31Z</time>
      </trkpt>
      <trkpt lat="50.913876006379724" lon="4.418889982625842">
        <ele>50.130000000000003</ele>
        <time>2026-07-13T09:47:44Z</time>
      </trkpt>
      <trkpt lat="50.913425981998444" lon="4.420866016298533">
        <ele>47.240000000000002</ele>
        <time>2026-07-13T09:47:55Z</time>
      </trkpt>
      <trkpt lat="50.91264302842319" lon="4.423116976395249">
        <ele>46.759999999999998</ele>
        <time>2026-07-13T09:48:09Z</time>
      </trkpt>
      <trkpt lat="50.911546004936099" lon="4.425779990851879">
        <ele>41.469999999999999</ele>
        <time>2026-07-13T09:48:26Z</time>
      </trkpt>
      <trkpt lat="50.910434983670712" lon="4.427710007876158">
        <ele>36.189999999999998</ele>
        <time>2026-07-13T09:48:39Z</time>
      </trkpt>
      <trkpt lat="50.909293033182621" lon="4.428942985832691">
        <ele>31.859999999999999</ele>
        <time>2026-07-13T09:48:49Z</time>
      </trkpt>
      <trkpt lat="50.907622016966343" lon="4.429944958537817">
        <ele>26.09</ele>
        <time>2026-07-13T09:49:02Z</time>
      </trkpt>
      <trkpt lat="50.906243026256561" lon="4.43059204146266">
        <ele>22.25</ele>
        <time>2026-07-13T09:49:13Z</time>
      </trkpt>
      <trkpt lat="50.90523200109601" lon="4.431196041405201">
        <ele>23.210000000000001</ele>
        <time>2026-07-13T09:49:19Z</time>
      </trkpt>
      <trkpt lat="50.903461994603276" lon="4.432697994634509">
        <ele>26.09</ele>
        <time>2026-07-13T09:49:30Z</time>
      </trkpt>
      <trkpt lat="50.902271009981632" lon="4.434126019477844">
        <ele>25.129999999999999</ele>
        <time>2026-07-13T09:49:37Z</time>
      </trkpt>
      <trkpt lat="50.90209499001503" lon="4.434368005022407">
        <ele>24.649999999999999</ele>
        <time>2026-07-13T09:49:38Z</time>
      </trkpt>
      <trkpt lat="50.900735026225448" lon="4.436681997030973">
        <ele>20.809999999999999</ele>
        <time>2026-07-13T09:49:47Z</time>
      </trkpt>
      <trkpt lat="50.899574970826507" lon="4.438945027068257">
        <ele>21.289999999999999</ele>
        <time>2026-07-13T09:49:56Z</time>
      </trkpt>
      <trkpt lat="50.898042004555464" lon="4.442328969016671">
        <ele>28.5</ele>
        <time>2026-07-13T09:50:10Z</time>
      </trkpt>
      <trkpt lat="50.897338008508086" lon="4.443922033533454">
        <ele>32.340000000000003</ele>
        <time>2026-07-13T09:50:17Z</time>
      </trkpt>
      <trkpt lat="50.897243963554502" lon="4.444134011864662">
        <ele>33.299999999999997</ele>
        <time>2026-07-13T09:50:18Z</time>
      </trkpt>
      <trkpt lat="50.895953988656402" lon="4.447385016828775">
        <ele>37.630000000000003</ele>
        <time>2026-07-13T09:50:32Z</time>
      </trkpt>
      <trkpt lat="50.894271992146969" lon="4.450957970693708">
        <ele>36.670000000000002</ele>
        <time>2026-07-13T09:50:48Z</time>
      </trkpt>
      <trkpt lat="50.892671970650554" lon="4.453061996027827">
        <ele>36.670000000000002</ele>
        <time>2026-07-13T09:51:00Z</time>
      </trkpt>
      <trkpt lat="50.891561033204198" lon="4.454010995104909">
        <ele>35.710000000000001</ele>
        <time>2026-07-13T09:51:08Z</time>
      </trkpt>
      <trkpt lat="50.890358984470367" lon="4.455035012215376">
        <ele>33.780000000000001</ele>
        <time>2026-07-13T09:51:17Z</time>
      </trkpt>
      <trkpt lat="50.890101995319128" lon="4.455279009416699">
        <ele>35.710000000000001</ele>
        <time>2026-07-13T09:51:19Z</time>
      </trkpt>
      <trkpt lat="50.888834986835718" lon="4.456462031230331">
        <ele>33.299999999999997</ele>
        <time>2026-07-13T09:51:29Z</time>
      </trkpt>
      <trkpt lat="50.887745004147291" lon="4.457499040290713">
        <ele>33.780000000000001</ele>
        <time>2026-07-13T09:51:37Z</time>
      </trkpt>
      <trkpt lat="50.887556998059154" lon="4.457681011408567">
        <ele>34.259999999999998</ele>
        <time>2026-07-13T09:51:38Z</time>
      </trkpt>
      <trkpt lat="50.887437975034118" lon="4.457786036655307">
        <ele>34.259999999999998</ele>
        <time>2026-07-13T09:51:39Z</time>
      </trkpt>
      <trkpt lat="50.885600997135043" lon="4.459500974044204">
        <ele>33.299999999999997</ele>
        <time>2026-07-13T09:51:50Z</time>
      </trkpt>
      <trkpt lat="50.884318985044956" lon="4.460129030048847">
        <ele>31.859999999999999</ele>
        <time>2026-07-13T09:51:57Z</time>
      </trkpt>
      <trkpt lat="50.8828229829669" lon="4.460362968966365">
        <ele>33.299999999999997</ele>
        <time>2026-07-13T09:52:06Z</time>
      </trkpt>
      <trkpt lat="50.880957003682852" lon="4.460697993636131">
        <ele>33.780000000000001</ele>
        <time>2026-07-13T09:52:17Z</time>
      </trkpt>
      <trkpt lat="50.87949201464653" lon="4.461578009650111">
        <ele>35.229999999999997</ele>
        <time>2026-07-13T09:52:26Z</time>
      </trkpt>
      <trkpt lat="50.877415984869003" lon="4.462978038936853">
        <ele>43.399999999999999</ele>
        <time>2026-07-13T09:52:39Z</time>
      </trkpt>
      <trkpt lat="50.875745974481106" lon="4.464007001370192">
        <ele>50.130000000000003</ele>
        <time>2026-07-13T09:52:49Z</time>
      </trkpt>
      <trkpt lat="50.873736999928951" lon="4.465293036773801">
        <ele>56.369999999999997</ele>
        <time>2026-07-13T09:52:59Z</time>
      </trkpt>
      <trkpt lat="50.872075036168098" lon="4.46645200252533">
        <ele>58.299999999999997</ele>
        <time>2026-07-13T09:53:07Z</time>
      </trkpt>
      <trkpt lat="50.871669016778469" lon="4.466619975864887">
        <ele>58.299999999999997</ele>
        <time>2026-07-13T09:53:09Z</time>
      </trkpt>
      <trkpt lat="50.871460977941751" lon="4.466683007776737">
        <ele>58.299999999999997</ele>
        <time>2026-07-13T09:53:10Z</time>
      </trkpt>
      <trkpt lat="50.871244976297021" lon="4.466718966141343">
        <ele>58.780000000000001</ele>
        <time>2026-07-13T09:53:11Z</time>
      </trkpt>
      <trkpt lat="50.871022017672658" lon="4.466728018596768">
        <ele>59.259999999999998</ele>
        <time>2026-07-13T09:53:12Z</time>
      </trkpt>
      <trkpt lat="50.870800986886024" lon="4.46673103608191">
        <ele>59.740000000000002</ele>
        <time>2026-07-13T09:53:13Z</time>
      </trkpt>
      <trkpt lat="50.870581967756152" lon="4.466660041362047">
        <ele>59.740000000000002</ele>
        <time>2026-07-13T09:53:14Z</time>
      </trkpt>
      <trkpt lat="50.870366971939802" lon="4.466589968651533">
        <ele>60.219999999999999</ele>
        <time>2026-07-13T09:53:15Z</time>
      </trkpt>
      <trkpt lat="50.870162034407258" lon="4.466524003073573">
        <ele>60.219999999999999</ele>
        <time>2026-07-13T09:53:16Z</time>
      </trkpt>
      <trkpt lat="50.869381008669734" lon="4.466215968132019">
        <ele>60.700000000000003</ele>
        <time>2026-07-13T09:53:21Z</time>
      </trkpt>
      <trkpt lat="50.868938025087118" lon="4.466114966198802">
        <ele>60.219999999999999</ele>
        <time>2026-07-13T09:53:26Z</time>
      </trkpt>
      <trkpt lat="50.868645999580622" lon="4.46615201421082">
        <ele>59.740000000000002</ele>
        <time>2026-07-13T09:53:29Z</time>
      </trkpt>
      <trkpt lat="50.868553966283798" lon="4.466179003939033">
        <ele>59.259999999999998</ele>
        <time>2026-07-13T09:53:30Z</time>
      </trkpt>
      <trkpt lat="50.868463022634387" lon="4.466214962303639">
        <ele>59.259999999999998</ele>
        <time>2026-07-13T09:53:31Z</time>
      </trkpt>
      <trkpt lat="50.868365960195661" lon="4.466258967295289">
        <ele>59.259999999999998</ele>
        <time>2026-07-13T09:53:32Z</time>
      </trkpt>
      <trkpt lat="50.868245009332895" lon="4.466329040005803">
        <ele>59.259999999999998</ele>
        <time>2026-07-13T09:53:33Z</time>
      </trkpt>
      <trkpt lat="50.868086004629731" lon="4.466440016403794">
        <ele>58.780000000000001</ele>
        <time>2026-07-13T09:53:35Z</time>
      </trkpt>
      <trkpt lat="50.867881989106536" lon="4.466627016663551">
        <ele>59.259999999999998</ele>
        <time>2026-07-13T09:53:38Z</time>
      </trkpt>
      <trkpt lat="50.867829015478492" lon="4.466679990291596">
        <ele>59.259999999999998</ele>
        <time>2026-07-13T09:53:39Z</time>
      </trkpt>
      <trkpt lat="50.867775036022067" lon="4.466746039688587">
        <ele>59.740000000000002</ele>
        <time>2026-07-13T09:53:40Z</time>
      </trkpt>
      <trkpt lat="50.867675961926579" lon="4.466907978057861">
        <ele>59.740000000000002</ele>
        <time>2026-07-13T09:53:42Z</time>
      </trkpt>
      <trkpt lat="50.867629023268819" lon="4.466986013576388">
        <ele>59.740000000000002</ele>
        <time>2026-07-13T09:53:43Z</time>
      </trkpt>
      <trkpt lat="50.867587029933929" lon="4.46705399081111">
        <ele>59.740000000000002</ele>
        <time>2026-07-13T09:53:44Z</time>
      </trkpt>
      <trkpt lat="50.867484016343951" lon="4.467235039919615">
        <ele>60.219999999999999</ele>
        <time>2026-07-13T09:53:47Z</time>
      </trkpt>
      <trkpt lat="50.867389971390367" lon="4.467494962736964">
        <ele>61.18</ele>
        <time>2026-07-13T09:53:50Z</time>
      </trkpt>
      <trkpt lat="50.867354013025761" lon="4.467593031004071">
        <ele>61.659999999999997</ele>
        <time>2026-07-13T09:53:51Z</time>
      </trkpt>
      <trkpt lat="50.867321994155645" lon="4.467681040987372">
        <ele>62.140000000000001</ele>
        <time>2026-07-13T09:53:52Z</time>
      </trkpt>
      <trkpt lat="50.867235995829105" lon="4.468094017356634">
        <ele>64.549999999999997</ele>
        <time>2026-07-13T09:53:59Z</time>
      </trkpt>
      <trkpt lat="50.867215041071177" lon="4.468195019289851">
        <ele>64.549999999999997</ele>
        <time>2026-07-13T09:54:00Z</time>
      </trkpt>
      <trkpt lat="50.867210011929274" lon="4.468327034264803">
        <ele>65.030000000000001</ele>
        <time>2026-07-13T09:54:03Z</time>
      </trkpt>
      <trkpt lat="50.867206994444132" lon="4.468400040641427">
        <ele>65.030000000000001</ele>
        <time>2026-07-13T09:54:04Z</time>
      </trkpt>
      <trkpt lat="50.86720397695899" lon="4.468474974855781">
        <ele>65.030000000000001</ele>
        <time>2026-07-13T09:54:05Z</time>
      </trkpt>
      <trkpt lat="50.867201965302229" lon="4.468553010374308">
        <ele>65.030000000000001</ele>
        <time>2026-07-13T09:54:06Z</time>
      </trkpt>
      <trkpt lat="50.867198025807738" lon="4.468638002872467">
        <ele>65.510000000000005</ele>
        <time>2026-07-13T09:54:07Z</time>
      </trkpt>
      <trkpt lat="50.867195008322597" lon="4.468736993148923">
        <ele>65.510000000000005</ele>
        <time>2026-07-13T09:54:08Z</time>
      </trkpt>
      <trkpt lat="50.867200037464499" lon="4.468844030052424">
        <ele>65.030000000000001</ele>
        <time>2026-07-13T09:54:09Z</time>
      </trkpt>
      <trkpt lat="50.867241024971008" lon="4.469285001978278">
        <ele>64.069999999999993</ele>
        <time>2026-07-13T09:54:12Z</time>
      </trkpt>
      <trkpt lat="50.867258040234447" lon="4.469461021944881">
        <ele>64.069999999999993</ele>
        <time>2026-07-13T09:54:13Z</time>
      </trkpt>
      <trkpt lat="50.867304978892207" lon="4.469649028033018">
        <ele>64.549999999999997</ele>
        <time>2026-07-13T09:54:14Z</time>
      </trkpt>
      <trkpt lat="50.867354013025761" lon="4.469846002757549">
        <ele>65.030000000000001</ele>
        <time>2026-07-13T09:54:15Z</time>
      </trkpt>
      <trkpt lat="50.867407992482185" lon="4.470048006623983">
        <ele>65.030000000000001</ele>
        <time>2026-07-13T09:54:16Z</time>
      </trkpt>
      <trkpt lat="50.867475969716907" lon="4.470242969691753">
        <ele>65.510000000000005</ele>
        <time>2026-07-13T09:54:17Z</time>
      </trkpt>
      <trkpt lat="50.868287002667785" lon="4.471866963431239">
        <ele>67.430000000000007</ele>
        <time>2026-07-13T09:54:25Z</time>
      </trkpt>
      <trkpt lat="50.868696039542556" lon="4.472806993871927">
        <ele>67.430000000000007</ele>
        <time>2026-07-13T09:54:29Z</time>
      </trkpt>
      <trkpt lat="50.868784971535206" lon="4.473074963316321">
        <ele>67.430000000000007</ele>
        <time>2026-07-13T09:54:30Z</time>
      </trkpt>
      <trkpt lat="50.868828976526856" lon="4.473376963287592">
        <ele>67.430000000000007</ele>
        <time>2026-07-13T09:54:31Z</time>
      </trkpt>
      <trkpt lat="50.869055958464742" lon="4.476022040471435">
        <ele>66.469999999999999</ele>
        <time>2026-07-13T09:54:39Z</time>
      </trkpt>
      <trkpt lat="50.86926500312984" lon="4.479790963232517">
        <ele>66.950000000000003</ele>
        <time>2026-07-13T09:54:50Z</time>
      </trkpt>
      <trkpt lat="50.869317976757884" lon="4.484841981902719">
        <ele>66.469999999999999</ele>
        <time>2026-07-13T09:55:04Z</time>
      </trkpt>
      <trkpt lat="50.869317976757884" lon="4.488073959946632">
        <ele>65.510000000000005</ele>
        <time>2026-07-13T09:55:13Z</time>
      </trkpt>
      <trkpt lat="50.869296016171575" lon="4.492027033120394">
        <ele>66.950000000000003</ele>
        <time>2026-07-13T09:55:24Z</time>
      </trkpt>
      <trkpt lat="50.869296016171575" lon="4.495946997776628">
        <ele>68.870000000000005</ele>
        <time>2026-07-13T09:55:34Z</time>
      </trkpt>
      <trkpt lat="50.869296016171575" lon="4.499785993248224">
        <ele>69.349999999999994</ele>
        <time>2026-07-13T09:55:43Z</time>
      </trkpt>
      <trkpt lat="50.869296016171575" lon="4.50418003834784">
        <ele>67.430000000000007</ele>
        <time>2026-07-13T09:55:53Z</time>
      </trkpt>
      <trkpt lat="50.869296016171575" lon="4.509948967024684">
        <ele>66.469999999999999</ele>
        <time>2026-07-13T09:56:06Z</time>
      </trkpt>
      <trkpt lat="50.869296016171575" lon="4.514802005141974">
        <ele>66.950000000000003</ele>
        <time>2026-07-13T09:56:17Z</time>
      </trkpt>
      <trkpt lat="50.869276989251375" lon="4.520367002114654">
        <ele>71.269999999999996</ele>
        <time>2026-07-13T09:56:29Z</time>
      </trkpt>
      <trkpt lat="50.869286963716149" lon="4.525511981919408">
        <ele>77.519999999999996</ele>
        <time>2026-07-13T09:56:40Z</time>
      </trkpt>
      <trkpt lat="50.869274977594614" lon="4.531102040782571">
        <ele>82.329999999999998</ele>
        <time>2026-07-13T09:56:52Z</time>
      </trkpt>
      <trkpt lat="50.869261985644698" lon="4.537632968276739">
        <ele>85.209999999999994</ele>
        <time>2026-07-13T09:57:06Z</time>
      </trkpt>
      <trkpt lat="50.869242958724499" lon="4.544161967933178">
        <ele>81.849999999999994</ele>
        <time>2026-07-13T09:57:20Z</time>
      </trkpt>
      <trkpt lat="50.869175987318158" lon="4.549780022352934">
        <ele>78.480000000000004</ele>
        <time>2026-07-13T09:57:32Z</time>
      </trkpt>
      <trkpt lat="50.868888990953565" lon="4.556340035051107">
        <ele>75.120000000000005</ele>
        <time>2026-07-13T09:57:46Z</time>
      </trkpt>
      <trkpt lat="50.868442989885807" lon="4.561887010931969">
        <ele>76.079999999999998</ele>
        <time>2026-07-13T09:57:58Z</time>
      </trkpt>
      <trkpt lat="50.867788027971983" lon="4.567880993708968">
        <ele>79.930000000000007</ele>
        <time>2026-07-13T09:58:11Z</time>
      </trkpt>
      <trkpt lat="50.867109009996057" lon="4.572866968810558">
        <ele>82.329999999999998</ele>
        <time>2026-07-13T09:58:22Z</time>
      </trkpt>
      <trkpt lat="50.86617099121213" lon="4.578760033473373">
        <ele>82.810000000000002</ele>
        <time>2026-07-13T09:58:35Z</time>
      </trkpt>
      <trkpt lat="50.865445034578443" lon="4.583176039159298">
        <ele>78</ele>
        <time>2026-07-13T09:58:45Z</time>
      </trkpt>
      <trkpt lat="50.864698039367795" lon="4.587617022916675">
        <ele>74.159999999999997</ele>
        <time>2026-07-13T09:58:56Z</time>
      </trkpt>
      <trkpt lat="50.864094039425254" lon="4.591244040057063">
        <ele>66.950000000000003</ele>
        <time>2026-07-13T09:59:05Z</time>
      </trkpt>
      <trkpt lat="50.863303961232305" lon="4.595934972167015">
        <ele>61.18</ele>
        <time>2026-07-13T09:59:17Z</time>
      </trkpt>
      <trkpt lat="50.862464010715485" lon="4.601103002205491">
        <ele>55.890000000000001</ele>
        <time>2026-07-13T09:59:32Z</time>
      </trkpt>
      <trkpt lat="50.861747022718191" lon="4.605522025376558">
        <ele>51.57</ele>
        <time>2026-07-13T09:59:45Z</time>
      </trkpt>
      <trkpt lat="50.861203037202358" lon="4.609422041103244">
        <ele>46.759999999999998</ele>
        <time>2026-07-13T09:59:58Z</time>
      </trkpt>
      <trkpt lat="50.860829036682844" lon="4.612310025840998">
        <ele>44.359999999999999</ele>
        <time>2026-07-13T10:00:08Z</time>
      </trkpt>
      <trkpt lat="50.86028203368187" lon="4.616258991882205">
        <ele>44.359999999999999</ele>
        <time>2026-07-13T10:00:22Z</time>
      </trkpt>
      <trkpt lat="50.859821029007435" lon="4.619748964905739">
        <ele>45.799999999999997</ele>
        <time>2026-07-13T10:00:34Z</time>
      </trkpt>
      <trkpt lat="50.859332028776407" lon="4.623340023681521">
        <ele>50.609999999999999</ele>
        <time>2026-07-13T10:00:45Z</time>
      </trkpt>
      <trkpt lat="50.85893196053803" lon="4.626380978152156">
        <ele>54.450000000000003</ele>
        <time>2026-07-13T10:00:55Z</time>
      </trkpt>
      <trkpt lat="50.858346987515688" lon="4.630648959428072">
        <ele>58.780000000000001</ele>
        <time>2026-07-13T10:01:09Z</time>
      </trkpt>
      <trkpt lat="50.85787802003324" lon="4.634138010442257">
        <ele>60.219999999999999</ele>
        <time>2026-07-13T10:01:21Z</time>
      </trkpt>
      <trkpt lat="50.857381979003549" lon="4.63777500204742">
        <ele>62.140000000000001</ele>
        <time>2026-07-13T10:01:34Z</time>
      </trkpt>
      <trkpt lat="50.856707990169525" lon="4.642338026314974">
        <ele>58.780000000000001</ele>
        <time>2026-07-13T10:01:49Z</time>
      </trkpt>
      <trkpt lat="50.855970969423652" lon="4.646380031481385">
        <ele>50.609999999999999</ele>
        <time>2026-07-13T10:02:03Z</time>
      </trkpt>
      <trkpt lat="50.855189021676779" lon="4.649896994233131">
        <ele>41.950000000000003</ele>
        <time>2026-07-13T10:02:16Z</time>
      </trkpt>
      <trkpt lat="50.854389974847436" lon="4.653108017519116">
        <ele>37.630000000000003</ele>
        <time>2026-07-13T10:02:27Z</time>
      </trkpt>
      <trkpt lat="50.85345396772027" lon="4.656825978308916">
        <ele>32.340000000000003</ele>
        <time>2026-07-13T10:02:36Z</time>
      </trkpt>
      <trkpt lat="50.851816982030869" lon="4.663297981023789">
        <ele>28.02</ele>
        <time>2026-07-13T10:02:51Z</time>
      </trkpt>
      <trkpt lat="50.850527007132769" lon="4.668399961665273">
        <ele>32.82</ele>
        <time>2026-07-13T10:03:03Z</time>
      </trkpt>
      <trkpt lat="50.849228985607624" lon="4.673513006418943">
        <ele>42.920000000000002</ele>
        <time>2026-07-13T10:03:15Z</time>
      </trkpt>
      <trkpt lat="50.848003970459104" lon="4.678667960688472">
        <ele>50.130000000000003</ele>
        <time>2026-07-13T10:03:27Z</time>
      </trkpt>
      <trkpt lat="50.847009960561991" lon="4.683976974338293">
        <ele>55.409999999999997</ele>
        <time>2026-07-13T10:03:39Z</time>
      </trkpt>
      <trkpt lat="50.846303030848503" lon="4.68989996239543">
        <ele>56.859999999999999</ele>
        <time>2026-07-13T10:03:52Z</time>
      </trkpt>
      <trkpt lat="50.845882007852197" lon="4.696350004523993">
        <ele>58.780000000000001</ele>
        <time>2026-07-13T10:04:06Z</time>
      </trkpt>
      <trkpt lat="50.845565004274249" lon="4.701874013990164">
        <ele>60.700000000000003</ele>
        <time>2026-07-13T10:04:18Z</time>
      </trkpt>
      <trkpt lat="50.845253029838204" lon="4.707401962950826">
        <ele>62.140000000000001</ele>
        <time>2026-07-13T10:04:30Z</time>
      </trkpt>
      <trkpt lat="50.844996962696314" lon="4.711965993046761">
        <ele>61.18</ele>
        <time>2026-07-13T10:04:40Z</time>
      </trkpt>
      <trkpt lat="50.844609970226884" lon="4.71892599016428">
        <ele>61.18</ele>
        <time>2026-07-13T10:04:55Z</time>
      </trkpt>
      <trkpt lat="50.844188025221229" lon="4.726419998332858">
        <ele>64.069999999999993</ele>
        <time>2026-07-13T10:05:11Z</time>
      </trkpt>
      <trkpt lat="50.843958025798202" lon="4.730174001306295">
        <ele>63.579999999999998</ele>
        <time>2026-07-13T10:05:19Z</time>
      </trkpt>
      <trkpt lat="50.843510013073683" lon="4.735763976350427">
        <ele>63.100000000000001</ele>
        <time>2026-07-13T10:05:31Z</time>
      </trkpt>
      <trkpt lat="50.842957980930805" lon="4.739899020642042">
        <ele>62.619999999999997</ele>
        <time>2026-07-13T10:05:40Z</time>
      </trkpt>
      <trkpt lat="50.842163963243365" lon="4.744422985240817">
        <ele>60.700000000000003</ele>
        <time>2026-07-13T10:05:50Z</time>
      </trkpt>
      <trkpt lat="50.841335998848081" lon="4.748415034264326">
        <ele>58.780000000000001</ele>
        <time>2026-07-13T10:05:59Z</time>
      </trkpt>
      <trkpt lat="50.839949967339635" lon="4.754609009250999">
        <ele>57.340000000000003</ele>
        <time>2026-07-13T10:06:13Z</time>
      </trkpt>
      <trkpt lat="50.838462011888623" lon="4.761259965598583">
        <ele>56.369999999999997</ele>
        <time>2026-07-13T10:06:28Z</time>
      </trkpt>
      <trkpt lat="50.836884034797549" lon="4.768314007669687">
        <ele>60.700000000000003</ele>
        <time>2026-07-13T10:06:44Z</time>
      </trkpt>
      <trkpt lat="50.835601016879082" lon="4.774041026830673">
        <ele>65.510000000000005</ele>
        <time>2026-07-13T10:06:57Z</time>
      </trkpt>
      <trkpt lat="50.833719028159976" lon="4.782418990507722">
        <ele>74.159999999999997</ele>
        <time>2026-07-13T10:07:16Z</time>
      </trkpt>
      <trkpt lat="50.831831004470587" lon="4.790831990540028">
        <ele>83.769999999999996</ele>
        <time>2026-07-13T10:07:35Z</time>
      </trkpt>
      <trkpt lat="50.830436004325747" lon="4.797040969133377">
        <ele>89.060000000000002</ele>
        <time>2026-07-13T10:07:49Z</time>
      </trkpt>
      <trkpt lat="50.829047961160541" lon="4.803229998797178">
        <ele>87.140000000000001</ele>
        <time>2026-07-13T10:08:03Z</time>
      </trkpt>
      <trkpt lat="50.827747005969286" lon="4.809001022949815">
        <ele>84.730000000000004</ele>
        <time>2026-07-13T10:08:16Z</time>
      </trkpt>
      <trkpt lat="50.826457031071186" lon="4.814760982990265">
        <ele>82.329999999999998</ele>
        <time>2026-07-13T10:08:29Z</time>
      </trkpt>
      <trkpt lat="50.825062030926347" lon="4.820940038189292">
        <ele>77.519999999999996</ele>
        <time>2026-07-13T10:08:43Z</time>
      </trkpt>
      <trkpt lat="50.823679016903043" lon="4.827119009569287">
        <ele>76.560000000000002</ele>
        <time>2026-07-13T10:08:57Z</time>
      </trkpt>
      <trkpt lat="50.822591967880726" lon="4.831956038251519">
        <ele>78.480000000000004</ele>
        <time>2026-07-13T10:09:08Z</time>
      </trkpt>
      <trkpt lat="50.821071993559599" lon="4.838067032396793">
        <ele>80.409999999999997</ele>
        <time>2026-07-13T10:09:22Z</time>
      </trkpt>
      <trkpt lat="50.819367030635476" lon="4.843556005507708">
        <ele>81.849999999999994</ele>
        <time>2026-07-13T10:09:35Z</time>
      </trkpt>
      <trkpt lat="50.817067958414555" lon="4.849601034075022">
        <ele>80.409999999999997</ele>
        <time>2026-07-13T10:09:50Z</time>
      </trkpt>
      <trkpt lat="50.814810041338205" lon="4.854558007791638">
        <ele>81.370000000000005</ele>
        <time>2026-07-13T10:10:03Z</time>
      </trkpt>
      <trkpt lat="50.81245799548924" lon="4.859395958483219">
        <ele>79.450000000000003</ele>
        <time>2026-07-13T10:10:16Z</time>
      </trkpt>
      <trkpt lat="50.809896988794208" lon="4.864629032090306">
        <ele>76.079999999999998</ele>
        <time>2026-07-13T10:10:30Z</time>
      </trkpt>
      <trkpt lat="50.808083983138204" lon="4.868335006758571">
        <ele>73.680000000000007</ele>
        <time>2026-07-13T10:10:40Z</time>
      </trkpt>
      <trkpt lat="50.805533034726977" lon="4.873514017090201">
        <ele>69.829999999999998</ele>
        <time>2026-07-13T10:10:54Z</time>
      </trkpt>
      <trkpt lat="50.802652006968856" lon="4.879360981285572">
        <ele>66.469999999999999</ele>
        <time>2026-07-13T10:11:10Z</time>
      </trkpt>
      <trkpt lat="50.799983963370323" lon="4.884803015738726">
        <ele>68.870000000000005</ele>
        <time>2026-07-13T10:11:25Z</time>
      </trkpt>
      <trkpt lat="50.796940997242928" lon="4.890974024310708">
        <ele>75.120000000000005</ele>
        <time>2026-07-13T10:11:42Z</time>
      </trkpt>
      <trkpt lat="50.795149030163884" lon="4.894606992602348">
        <ele>76.560000000000002</ele>
        <time>2026-07-13T10:11:52Z</time>
      </trkpt>
      <trkpt lat="50.792633034288883" lon="4.899711990728974">
        <ele>74.159999999999997</ele>
        <time>2026-07-13T10:12:06Z</time>
      </trkpt>
      <trkpt lat="50.789751000702381" lon="4.905558032914996">
        <ele>66.469999999999999</ele>
        <time>2026-07-13T10:12:22Z</time>
      </trkpt>
      <trkpt lat="50.787413036450744" lon="4.910295987501741">
        <ele>58.299999999999997</ele>
        <time>2026-07-13T10:12:35Z</time>
      </trkpt>
      <trkpt lat="50.78478598035872" lon="4.915209040045738">
        <ele>57.340000000000003</ele>
        <time>2026-07-13T10:12:49Z</time>
      </trkpt>
      <trkpt lat="50.782820004969835" lon="4.918601028621197">
        <ele>58.780000000000001</ele>
        <time>2026-07-13T10:12:59Z</time>
      </trkpt>
      <trkpt lat="50.780525961890817" lon="4.922165013849735">
        <ele>62.140000000000001</ele>
        <time>2026-07-13T10:13:10Z</time>
      </trkpt>
      <trkpt lat="50.777651974931359" lon="4.926038961857557">
        <ele>67.909999999999997</ele>
        <time>2026-07-13T10:13:23Z</time>
      </trkpt>
      <trkpt lat="50.77483800239861" lon="4.929334977641702">
        <ele>72.239999999999995</ele>
        <time>2026-07-13T10:13:35Z</time>
      </trkpt>
      <trkpt lat="50.772186974063516" lon="4.932196978479624">
        <ele>77.040000000000006</ele>
        <time>2026-07-13T10:13:46Z</time>
      </trkpt>
      <trkpt lat="50.768775036558509" lon="4.935748977586627">
        <ele>79.450000000000003</ele>
        <time>2026-07-13T10:14:00Z</time>
      </trkpt>
      <trkpt lat="50.76512798666954" lon="4.939544973894954">
        <ele>84.25</ele>
        <time>2026-07-13T10:14:15Z</time>
      </trkpt>
      <trkpt lat="50.761469034478068" lon="4.943352034315467">
        <ele>90.019999999999996</ele>
        <time>2026-07-13T10:14:30Z</time>
      </trkpt>
      <trkpt lat="50.758774001151323" lon="4.946171035990119">
        <ele>89.540000000000006</ele>
        <time>2026-07-13T10:14:41Z</time>
      </trkpt>
      <trkpt lat="50.757060991600156" lon="4.947959985584021">
        <ele>88.099999999999994</ele>
        <time>2026-07-13T10:14:48Z</time>
      </trkpt>
      <trkpt lat="50.754615990445018" lon="4.95049299672246">
        <ele>83.769999999999996</ele>
        <time>2026-07-13T10:14:58Z</time>
      </trkpt>
      <trkpt lat="50.75096701271832" lon="4.954291004687548">
        <ele>77.040000000000006</ele>
        <time>2026-07-13T10:15:13Z</time>
      </trkpt>
      <trkpt lat="50.747069008648396" lon="4.958321023732424">
        <ele>76.560000000000002</ele>
        <time>2026-07-13T10:15:29Z</time>
      </trkpt>
      <trkpt lat="50.744870016351342" lon="4.960625963285565">
        <ele>78.969999999999999</ele>
        <time>2026-07-13T10:15:38Z</time>
      </trkpt>
      <trkpt lat="50.741684976965189" lon="4.963930025696755">
        <ele>75.599999999999994</ele>
        <time>2026-07-13T10:15:51Z</time>
      </trkpt>
      <trkpt lat="50.741437962278724" lon="4.964182991534472">
        <ele>75.599999999999994</ele>
        <time>2026-07-13T10:15:52Z</time>
      </trkpt>
      <trkpt lat="50.7411939650774" lon="4.964436963200569">
        <ele>77.040000000000006</ele>
        <time>2026-07-13T10:15:53Z</time>
      </trkpt>
      <trkpt lat="50.738244038075209" lon="4.967504991218448">
        <ele>74.159999999999997</ele>
        <time>2026-07-13T10:16:05Z</time>
      </trkpt>
      <trkpt lat="50.734420968219638" lon="4.971638023853302">
        <ele>76.079999999999998</ele>
        <time>2026-07-13T10:16:21Z</time>
      </trkpt>
      <trkpt lat="50.731886029243469" lon="4.974730024114251">
        <ele>84.25</ele>
        <time>2026-07-13T10:16:32Z</time>
      </trkpt>
      <trkpt lat="50.728684980422258" lon="4.979440988972783">
        <ele>82.329999999999998</ele>
        <time>2026-07-13T10:16:47Z</time>
      </trkpt>
      <trkpt lat="50.726170996204019" lon="4.98394601047039">
        <ele>78.480000000000004</ele>
        <time>2026-07-13T10:17:00Z</time>
      </trkpt>
      <trkpt lat="50.724114999175072" lon="4.988452959805727">
        <ele>81.370000000000005</ele>
        <time>2026-07-13T10:17:12Z</time>
      </trkpt>
      <trkpt lat="50.72183302603662" lon="4.994524978101254">
        <ele>78</ele>
        <time>2026-07-13T10:17:27Z</time>
      </trkpt>
      <trkpt lat="50.720014991238713" lon="5.000909976661205">
        <ele>73.680000000000007</ele>
        <time>2026-07-13T10:17:42Z</time>
      </trkpt>
      <trkpt lat="50.718908999115229" lon="5.00620499253273">
        <ele>81.370000000000005</ele>
        <time>2026-07-13T10:17:54Z</time>
      </trkpt>
      <trkpt lat="50.717981038615108" lon="5.012589991092682">
        <ele>91.939999999999998</ele>
        <time>2026-07-13T10:18:08Z</time>
      </trkpt>
      <trkpt lat="50.717452978715301" lon="5.019136006012559">
        <ele>92.420000000000002</ele>
        <time>2026-07-13T10:18:22Z</time>
      </trkpt>
      <trkpt lat="50.717239994555712" lon="5.025646984577179">
        <ele>92.900000000000006</ele>
        <time>2026-07-13T10:18:36Z</time>
      </trkpt>
      <trkpt lat="50.717139998450875" lon="5.031697964295745">
        <ele>101.56</ele>
        <time>2026-07-13T10:18:49Z</time>
      </trkpt>
      <trkpt lat="50.717016030102968" lon="5.03869098611176">
        <ele>108.77</ele>
        <time>2026-07-13T10:19:04Z</time>
      </trkpt>
      <trkpt lat="50.716783013194799" lon="5.046628983691335">
        <ele>107.31999999999999</ele>
        <time>2026-07-13T10:19:21Z</time>
      </trkpt>
      <trkpt lat="50.716255959123373" lon="5.055043995380402">
        <ele>106.36</ele>
        <time>2026-07-13T10:19:39Z</time>
      </trkpt>
      <trkpt lat="50.715762013569474" lon="5.060108006000519">
        <ele>106.36</ele>
        <time>2026-07-13T10:19:50Z</time>
      </trkpt>
      <trkpt lat="50.714908987283707" lon="5.066974963992834">
        <ele>111.17</ele>
        <time>2026-07-13T10:20:05Z</time>
      </trkpt>
      <trkpt lat="50.713685983791947" lon="5.074679022654891">
        <ele>119.81999999999999</ele>
        <time>2026-07-13T10:20:22Z</time>
      </trkpt>
      <trkpt lat="50.71240397170186" lon="5.08191897533834">
        <ele>123.19</ele>
        <time>2026-07-13T10:20:38Z</time>
      </trkpt>
      <trkpt lat="50.711121959611773" lon="5.08913897909224">
        <ele>121.26000000000001</ele>
        <time>2026-07-13T10:20:54Z</time>
      </trkpt>
      <trkpt lat="50.710177989676595" lon="5.094427037984133">
        <ele>122.70999999999999</ele>
        <time>2026-07-13T10:21:06Z</time>
      </trkpt>
      <trkpt lat="50.708982981741428" lon="5.101070031523705">
        <ele>126.55</ele>
        <time>2026-07-13T10:21:21Z</time>
      </trkpt>
      <trkpt lat="50.707967011258006" lon="5.106833009049296">
        <ele>127.51000000000001</ele>
        <time>2026-07-13T10:21:34Z</time>
      </trkpt>
      <trkpt lat="50.706544015556574" lon="5.114816017448902">
        <ele>127.51000000000001</ele>
        <time>2026-07-13T10:21:52Z</time>
      </trkpt>
      <trkpt lat="50.705674979835749" lon="5.119693027809262">
        <ele>127.03</ele>
        <time>2026-07-13T10:22:03Z</time>
      </trkpt>
      <trkpt lat="50.70473100990057" lon="5.124998018145561">
        <ele>129.43000000000001</ele>
        <time>2026-07-13T10:22:15Z</time>
      </trkpt>
      <trkpt lat="50.703629963099957" lon="5.131194004788995">
        <ele>133.75999999999999</ele>
        <time>2026-07-13T10:22:29Z</time>
      </trkpt>
      <trkpt lat="50.702676018700004" lon="5.136525984853506">
        <ele>135.68000000000001</ele>
        <time>2026-07-13T10:22:41Z</time>
      </trkpt>
      <trkpt lat="50.701758032664657" lon="5.141846984624863">
        <ele>138.56999999999999</ele>
        <time>2026-07-13T10:22:53Z</time>
      </trkpt>
      <trkpt lat="50.70107800886035" lon="5.146304983645678">
        <ele>139.53</ele>
        <time>2026-07-13T10:23:03Z</time>
      </trkpt>
      <trkpt lat="50.700368983671069" lon="5.152178015559912">
        <ele>140.49000000000001</ele>
        <time>2026-07-13T10:23:16Z</time>
      </trkpt>
      <trkpt lat="50.699852993711829" lon="5.158131010830402">
        <ele>142.88999999999999</ele>
        <time>2026-07-13T10:23:29Z</time>
      </trkpt>
      <trkpt lat="50.699507994577289" lon="5.165534997358918">
        <ele>136.16</ele>
        <time>2026-07-13T10:23:45Z</time>
      </trkpt>
      <trkpt lat="50.699453009292483" lon="5.173020958900452">
        <ele>131.36000000000001</ele>
        <time>2026-07-13T10:24:01Z</time>
      </trkpt>
      <trkpt lat="50.699687032029033" lon="5.179992020130158">
        <ele>130.88</ele>
        <time>2026-07-13T10:24:16Z</time>
      </trkpt>
      <trkpt lat="50.700060026720166" lon="5.185311008244753">
        <ele>131.36000000000001</ele>
        <time>2026-07-13T10:24:28Z</time>
      </trkpt>
      <trkpt lat="50.700432015582919" lon="5.18932200036943">
        <ele>132.31999999999999</ele>
        <time>2026-07-13T10:24:39Z</time>
      </trkpt>
      <trkpt lat="50.701094018295407" lon="5.194882974028587">
        <ele>128.94999999999999</ele>
        <time>2026-07-13T10:24:55Z</time>
      </trkpt>
      <trkpt lat="50.70148897357285" lon="5.19804697483778">
        <ele>127.98999999999999</ele>
        <time>2026-07-13T10:25:04Z</time>
      </trkpt>
      <trkpt lat="50.701967999339104" lon="5.20186803303659">
        <ele>126.55</ele>
        <time>2026-07-13T10:25:15Z</time>
      </trkpt>
      <trkpt lat="50.702555989846587" lon="5.206720987334848">
        <ele>128.47</ele>
        <time>2026-07-13T10:25:28Z</time>
      </trkpt>
      <trkpt lat="50.703247999772429" lon="5.212285984307528">
        <ele>130.40000000000001</ele>
        <time>2026-07-13T10:25:42Z</time>
      </trkpt>
      <trkpt lat="50.70408602245152" lon="5.219069961458445">
        <ele>128.47</ele>
        <time>2026-07-13T10:25:58Z</time>
      </trkpt>
      <trkpt lat="50.704824971035123" lon="5.225140973925591">
        <ele>123.67</ele>
        <time>2026-07-13T10:26:12Z</time>
      </trkpt>
      <trkpt lat="50.705322017893195" lon="5.229128999635577">
        <ele>118.38</ele>
        <time>2026-07-13T10:26:21Z</time>
      </trkpt>
      <trkpt lat="50.706146964803338" lon="5.23631296120584">
        <ele>115.5</ele>
        <time>2026-07-13T10:26:37Z</time>
      </trkpt>
      <trkpt lat="50.70658097974956" lon="5.241948030889034">
        <ele>115.01000000000001</ele>
        <time>2026-07-13T10:26:50Z</time>
      </trkpt>
      <trkpt lat="50.7067930418998" lon="5.246954038739204">
        <ele>113.09</ele>
        <time>2026-07-13T10:27:01Z</time>
      </trkpt>
      <trkpt lat="50.706830006092787" lon="5.253387987613678">
        <ele>113.09</ele>
        <time>2026-07-13T10:27:15Z</time>
      </trkpt>
      <trkpt lat="50.706646023318172" lon="5.259242998436093">
        <ele>111.17</ele>
        <time>2026-07-13T10:27:28Z</time>
      </trkpt>
      <trkpt lat="50.706217037513852" lon="5.265500005334616">
        <ele>110.69</ele>
        <time>2026-07-13T10:27:42Z</time>
      </trkpt>
      <trkpt lat="50.70567699149251" lon="5.273120999336243">
        <ele>116.45999999999999</ele>
        <time>2026-07-13T10:27:59Z</time>
      </trkpt>
      <trkpt lat="50.705287987366319" lon="5.279879998415709">
        <ele>119.81999999999999</ele>
        <time>2026-07-13T10:28:14Z</time>
      </trkpt>
      <trkpt lat="50.704874005168676" lon="5.287040993571281">
        <ele>123.19</ele>
        <time>2026-07-13T10:28:30Z</time>
      </trkpt>
      <trkpt lat="50.704445019364357" lon="5.294250017032027">
        <ele>125.59</ele>
        <time>2026-07-13T10:28:46Z</time>
      </trkpt>
      <trkpt lat="50.704192975535989" lon="5.298732994124293">
        <ele>127.03</ele>
        <time>2026-07-13T10:28:56Z</time>
      </trkpt>
      <trkpt lat="50.703781004995108" lon="5.305946040898562">
        <ele>128.94999999999999</ele>
        <time>2026-07-13T10:29:12Z</time>
      </trkpt>
      <trkpt lat="50.703277001157403" lon="5.314479991793633">
        <ele>130.40000000000001</ele>
        <time>2026-07-13T10:29:31Z</time>
      </trkpt>
      <trkpt lat="50.702854972332716" lon="5.321664037182927">
        <ele>129.43000000000001</ele>
        <time>2026-07-13T10:29:47Z</time>
      </trkpt>
      <trkpt lat="50.702390028163791" lon="5.329758021980524">
        <ele>127.03</ele>
        <time>2026-07-13T10:30:05Z</time>
      </trkpt>
      <trkpt lat="50.702036982402205" lon="5.335588976740837">
        <ele>125.59</ele>
        <time>2026-07-13T10:30:18Z</time>
      </trkpt>
      <trkpt lat="50.701511017978191" lon="5.344590973109007">
        <ele>124.63</ele>
        <time>2026-07-13T10:30:38Z</time>
      </trkpt>
      <trkpt lat="50.700987987220287" lon="5.351304039359093">
        <ele>127.03</ele>
        <time>2026-07-13T10:30:53Z</time>
      </trkpt>
      <trkpt lat="50.700298994779587" lon="5.357073973864317">
        <ele>133.28</ele>
        <time>2026-07-13T10:31:06Z</time>
      </trkpt>
      <trkpt lat="50.699415961280465" lon="5.362823959439993">
        <ele>135.68000000000001</ele>
        <time>2026-07-13T10:31:19Z</time>
      </trkpt>
      <trkpt lat="50.698346011340618" lon="5.368427010253072">
        <ele>137.61000000000001</ele>
        <time>2026-07-13T10:31:32Z</time>
      </trkpt>
      <trkpt lat="50.696919998154044" lon="5.374815026298165">
        <ele>139.53</ele>
        <time>2026-07-13T10:31:47Z</time>
      </trkpt>
      <trkpt lat="50.694994004443288" lon="5.383337996900082">
        <ele>142.88999999999999</ele>
        <time>2026-07-13T10:32:07Z</time>
      </trkpt>
      <trkpt lat="50.693159038200974" lon="5.39141396060586">
        <ele>144.81999999999999</ele>
        <time>2026-07-13T10:32:26Z</time>
      </trkpt>
      <trkpt lat="50.691896975040436" lon="5.396944005042315">
        <ele>147.69999999999999</ele>
        <time>2026-07-13T10:32:39Z</time>
      </trkpt>
      <trkpt lat="50.690843034535646" lon="5.401628986001015">
        <ele>149.62</ele>
        <time>2026-07-13T10:32:50Z</time>
      </trkpt>
      <trkpt lat="50.68966998718679" lon="5.406735995784402">
        <ele>150.09999999999999</ele>
        <time>2026-07-13T10:33:02Z</time>
      </trkpt>
      <trkpt lat="50.688426028937101" lon="5.412234021350741">
        <ele>150.09999999999999</ele>
        <time>2026-07-13T10:33:15Z</time>
      </trkpt>
      <trkpt lat="50.687352977693081" lon="5.416924031451345">
        <ele>151.53999999999999</ele>
        <time>2026-07-13T10:33:26Z</time>
      </trkpt>
      <trkpt lat="50.686198035255075" lon="5.422043027356267">
        <ele>152.03</ele>
        <time>2026-07-13T10:33:38Z</time>
      </trkpt>
      <trkpt lat="50.684834970161319" lon="5.427984958514571">
        <ele>153.47</ele>
        <time>2026-07-13T10:33:52Z</time>
      </trkpt>
      <trkpt lat="50.683388002216816" lon="5.434375992044807">
        <ele>154.91</ele>
        <time>2026-07-13T10:34:07Z</time>
      </trkpt>
      <trkpt lat="50.682315034791827" lon="5.439055021852255">
        <ele>157.78999999999999</ele>
        <time>2026-07-13T10:34:18Z</time>
      </trkpt>
      <trkpt lat="50.681337034329772" lon="5.443305987864733">
        <ele>157.78999999999999</ele>
        <time>2026-07-13T10:34:28Z</time>
      </trkpt>
      <trkpt lat="50.680370014160872" lon="5.447555026039481">
        <ele>156.34999999999999</ele>
        <time>2026-07-13T10:34:38Z</time>
      </trkpt>
      <trkpt lat="50.679111974313855" lon="5.453085992485285">
        <ele>153.94999999999999</ele>
        <time>2026-07-13T10:34:51Z</time>
      </trkpt>
      <trkpt lat="50.677979998290539" lon="5.457709031179547">
        <ele>156.34999999999999</ele>
        <time>2026-07-13T10:35:02Z</time>
      </trkpt>
      <trkpt lat="50.676984982565045" lon="5.461439983919263">
        <ele>160.68000000000001</ele>
        <time>2026-07-13T10:35:11Z</time>
      </trkpt>
      <trkpt lat="50.675752004608512" lon="5.46603100374341">
        <ele>163.08000000000001</ele>
        <time>2026-07-13T10:35:22Z</time>
      </trkpt>
      <trkpt lat="50.67450100556016" lon="5.470599979162216">
        <ele>162.12</ele>
        <time>2026-07-13T10:35:33Z</time>
      </trkpt>
      <trkpt lat="50.673331981524825" lon="5.474210986867547">
        <ele>163.08000000000001</ele>
        <time>2026-07-13T10:35:42Z</time>
      </trkpt>
      <trkpt lat="50.672169998288155" lon="5.477346992120147">
        <ele>168.37</ele>
        <time>2026-07-13T10:35:50Z</time>
      </trkpt>
      <trkpt lat="50.670972978696227" lon="5.479840021580458">
        <ele>170.28999999999999</ele>
        <time>2026-07-13T10:35:57Z</time>
      </trkpt>
      <trkpt lat="50.670803999528289" lon="5.480128023773432">
        <ele>170.28999999999999</ele>
        <time>2026-07-13T10:35:58Z</time>
      </trkpt>
      <trkpt lat="50.669793980196118" lon="5.481846984475851">
        <ele>171.25</ele>
        <time>2026-07-13T10:36:05Z</time>
      </trkpt>
      <trkpt lat="50.668236035853624" lon="5.484548974782229">
        <ele>169.81</ele>
        <time>2026-07-13T10:36:17Z</time>
      </trkpt>
      <trkpt lat="50.667589036747813" lon="5.48641998320818">
        <ele>167.41</ele>
        <time>2026-07-13T10:36:24Z</time>
      </trkpt>
      <trkpt lat="50.667507983744144" lon="5.487031023949385">
        <ele>168.37</ele>
        <time>2026-07-13T10:36:26Z</time>
      </trkpt>
      <trkpt lat="50.667515024542809" lon="5.488979984074831">
        <ele>169.81</ele>
        <time>2026-07-13T10:36:32Z</time>
      </trkpt>
      <trkpt lat="50.667960019782186" lon="5.491001028567553">
        <ele>170.28999999999999</ele>
        <time>2026-07-13T10:36:38Z</time>
      </trkpt>
      <trkpt lat="50.668683964759111" lon="5.493795974180102">
        <ele>170.28999999999999</ele>
        <time>2026-07-13T10:36:46Z</time>
      </trkpt>
      <trkpt lat="50.668922010809183" lon="5.494813034310937">
        <ele>168.84999999999999</ele>
        <time>2026-07-13T10:36:49Z</time>
      </trkpt>
      <trkpt lat="50.669249994680285" lon="5.497461967170239">
        <ele>167.88999999999999</ele>
        <time>2026-07-13T10:36:57Z</time>
      </trkpt>
      <trkpt lat="50.669311014935374" lon="5.500960992649198">
        <ele>171.25</ele>
        <time>2026-07-13T10:37:07Z</time>
      </trkpt>
      <trkpt lat="50.669438000768423" lon="5.505878990516067">
        <ele>175.58000000000001</ele>
        <time>2026-07-13T10:37:21Z</time>
      </trkpt>
      <trkpt lat="50.669786017388105" lon="5.510778967291117">
        <ele>180.38</ele>
        <time>2026-07-13T10:37:35Z</time>
      </trkpt>
      <trkpt lat="50.670149037614465" lon="5.515694031491876">
        <ele>178.46000000000001</ele>
        <time>2026-07-13T10:37:49Z</time>
      </trkpt>
      <trkpt lat="50.670525971800089" lon="5.520591996610165">
        <ele>178.46000000000001</ele>
        <time>2026-07-13T10:38:03Z</time>
      </trkpt>
      <trkpt lat="50.670827971771359" lon="5.524759981781244">
        <ele>177.5</ele>
        <time>2026-07-13T10:38:15Z</time>
      </trkpt>
      <trkpt lat="50.671142963692546" lon="5.528909023851156">
        <ele>177.5</ele>
        <time>2026-07-13T10:38:27Z</time>
      </trkpt>
      <trkpt lat="50.671403976157308" lon="5.532317021861672">
        <ele>178.94</ele>
        <time>2026-07-13T10:38:36Z</time>
      </trkpt>
      <trkpt lat="50.671717040240765" lon="5.536359027028084">
        <ele>179.90000000000001</ele>
        <time>2026-07-13T10:38:46Z</time>
      </trkpt>
      <trkpt lat="50.672071008011699" lon="5.541179040446878">
        <ele>180.87</ele>
        <time>2026-07-13T10:38:57Z</time>
      </trkpt>
      <trkpt lat="50.672543998807669" lon="5.547075960785151">
        <ele>181.34999999999999</ele>
        <time>2026-07-13T10:39:10Z</time>
      </trkpt>
      <trkpt lat="50.673096030950546" lon="5.552022038027644">
        <ele>183.27000000000001</ele>
        <time>2026-07-13T10:39:21Z</time>
      </trkpt>
      <trkpt lat="50.673731965944171" lon="5.557884005829692">
        <ele>185.19</ele>
        <time>2026-07-13T10:39:34Z</time>
      </trkpt>
      <trkpt lat="50.674271006137133" lon="5.562828993424773">
        <ele>185.19</ele>
        <time>2026-07-13T10:39:45Z</time>
      </trkpt>
      <trkpt lat="50.674961004406214" lon="5.569061022251844">
        <ele>186.15000000000001</ele>
        <time>2026-07-13T10:39:59Z</time>
      </trkpt>
      <trkpt lat="50.675297034904361" lon="5.571738034486771">
        <ele>188.56</ele>
        <time>2026-07-13T10:40:05Z</time>
      </trkpt>
      <trkpt lat="50.676339995115995" lon="5.577447032555938">
        <ele>187.59</ele>
        <time>2026-07-13T10:40:18Z</time>
      </trkpt>
      <trkpt lat="50.677314978092909" lon="5.581260966137052">
        <ele>180.38</ele>
        <time>2026-07-13T10:40:27Z</time>
      </trkpt>
      <trkpt lat="50.678717019036412" lon="5.585763975977898">
        <ele>174.13999999999999</ele>
        <time>2026-07-13T10:40:38Z</time>
      </trkpt>
      <trkpt lat="50.680321985855699" lon="5.590608967468143">
        <ele>168.37</ele>
        <time>2026-07-13T10:40:50Z</time>
      </trkpt>
      <trkpt lat="50.681945979595184" lon="5.595472985878587">
        <ele>152.03</ele>
        <time>2026-07-13T10:41:02Z</time>
      </trkpt>
      <trkpt lat="50.683298986405134" lon="5.599523037672043">
        <ele>140.00999999999999</ele>
        <time>2026-07-13T10:41:12Z</time>
      </trkpt>
      <trkpt lat="50.685043008998036" lon="5.604754015803337">
        <ele>139.05000000000001</ele>
        <time>2026-07-13T10:41:25Z</time>
      </trkpt>
      <trkpt lat="50.686796000227332" lon="5.609972001984716">
        <ele>144.34</ele>
        <time>2026-07-13T10:41:38Z</time>
      </trkpt>
      <trkpt lat="50.687976004555821" lon="5.61410897411406">
        <ele>146.74000000000001</ele>
        <time>2026-07-13T10:41:48Z</time>
      </trkpt>
      <trkpt lat="50.688730040565133" lon="5.618048971518874">
        <ele>146.25999999999999</ele>
        <time>2026-07-13T10:41:57Z</time>
      </trkpt>
      <trkpt lat="50.689011001959443" lon="5.62141296453774">
        <ele>140.49000000000001</ele>
        <time>2026-07-13T10:42:05Z</time>
      </trkpt>
      <trkpt lat="50.689094988629222" lon="5.625046016648412">
        <ele>134.24000000000001</ele>
        <time>2026-07-13T10:42:15Z</time>
      </trkpt>
      <trkpt lat="50.688770022243261" lon="5.629356997087598">
        <ele>124.15000000000001</ele>
        <time>2026-07-13T10:42:27Z</time>
      </trkpt>
      <trkpt lat="50.688107013702393" lon="5.633093984797597">
        <ele>113.09</ele>
        <time>2026-07-13T10:42:38Z</time>
      </trkpt>
      <trkpt lat="50.687278965488076" lon="5.636359993368387">
        <ele>104.44</ele>
        <time>2026-07-13T10:42:48Z</time>
      </trkpt>
      <trkpt lat="50.686145983636379" lon="5.640162024646998">
        <ele>86.659999999999997</ele>
        <time>2026-07-13T10:43:00Z</time>
      </trkpt>
      <trkpt lat="50.685302009806037" lon="5.642969962209463">
        <ele>79.450000000000003</ele>
        <time>2026-07-13T10:43:09Z</time>
      </trkpt>
      <trkpt lat="50.684270029887557" lon="5.64640000462532">
        <ele>72.239999999999995</ele>
        <time>2026-07-13T10:43:21Z</time>
      </trkpt>
      <trkpt lat="50.683478023856878" lon="5.649077016860247">
        <ele>71.760000000000005</ele>
        <time>2026-07-13T10:43:29Z</time>
      </trkpt>
      <trkpt lat="50.68212702870369" lon="5.653534010052681">
        <ele>71.269999999999996</ele>
        <time>2026-07-13T10:43:40Z</time>
      </trkpt>
      <trkpt lat="50.680508986115456" lon="5.658975960686803">
        <ele>71.269999999999996</ele>
        <time>2026-07-13T10:43:53Z</time>
      </trkpt>
      <trkpt lat="50.67901398986578" lon="5.663965959101915">
        <ele>69.349999999999994</ele>
        <time>2026-07-13T10:44:05Z</time>
      </trkpt>
      <trkpt lat="50.677766008302569" lon="5.66807602532208">
        <ele>75.120000000000005</ele>
        <time>2026-07-13T10:44:15Z</time>
      </trkpt>
      <trkpt lat="50.676022991538048" lon="5.673823999240995">
        <ele>98.189999999999998</ele>
        <time>2026-07-13T10:44:29Z</time>
      </trkpt>
      <trkpt lat="50.674570994451642" lon="5.678278980776668">
        <ele>120.3</ele>
        <time>2026-07-13T10:44:40Z</time>
      </trkpt>
      <trkpt lat="50.672863014042377" lon="5.68199903704226">
        <ele>137.61000000000001</ele>
        <time>2026-07-13T10:44:50Z</time>
      </trkpt>
      <trkpt lat="50.670406026765704" lon="5.685917995870113">
        <ele>158.27000000000001</ele>
        <time>2026-07-13T10:45:02Z</time>
      </trkpt>
      <trkpt lat="50.666598966345191" lon="5.691669993102551">
        <ele>178.94</ele>
        <time>2026-07-13T10:45:20Z</time>
      </trkpt>
      <trkpt lat="50.664485972374678" lon="5.69487095810473">
        <ele>182.31</ele>
        <time>2026-07-13T10:45:30Z</time>
      </trkpt>
      <trkpt lat="50.661554988473654" lon="5.699290987104178">
        <ele>190.47999999999999</ele>
        <time>2026-07-13T10:45:44Z</time>
      </trkpt>
      <trkpt lat="50.657993014901876" lon="5.704634031280875">
        <ele>213.06999999999999</ele>
        <time>2026-07-13T10:46:01Z</time>
      </trkpt>
      <trkpt lat="50.655667036771774" lon="5.708116963505745">
        <ele>227.00999999999999</ele>
        <time>2026-07-13T10:46:12Z</time>
      </trkpt>
      <trkpt lat="50.653559993952513" lon="5.711316000670195">
        <ele>232.30000000000001</ele>
        <time>2026-07-13T10:46:22Z</time>
      </trkpt>
      <trkpt lat="50.65123300999403" lon="5.714848972856998">
        <ele>234.22</ele>
        <time>2026-07-13T10:46:33Z</time>
      </trkpt>
      <trkpt lat="50.648710979148746" lon="5.71865301579237">
        <ele>239.50999999999999</ele>
        <time>2026-07-13T10:46:45Z</time>
      </trkpt>
      <trkpt lat="50.646187020465732" lon="5.722460998222232">
        <ele>246.22999999999999</ele>
        <time>2026-07-13T10:46:57Z</time>
      </trkpt>
      <trkpt lat="50.644101016223431" lon="5.725667998194695">
        <ele>252</ele>
        <time>2026-07-13T10:47:07Z</time>
      </trkpt>
      <trkpt lat="50.641980981454253" lon="5.729174986481667">
        <ele>260.17000000000002</ele>
        <time>2026-07-13T10:47:18Z</time>
      </trkpt>
      <trkpt lat="50.64027601853013" lon="5.732596982270479">
        <ele>270.26999999999998</ele>
        <time>2026-07-13T10:47:30Z</time>
      </trkpt>
      <trkpt lat="50.639258036389947" lon="5.734959002584219">
        <ele>274.58999999999997</ele>
        <time>2026-07-13T10:47:39Z</time>
      </trkpt>
      <trkpt lat="50.638296967372298" lon="5.737485978752375">
        <ele>277</ele>
        <time>2026-07-13T10:47:49Z</time>
      </trkpt>
      <trkpt lat="50.637221988290548" lon="5.7407639734447">
        <ele>281.80000000000001</ele>
        <time>2026-07-13T10:48:02Z</time>
      </trkpt>
      <trkpt lat="50.636181961745024" lon="5.744616966694593">
        <ele>286.13</ele>
        <time>2026-07-13T10:48:16Z</time>
      </trkpt>
      <trkpt lat="50.635381992906332" lon="5.748469037935138">
        <ele>291.42000000000002</ele>
        <time>2026-07-13T10:48:29Z</time>
      </trkpt>
      <trkpt lat="50.634973039850593" lon="5.751058962196112">
        <ele>291.89999999999998</ele>
        <time>2026-07-13T10:48:37Z</time>
      </trkpt>
      <trkpt lat="50.63449501991272" lon="5.754993008449674">
        <ele>294.30000000000001</ele>
        <time>2026-07-13T10:48:47Z</time>
      </trkpt>
      <trkpt lat="50.634188996627927" lon="5.759485037997365">
        <ele>295.74000000000001</ele>
        <time>2026-07-13T10:48:58Z</time>
      </trkpt>
      <trkpt lat="50.634141974151134" lon="5.763096967712045">
        <ele>296.69999999999999</ele>
        <time>2026-07-13T10:49:07Z</time>
      </trkpt>
      <trkpt lat="50.63415496610105" lon="5.766661958768964">
        <ele>294.77999999999997</ele>
        <time>2026-07-13T10:49:18Z</time>
      </trkpt>
      <trkpt lat="50.634168041869998" lon="5.769713977351785">
        <ele>292.86000000000001</ele>
        <time>2026-07-13T10:49:28Z</time>
      </trkpt>
      <trkpt lat="50.634183967486024" lon="5.773981958627701">
        <ele>289.00999999999999</ele>
        <time>2026-07-13T10:49:42Z</time>
      </trkpt>
      <trkpt lat="50.634199976921082" lon="5.777927991002798">
        <ele>286.61000000000001</ele>
        <time>2026-07-13T10:49:55Z</time>
      </trkpt>
      <trkpt lat="50.634225960820913" lon="5.782770970836282">
        <ele>280.36000000000001</ele>
        <time>2026-07-13T10:50:11Z</time>
      </trkpt>
      <trkpt lat="50.634266026318073" lon="5.788075961172581">
        <ele>275.06999999999999</ele>
        <time>2026-07-13T10:50:29Z</time>
      </trkpt>
      <trkpt lat="50.63428002409637" lon="5.791605999693275">
        <ele>272.19</ele>
        <time>2026-07-13T10:50:41Z</time>
      </trkpt>
      <trkpt lat="50.634305002167821" lon="5.796168018132448">
        <ele>268.35000000000002</ele>
        <time>2026-07-13T10:50:57Z</time>
      </trkpt>
      <trkpt lat="50.634331991896033" lon="5.801478959619999">
        <ele>270.75</ele>
        <time>2026-07-13T10:51:16Z</time>
      </trkpt>
      <trkpt lat="50.634349007159472" lon="5.803579967468977">
        <ele>273.63</ele>
        <time>2026-07-13T10:51:22Z</time>
      </trkpt>
      <trkpt lat="50.634403992444277" lon="5.808890992775559">
        <ele>284.69</ele>
        <time>2026-07-13T10:51:35Z</time>
      </trkpt>
      <trkpt lat="50.634587975218892" lon="5.813461979851127">
        <ele>290.94</ele>
        <time>2026-07-13T10:51:46Z</time>
      </trkpt>
      <trkpt lat="50.63486298546195" lon="5.818035984411836">
        <ele>292.86000000000001</ele>
        <time>2026-07-13T10:51:57Z</time>
      </trkpt>
      <trkpt lat="50.635336982086301" lon="5.82274803891778">
        <ele>291.42000000000002</ele>
        <time>2026-07-13T10:52:08Z</time>
      </trkpt>
      <trkpt lat="50.635983981192112" lon="5.828210022300482">
        <ele>281.80000000000001</ele>
        <time>2026-07-13T10:52:21Z</time>
      </trkpt>
      <trkpt lat="50.636711027473211" lon="5.833916002884507">
        <ele>269.31</ele>
        <time>2026-07-13T10:52:35Z</time>
      </trkpt>
      <trkpt lat="50.637196004390717" lon="5.837544025853276">
        <ele>263.54000000000002</ele>
        <time>2026-07-13T10:52:45Z</time>
      </trkpt>
      <trkpt lat="50.637728003785014" lon="5.841439012438059">
        <ele>261.62</ele>
        <time>2026-07-13T10:52:56Z</time>
      </trkpt>
      <trkpt lat="50.638267965987325" lon="5.845622001215816">
        <ele>264.98000000000002</ele>
        <time>2026-07-13T10:53:08Z</time>
      </trkpt>
      <trkpt lat="50.638832990080118" lon="5.849925018846989">
        <ele>273.63</ele>
        <time>2026-07-13T10:53:20Z</time>
      </trkpt>
      <trkpt lat="50.639273039996624" lon="5.853271996602416">
        <ele>280.83999999999997</ele>
        <time>2026-07-13T10:53:28Z</time>
      </trkpt>
      <trkpt lat="50.639965971931815" lon="5.85854203440249">
        <ele>288.05000000000001</ele>
        <time>2026-07-13T10:53:40Z</time>
      </trkpt>
      <trkpt lat="50.64096299931407" lon="5.866066971793771">
        <ele>291.42000000000002</ele>
        <time>2026-07-13T10:53:57Z</time>
      </trkpt>
      <trkpt lat="50.642094975337386" lon="5.874584997072816">
        <ele>293.81999999999999</ele>
        <time>2026-07-13T10:54:16Z</time>
      </trkpt>
      <trkpt lat="50.643173977732658" lon="5.882642017677426">
        <ele>296.22000000000003</ele>
        <time>2026-07-13T10:54:34Z</time>
      </trkpt>
      <trkpt lat="50.644179973751307" lon="5.88980795815587">
        <ele>299.11000000000001</ele>
        <time>2026-07-13T10:54:50Z</time>
      </trkpt>
      <trkpt lat="50.645063007250428" lon="5.896090026944876">
        <ele>297.18000000000001</ele>
        <time>2026-07-13T10:55:04Z</time>
      </trkpt>
      <trkpt lat="50.645955009385943" lon="5.902370000258088">
        <ele>293.33999999999997</ele>
        <time>2026-07-13T10:55:18Z</time>
      </trkpt>
      <trkpt lat="50.646440992131829" lon="5.905871037393808">
        <ele>289.00999999999999</ele>
        <time>2026-07-13T10:55:26Z</time>
      </trkpt>
      <trkpt lat="50.647183964028955" lon="5.911130011081696">
        <ele>281.80000000000001</ele>
        <time>2026-07-13T10:55:38Z</time>
      </trkpt>
      <trkpt lat="50.647993991151452" lon="5.916782012209296">
        <ele>277.48000000000002</ele>
        <time>2026-07-13T10:55:51Z</time>
      </trkpt>
      <trkpt lat="50.64876495860517" lon="5.922370981425047">
        <ele>284.20999999999998</ele>
        <time>2026-07-13T10:56:04Z</time>
      </trkpt>
      <trkpt lat="50.649378011003137" lon="5.927502969279885">
        <ele>289.00999999999999</ele>
        <time>2026-07-13T10:56:16Z</time>
      </trkpt>
      <trkpt lat="50.649762991815805" lon="5.933003006502986">
        <ele>291.42000000000002</ele>
        <time>2026-07-13T10:56:29Z</time>
      </trkpt>
      <trkpt lat="50.649768020957708" lon="5.933428974822164">
        <ele>291.42000000000002</ele>
        <time>2026-07-13T10:56:30Z</time>
      </trkpt>
      <trkpt lat="50.649765003472567" lon="5.938158966600895">
        <ele>288.05000000000001</ele>
        <time>2026-07-13T10:56:41Z</time>
      </trkpt>
      <trkpt lat="50.649551013484597" lon="5.942764990031719">
        <ele>283.25</ele>
        <time>2026-07-13T10:56:52Z</time>
      </trkpt>
      <trkpt lat="50.649044997990131" lon="5.948982015252113">
        <ele>274.58999999999997</ele>
        <time>2026-07-13T10:57:06Z</time>
      </trkpt>
      <trkpt lat="50.648497994989157" lon="5.955684017390013">
        <ele>266.89999999999998</ele>
        <time>2026-07-13T10:57:22Z</time>
      </trkpt>
      <trkpt lat="50.648002037778497" lon="5.961678000167012">
        <ele>269.79000000000002</ele>
        <time>2026-07-13T10:57:37Z</time>
      </trkpt>
      <trkpt lat="50.647649997845292" lon="5.965898958966136">
        <ele>274.58999999999997</ele>
        <time>2026-07-13T10:57:48Z</time>
      </trkpt>
      <trkpt lat="50.647240960970521" lon="5.970983002334833">
        <ele>279.88</ele>
        <time>2026-07-13T10:58:02Z</time>
      </trkpt>
      <trkpt lat="50.647024037316442" lon="5.973714999854565">
        <ele>279.88</ele>
        <time>2026-07-13T10:58:10Z</time>
      </trkpt>
      <trkpt lat="50.646794959902763" lon="5.977052003145218">
        <ele>276.51999999999998</ele>
        <time>2026-07-13T10:58:20Z</time>
      </trkpt>
      <trkpt lat="50.646694041788578" lon="5.980686983093619">
        <ele>272.19</ele>
        <time>2026-07-13T10:58:31Z</time>
      </trkpt>
      <trkpt lat="50.646569989621639" lon="5.983241032809019">
        <ele>269.31</ele>
        <time>2026-07-13T10:58:39Z</time>
      </trkpt>
      <trkpt lat="50.64646203070879" lon="5.984407039359212">
        <ele>265.94</ele>
        <time>2026-07-13T10:58:43Z</time>
      </trkpt>
      <trkpt lat="50.646467981860042" lon="5.984690012410283">
        <ele>264.5</ele>
        <time>2026-07-13T10:58:44Z</time>
      </trkpt>
      <trkpt lat="50.646501006558537" lon="5.98633898422122">
        <ele>259.20999999999998</ele>
        <time>2026-07-13T10:58:51Z</time>
      </trkpt>
      <trkpt lat="50.646501006558537" lon="5.986452978104353">
        <ele>258.25</ele>
        <time>2026-07-13T10:58:52Z</time>
      </trkpt>
      <trkpt lat="50.646501006558537" lon="5.986535958945751">
        <ele>257.76999999999998</ele>
        <time>2026-07-13T10:58:53Z</time>
      </trkpt>
      <trkpt lat="50.646469993516803" lon="5.986568983644247">
        <ele>257.76999999999998</ele>
        <time>2026-07-13T10:58:54Z</time>
      </trkpt>
      <trkpt lat="50.646416014060378" lon="5.986618017777801">
        <ele>256.81</ele>
        <time>2026-07-13T10:58:55Z</time>
      </trkpt>
      <trkpt lat="50.64635700546205" lon="5.986673003062606">
        <ele>256.81</ele>
        <time>2026-07-13T10:58:56Z</time>
      </trkpt>
      <trkpt lat="50.646285004913807" lon="5.986737962812185">
        <ele>256.32999999999998</ele>
        <time>2026-07-13T10:58:57Z</time>
      </trkpt>
      <trkpt lat="50.646244017407298" lon="5.986776016652584">
        <ele>255.84999999999999</ele>
        <time>2026-07-13T10:58:58Z</time>
      </trkpt>
      <trkpt lat="50.646101022139192" lon="5.986952036619186">
        <ele>255.84999999999999</ele>
        <time>2026-07-13T10:58:59Z</time>
      </trkpt>
      <trkpt lat="50.646018041297793" lon="5.987054966390133">
        <ele>256.32999999999998</ele>
        <time>2026-07-13T10:59:00Z</time>
      </trkpt>
      <trkpt lat="50.64597001299262" lon="5.987166026607156">
        <ele>256.32999999999998</ele>
        <time>2026-07-13T10:59:01Z</time>
      </trkpt>
      <trkpt lat="50.645986022427678" lon="5.987301981076598">
        <ele>257.29000000000002</ele>
        <time>2026-07-13T10:59:02Z</time>
      </trkpt>
      <trkpt lat="50.646005971357226" lon="5.987465009093285">
        <ele>257.76999999999998</ele>
        <time>2026-07-13T10:59:03Z</time>
      </trkpt>
      <trkpt lat="50.646180985495448" lon="5.988894039765">
        <ele>258.73000000000002</ele>
        <time>2026-07-13T10:59:09Z</time>
      </trkpt>
      <trkpt lat="50.646640984341502" lon="5.99175101146102">
        <ele>263.54000000000002</ele>
        <time>2026-07-13T10:59:18Z</time>
      </trkpt>
      <trkpt lat="50.647098971530795" lon="5.99441503174603">
        <ele>268.35000000000002</ele>
        <time>2026-07-13T10:59:27Z</time>
      </trkpt>
      <trkpt lat="50.647606998682022" lon="5.996655011549592">
        <ele>269.31</ele>
        <time>2026-07-13T10:59:37Z</time>
      </trkpt>
      <trkpt lat="50.647834986448288" lon="5.997529998421669">
        <ele>268.82999999999998</ele>
        <time>2026-07-13T10:59:41Z</time>
      </trkpt>
      <trkpt lat="50.647856025025249" lon="5.997699983417988">
        <ele>268.35000000000002</ele>
        <time>2026-07-13T10:59:42Z</time>
      </trkpt>
      <trkpt lat="50.647867005318403" lon="5.997858988121152">
        <ele>268.35000000000002</ele>
        <time>2026-07-13T10:59:43Z</time>
      </trkpt>
      <trkpt lat="50.647812020033598" lon="5.997936017811298">
        <ele>268.35000000000002</ele>
        <time>2026-07-13T10:59:44Z</time>
      </trkpt>
      <trkpt lat="50.647747982293367" lon="5.998026039451361">
        <ele>267.86000000000001</ele>
        <time>2026-07-13T10:59:45Z</time>
      </trkpt>
      <trkpt lat="50.647675981745124" lon="5.998127963393927">
        <ele>267.86000000000001</ele>
        <time>2026-07-13T10:59:46Z</time>
      </trkpt>
      <trkpt lat="50.647385967895389" lon="5.998535994440317">
        <ele>264.98000000000002</ele>
        <time>2026-07-13T10:59:50Z</time>
      </trkpt>
      <trkpt lat="50.647230986505747" lon="5.998600032180548">
        <ele>264.5</ele>
        <time>2026-07-13T10:59:51Z</time>
      </trkpt>
      <trkpt lat="50.647230986505747" lon="5.998600032180548">
        <ele>264.5</ele>
        <time>2026-07-13T10:59:52Z</time>
      </trkpt>
      <trkpt lat="50.647224029526114" lon="5.998602965846658">
        <ele>264.01999999999998</ele>
        <time>2026-07-13T10:59:53Z</time>
      </trkpt>
      <trkpt lat="50.647144988179207" lon="5.998643031343818">
        <ele>264.01999999999998</ele>
        <time>2026-07-13T10:59:54Z</time>
      </trkpt>
      <trkpt lat="50.647141970694065" lon="5.998677983880043">
        <ele>263.54000000000002</ele>
        <time>2026-07-13T10:59:55Z</time>
      </trkpt>
      <trkpt lat="50.647135013714433" lon="5.998757025226951">
        <ele>263.06</ele>
        <time>2026-07-13T10:59:56Z</time>
      </trkpt>
      <trkpt lat="50.647126967087388" lon="5.99884101189673">
        <ele>262.57999999999998</ele>
        <time>2026-07-13T10:59:57Z</time>
      </trkpt>
      <trkpt lat="50.647183964028955" lon="5.998887028545141">
        <ele>262.57999999999998</ele>
        <time>2026-07-13T10:59:58Z</time>
      </trkpt>
      <trkpt lat="50.647287983447313" lon="5.99892801605165">
        <ele>262.10000000000002</ele>
        <time>2026-07-13T10:59:59Z</time>
      </trkpt>
      <trkpt lat="50.647341040894389" lon="5.999033041298389">
        <ele>261.62</ele>
        <time>2026-07-13T11:00:00Z</time>
      </trkpt>
      <trkpt lat="50.647401977330446" lon="5.999153992161155">
        <ele>262.10000000000002</ele>
        <time>2026-07-13T11:00:01Z</time>
      </trkpt>
      <trkpt lat="50.64747397787869" lon="5.9992949757725">
        <ele>262.57999999999998</ele>
        <time>2026-07-13T11:00:02Z</time>
      </trkpt>
      <trkpt lat="50.647553019225597" lon="5.999452974647284">
        <ele>263.06</ele>
        <time>2026-07-13T11:00:03Z</time>
      </trkpt>
      <trkpt lat="50.647639017552137" lon="5.999622037634254">
        <ele>263.54000000000002</ele>
        <time>2026-07-13T11:00:04Z</time>
      </trkpt>
      <trkpt lat="50.648465976119041" lon="6.001248965039849">
        <ele>269.79000000000002</ele>
        <time>2026-07-13T11:00:14Z</time>
      </trkpt>
      <trkpt lat="50.648704022169113" lon="6.00170100107789">
        <ele>272.19</ele>
        <time>2026-07-13T11:00:19Z</time>
      </trkpt>
      <trkpt lat="50.648710979148746" lon="6.001925971359015">
        <ele>272.19</ele>
        <time>2026-07-13T11:00:20Z</time>
      </trkpt>
      <trkpt lat="50.648710979148746" lon="6.001925971359015">
        <ele>272.19</ele>
        <time>2026-07-13T11:00:21Z</time>
      </trkpt>
      <trkpt lat="50.648691030219197" lon="6.002067038789392">
        <ele>272.67000000000002</ele>
        <time>2026-07-13T11:00:22Z</time>
      </trkpt>
      <trkpt lat="50.648651970550418" lon="6.002133004367352">
        <ele>272.67000000000002</ele>
        <time>2026-07-13T11:00:23Z</time>
      </trkpt>
      <trkpt lat="50.648614000529051" lon="6.002198969945312">
        <ele>272.67000000000002</ele>
        <time>2026-07-13T11:00:24Z</time>
      </trkpt>
      <trkpt lat="50.648577036336064" lon="6.0022599902004">
        <ele>272.67000000000002</ele>
        <time>2026-07-13T11:00:25Z</time>
      </trkpt>
      <trkpt lat="50.648541999980807" lon="6.002321010455489">
        <ele>272.67000000000002</ele>
        <time>2026-07-13T11:00:26Z</time>
      </trkpt>
      <trkpt lat="50.648464970290661" lon="6.002435004338622">
        <ele>273.14999999999998</ele>
        <time>2026-07-13T11:00:28Z</time>
      </trkpt>
      <trkpt lat="50.648160958662629" lon="6.002873964607716">
        <ele>274.58999999999997</ele>
        <time>2026-07-13T11:00:37Z</time>
      </trkpt>
      <trkpt lat="50.647954009473324" lon="6.002820990979672">
        <ele>273.14999999999998</ele>
        <time>2026-07-13T11:00:47Z</time>
      </trkpt>
      <trkpt lat="50.647954009473324" lon="6.002820990979672">
        <ele>272.67000000000002</ele>
        <time>2026-07-13T11:01:01Z</time>
      </trkpt>
      <trkpt lat="50.647954009473324" lon="6.002820990979672">
        <ele>272.19</ele>
        <time>2026-07-13T11:01:52Z</time>
      </trkpt>
      <trkpt lat="50.648061968386173" lon="6.002657962962985">
        <ele>263.54000000000002</ele>
        <time>2026-07-13T11:05:34Z</time>
      </trkpt>
      <trkpt lat="50.647996002808213" lon="6.002626027911902">
        <ele>247.19999999999999</ele>
        <time>2026-07-13T11:06:13Z</time>
      </trkpt>
      <trkpt lat="50.648002959787846" lon="6.002590991556644">
        <ele>251.03999999999999</ele>
        <time>2026-07-13T11:06:55Z</time>
      </trkpt>
      <trkpt lat="50.648048976436257" lon="6.002575987949967">
        <ele>253.44</ele>
        <time>2026-07-13T11:06:56Z</time>
      </trkpt>
      <trkpt lat="50.648074960336089" lon="6.002567019313574">
        <ele>254.88999999999999</ele>
        <time>2026-07-13T11:06:57Z</time>
      </trkpt>
      <trkpt lat="50.648103039711714" lon="6.002557966858149">
        <ele>256.81</ele>
        <time>2026-07-13T11:06:58Z</time>
      </trkpt>
      <trkpt lat="50.648134974762797" lon="6.002551009878516">
        <ele>258.25</ele>
        <time>2026-07-13T11:06:59Z</time>
      </trkpt>
      <trkpt lat="50.648157019168139" lon="6.002572970464826">
        <ele>259.69</ele>
        <time>2026-07-13T11:07:00Z</time>
      </trkpt>
      <trkpt lat="50.648157019168139" lon="6.002572970464826">
        <ele>261.13999999999999</ele>
        <time>2026-07-13T11:07:01Z</time>
      </trkpt>
      <trkpt lat="50.648262966424227" lon="6.002677995711565">
        <ele>267.86000000000001</ele>
        <time>2026-07-13T11:07:08Z</time>
      </trkpt>
      <trkpt lat="50.648325998336077" lon="6.002640025690198">
        <ele>268.35000000000002</ele>
        <time>2026-07-13T11:07:09Z</time>
      </trkpt>
      <trkpt lat="50.648367991670966" lon="6.002569030970335">
        <ele>268.82999999999998</ele>
        <time>2026-07-13T11:07:10Z</time>
      </trkpt>
      <trkpt lat="50.648425994440913" lon="6.002483032643795">
        <ele>268.82999999999998</ele>
        <time>2026-07-13T11:07:11Z</time>
      </trkpt>
      <trkpt lat="50.648479973897338" lon="6.002416983246803">
        <ele>269.31</ele>
        <time>2026-07-13T11:07:12Z</time>
      </trkpt>
      <trkpt lat="50.648608971387148" lon="6.002207016572356">
        <ele>270.26999999999998</ele>
        <time>2026-07-13T11:07:15Z</time>
      </trkpt>
      <trkpt lat="50.648708967491984" lon="6.002352023497224">
        <ele>270.26999999999998</ele>
        <time>2026-07-13T11:07:16Z</time>
      </trkpt>
      <trkpt lat="50.648796977475286" lon="6.002332996577025">
        <ele>270.75</ele>
        <time>2026-07-13T11:07:17Z</time>
      </trkpt>
      <trkpt lat="50.648850034922361" lon="6.002180026844144">
        <ele>271.23000000000002</ele>
        <time>2026-07-13T11:07:18Z</time>
      </trkpt>
      <trkpt lat="50.648922035470605" lon="6.002234006300569">
        <ele>271.70999999999998</ele>
        <time>2026-07-13T11:07:19Z</time>
      </trkpt>
      <trkpt lat="50.648996969684958" lon="6.002289997413755">
        <ele>271.70999999999998</ele>
        <time>2026-07-13T11:07:20Z</time>
      </trkpt>
      <trkpt lat="50.649091014638543" lon="6.002394016832113">
        <ele>272.19</ele>
        <time>2026-07-13T11:07:21Z</time>
      </trkpt>
      <trkpt lat="50.649165026843548" lon="6.002515973523259">
        <ele>272.19</ele>
        <time>2026-07-13T11:07:22Z</time>
      </trkpt>
      <trkpt lat="50.649421010166407" lon="6.002938002347946">
        <ele>273.63</ele>
        <time>2026-07-13T11:07:25Z</time>
      </trkpt>
      <trkpt lat="50.64951203763485" lon="6.00305400788784">
        <ele>274.58999999999997</ele>
        <time>2026-07-13T11:07:26Z</time>
      </trkpt>
      <trkpt lat="50.64964204095304" lon="6.003113016486168">
        <ele>275.06999999999999</ele>
        <time>2026-07-13T11:07:27Z</time>
      </trkpt>
      <trkpt lat="50.649769026786089" lon="6.003143023699522">
        <ele>276.04000000000002</ele>
        <time>2026-07-13T11:07:28Z</time>
      </trkpt>
      <trkpt lat="50.649914033710957" lon="6.003128020092845">
        <ele>276.51999999999998</ele>
        <time>2026-07-13T11:07:29Z</time>
      </trkpt>
      <trkpt lat="50.650062980130315" lon="6.003136988729239">
        <ele>276.51999999999998</ele>
        <time>2026-07-13T11:07:30Z</time>
      </trkpt>
      <trkpt lat="50.650213016197085" lon="6.003146041184664">
        <ele>276.51999999999998</ele>
        <time>2026-07-13T11:07:31Z</time>
      </trkpt>
      <trkpt lat="50.650355005636811" lon="6.003218963742256">
        <ele>276.04000000000002</ele>
        <time>2026-07-13T11:07:32Z</time>
      </trkpt>
      <trkpt lat="50.650495989248157" lon="6.003319965675473">
        <ele>275.06999999999999</ele>
        <time>2026-07-13T11:07:33Z</time>
      </trkpt>
      <trkpt lat="50.650617023929954" lon="6.003472013399005">
        <ele>274.58999999999997</ele>
        <time>2026-07-13T11:07:34Z</time>
      </trkpt>
      <trkpt lat="50.650722971186042" lon="6.003663958981633">
        <ele>274.11000000000001</ele>
        <time>2026-07-13T11:07:35Z</time>
      </trkpt>
      <trkpt lat="50.650833025574684" lon="6.003861017525196">
        <ele>273.14999999999998</ele>
        <time>2026-07-13T11:07:36Z</time>
      </trkpt>
      <trkpt lat="50.652062986046076" lon="6.006108960136771">
        <ele>274.11000000000001</ele>
        <time>2026-07-13T11:07:46Z</time>
      </trkpt>
      <trkpt lat="50.653664013370872" lon="6.009167013689876">
        <ele>276.04000000000002</ele>
        <time>2026-07-13T11:07:57Z</time>
      </trkpt>
      <trkpt lat="50.655471989884973" lon="6.012087017297745">
        <ele>277.95999999999998</ele>
        <time>2026-07-13T11:08:06Z</time>
      </trkpt>
      <trkpt lat="50.657899975776672" lon="6.01540700532496">
        <ele>278.44</ele>
        <time>2026-07-13T11:08:17Z</time>
      </trkpt>
      <trkpt lat="50.66146002151072" lon="6.020308993756771">
        <ele>286.13</ele>
        <time>2026-07-13T11:08:33Z</time>
      </trkpt>
      <trkpt lat="50.664330990985036" lon="6.024263994768262">
        <ele>283.25</ele>
        <time>2026-07-13T11:08:46Z</time>
      </trkpt>
      <trkpt lat="50.666996017098427" lon="6.02793300524354">
        <ele>281.31999999999999</ele>
        <time>2026-07-13T11:08:58Z</time>
      </trkpt>
      <trkpt lat="50.670088017359376" lon="6.032181959599257">
        <ele>281.31999999999999</ele>
        <time>2026-07-13T11:09:12Z</time>
      </trkpt>
      <trkpt lat="50.672089029103518" lon="6.034933989867568">
        <ele>288.05000000000001</ele>
        <time>2026-07-13T11:09:21Z</time>
      </trkpt>
      <trkpt lat="50.67495396360755" lon="6.038871975615621">
        <ele>287.08999999999997</ele>
        <time>2026-07-13T11:09:34Z</time>
      </trkpt>
      <trkpt lat="50.678051998838782" lon="6.043135011568666">
        <ele>285.64999999999998</ele>
        <time>2026-07-13T11:09:48Z</time>
      </trkpt>
      <trkpt lat="50.681149028241634" lon="6.047408021986485">
        <ele>285.17000000000002</ele>
        <time>2026-07-13T11:10:02Z</time>
      </trkpt>
      <trkpt lat="50.684008011594415" lon="6.05135103687644">
        <ele>285.17000000000002</ele>
        <time>2026-07-13T11:10:15Z</time>
      </trkpt>
      <trkpt lat="50.687077967450023" lon="6.0556910187006">
        <ele>288.05000000000001</ele>
        <time>2026-07-13T11:10:29Z</time>
      </trkpt>
      <trkpt lat="50.689642997458577" lon="6.059816004708409">
        <ele>289.97000000000003</ele>
        <time>2026-07-13T11:10:42Z</time>
      </trkpt>
      <trkpt lat="50.691030034795403" lon="6.062282966449857">
        <ele>289.97000000000003</ele>
        <time>2026-07-13T11:10:50Z</time>
      </trkpt>
      <trkpt lat="50.693014031276107" lon="6.066215001046658">
        <ele>291.42000000000002</ele>
        <time>2026-07-13T11:11:01Z</time>
      </trkpt>
      <trkpt lat="50.695287035778165" lon="6.07105303555727">
        <ele>289.97000000000003</ele>
        <time>2026-07-13T11:11:14Z</time>
      </trkpt>
      <trkpt lat="50.697373962029815" lon="6.075582029297948">
        <ele>283.73000000000002</ele>
        <time>2026-07-13T11:11:26Z</time>
      </trkpt>
      <trkpt lat="50.700510973110795" lon="6.082324013113976">
        <ele>268.35000000000002</ele>
        <time>2026-07-13T11:11:44Z</time>
      </trkpt>
      <trkpt lat="50.702397990971804" lon="6.086426032707095">
        <ele>261.13999999999999</ele>
        <time>2026-07-13T11:11:55Z</time>
      </trkpt>
      <trkpt lat="50.704813990741968" lon="6.091591967269778">
        <ele>258.73000000000002</ele>
        <time>2026-07-13T11:12:09Z</time>
      </trkpt>
      <trkpt lat="50.707590999081731" lon="6.09758896753192">
        <ele>265.94</ele>
        <time>2026-07-13T11:12:25Z</time>
      </trkpt>
      <trkpt lat="50.710177989676595" lon="6.103185983374715">
        <ele>271.70999999999998</ele>
        <time>2026-07-13T11:12:40Z</time>
      </trkpt>
      <trkpt lat="50.712418975308537" lon="6.108059976249933">
        <ele>276.51999999999998</ele>
        <time>2026-07-13T11:12:53Z</time>
      </trkpt>
      <trkpt lat="50.713508035987616" lon="6.11037296243012">
        <ele>280.36000000000001</ele>
        <time>2026-07-13T11:13:00Z</time>
      </trkpt>
      <trkpt lat="50.714169032871723" lon="6.11213400028646">
        <ele>282.76999999999998</ele>
        <time>2026-07-13T11:13:07Z</time>
      </trkpt>
      <trkpt lat="50.714232986792922" lon="6.112376991659403">
        <ele>283.25</ele>
        <time>2026-07-13T11:13:08Z</time>
      </trkpt>
      <trkpt lat="50.714597012847662" lon="6.114014983177185">
        <ele>289.97000000000003</ele>
        <time>2026-07-13T11:13:16Z</time>
      </trkpt>
      <trkpt lat="50.714648980647326" lon="6.114271972328425">
        <ele>290.94</ele>
        <time>2026-07-13T11:13:19Z</time>
      </trkpt>
      <trkpt lat="50.714650992304087" lon="6.114278007298708">
        <ele>291.42000000000002</ele>
        <time>2026-07-13T11:13:20Z</time>
      </trkpt>
      <trkpt lat="50.714704971760511" lon="6.114331986755133">
        <ele>291.89999999999998</ele>
        <time>2026-07-13T11:13:21Z</time>
      </trkpt>
      <trkpt lat="50.71474595926702" lon="6.114372974261642">
        <ele>292.38</ele>
        <time>2026-07-13T11:13:24Z</time>
      </trkpt>
      <trkpt lat="50.71474595926702" lon="6.114372974261642">
        <ele>293.33999999999997</ele>
        <time>2026-07-13T11:13:40Z</time>
      </trkpt>
      <trkpt lat="50.71474595926702" lon="6.114372974261642">
        <ele>293.33999999999997</ele>
        <time>2026-07-13T11:13:41Z</time>
      </trkpt>
      <trkpt lat="50.714814020320773" lon="6.114441035315394">
        <ele>293.81999999999999</ele>
        <time>2026-07-13T11:13:42Z</time>
      </trkpt>
      <trkpt lat="50.714821983128786" lon="6.114450003951788">
        <ele>293.33999999999997</ele>
        <time>2026-07-13T11:13:43Z</time>
      </trkpt>
      <trkpt lat="50.714821983128786" lon="6.114450003951788">
        <ele>291.89999999999998</ele>
        <time>2026-07-13T11:13:45Z</time>
      </trkpt>
      <trkpt lat="50.714821983128786" lon="6.114450003951788">
        <ele>291.89999999999998</ele>
        <time>2026-07-13T11:13:46Z</time>
      </trkpt>
      <trkpt lat="50.714931031689048" lon="6.1150779761374">
        <ele>291.89999999999998</ele>
        <time>2026-07-13T11:13:49Z</time>
      </trkpt>
      <trkpt lat="50.715075032785535" lon="6.115303030237556">
        <ele>291.89999999999998</ele>
        <time>2026-07-13T11:13:52Z</time>
      </trkpt>
      <trkpt lat="50.715616000816226" lon="6.116133006289601">
        <ele>287.56999999999999</ele>
        <time>2026-07-13T11:14:03Z</time>
      </trkpt>
      <trkpt lat="50.715723037719727" lon="6.11630299128592">
        <ele>286.61000000000001</ele>
        <time>2026-07-13T11:14:05Z</time>
      </trkpt>
      <trkpt lat="50.715843988582492" lon="6.116561992093921">
        <ele>286.61000000000001</ele>
        <time>2026-07-13T11:14:08Z</time>
      </trkpt>
      <trkpt lat="50.715951025485992" lon="6.116804983466864">
        <ele>286.61000000000001</ele>
        <time>2026-07-13T11:14:11Z</time>
      </trkpt>
      <trkpt lat="50.715981032699347" lon="6.116873966529965">
        <ele>286.61000000000001</ele>
        <time>2026-07-13T11:14:12Z</time>
      </trkpt>
      <trkpt lat="50.716040963307023" lon="6.11694797873497">
        <ele>286.61000000000001</ele>
        <time>2026-07-13T11:14:13Z</time>
      </trkpt>
      <trkpt lat="50.716100977733731" lon="6.117021990939975">
        <ele>286.61000000000001</ele>
        <time>2026-07-13T11:14:14Z</time>
      </trkpt>
      <trkpt lat="50.716166021302342" lon="6.117102038115263">
        <ele>286.61000000000001</ele>
        <time>2026-07-13T11:14:15Z</time>
      </trkpt>
      <trkpt lat="50.716229975223541" lon="6.11718200147152">
        <ele>286.61000000000001</ele>
        <time>2026-07-13T11:14:16Z</time>
      </trkpt>
      <trkpt lat="50.716294012963772" lon="6.117260036990047">
        <ele>286.61000000000001</ele>
        <time>2026-07-13T11:14:17Z</time>
      </trkpt>
      <trkpt lat="50.716358972713351" lon="6.117352992296219">
        <ele>287.08999999999997</ele>
        <time>2026-07-13T11:14:18Z</time>
      </trkpt>
      <trkpt lat="50.716408006846905" lon="6.117459023371339">
        <ele>286.61000000000001</ele>
        <time>2026-07-13T11:14:19Z</time>
      </trkpt>
      <trkpt lat="50.716931959614158" lon="6.118598040193319">
        <ele>286.61000000000001</ele>
        <time>2026-07-13T11:14:31Z</time>
      </trkpt>
      <trkpt lat="50.716997003182769" lon="6.118846982717514">
        <ele>286.61000000000001</ele>
        <time>2026-07-13T11:14:35Z</time>
      </trkpt>
      <trkpt lat="50.717035979032516" lon="6.119082011282444">
        <ele>286.61000000000001</ele>
        <time>2026-07-13T11:14:38Z</time>
      </trkpt>
      <trkpt lat="50.717047965154052" lon="6.119157029315829">
        <ele>286.61000000000001</ele>
        <time>2026-07-13T11:14:39Z</time>
      </trkpt>
      <trkpt lat="50.717060035094619" lon="6.119227018207312">
        <ele>286.61000000000001</ele>
        <time>2026-07-13T11:14:40Z</time>
      </trkpt>
      <trkpt lat="50.717075038701296" lon="6.119319973513484">
        <ele>286.13</ele>
        <time>2026-07-13T11:14:41Z</time>
      </trkpt>
      <trkpt lat="50.717096999287605" lon="6.119376970455051">
        <ele>286.13</ele>
        <time>2026-07-13T11:14:42Z</time>
      </trkpt>
      <trkpt lat="50.717115020379424" lon="6.119424998760223">
        <ele>285.64999999999998</ele>
        <time>2026-07-13T11:14:43Z</time>
      </trkpt>
      <trkpt lat="50.717130023986101" lon="6.119464980438352">
        <ele>285.17000000000002</ele>
        <time>2026-07-13T11:14:44Z</time>
      </trkpt>
      <trkpt lat="50.717245023697615" lon="6.119711995124817">
        <ele>282.76999999999998</ele>
        <time>2026-07-13T11:14:50Z</time>
      </trkpt>
      <trkpt lat="50.717420959845185" lon="6.119882985949516">
        <ele>282.76999999999998</ele>
        <time>2026-07-13T11:14:57Z</time>
      </trkpt>
      <trkpt lat="50.717435963451862" lon="6.119895977899432">
        <ele>283.25</ele>
        <time>2026-07-13T11:14:58Z</time>
      </trkpt>
      <trkpt lat="50.717441998422146" lon="6.119901007041335">
        <ele>283.25</ele>
        <time>2026-07-13T11:14:59Z</time>
      </trkpt>
      <trkpt lat="50.717441998422146" lon="6.119901007041335">
        <ele>283.73000000000002</ele>
        <time>2026-07-13T11:15:00Z</time>
      </trkpt>
      <trkpt lat="50.717441998422146" lon="6.119901007041335">
        <ele>283.25</ele>
        <time>2026-07-13T11:15:11Z</time>
      </trkpt>
      <trkpt lat="50.717441998422146" lon="6.119901007041335">
        <ele>283.73000000000002</ele>
        <time>2026-07-13T11:15:59Z</time>
      </trkpt>
      <trkpt lat="50.717441998422146" lon="6.119901007041335">
        <ele>284.20999999999998</ele>
        <time>2026-07-13T11:16:53Z</time>
      </trkpt>
      <trkpt lat="50.717441998422146" lon="6.119901007041335">
        <ele>284.20999999999998</ele>
        <time>2026-07-13T11:17:26Z</time>
      </trkpt>
      <trkpt lat="50.717575019225478" lon="6.119763040915132">
        <ele>290.45999999999998</ele>
        <time>2026-07-13T11:28:26Z</time>
      </trkpt>
      <trkpt lat="50.717489020898938" lon="6.119855996221304">
        <ele>289.97000000000003</ele>
        <time>2026-07-13T11:29:15Z</time>
      </trkpt>
      <trkpt lat="50.717498995363712" lon="6.119829006493092">
        <ele>286.61000000000001</ele>
        <time>2026-07-13T11:30:07Z</time>
      </trkpt>
      <trkpt lat="50.717498995363712" lon="6.119815008714795">
        <ele>287.08999999999997</ele>
        <time>2026-07-13T11:30:59Z</time>
      </trkpt>
      <trkpt lat="50.717495977878571" lon="6.119812997058034">
        <ele>286.61000000000001</ele>
        <time>2026-07-13T11:31:53Z</time>
      </trkpt>
      <trkpt lat="50.717500001192093" lon="6.119812997058034">
        <ele>285.64999999999998</ele>
        <time>2026-07-13T11:32:49Z</time>
      </trkpt>
      <trkpt lat="50.717497989535332" lon="6.119814002886415">
        <ele>285.64999999999998</ele>
        <time>2026-07-13T11:33:44Z</time>
      </trkpt>
      <trkpt lat="50.717498995363712" lon="6.119821965694428">
        <ele>286.61000000000001</ele>
        <time>2026-07-13T11:34:41Z</time>
      </trkpt>
      <trkpt lat="50.717501007020473" lon="6.119840992614627">
        <ele>287.08999999999997</ele>
        <time>2026-07-13T11:35:39Z</time>
      </trkpt>
      <trkpt lat="50.717502012848854" lon="6.119841998443008">
        <ele>287.08999999999997</ele>
        <time>2026-07-13T11:36:23Z</time>
      </trkpt>
      <trkpt lat="50.717504024505615" lon="6.119839986786246">
        <ele>286.61000000000001</ele>
        <time>2026-07-13T11:36:58Z</time>
      </trkpt>
      <trkpt lat="50.717492960393429" lon="6.119944006204605">
        <ele>286.61000000000001</ele>
        <time>2026-07-13T11:37:06Z</time>
      </trkpt>
      <trkpt lat="50.717522967606783" lon="6.119968984276056">
        <ele>286.13</ele>
        <time>2026-07-13T11:37:07Z</time>
      </trkpt>
      <trkpt lat="50.717636039480567" lon="6.120020030066371">
        <ele>286.13</ele>
        <time>2026-07-13T11:37:09Z</time>
      </trkpt>
      <trkpt lat="50.717691024765372" lon="6.120031010359526">
        <ele>286.13</ele>
        <time>2026-07-13T11:37:10Z</time>
      </trkpt>
      <trkpt lat="50.717822033911943" lon="6.120080966502428">
        <ele>285.64999999999998</ele>
        <time>2026-07-13T11:37:12Z</time>
      </trkpt>
      <trkpt lat="50.717889005318284" lon="6.120134023949504">
        <ele>285.64999999999998</ele>
        <time>2026-07-13T11:37:13Z</time>
      </trkpt>
      <trkpt lat="50.717964023351669" lon="6.120194038376212">
        <ele>285.64999999999998</ele>
        <time>2026-07-13T11:37:14Z</time>
      </trkpt>
      <trkpt lat="50.718042980879545" lon="6.120332004502416">
        <ele>285.64999999999998</ele>
        <time>2026-07-13T11:37:15Z</time>
      </trkpt>
      <trkpt lat="50.718100983649492" lon="6.12047198228538">
        <ele>285.17000000000002</ele>
        <time>2026-07-13T11:37:16Z</time>
      </trkpt>
      <trkpt lat="50.718815959990025" lon="6.122021963819861">
        <ele>285.17000000000002</ele>
        <time>2026-07-13T11:37:25Z</time>
      </trkpt>
      <trkpt lat="50.719968974590302" lon="6.124448021873832">
        <ele>285.64999999999998</ele>
        <time>2026-07-13T11:37:36Z</time>
      </trkpt>
      <trkpt lat="50.721121989190578" lon="6.12629103474319">
        <ele>284.20999999999998</ele>
        <time>2026-07-13T11:37:44Z</time>
      </trkpt>
      <trkpt lat="50.722786970436573" lon="6.128688007593155">
        <ele>281.31999999999999</ele>
        <time>2026-07-13T11:37:53Z</time>
      </trkpt>
      <trkpt lat="50.725062992423773" lon="6.131185982376337">
        <ele>279.88</ele>
        <time>2026-07-13T11:38:03Z</time>
      </trkpt>
      <trkpt lat="50.727337002754211" lon="6.13306101411581">
        <ele>277.95999999999998</ele>
        <time>2026-07-13T11:38:12Z</time>
      </trkpt>
      <trkpt lat="50.730044022202492" lon="6.134580988436937">
        <ele>275.06999999999999</ele>
        <time>2026-07-13T11:38:22Z</time>
      </trkpt>
      <trkpt lat="50.732058025896549" lon="6.135625960305333">
        <ele>273.63</ele>
        <time>2026-07-13T11:38:29Z</time>
      </trkpt>
      <trkpt lat="50.734241008758545" lon="6.136753996834159">
        <ele>272.19</ele>
        <time>2026-07-13T11:38:37Z</time>
      </trkpt>
      <trkpt lat="50.737378019839525" lon="6.138370027765632">
        <ele>270.26999999999998</ele>
        <time>2026-07-13T11:38:49Z</time>
      </trkpt>
      <trkpt lat="50.740088978782296" lon="6.139750024303794">
        <ele>266.89999999999998</ele>
        <time>2026-07-13T11:39:00Z</time>
      </trkpt>
      <trkpt lat="50.742891971021891" lon="6.141250971704722">
        <ele>267.38</ele>
        <time>2026-07-13T11:39:11Z</time>
      </trkpt>
      <trkpt lat="50.745190037414432" lon="6.142563996836543">
        <ele>266.42000000000002</ele>
        <time>2026-07-13T11:39:21Z</time>
      </trkpt>
      <trkpt lat="50.747937960550189" lon="6.144407009705901">
        <ele>264.01999999999998</ele>
        <time>2026-07-13T11:39:32Z</time>
      </trkpt>
      <trkpt lat="50.750713963061571" lon="6.146654030308127">
        <ele>261.13999999999999</ele>
        <time>2026-07-13T11:39:43Z</time>
      </trkpt>
      <trkpt lat="50.752827962860465" lon="6.14872301928699">
        <ele>257.29000000000002</ele>
        <time>2026-07-13T11:39:52Z</time>
      </trkpt>
      <trkpt lat="50.755618968978524" lon="6.151946028694511">
        <ele>250.56</ele>
        <time>2026-07-13T11:40:03Z</time>
      </trkpt>
      <trkpt lat="50.757854003459215" lon="6.15508396178484">
        <ele>244.78999999999999</ele>
        <time>2026-07-13T11:40:13Z</time>
      </trkpt>
      <trkpt lat="50.760159026831388" lon="6.158982971683145">
        <ele>239.02000000000001</ele>
        <time>2026-07-13T11:40:24Z</time>
      </trkpt>
      <trkpt lat="50.762030035257339" lon="6.162705961614847">
        <ele>234.22</ele>
        <time>2026-07-13T11:40:34Z</time>
      </trkpt>
      <trkpt lat="50.763795012608171" lon="6.166711002588272">
        <ele>228.93000000000001</ele>
        <time>2026-07-13T11:40:44Z</time>
      </trkpt>
      <trkpt lat="50.765440966933966" lon="6.169736031442881">
        <ele>225.56999999999999</ele>
        <time>2026-07-13T11:40:52Z</time>
      </trkpt>
      <trkpt lat="50.767564019188285" lon="6.172620998695493">
        <ele>224.12</ele>
        <time>2026-07-13T11:41:01Z</time>
      </trkpt>
      <trkpt lat="50.769665027037263" lon="6.174662997946143">
        <ele>224.12</ele>
        <time>2026-07-13T11:41:09Z</time>
      </trkpt>
      <trkpt lat="50.771943982690573" lon="6.176210967823863">
        <ele>226.53</ele>
        <time>2026-07-13T11:41:17Z</time>
      </trkpt>
      <trkpt lat="50.77464203350246" lon="6.177314026281238">
        <ele>229.88999999999999</ele>
        <time>2026-07-13T11:41:26Z</time>
      </trkpt>
      <trkpt lat="50.776809006929398" lon="6.177679980173707">
        <ele>230.84999999999999</ele>
        <time>2026-07-13T11:41:33Z</time>
      </trkpt>
      <trkpt lat="50.778990983963013" lon="6.177618037909269">
        <ele>229.88999999999999</ele>
        <time>2026-07-13T11:41:40Z</time>
      </trkpt>
      <trkpt lat="50.781761035323143" lon="6.176915969699621">
        <ele>228.44999999999999</ele>
        <time>2026-07-13T11:41:49Z</time>
      </trkpt>
      <trkpt lat="50.784448022022843" lon="6.175535973161459">
        <ele>222.19999999999999</ele>
        <time>2026-07-13T11:41:58Z</time>
      </trkpt>
      <trkpt lat="50.787221007049084" lon="6.173326000571251">
        <ele>212.11000000000001</ele>
        <time>2026-07-13T11:42:08Z</time>
      </trkpt>
      <trkpt lat="50.789149012416601" lon="6.171780964359641">
        <ele>204.90000000000001</ele>
        <time>2026-07-13T11:42:16Z</time>
      </trkpt>
      <trkpt lat="50.791061008349061" lon="6.170685030519962">
        <ele>199.61000000000001</ele>
        <time>2026-07-13T11:42:24Z</time>
      </trkpt>
      <trkpt lat="50.792888011783361" lon="6.169918002560735">
        <ele>193.36000000000001</ele>
        <time>2026-07-13T11:42:33Z</time>
      </trkpt>
      <trkpt lat="50.795025983825326" lon="6.169490022584796">
        <ele>193.84</ele>
        <time>2026-07-13T11:42:43Z</time>
      </trkpt>
      <trkpt lat="50.797557989135385" lon="6.169469989836216">
        <ele>195.77000000000001</ele>
        <time>2026-07-13T11:42:53Z</time>
      </trkpt>
      <trkpt lat="50.799590013921261" lon="6.169996960088611">
        <ele>194.31999999999999</ele>
        <time>2026-07-13T11:43:01Z</time>
      </trkpt>
      <trkpt lat="50.801805015653372" lon="6.170497024431825">
        <ele>196.72999999999999</ele>
        <time>2026-07-13T11:43:10Z</time>
      </trkpt>
      <trkpt lat="50.802033003419638" lon="6.170628033578396">
        <ele>196.72999999999999</ele>
        <time>2026-07-13T11:43:11Z</time>
      </trkpt>
      <trkpt lat="50.802256967872381" lon="6.170802041888237">
        <ele>196.72999999999999</ele>
        <time>2026-07-13T11:43:12Z</time>
      </trkpt>
      <trkpt lat="50.802465006709099" lon="6.171019971370697">
        <ele>196.25</ele>
        <time>2026-07-13T11:43:13Z</time>
      </trkpt>
      <trkpt lat="50.802666004747152" lon="6.171257011592388">
        <ele>195.77000000000001</ele>
        <time>2026-07-13T11:43:14Z</time>
      </trkpt>
      <trkpt lat="50.802834983915091" lon="6.171556999906898">
        <ele>195.77000000000001</ele>
        <time>2026-07-13T11:43:15Z</time>
      </trkpt>
      <trkpt lat="50.803004968911409" lon="6.171860005706549">
        <ele>195.28</ele>
        <time>2026-07-13T11:43:16Z</time>
      </trkpt>
      <trkpt lat="50.803984981030226" lon="6.173706036061049">
        <ele>192.88</ele>
        <time>2026-07-13T11:43:22Z</time>
      </trkpt>
      <trkpt lat="50.804120013490319" lon="6.174041982740164">
        <ele>192.88</ele>
        <time>2026-07-13T11:43:23Z</time>
      </trkpt>
      <trkpt lat="50.804213974624872" lon="6.174421012401581">
        <ele>192.88</ele>
        <time>2026-07-13T11:43:24Z</time>
      </trkpt>
      <trkpt lat="50.804302990436554" lon="6.174812028184533">
        <ele>192.88</ele>
        <time>2026-07-13T11:43:25Z</time>
      </trkpt>
      <trkpt lat="50.804375996813178" lon="6.17521402426064">
        <ele>192.40000000000001</ele>
        <time>2026-07-13T11:43:26Z</time>
      </trkpt>
      <trkpt lat="50.80502400174737" lon="6.178468968719244">
        <ele>190</ele>
        <time>2026-07-13T11:43:34Z</time>
      </trkpt>
      <trkpt lat="50.805825982242823" lon="6.183840008452535">
        <ele>187.11000000000001</ele>
        <time>2026-07-13T11:43:47Z</time>
      </trkpt>
      <trkpt lat="50.806440962478518" lon="6.187705993652344">
        <ele>188.08000000000001</ele>
        <time>2026-07-13T11:43:56Z</time>
      </trkpt>
      <trkpt lat="50.807390967383981" lon="6.192813003435731">
        <ele>196.25</ele>
        <time>2026-07-13T11:44:07Z</time>
      </trkpt>
      <trkpt lat="50.808560997247696" lon="6.196811003610492">
        <ele>205.38</ele>
        <time>2026-07-13T11:44:16Z</time>
      </trkpt>
      <trkpt lat="50.810486990958452" lon="6.201291969045997">
        <ele>214.50999999999999</ele>
        <time>2026-07-13T11:44:27Z</time>
      </trkpt>
      <trkpt lat="50.813142964616418" lon="6.206764010712504">
        <ele>216.91</ele>
        <time>2026-07-13T11:44:41Z</time>
      </trkpt>
      <trkpt lat="50.816231025382876" lon="6.212918004021049">
        <ele>218.36000000000001</ele>
        <time>2026-07-13T11:44:57Z</time>
      </trkpt>
      <trkpt lat="50.818908037617803" lon="6.21829298324883">
        <ele>217.40000000000001</ele>
        <time>2026-07-13T11:45:11Z</time>
      </trkpt>
      <trkpt lat="50.821636011824012" lon="6.223753960803151">
        <ele>208.74000000000001</ele>
        <time>2026-07-13T11:45:25Z</time>
      </trkpt>
      <trkpt lat="50.823144000023603" lon="6.227435041218996">
        <ele>200.09</ele>
        <time>2026-07-13T11:45:34Z</time>
      </trkpt>
      <trkpt lat="50.824249992147088" lon="6.231486015021801">
        <ele>196.72999999999999</ele>
        <time>2026-07-13T11:45:43Z</time>
      </trkpt>
      <trkpt lat="50.824902020394802" lon="6.235796995460987">
        <ele>192.88</ele>
        <time>2026-07-13T11:45:52Z</time>
      </trkpt>
      <trkpt lat="50.825422033667564" lon="6.242687003687024">
        <ele>177.97999999999999</ele>
        <time>2026-07-13T11:46:06Z</time>
      </trkpt>
      <trkpt lat="50.825949003919959" lon="6.249516997486353">
        <ele>161.16</ele>
        <time>2026-07-13T11:46:20Z</time>
      </trkpt>
      <trkpt lat="50.826675966382027" lon="6.255769981071353">
        <ele>160.68000000000001</ele>
        <time>2026-07-13T11:46:33Z</time>
      </trkpt>
      <trkpt lat="50.827267980203032" lon="6.263602031394839">
        <ele>162.59999999999999</ele>
        <time>2026-07-13T11:46:49Z</time>
      </trkpt>
      <trkpt lat="50.82786301150918" lon="6.271946970373392">
        <ele>165.47999999999999</ele>
        <time>2026-07-13T11:47:06Z</time>
      </trkpt>
      <trkpt lat="50.828389981761575" lon="6.279276022687554">
        <ele>161.16</ele>
        <time>2026-07-13T11:47:21Z</time>
      </trkpt>
      <trkpt lat="50.828889040276408" lon="6.28661697730422">
        <ele>153.94999999999999</ele>
        <time>2026-07-13T11:47:36Z</time>
      </trkpt>
      <trkpt lat="50.829608961939812" lon="6.293413024395704">
        <ele>147.69999999999999</ele>
        <time>2026-07-13T11:47:50Z</time>
      </trkpt>
      <trkpt lat="50.830412032082677" lon="6.299683023244143">
        <ele>137.13</ele>
        <time>2026-07-13T11:48:03Z</time>
      </trkpt>
      <trkpt lat="50.83076499402523" lon="6.305970037356019">
        <ele>129.91999999999999</ele>
        <time>2026-07-13T11:48:16Z</time>
      </trkpt>
      <trkpt lat="50.831165984272957" lon="6.311477031558752">
        <ele>130.88</ele>
        <time>2026-07-13T11:48:28Z</time>
      </trkpt>
      <trkpt lat="50.831900993362069" lon="6.31585699506104">
        <ele>129.43000000000001</ele>
        <time>2026-07-13T11:48:38Z</time>
      </trkpt>
      <trkpt lat="50.832790983840823" lon="6.320407027378678">
        <ele>128.94999999999999</ele>
        <time>2026-07-13T11:48:48Z</time>
      </trkpt>
      <trkpt lat="50.833279984071851" lon="6.32479302585125">
        <ele>129.91999999999999</ele>
        <time>2026-07-13T11:48:57Z</time>
      </trkpt>
      <trkpt lat="50.833290964365005" lon="6.329247001558542">
        <ele>127.98999999999999</ele>
        <time>2026-07-13T11:49:06Z</time>
      </trkpt>
      <trkpt lat="50.833053002133965" lon="6.336614023894072">
        <ele>118.38</ele>
        <time>2026-07-13T11:49:21Z</time>
      </trkpt>
      <trkpt lat="50.833087032660842" lon="6.340995999053121">
        <ele>119.81999999999999</ele>
        <time>2026-07-13T11:49:30Z</time>
      </trkpt>
      <trkpt lat="50.833551976829767" lon="6.346372989937663">
        <ele>118.86</ele>
        <time>2026-07-13T11:49:41Z</time>
      </trkpt>
      <trkpt lat="50.834485972300172" lon="6.356064984574914">
        <ele>116.45999999999999</ele>
        <time>2026-07-13T11:50:01Z</time>
      </trkpt>
      <trkpt lat="50.835029035806656" lon="6.361399982124567">
        <ele>116.94</ele>
        <time>2026-07-13T11:50:12Z</time>
      </trkpt>
      <trkpt lat="50.835216036066413" lon="6.365854041650891">
        <ele>117.42</ele>
        <time>2026-07-13T11:50:21Z</time>
      </trkpt>
      <trkpt lat="50.835279989987612" lon="6.372211966663599">
        <ele>122.70999999999999</ele>
        <time>2026-07-13T11:50:34Z</time>
      </trkpt>
      <trkpt lat="50.835329024121165" lon="6.379096023738384">
        <ele>127.51000000000001</ele>
        <time>2026-07-13T11:50:48Z</time>
      </trkpt>
      <trkpt lat="50.835329024121165" lon="6.38546803034842">
        <ele>126.06999999999999</ele>
        <time>2026-07-13T11:51:01Z</time>
      </trkpt>
      <trkpt lat="50.835355008020997" lon="6.392845027148724">
        <ele>127.51000000000001</ele>
        <time>2026-07-13T11:51:16Z</time>
      </trkpt>
      <trkpt lat="50.835432037711143" lon="6.401250986382365">
        <ele>125.59</ele>
        <time>2026-07-13T11:51:33Z</time>
      </trkpt>
      <trkpt lat="50.835403958335519" lon="6.406163033097982">
        <ele>121.73999999999999</ele>
        <time>2026-07-13T11:51:43Z</time>
      </trkpt>
      <trkpt lat="50.835372023284435" lon="6.414005979895592">
        <ele>121.26000000000001</ele>
        <time>2026-07-13T11:51:59Z</time>
      </trkpt>
      <trkpt lat="50.835329024121165" lon="6.419423036277294">
        <ele>118.86</ele>
        <time>2026-07-13T11:52:10Z</time>
      </trkpt>
      <trkpt lat="50.835301028564572" lon="6.42923497594893">
        <ele>115.98</ele>
        <time>2026-07-13T11:52:30Z</time>
      </trkpt>
      <trkpt lat="50.835424996912479" lon="6.435111025348306">
        <ele>116.94</ele>
        <time>2026-07-13T11:52:42Z</time>
      </trkpt>
      <trkpt lat="50.83607099018991" lon="6.439901031553745">
        <ele>116.94</ele>
        <time>2026-07-13T11:52:52Z</time>
      </trkpt>
      <trkpt lat="50.8375099953264" lon="6.446932023391128">
        <ele>114.05</ele>
        <time>2026-07-13T11:53:07Z</time>
      </trkpt>
      <trkpt lat="50.838901977986097" lon="6.453466974198818">
        <ele>112.61</ele>
        <time>2026-07-13T11:53:21Z</time>
      </trkpt>
      <trkpt lat="50.839979974552989" lon="6.458529978990555">
        <ele>113.09</ele>
        <time>2026-07-13T11:53:32Z</time>
      </trkpt>
      <trkpt lat="50.840738033875823" lon="6.461746031418443">
        <ele>114.05</ele>
        <time>2026-07-13T11:53:39Z</time>
      </trkpt>
      <trkpt lat="50.842046029865742" lon="6.466146027669311">
        <ele>115.01000000000001</ele>
        <time>2026-07-13T11:53:49Z</time>
      </trkpt>
      <trkpt lat="50.843716040253639" lon="6.471457974985242">
        <ele>117.42</ele>
        <time>2026-07-13T11:54:01Z</time>
      </trkpt>
      <trkpt lat="50.845649996772408" lon="6.47763904184103">
        <ele>122.22</ele>
        <time>2026-07-13T11:54:15Z</time>
      </trkpt>
      <trkpt lat="50.8481440320611" lon="6.485610986128449">
        <ele>117.42</ele>
        <time>2026-07-13T11:54:33Z</time>
      </trkpt>
      <trkpt lat="50.849195038899779" lon="6.488991994410753">
        <ele>115.98</ele>
        <time>2026-07-13T11:54:41Z</time>
      </trkpt>
      <trkpt lat="50.850534969940782" lon="6.493308003991842">
        <ele>117.90000000000001</ele>
        <time>2026-07-13T11:54:51Z</time>
      </trkpt>
      <trkpt lat="50.851309960708022" lon="6.497009033337236">
        <ele>119.34</ele>
        <time>2026-07-13T11:54:59Z</time>
      </trkpt>
      <trkpt lat="50.851551024243236" lon="6.500944001600146">
        <ele>121.73999999999999</ele>
        <time>2026-07-13T11:55:07Z</time>
      </trkpt>
      <trkpt lat="50.851229997351766" lon="6.504854997619987">
        <ele>122.70999999999999</ele>
        <time>2026-07-13T11:55:15Z</time>
      </trkpt>
      <trkpt lat="50.850473027676344" lon="6.5080869756639">
        <ele>122.22</ele>
        <time>2026-07-13T11:55:22Z</time>
      </trkpt>
      <trkpt lat="50.84924197755754" lon="6.511508971452713">
        <ele>118.86</ele>
        <time>2026-07-13T11:55:30Z</time>
      </trkpt>
      <trkpt lat="50.847545983269811" lon="6.515599004924297">
        <ele>124.63</ele>
        <time>2026-07-13T11:55:40Z</time>
      </trkpt>
      <trkpt lat="50.846479972824454" lon="6.519123008474708">
        <ele>129.43000000000001</ele>
        <time>2026-07-13T11:55:48Z</time>
      </trkpt>
      <trkpt lat="50.845955014228821" lon="6.52247803285718">
        <ele>131.36000000000001</ele>
        <time>2026-07-13T11:55:55Z</time>
      </trkpt>
      <trkpt lat="50.84591100923717" lon="6.526413001120091">
        <ele>132.80000000000001</ele>
        <time>2026-07-13T11:56:03Z</time>
      </trkpt>
      <trkpt lat="50.846325997263193" lon="6.529771964997053">
        <ele>132.31999999999999</ele>
        <time>2026-07-13T11:56:10Z</time>
      </trkpt>
      <trkpt lat="50.847308021038771" lon="6.533375009894371">
        <ele>128.94999999999999</ele>
        <time>2026-07-13T11:56:18Z</time>
      </trkpt>
      <trkpt lat="50.849206019192934" lon="6.538475984707475">
        <ele>122.22</ele>
        <time>2026-07-13T11:56:30Z</time>
      </trkpt>
      <trkpt lat="50.850382000207901" lon="6.541512999683619">
        <ele>120.3</ele>
        <time>2026-07-13T11:56:38Z</time>
      </trkpt>
      <trkpt lat="50.851680021733046" lon="6.544865006580949">
        <ele>118.86</ele>
        <time>2026-07-13T11:56:48Z</time>
      </trkpt>
      <trkpt lat="50.852878969162703" lon="6.54796396382153">
        <ele>118.86</ele>
        <time>2026-07-13T11:56:59Z</time>
      </trkpt>
      <trkpt lat="50.854350998997688" lon="6.551763983443379">
        <ele>118.38</ele>
        <time>2026-07-13T11:57:13Z</time>
      </trkpt>
      <trkpt lat="50.856559965759516" lon="6.55747901648283">
        <ele>116.45999999999999</ele>
        <time>2026-07-13T11:57:34Z</time>
      </trkpt>
      <trkpt lat="50.857826974242926" lon="6.560736978426576">
        <ele>117.42</ele>
        <time>2026-07-13T11:57:46Z</time>
      </trkpt>
      <trkpt lat="50.859098006039858" lon="6.564006004482508">
        <ele>113.09</ele>
        <time>2026-07-13T11:57:58Z</time>
      </trkpt>
      <trkpt lat="50.860253032296896" lon="6.567008988931775">
        <ele>109.25</ele>
        <time>2026-07-13T11:58:09Z</time>
      </trkpt>
      <trkpt lat="50.861933017149568" lon="6.571385012939572">
        <ele>99.629999999999995</ele>
        <time>2026-07-13T11:58:25Z</time>
      </trkpt>
      <trkpt lat="50.863609984517097" lon="6.575734969228506">
        <ele>91.939999999999998</ele>
        <time>2026-07-13T11:58:41Z</time>
      </trkpt>
      <trkpt lat="50.8650759793818" lon="6.579556027427316">
        <ele>88.579999999999998</ele>
        <time>2026-07-13T11:58:55Z</time>
      </trkpt>
      <trkpt lat="50.866752024739981" lon="6.583918975666165">
        <ele>89.540000000000006</ele>
        <time>2026-07-13T11:59:11Z</time>
      </trkpt>
      <trkpt lat="50.86791199631989" lon="6.586934030056">
        <ele>91.939999999999998</ele>
        <time>2026-07-13T11:59:22Z</time>
      </trkpt>
      <trkpt lat="50.869380002841353" lon="6.590745029971004">
        <ele>92.420000000000002</ele>
        <time>2026-07-13T11:59:36Z</time>
      </trkpt>
      <trkpt lat="50.870968960225582" lon="6.594816958531737">
        <ele>89.540000000000006</ele>
        <time>2026-07-13T11:59:51Z</time>
      </trkpt>
      <trkpt lat="50.871964981779456" lon="6.597278974950314">
        <ele>89.060000000000002</ele>
        <time>2026-07-13T11:59:59Z</time>
      </trkpt>
      <trkpt lat="50.873098969459534" lon="6.600081967189908">
        <ele>86.659999999999997</ele>
        <time>2026-07-13T12:00:06Z</time>
      </trkpt>
      <trkpt lat="50.875503988936543" lon="6.606026999652386">
        <ele>83.290000000000006</ele>
        <time>2026-07-13T12:00:20Z</time>
      </trkpt>
      <trkpt lat="50.877216998487711" lon="6.610253993421793">
        <ele>82.329999999999998</ele>
        <time>2026-07-13T12:00:30Z</time>
      </trkpt>
      <trkpt lat="50.879780016839504" lon="6.616583000868559">
        <ele>90.019999999999996</ele>
        <time>2026-07-13T12:00:45Z</time>
      </trkpt>
      <trkpt lat="50.882100965827703" lon="6.622015982866287">
        <ele>96.269999999999996</ele>
        <time>2026-07-13T12:00:58Z</time>
      </trkpt>
      <trkpt lat="50.884628025814891" lon="6.626546988263726">
        <ele>95.310000000000002</ele>
        <time>2026-07-13T12:01:10Z</time>
      </trkpt>
      <trkpt lat="50.886802040040493" lon="6.62952097132802">
        <ele>91.459999999999994</ele>
        <time>2026-07-13T12:01:19Z</time>
      </trkpt>
      <trkpt lat="50.889730006456375" lon="6.633370025083423">
        <ele>86.180000000000007</ele>
        <time>2026-07-13T12:01:31Z</time>
      </trkpt>
      <trkpt lat="50.891194995492697" lon="6.636037984862924">
        <ele>86.659999999999997</ele>
        <time>2026-07-13T12:01:38Z</time>
      </trkpt>
      <trkpt lat="50.892431996762753" lon="6.63957598619163">
        <ele>87.620000000000005</ele>
        <time>2026-07-13T12:01:46Z</time>
      </trkpt>
      <trkpt lat="50.893056029453874" lon="6.642951965332031">
        <ele>90.019999999999996</ele>
        <time>2026-07-13T12:01:53Z</time>
      </trkpt>
      <trkpt lat="50.893184021115303" lon="6.646453002467752">
        <ele>91.939999999999998</ele>
        <time>2026-07-13T12:02:00Z</time>
      </trkpt>
      <trkpt lat="50.892891995608807" lon="6.649936018511653">
        <ele>93.390000000000001</ele>
        <time>2026-07-13T12:02:07Z</time>
      </trkpt>
      <trkpt lat="50.891837971284986" lon="6.656816974282265">
        <ele>91.939999999999998</ele>
        <time>2026-07-13T12:02:21Z</time>
      </trkpt>
      <trkpt lat="50.890805991366506" lon="6.663567004725337">
        <ele>84.730000000000004</ele>
        <time>2026-07-13T12:02:35Z</time>
      </trkpt>
      <trkpt lat="50.890057990327477" lon="6.668758001178503">
        <ele>82.810000000000002</ele>
        <time>2026-07-13T12:02:47Z</time>
      </trkpt>
      <trkpt lat="50.889696981757879" lon="6.673656972125173">
        <ele>83.290000000000006</ele>
        <time>2026-07-13T12:02:58Z</time>
      </trkpt>
      <trkpt lat="50.889811981469393" lon="6.677978010848165">
        <ele>82.810000000000002</ele>
        <time>2026-07-13T12:03:08Z</time>
      </trkpt>
      <trkpt lat="50.890121022239327" lon="6.681206971406937">
        <ele>82.329999999999998</ele>
        <time>2026-07-13T12:03:17Z</time>
      </trkpt>
      <trkpt lat="50.890397960320115" lon="6.683883983641863">
        <ele>79.930000000000007</ele>
        <time>2026-07-13T12:03:26Z</time>
      </trkpt>
      <trkpt lat="50.89096600189805" lon="6.686427975073457">
        <ele>78.480000000000004</ele>
        <time>2026-07-13T12:03:35Z</time>
      </trkpt>
      <trkpt lat="50.89148098602891" lon="6.688397973775864">
        <ele>77.040000000000006</ele>
        <time>2026-07-13T12:03:42Z</time>
      </trkpt>
      <trkpt lat="50.892090015113354" lon="6.690349029377103">
        <ele>76.079999999999998</ele>
        <time>2026-07-13T12:03:49Z</time>
      </trkpt>
      <trkpt lat="50.892630983144045" lon="6.692166980355978">
        <ele>78.480000000000004</ele>
        <time>2026-07-13T12:03:57Z</time>
      </trkpt>
      <trkpt lat="50.89268496260047" lon="6.692368984222412">
        <ele>78.480000000000004</ele>
        <time>2026-07-13T12:03:58Z</time>
      </trkpt>
      <trkpt lat="50.892693009227514" lon="6.692580040544272">
        <ele>78.480000000000004</ele>
        <time>2026-07-13T12:03:59Z</time>
      </trkpt>
      <trkpt lat="50.892699966207147" lon="6.69279595836997">
        <ele>78</ele>
        <time>2026-07-13T12:04:00Z</time>
      </trkpt>
      <trkpt lat="50.892707007005811" lon="6.692969966679812">
        <ele>78</ele>
        <time>2026-07-13T12:04:01Z</time>
      </trkpt>
      <trkpt lat="50.892666019499302" lon="6.693428037688136">
        <ele>78</ele>
        <time>2026-07-13T12:04:03Z</time>
      </trkpt>
      <trkpt lat="50.89259896427393" lon="6.694249967113137">
        <ele>75.599999999999994</ele>
        <time>2026-07-13T12:04:07Z</time>
      </trkpt>
      <trkpt lat="50.892592007294297" lon="6.695839008316398">
        <ele>71.760000000000005</ele>
        <time>2026-07-13T12:04:14Z</time>
      </trkpt>
      <trkpt lat="50.892548002302647" lon="6.696076970547438">
        <ele>71.269999999999996</ele>
        <time>2026-07-13T12:04:15Z</time>
      </trkpt>
      <trkpt lat="50.892505003139377" lon="6.696314010769129">
        <ele>70.790000000000006</ele>
        <time>2026-07-13T12:04:16Z</time>
      </trkpt>
      <trkpt lat="50.892425961792469" lon="6.696518026292324">
        <ele>69.829999999999998</ele>
        <time>2026-07-13T12:04:17Z</time>
      </trkpt>
      <trkpt lat="50.892329989001155" lon="6.696718018501997">
        <ele>69.349999999999994</ele>
        <time>2026-07-13T12:04:18Z</time>
      </trkpt>
      <trkpt lat="50.892234016209841" lon="6.696915999054909">
        <ele>69.349999999999994</ele>
        <time>2026-07-13T12:04:19Z</time>
      </trkpt>
      <trkpt lat="50.892115999013186" lon="6.697082966566086">
        <ele>68.870000000000005</ele>
        <time>2026-07-13T12:04:20Z</time>
      </trkpt>
      <trkpt lat="50.891979960724711" lon="6.697225039824843">
        <ele>68.870000000000005</ele>
        <time>2026-07-13T12:04:21Z</time>
      </trkpt>
      <trkpt lat="50.89184501208365" lon="6.697367029264569">
        <ele>68.870000000000005</ele>
        <time>2026-07-13T12:04:22Z</time>
      </trkpt>
      <trkpt lat="50.890184976160526" lon="6.698849033564329">
        <ele>70.790000000000006</ele>
        <time>2026-07-13T12:04:33Z</time>
      </trkpt>
      <trkpt lat="50.88911703787744" lon="6.699785040691495">
        <ele>71.760000000000005</ele>
        <time>2026-07-13T12:04:39Z</time>
      </trkpt>
      <trkpt lat="50.888906987383962" lon="6.699940022081137">
        <ele>71.760000000000005</ele>
        <time>2026-07-13T12:04:40Z</time>
      </trkpt>
      <trkpt lat="50.88658201508224" lon="6.701610032469034">
        <ele>74.640000000000001</ele>
        <time>2026-07-13T12:04:50Z</time>
      </trkpt>
      <trkpt lat="50.88419702835381" lon="6.703126989305019">
        <ele>75.120000000000005</ele>
        <time>2026-07-13T12:05:00Z</time>
      </trkpt>
      <trkpt lat="50.881620012223721" lon="6.704542022198439">
        <ele>70.310000000000002</ele>
        <time>2026-07-13T12:05:11Z</time>
      </trkpt>
      <trkpt lat="50.879075014963746" lon="6.705761002376676">
        <ele>66.469999999999999</ele>
        <time>2026-07-13T12:05:22Z</time>
      </trkpt>
      <trkpt lat="50.876709977164865" lon="6.706751994788647">
        <ele>67.430000000000007</ele>
        <time>2026-07-13T12:05:33Z</time>
      </trkpt>
      <trkpt lat="50.874627996236086" lon="6.70746797695756">
        <ele>68.870000000000005</ele>
        <time>2026-07-13T12:05:43Z</time>
      </trkpt>
      <trkpt lat="50.872373012825847" lon="6.708161998540163">
        <ele>73.200000000000003</ele>
        <time>2026-07-13T12:05:54Z</time>
      </trkpt>
      <trkpt lat="50.870181983336806" lon="6.708749989047647">
        <ele>78.480000000000004</ele>
        <time>2026-07-13T12:06:05Z</time>
      </trkpt>
      <trkpt lat="50.867935968562961" lon="6.709445016458631">
        <ele>79.930000000000007</ele>
        <time>2026-07-13T12:06:13Z</time>
      </trkpt>
      <trkpt lat="50.865859016776085" lon="6.710427962243557">
        <ele>78</ele>
        <time>2026-07-13T12:06:20Z</time>
      </trkpt>
      <trkpt lat="50.86325098760426" lon="6.712364014238119">
        <ele>79.450000000000003</ele>
        <time>2026-07-13T12:06:29Z</time>
      </trkpt>
      <trkpt lat="50.860863989219069" lon="6.714884033426642">
        <ele>84.730000000000004</ele>
        <time>2026-07-13T12:06:38Z</time>
      </trkpt>
      <trkpt lat="50.858233999460936" lon="6.71859797090292">
        <ele>88.099999999999994</ele>
        <time>2026-07-13T12:06:49Z</time>
      </trkpt>
      <trkpt lat="50.855013001710176" lon="6.723451009020209">
        <ele>83.769999999999996</ele>
        <time>2026-07-13T12:07:03Z</time>
      </trkpt>
      <trkpt lat="50.853010984137654" lon="6.726547032594681">
        <ele>84.730000000000004</ele>
        <time>2026-07-13T12:07:12Z</time>
      </trkpt>
      <trkpt lat="50.851146010681987" lon="6.729870960116386">
        <ele>88.099999999999994</ele>
        <time>2026-07-13T12:07:21Z</time>
      </trkpt>
      <trkpt lat="50.849568033590913" lon="6.733548017218709">
        <ele>91.459999999999994</ele>
        <time>2026-07-13T12:07:30Z</time>
      </trkpt>
      <trkpt lat="50.848293984308839" lon="6.737379971891642">
        <ele>92.420000000000002</ele>
        <time>2026-07-13T12:07:39Z</time>
      </trkpt>
      <trkpt lat="50.847417991608381" lon="6.74068302847445">
        <ele>91.459999999999994</ele>
        <time>2026-07-13T12:07:48Z</time>
      </trkpt>
      <trkpt lat="50.84631803445518" lon="6.744790999218822">
        <ele>90.980000000000004</ele>
        <time>2026-07-13T12:07:59Z</time>
      </trkpt>
      <trkpt lat="50.8451790176332" lon="6.748062958940864">
        <ele>89.060000000000002</ele>
        <time>2026-07-13T12:08:08Z</time>
      </trkpt>
      <trkpt lat="50.843495009467006" lon="6.751867001876235">
        <ele>91.459999999999994</ele>
        <time>2026-07-13T12:08:19Z</time>
      </trkpt>
      <trkpt lat="50.842467974871397" lon="6.753700040280819">
        <ele>91.939999999999998</ele>
        <time>2026-07-13T12:08:26Z</time>
      </trkpt>
      <trkpt lat="50.841225022450089" lon="6.755636008456349">
        <ele>91.459999999999994</ele>
        <time>2026-07-13T12:08:36Z</time>
      </trkpt>
      <trkpt lat="50.839921971783042" lon="6.757426969707012">
        <ele>87.620000000000005</ele>
        <time>2026-07-13T12:08:48Z</time>
      </trkpt>
      <trkpt lat="50.839401036500931" lon="6.758060976862907">
        <ele>84.730000000000004</ele>
        <time>2026-07-13T12:08:55Z</time>
      </trkpt>
      <trkpt lat="50.839339010417461" lon="6.758135994896293">
        <ele>84.730000000000004</ele>
        <time>2026-07-13T12:08:56Z</time>
      </trkpt>
      <trkpt lat="50.839269021525979" lon="6.758221993222833">
        <ele>85.689999999999998</ele>
        <time>2026-07-13T12:08:57Z</time>
      </trkpt>
      <trkpt lat="50.839190986007452" lon="6.758316960185766">
        <ele>86.180000000000007</ele>
        <time>2026-07-13T12:08:58Z</time>
      </trkpt>
      <trkpt lat="50.839110016822815" lon="6.758416034281254">
        <ele>86.659999999999997</ele>
        <time>2026-07-13T12:08:59Z</time>
      </trkpt>
      <trkpt lat="50.838295966386795" lon="6.759406020864844">
        <ele>88.579999999999998</ele>
        <time>2026-07-13T12:09:09Z</time>
      </trkpt>
      <trkpt lat="50.838212985545397" lon="6.759507022798061">
        <ele>89.540000000000006</ele>
        <time>2026-07-13T12:09:10Z</time>
      </trkpt>
      <trkpt lat="50.837793974205852" lon="6.760016977787018">
        <ele>90.980000000000004</ele>
        <time>2026-07-13T12:09:15Z</time>
      </trkpt>
      <trkpt lat="50.837115040048957" lon="6.760841002687812">
        <ele>86.180000000000007</ele>
        <time>2026-07-13T12:09:23Z</time>
      </trkpt>
      <trkpt lat="50.836168974637985" lon="6.761988988146186">
        <ele>81.370000000000005</ele>
        <time>2026-07-13T12:09:34Z</time>
      </trkpt>
      <trkpt lat="50.835753986611962" lon="6.762493997812271">
        <ele>84.25</ele>
        <time>2026-07-13T12:09:41Z</time>
      </trkpt>
      <trkpt lat="50.835702018812299" lon="6.762558035552502">
        <ele>84.730000000000004</ele>
        <time>2026-07-13T12:09:42Z</time>
      </trkpt>
      <trkpt lat="50.835647033527493" lon="6.762624001130462">
        <ele>84.730000000000004</ele>
        <time>2026-07-13T12:09:43Z</time>
      </trkpt>
      <trkpt lat="50.835359031334519" lon="6.762976041063666">
        <ele>86.180000000000007</ele>
        <time>2026-07-13T12:09:48Z</time>
      </trkpt>
      <trkpt lat="50.835298011079431" lon="6.763049969449639">
        <ele>86.659999999999997</ele>
        <time>2026-07-13T12:09:49Z</time>
      </trkpt>
      <trkpt lat="50.835235984995961" lon="6.763124987483025">
        <ele>86.659999999999997</ele>
        <time>2026-07-13T12:09:50Z</time>
      </trkpt>
      <trkpt lat="50.834870031103492" lon="6.763570988550782">
        <ele>89.540000000000006</ele>
        <time>2026-07-13T12:09:56Z</time>
      </trkpt>
      <trkpt lat="50.834384970366955" lon="6.76416601985693">
        <ele>89.060000000000002</ele>
        <time>2026-07-13T12:10:04Z</time>
      </trkpt>
      <trkpt lat="50.834326967597008" lon="6.764237014576793">
        <ele>88.579999999999998</ele>
        <time>2026-07-13T12:10:05Z</time>
      </trkpt>
      <trkpt lat="50.833954978734255" lon="6.764695001766086">
        <ele>86.659999999999997</ele>
        <time>2026-07-13T12:10:11Z</time>
      </trkpt>
      <trkpt lat="50.833892030641437" lon="6.764772031456232">
        <ele>86.180000000000007</ele>
        <time>2026-07-13T12:10:12Z</time>
      </trkpt>
      <trkpt lat="50.83295501768589" lon="6.765909036621451">
        <ele>87.620000000000005</ele>
        <time>2026-07-13T12:10:27Z</time>
      </trkpt>
      <trkpt lat="50.831842990592122" lon="6.76726296544075">
        <ele>89.060000000000002</ele>
        <time>2026-07-13T12:10:43Z</time>
      </trkpt>
      <trkpt lat="50.830811010673642" lon="6.768524022772908">
        <ele>88.579999999999998</ele>
        <time>2026-07-13T12:10:54Z</time>
      </trkpt>
      <trkpt lat="50.830245986580849" lon="6.769207986071706">
        <ele>89.540000000000006</ele>
        <time>2026-07-13T12:11:00Z</time>
      </trkpt>
      <trkpt lat="50.829583983868361" lon="6.770010972395539">
        <ele>90.019999999999996</ele>
        <time>2026-07-13T12:11:08Z</time>
      </trkpt>
      <trkpt lat="50.828445972874761" lon="6.771390968933702">
        <ele>91.459999999999994</ele>
        <time>2026-07-13T12:11:21Z</time>
      </trkpt>
      <trkpt lat="50.827377028763294" lon="6.772673986852169">
        <ele>91.939999999999998</ele>
        <time>2026-07-13T12:11:33Z</time>
      </trkpt>
      <trkpt lat="50.826430041342974" lon="6.773818032816052">
        <ele>94.829999999999998</ele>
        <time>2026-07-13T12:11:44Z</time>
      </trkpt>
      <trkpt lat="50.825032023712993" lon="6.775516960769892">
        <ele>93.390000000000001</ele>
        <time>2026-07-13T12:12:00Z</time>
      </trkpt>
      <trkpt lat="50.823740037158132" lon="6.777051016688347">
        <ele>94.349999999999994</ele>
        <time>2026-07-13T12:12:14Z</time>
      </trkpt>
      <trkpt lat="50.821992997080088" lon="6.779060997068882">
        <ele>91.939999999999998</ele>
        <time>2026-07-13T12:12:33Z</time>
      </trkpt>
      <trkpt lat="50.821051960811019" lon="6.78013295866549">
        <ele>92.420000000000002</ele>
        <time>2026-07-13T12:12:45Z</time>
      </trkpt>
      <trkpt lat="50.8207490388304" lon="6.780461026355624">
        <ele>92.420000000000002</ele>
        <time>2026-07-13T12:12:49Z</time>
      </trkpt>
      <trkpt lat="50.820679971948266" lon="6.780536966398358">
        <ele>92.420000000000002</ele>
        <time>2026-07-13T12:12:50Z</time>
      </trkpt>
      <trkpt lat="50.820314018055797" lon="6.780935022979975">
        <ele>92.420000000000002</ele>
        <time>2026-07-13T12:12:56Z</time>
      </trkpt>
      <trkpt lat="50.819864999502897" lon="6.781423017382622">
        <ele>93.870000000000005</ele>
        <time>2026-07-13T12:13:04Z</time>
      </trkpt>
      <trkpt lat="50.819198973476887" lon="6.782147968187928">
        <ele>94.349999999999994</ele>
        <time>2026-07-13T12:13:14Z</time>
      </trkpt>
      <trkpt lat="50.819126972928643" lon="6.782224997878075">
        <ele>94.349999999999994</ele>
        <time>2026-07-13T12:13:15Z</time>
      </trkpt>
      <trkpt lat="50.81905597820878" lon="6.782303033396602">
        <ele>93.870000000000005</ele>
        <time>2026-07-13T12:13:16Z</time>
      </trkpt>
      <trkpt lat="50.818981966003776" lon="6.782388025894761">
        <ele>93.390000000000001</ele>
        <time>2026-07-13T12:13:17Z</time>
      </trkpt>
      <trkpt lat="50.818836037069559" lon="6.782566979527473">
        <ele>93.390000000000001</ele>
        <time>2026-07-13T12:13:19Z</time>
      </trkpt>
      <trkpt lat="50.81763599999249" lon="6.784044038504362">
        <ele>93.390000000000001</ele>
        <time>2026-07-13T12:13:34Z</time>
      </trkpt>
      <trkpt lat="50.816809963434935" lon="6.78505296818912">
        <ele>94.349999999999994</ele>
        <time>2026-07-13T12:13:44Z</time>
      </trkpt>
      <trkpt lat="50.816026004031301" lon="6.785868024453521">
        <ele>93.390000000000001</ele>
        <time>2026-07-13T12:13:54Z</time>
      </trkpt>
      <trkpt lat="50.815390991047025" lon="6.786429025232792">
        <ele>93.390000000000001</ele>
        <time>2026-07-13T12:14:04Z</time>
      </trkpt>
      <trkpt lat="50.81447996199131" lon="6.787183983251452">
        <ele>95.790000000000006</ele>
        <time>2026-07-13T12:14:17Z</time>
      </trkpt>
      <trkpt lat="50.813602963462472" lon="6.787810027599335">
        <ele>94.829999999999998</ele>
        <time>2026-07-13T12:14:28Z</time>
      </trkpt>
      <trkpt lat="50.812580035999417" lon="6.788593987002969">
        <ele>94.349999999999994</ele>
        <time>2026-07-13T12:14:39Z</time>
      </trkpt>
      <trkpt lat="50.811348985880613" lon="6.789615992456675">
        <ele>94.829999999999998</ele>
        <time>2026-07-13T12:14:52Z</time>
      </trkpt>
      <trkpt lat="50.810092035681009" lon="6.790683008730412">
        <ele>93.870000000000005</ele>
        <time>2026-07-13T12:15:05Z</time>
      </trkpt>
      <trkpt lat="50.809184024110436" lon="6.791438972577453">
        <ele>94.829999999999998</ele>
        <time>2026-07-13T12:15:14Z</time>
      </trkpt>
      <trkpt lat="50.807724986225367" lon="6.792619982734323">
        <ele>94.829999999999998</ele>
        <time>2026-07-13T12:15:28Z</time>
      </trkpt>
      <trkpt lat="50.80685100518167" lon="6.793296989053488">
        <ele>95.790000000000006</ele>
        <time>2026-07-13T12:15:38Z</time>
      </trkpt>
      <trkpt lat="50.805786000564694" lon="6.79409402422607">
        <ele>96.269999999999996</ele>
        <time>2026-07-13T12:15:51Z</time>
      </trkpt>
      <trkpt lat="50.804786961525679" lon="6.794841019436717">
        <ele>94.349999999999994</ele>
        <time>2026-07-13T12:16:03Z</time>
      </trkpt>
      <trkpt lat="50.803981963545084" lon="6.795414006337524">
        <ele>92.420000000000002</ele>
        <time>2026-07-13T12:16:12Z</time>
      </trkpt>
      <trkpt lat="50.803703013807535" lon="6.795611986890435">
        <ele>93.390000000000001</ele>
        <time>2026-07-13T12:16:15Z</time>
      </trkpt>
      <trkpt lat="50.803570998832583" lon="6.79570896551013">
        <ele>93.390000000000001</ele>
        <time>2026-07-13T12:16:16Z</time>
      </trkpt>
      <trkpt lat="50.803518025204539" lon="6.795746013522148">
        <ele>92.900000000000006</ele>
        <time>2026-07-13T12:16:17Z</time>
      </trkpt>
      <trkpt lat="50.803431021049619" lon="6.795806027948856">
        <ele>92.900000000000006</ele>
        <time>2026-07-13T12:16:18Z</time>
      </trkpt>
      <trkpt lat="50.803336976096034" lon="6.795870987698436">
        <ele>92.420000000000002</ele>
        <time>2026-07-13T12:16:19Z</time>
      </trkpt>
      <trkpt lat="50.801734020933509" lon="6.796998018398881">
        <ele>94.829999999999998</ele>
        <time>2026-07-13T12:16:36Z</time>
      </trkpt>
      <trkpt lat="50.800687959417701" lon="6.797723975032568">
        <ele>97.230000000000004</ele>
        <time>2026-07-13T12:16:47Z</time>
      </trkpt>
      <trkpt lat="50.799364037811756" lon="6.798636009916663">
        <ele>98.670000000000002</ele>
        <time>2026-07-13T12:17:01Z</time>
      </trkpt>
      <trkpt lat="50.798206999897957" lon="6.799432039260864">
        <ele>97.709999999999994</ele>
        <time>2026-07-13T12:17:13Z</time>
      </trkpt>
      <trkpt lat="50.797319021075964" lon="6.800051964819431">
        <ele>98.189999999999998</ele>
        <time>2026-07-13T12:17:24Z</time>
      </trkpt>
      <trkpt lat="50.796450991183519" lon="6.800656970590353">
        <ele>95.790000000000006</ele>
        <time>2026-07-13T12:17:35Z</time>
      </trkpt>
      <trkpt lat="50.795561000704765" lon="6.801277985796332">
        <ele>95.310000000000002</ele>
        <time>2026-07-13T12:17:46Z</time>
      </trkpt>
      <trkpt lat="50.79456296749413" lon="6.801974019035697">
        <ele>94.349999999999994</ele>
        <time>2026-07-13T12:17:56Z</time>
      </trkpt>
      <trkpt lat="50.792987002059817" lon="6.803066013380885">
        <ele>96.75</ele>
        <time>2026-07-13T12:18:11Z</time>
      </trkpt>
      <trkpt lat="50.791440038010478" lon="6.804134035483003">
        <ele>97.709999999999994</ele>
        <time>2026-07-13T12:18:27Z</time>
      </trkpt>
      <trkpt lat="50.789977982640266" lon="6.805154029279947">
        <ele>97.230000000000004</ele>
        <time>2026-07-13T12:18:40Z</time>
      </trkpt>
      <trkpt lat="50.788670992478728" lon="6.806071009486914">
        <ele>100.11</ele>
        <time>2026-07-13T12:18:48Z</time>
      </trkpt>
      <trkpt lat="50.787382023409009" lon="6.806955970823765">
        <ele>102.04000000000001</ele>
        <time>2026-07-13T12:18:57Z</time>
      </trkpt>
      <trkpt lat="50.78588099218905" lon="6.807989040389657">
        <ele>102.04000000000001</ele>
        <time>2026-07-13T12:19:07Z</time>
      </trkpt>
      <trkpt lat="50.783971007913351" lon="6.809315979480743">
        <ele>106.36</ele>
        <time>2026-07-13T12:19:21Z</time>
      </trkpt>
      <trkpt lat="50.782729983329773" lon="6.810169005766511">
        <ele>108.77</ele>
        <time>2026-07-13T12:19:32Z</time>
      </trkpt>
      <trkpt lat="50.781687023118138" lon="6.810883982107043">
        <ele>110.69</ele>
        <time>2026-07-13T12:19:40Z</time>
      </trkpt>
      <trkpt lat="50.77973403967917" lon="6.812316030263901">
        <ele>114.05</ele>
        <time>2026-07-13T12:19:52Z</time>
      </trkpt>
      <trkpt lat="50.777715006843209" lon="6.814013030380011">
        <ele>114.05</ele>
        <time>2026-07-13T12:20:03Z</time>
      </trkpt>
      <trkpt lat="50.776450010016561" lon="6.815271992236376">
        <ele>115.01000000000001</ele>
        <time>2026-07-13T12:20:11Z</time>
      </trkpt>
      <trkpt lat="50.775320967659354" lon="6.816550986841321">
        <ele>115.01000000000001</ele>
        <time>2026-07-13T12:20:17Z</time>
      </trkpt>
      <trkpt lat="50.773494970053434" lon="6.81891200132668">
        <ele>115.5</ele>
        <time>2026-07-13T12:20:25Z</time>
      </trkpt>
      <trkpt lat="50.771080981940031" lon="6.822758037596941">
        <ele>116.94</ele>
        <time>2026-07-13T12:20:36Z</time>
      </trkpt>
      <trkpt lat="50.769019033759832" lon="6.827108999714255">
        <ele>117.42</ele>
        <time>2026-07-13T12:20:47Z</time>
      </trkpt>
      <trkpt lat="50.767326978966594" lon="6.831804038956761">
        <ele>114.05</ele>
        <time>2026-07-13T12:20:58Z</time>
      </trkpt>
      <trkpt lat="50.766324000433087" lon="6.835287977010012">
        <ele>110.69</ele>
        <time>2026-07-13T12:21:06Z</time>
      </trkpt>
      <trkpt lat="50.765646994113922" lon="6.838106978684664">
        <ele>110.69</ele>
        <time>2026-07-13T12:21:14Z</time>
      </trkpt>
      <trkpt lat="50.764639992266893" lon="6.841782024130225">
        <ele>114.05</ele>
        <time>2026-07-13T12:21:24Z</time>
      </trkpt>
      <trkpt lat="50.763426041230559" lon="6.844957005232573">
        <ele>119.34</ele>
        <time>2026-07-13T12:21:33Z</time>
      </trkpt>
      <trkpt lat="50.761714037507772" lon="6.848094016313553">
        <ele>118.38</ele>
        <time>2026-07-13T12:21:43Z</time>
      </trkpt>
      <trkpt lat="50.759887034073472" lon="6.850434998050332">
        <ele>115.5</ele>
        <time>2026-07-13T12:21:52Z</time>
      </trkpt>
      <trkpt lat="50.757245980203152" lon="6.853049984201789">
        <ele>115.98</ele>
        <time>2026-07-13T12:22:04Z</time>
      </trkpt>
      <trkpt lat="50.754110980778933" lon="6.855991026386619">
        <ele>116.45999999999999</ele>
        <time>2026-07-13T12:22:18Z</time>
      </trkpt>
      <trkpt lat="50.75167503207922" lon="6.858310969546437">
        <ele>119.34</ele>
        <time>2026-07-13T12:22:28Z</time>
      </trkpt>
      <trkpt lat="50.74815203435719" lon="6.861834973096848">
        <ele>121.73999999999999</ele>
        <time>2026-07-13T12:22:42Z</time>
      </trkpt>
      <trkpt lat="50.744576985016465" lon="6.865696012973785">
        <ele>123.19</ele>
        <time>2026-07-13T12:22:57Z</time>
      </trkpt>
      <trkpt lat="50.741486996412277" lon="6.869166037067771">
        <ele>127.03</ele>
        <time>2026-07-13T12:23:11Z</time>
      </trkpt>
      <trkpt lat="50.738612003624439" lon="6.872384017333388">
        <ele>131.36000000000001</ele>
        <time>2026-07-13T12:23:24Z</time>
      </trkpt>
      <trkpt lat="50.736196003854275" lon="6.875123977661133">
        <ele>132.31999999999999</ele>
        <time>2026-07-13T12:23:35Z</time>
      </trkpt>
      <trkpt lat="50.733110960572958" lon="6.878606993705034">
        <ele>132.80000000000001</ele>
        <time>2026-07-13T12:23:49Z</time>
      </trkpt>
      <trkpt lat="50.730510978028178" lon="6.88151903450489">
        <ele>133.75999999999999</ele>
        <time>2026-07-13T12:24:01Z</time>
      </trkpt>
      <trkpt lat="50.729288980364799" lon="6.882882015779614">
        <ele>135.19999999999999</ele>
        <time>2026-07-13T12:24:09Z</time>
      </trkpt>
      <trkpt lat="50.727658029645681" lon="6.884715976193547">
        <ele>136.63999999999999</ele>
        <time>2026-07-13T12:24:19Z</time>
      </trkpt>
      <trkpt lat="50.725254015997052" lon="6.887418972328305">
        <ele>136.63999999999999</ele>
        <time>2026-07-13T12:24:33Z</time>
      </trkpt>
      <trkpt lat="50.723492978140712" lon="6.889424007385969">
        <ele>137.13</ele>
        <time>2026-07-13T12:24:42Z</time>
      </trkpt>
      <trkpt lat="50.721159037202597" lon="6.892039999365807">
        <ele>141.44999999999999</ele>
        <time>2026-07-13T12:24:54Z</time>
      </trkpt>
      <trkpt lat="50.71867698803544" lon="6.894794963300228">
        <ele>141.93000000000001</ele>
        <time>2026-07-13T12:25:06Z</time>
      </trkpt>
      <trkpt lat="50.716275991871953" lon="6.89724700525403">
        <ele>140.97</ele>
        <time>2026-07-13T12:25:16Z</time>
      </trkpt>
      <trkpt lat="50.713511975482106" lon="6.899196971207857">
        <ele>139.53</ele>
        <time>2026-07-13T12:25:27Z</time>
      </trkpt>
      <trkpt lat="50.711300997063518" lon="6.900196010246873">
        <ele>140.00999999999999</ele>
        <time>2026-07-13T12:25:36Z</time>
      </trkpt>
      <trkpt lat="50.70849297568202" lon="6.90100503154099">
        <ele>139.05000000000001</ele>
        <time>2026-07-13T12:25:48Z</time>
      </trkpt>
      <trkpt lat="50.705223027616739" lon="6.901900973170996">
        <ele>139.05000000000001</ele>
        <time>2026-07-13T12:26:01Z</time>
      </trkpt>
      <trkpt lat="50.70253998041153" lon="6.902634976431727">
        <ele>140.49000000000001</ele>
        <time>2026-07-13T12:26:12Z</time>
      </trkpt>
      <trkpt lat="50.699717039242387" lon="6.903408961370587">
        <ele>143.37</ele>
        <time>2026-07-13T12:26:24Z</time>
      </trkpt>
      <trkpt lat="50.696386992931366" lon="6.904416969045997">
        <ele>143.37</ele>
        <time>2026-07-13T12:26:39Z</time>
      </trkpt>
      <trkpt lat="50.693529015406966" lon="6.90556101500988">
        <ele>143.84999999999999</ele>
        <time>2026-07-13T12:26:52Z</time>
      </trkpt>
      <trkpt lat="50.690996004268527" lon="6.906749987974763">
        <ele>145.30000000000001</ele>
        <time>2026-07-13T12:27:03Z</time>
      </trkpt>
      <trkpt lat="50.688650999218225" lon="6.908004004508257">
        <ele>144.81999999999999</ele>
        <time>2026-07-13T12:27:14Z</time>
      </trkpt>
      <trkpt lat="50.686342036351562" lon="6.909452984109521">
        <ele>145.30000000000001</ele>
        <time>2026-07-13T12:27:24Z</time>
      </trkpt>
      <trkpt lat="50.683153979480267" lon="6.911646025255323">
        <ele>142.41</ele>
        <time>2026-07-13T12:27:37Z</time>
      </trkpt>
      <trkpt lat="50.68008997477591" lon="6.914096977561712">
        <ele>146.25999999999999</ele>
        <time>2026-07-13T12:27:50Z</time>
      </trkpt>
      <trkpt lat="50.676476033404469" lon="6.917348988354206">
        <ele>148.66</ele>
        <time>2026-07-13T12:28:06Z</time>
      </trkpt>
      <trkpt lat="50.673399036750197" lon="6.919740010052919">
        <ele>152.03</ele>
        <time>2026-07-13T12:28:19Z</time>
      </trkpt>
      <trkpt lat="50.670680031180382" lon="6.921172980219126">
        <ele>153.94999999999999</ele>
        <time>2026-07-13T12:28:29Z</time>
      </trkpt>
      <trkpt lat="50.668553961440921" lon="6.921886028721929">
        <ele>152.99000000000001</ele>
        <time>2026-07-13T12:28:37Z</time>
      </trkpt>
      <trkpt lat="50.666503999382257" lon="6.922392966225743">
        <ele>152.99000000000001</ele>
        <time>2026-07-13T12:28:46Z</time>
      </trkpt>
      <trkpt lat="50.663923965767026" lon="6.923020016402006">
        <ele>151.06</ele>
        <time>2026-07-13T12:28:58Z</time>
      </trkpt>
      <trkpt lat="50.661457004025578" lon="6.923672966659069">
        <ele>150.09999999999999</ele>
        <time>2026-07-13T12:29:08Z</time>
      </trkpt>
      <trkpt lat="50.659328000620008" lon="6.924428008496761">
        <ele>148.66</ele>
        <time>2026-07-13T12:29:17Z</time>
      </trkpt>
      <trkpt lat="50.656967991963029" lon="6.925635002553463">
        <ele>149.13999999999999</ele>
        <time>2026-07-13T12:29:28Z</time>
      </trkpt>
      <trkpt lat="50.654436992481351" lon="6.927350023761392">
        <ele>149.13999999999999</ele>
        <time>2026-07-13T12:29:40Z</time>
      </trkpt>
      <trkpt lat="50.651946980506182" lon="6.929549016058445">
        <ele>151.06</ele>
        <time>2026-07-13T12:29:52Z</time>
      </trkpt>
      <trkpt lat="50.649700965732336" lon="6.932018995285034">
        <ele>152.99000000000001</ele>
        <time>2026-07-13T12:30:04Z</time>
      </trkpt>
      <trkpt lat="50.647939005866647" lon="6.934400964528322">
        <ele>156.34999999999999</ele>
        <time>2026-07-13T12:30:13Z</time>
      </trkpt>
      <trkpt lat="50.646536964923143" lon="6.93662996403873">
        <ele>157.78999999999999</ele>
        <time>2026-07-13T12:30:21Z</time>
      </trkpt>
      <trkpt lat="50.645240033045411" lon="6.938975974917412">
        <ele>162.12</ele>
        <time>2026-07-13T12:30:29Z</time>
      </trkpt>
      <trkpt lat="50.643604975193739" lon="6.942621013149619">
        <ele>165</ele>
        <time>2026-07-13T12:30:41Z</time>
      </trkpt>
      <trkpt lat="50.641967989504337" lon="6.946537960320711">
        <ele>165.96000000000001</ele>
        <time>2026-07-13T12:30:53Z</time>
      </trkpt>
      <trkpt lat="50.640590004622936" lon="6.949887033551931">
        <ele>168.37</ele>
        <time>2026-07-13T12:31:03Z</time>
      </trkpt>
      <trkpt lat="50.639328025281429" lon="6.953003006055951">
        <ele>170.77000000000001</ele>
        <time>2026-07-13T12:31:13Z</time>
      </trkpt>
      <trkpt lat="50.637485012412071" lon="6.957572987303138">
        <ele>171.72999999999999</ele>
        <time>2026-07-13T12:31:27Z</time>
      </trkpt>
      <trkpt lat="50.635832017287612" lon="6.961321961134672">
        <ele>169.81</ele>
        <time>2026-07-13T12:31:38Z</time>
      </trkpt>
      <trkpt lat="50.63393603079021" lon="6.964900027960539">
        <ele>172.69</ele>
        <time>2026-07-13T12:31:49Z</time>
      </trkpt>
      <trkpt lat="50.632103998214006" lon="6.967666978016496">
        <ele>176.53999999999999</ele>
        <time>2026-07-13T12:31:58Z</time>
      </trkpt>
      <trkpt lat="50.630279006436467" lon="6.970007959753275">
        <ele>180.87</ele>
        <time>2026-07-13T12:32:07Z</time>
      </trkpt>
      <trkpt lat="50.627422034740448" lon="6.972892004996538">
        <ele>183.75</ele>
        <time>2026-07-13T12:32:21Z</time>
      </trkpt>
      <trkpt lat="50.624542012810707" lon="6.975234998390079">
        <ele>185.66999999999999</ele>
        <time>2026-07-13T12:32:34Z</time>
      </trkpt>
      <trkpt lat="50.621942030265927" lon="6.977297030389309">
        <ele>189.52000000000001</ele>
        <time>2026-07-13T12:32:46Z</time>
      </trkpt>
      <trkpt lat="50.619334001094103" lon="6.979628037661314">
        <ele>191.44</ele>
        <time>2026-07-13T12:32:58Z</time>
      </trkpt>
      <trkpt lat="50.616865027695894" lon="6.982247969135642">
        <ele>191.44</ele>
        <time>2026-07-13T12:33:10Z</time>
      </trkpt>
      <trkpt lat="50.615343963727355" lon="6.984130963683128">
        <ele>195.28</ele>
        <time>2026-07-13T12:33:18Z</time>
      </trkpt>
      <trkpt lat="50.612987978383899" lon="6.987453969195485">
        <ele>199.13</ele>
        <time>2026-07-13T12:33:31Z</time>
      </trkpt>
      <trkpt lat="50.611708983778954" lon="6.989562017843127">
        <ele>199.61000000000001</ele>
        <time>2026-07-13T12:33:39Z</time>
      </trkpt>
      <trkpt lat="50.609847027808428" lon="6.992730963975191">
        <ele>200.09</ele>
        <time>2026-07-13T12:33:50Z</time>
      </trkpt>
      <trkpt lat="50.60802798718214" lon="6.99586596339941">
        <ele>202.49000000000001</ele>
        <time>2026-07-13T12:34:01Z</time>
      </trkpt>
      <trkpt lat="50.606128983199596" lon="6.999115962535143">
        <ele>204.41999999999999</ele>
        <time>2026-07-13T12:34:12Z</time>
      </trkpt>
      <trkpt lat="50.6036869995296" lon="7.003483017906547">
        <ele>207.78</ele>
        <time>2026-07-13T12:34:26Z</time>
      </trkpt>
      <trkpt lat="50.601853961125016" lon="7.00703501701355">
        <ele>211.15000000000001</ele>
        <time>2026-07-13T12:34:37Z</time>
      </trkpt>
      <trkpt lat="50.600340021774173" lon="7.010434968397021">
        <ele>214.99000000000001</ele>
        <time>2026-07-13T12:34:47Z</time>
      </trkpt>
      <trkpt lat="50.598945021629333" lon="7.013987973332405">
        <ele>217.40000000000001</ele>
        <time>2026-07-13T12:34:57Z</time>
      </trkpt>
      <trkpt lat="50.597583968192339" lon="7.017572997137904">
        <ele>219.31999999999999</ele>
        <time>2026-07-13T12:35:07Z</time>
      </trkpt>
      <trkpt lat="50.596433971077204" lon="7.020672038197517">
        <ele>218.84</ele>
        <time>2026-07-13T12:35:16Z</time>
      </trkpt>
      <trkpt lat="50.595325967296958" lon="7.023673010990024">
        <ele>216.91</ele>
        <time>2026-07-13T12:35:25Z</time>
      </trkpt>
      <trkpt lat="50.594000034034252" lon="7.027289969846606">
        <ele>216.91</ele>
        <time>2026-07-13T12:35:35Z</time>
      </trkpt>
      <trkpt lat="50.592865040525794" lon="7.030352968722582">
        <ele>215.47</ele>
        <time>2026-07-13T12:35:44Z</time>
      </trkpt>
      <trkpt lat="50.592735959216952" lon="7.030699979513884">
        <ele>214.99000000000001</ele>
        <time>2026-07-13T12:35:45Z</time>
      </trkpt>
      <trkpt lat="50.591472974047065" lon="7.034057015553117">
        <ele>215.94999999999999</ele>
        <time>2026-07-13T12:35:55Z</time>
      </trkpt>
      <trkpt lat="50.590049978345633" lon="7.037905985489488">
        <ele>217.88</ele>
        <time>2026-07-13T12:36:06Z</time>
      </trkpt>
      <trkpt lat="50.588553976267576" lon="7.042060978710651">
        <ele>216.91</ele>
        <time>2026-07-13T12:36:18Z</time>
      </trkpt>
      <trkpt lat="50.588093977421522" lon="7.043318012729287">
        <ele>216.43000000000001</ele>
        <time>2026-07-13T12:36:23Z</time>
      </trkpt>
      <trkpt lat="50.587480003014207" lon="7.044932032003999">
        <ele>216.91</ele>
        <time>2026-07-13T12:36:32Z</time>
      </trkpt>
      <trkpt lat="50.586836021393538" lon="7.046692986041307">
        <ele>215.94999999999999</ele>
        <time>2026-07-13T12:36:43Z</time>
      </trkpt>
      <trkpt lat="50.585817033424973" lon="7.049424983561039">
        <ele>215.47</ele>
        <time>2026-07-13T12:36:57Z</time>
      </trkpt>
      <trkpt lat="50.584851019084454" lon="7.052038963884115">
        <ele>216.91</ele>
        <time>2026-07-13T12:37:08Z</time>
      </trkpt>
      <trkpt lat="50.583695992827415" lon="7.055109003558755">
        <ele>218.84</ele>
        <time>2026-07-13T12:37:19Z</time>
      </trkpt>
      <trkpt lat="50.582414986565709" lon="7.058556983247399">
        <ele>218.36000000000001</ele>
        <time>2026-07-13T12:37:30Z</time>
      </trkpt>
      <trkpt lat="50.581144960597157" lon="7.061987025663257">
        <ele>218.36000000000001</ele>
        <time>2026-07-13T12:37:40Z</time>
      </trkpt>
      <trkpt lat="50.579738980159163" lon="7.065859967842698">
        <ele>217.88</ele>
        <time>2026-07-13T12:37:53Z</time>
      </trkpt>
      <trkpt lat="50.578976981341839" lon="7.067958964034915">
        <ele>219.31999999999999</ele>
        <time>2026-07-13T12:38:01Z</time>
      </trkpt>
      <trkpt lat="50.578126972541213" lon="7.070386027917266">
        <ele>217.40000000000001</ele>
        <time>2026-07-13T12:38:10Z</time>
      </trkpt>
      <trkpt lat="50.577201023697853" lon="7.073518009856343">
        <ele>217.40000000000001</ele>
        <time>2026-07-13T12:38:19Z</time>
      </trkpt>
      <trkpt lat="50.57618597522378" lon="7.077609971165657">
        <ele>215.47</ele>
        <time>2026-07-13T12:38:30Z</time>
      </trkpt>
      <trkpt lat="50.575464963912964" lon="7.081809975206852">
        <ele>214.50999999999999</ele>
        <time>2026-07-13T12:38:41Z</time>
      </trkpt>
      <trkpt lat="50.575061039999127" lon="7.086092038080096">
        <ele>214.03</ele>
        <time>2026-07-13T12:38:52Z</time>
      </trkpt>
      <trkpt lat="50.574888037517667" lon="7.090852959081531">
        <ele>212.11000000000001</ele>
        <time>2026-07-13T12:39:04Z</time>
      </trkpt>
      <trkpt lat="50.574937993660569" lon="7.095214985311031">
        <ele>209.22</ele>
        <time>2026-07-13T12:39:15Z</time>
      </trkpt>
      <trkpt lat="50.575061962008476" lon="7.099969033151865">
        <ele>207.30000000000001</ele>
        <time>2026-07-13T12:39:27Z</time>
      </trkpt>
      <trkpt lat="50.57521996088326" lon="7.105501005426049">
        <ele>205.86000000000001</ele>
        <time>2026-07-13T12:39:41Z</time>
      </trkpt>
      <trkpt lat="50.575398998335004" lon="7.11102400906384">
        <ele>202.00999999999999</ele>
        <time>2026-07-13T12:39:55Z</time>
      </trkpt>
      <trkpt lat="50.57554098777473" lon="7.116555981338024">
        <ele>201.05000000000001</ele>
        <time>2026-07-13T12:40:09Z</time>
      </trkpt>
      <trkpt lat="50.575417019426823" lon="7.122098011896014">
        <ele>201.05000000000001</ele>
        <time>2026-07-13T12:40:23Z</time>
      </trkpt>
      <trkpt lat="50.57491997256875" lon="7.126394994556904">
        <ele>197.21000000000001</ele>
        <time>2026-07-13T12:40:34Z</time>
      </trkpt>
      <trkpt lat="50.574022019281983" lon="7.130487039685249">
        <ele>192.40000000000001</ele>
        <time>2026-07-13T12:40:45Z</time>
      </trkpt>
      <trkpt lat="50.572857018560171" lon="7.133982963860035">
        <ele>190</ele>
        <time>2026-07-13T12:40:55Z</time>
      </trkpt>
      <trkpt lat="50.571543993428349" lon="7.136874971911311">
        <ele>186.63</ele>
        <time>2026-07-13T12:41:04Z</time>
      </trkpt>
      <trkpt lat="50.56982696056366" lon="7.139817019924521">
        <ele>182.31</ele>
        <time>2026-07-13T12:41:14Z</time>
      </trkpt>
      <trkpt lat="50.56787196546793" lon="7.142303008586168">
        <ele>179.41999999999999</ele>
        <time>2026-07-13T12:41:23Z</time>
      </trkpt>
      <trkpt lat="50.565813034772873" lon="7.144262026995421">
        <ele>175.58000000000001</ele>
        <time>2026-07-13T12:41:32Z</time>
      </trkpt>
      <trkpt lat="50.563091011717916" lon="7.146085007116199">
        <ele>170.28999999999999</ele>
        <time>2026-07-13T12:41:43Z</time>
      </trkpt>
      <trkpt lat="50.559724001213908" lon="7.147911004722118">
        <ele>163.56</ele>
        <time>2026-07-13T12:41:56Z</time>
      </trkpt>
      <trkpt lat="50.557338008657098" lon="7.149501973763108">
        <ele>158.27000000000001</ele>
        <time>2026-07-13T12:42:06Z</time>
      </trkpt>
      <trkpt lat="50.554818995296955" lon="7.151740025728941">
        <ele>155.87</ele>
        <time>2026-07-13T12:42:17Z</time>
      </trkpt>
      <trkpt lat="50.551723977550864" lon="7.155027994886041">
        <ele>149.13999999999999</ele>
        <time>2026-07-13T12:42:30Z</time>
      </trkpt>
      <trkpt lat="50.547650037333369" lon="7.159351967275143">
        <ele>145.30000000000001</ele>
        <time>2026-07-13T12:42:46Z</time>
      </trkpt>
      <trkpt lat="50.544347986578941" lon="7.162882005795836">
        <ele>145.30000000000001</ele>
        <time>2026-07-13T12:42:59Z</time>
      </trkpt>
      <trkpt lat="50.54099497385323" lon="7.166467029601336">
        <ele>154.91</ele>
        <time>2026-07-13T12:43:12Z</time>
      </trkpt>
      <trkpt lat="50.539738023653626" lon="7.167805032804608">
        <ele>158.75</ele>
        <time>2026-07-13T12:43:18Z</time>
      </trkpt>
      <trkpt lat="50.537981009110808" lon="7.169775031507015">
        <ele>166.44999999999999</ele>
        <time>2026-07-13T12:43:27Z</time>
      </trkpt>
      <trkpt lat="50.536149982362986" lon="7.172117019072175">
        <ele>172.21000000000001</ele>
        <time>2026-07-13T12:43:35Z</time>
      </trkpt>
      <trkpt lat="50.533888963982463" lon="7.175483023747802">
        <ele>180.38</ele>
        <time>2026-07-13T12:43:45Z</time>
      </trkpt>
      <trkpt lat="50.531816035509109" lon="7.179144993424416">
        <ele>189.52000000000001</ele>
        <time>2026-07-13T12:43:55Z</time>
      </trkpt>
      <trkpt lat="50.53003303706646" lon="7.182557014748454">
        <ele>199.61000000000001</ele>
        <time>2026-07-13T12:44:04Z</time>
      </trkpt>
      <trkpt lat="50.527432970702648" lon="7.186810998246074">
        <ele>211.15000000000001</ele>
        <time>2026-07-13T12:44:16Z</time>
      </trkpt>
      <trkpt lat="50.524837011471391" lon="7.190362997353077">
        <ele>219.80000000000001</ele>
        <time>2026-07-13T12:44:27Z</time>
      </trkpt>
      <trkpt lat="50.522308023646474" lon="7.193267997354269">
        <ele>224.61000000000001</ele>
        <time>2026-07-13T12:44:37Z</time>
      </trkpt>
      <trkpt lat="50.518763987347484" lon="7.197406981140375">
        <ele>231.33000000000001</ele>
        <time>2026-07-13T12:44:51Z</time>
      </trkpt>
      <trkpt lat="50.516745960339904" lon="7.200237968936563">
        <ele>232.30000000000001</ele>
        <time>2026-07-13T12:45:00Z</time>
      </trkpt>
      <trkpt lat="50.514319986104965" lon="7.204253990203142">
        <ele>230.37</ele>
        <time>2026-07-13T12:45:12Z</time>
      </trkpt>
      <trkpt lat="50.512113030999899" lon="7.208663960918784">
        <ele>226.53</ele>
        <time>2026-07-13T12:45:24Z</time>
      </trkpt>
      <trkpt lat="50.510155018419027" lon="7.213018024340272">
        <ele>222.19999999999999</ele>
        <time>2026-07-13T12:45:35Z</time>
      </trkpt>
      <trkpt lat="50.508297001942992" lon="7.217014012858272">
        <ele>219.80000000000001</ele>
        <time>2026-07-13T12:45:45Z</time>
      </trkpt>
      <trkpt lat="50.506378971040249" lon="7.22025596536696">
        <ele>218.36000000000001</ele>
        <time>2026-07-13T12:45:54Z</time>
      </trkpt>
      <trkpt lat="50.504365973174572" lon="7.222587978467345">
        <ele>220.28</ele>
        <time>2026-07-13T12:46:02Z</time>
      </trkpt>
      <trkpt lat="50.502407038584352" lon="7.224023966118693">
        <ele>221.24000000000001</ele>
        <time>2026-07-13T12:46:09Z</time>
      </trkpt>
      <trkpt lat="50.499958014115691" lon="7.224887972697616">
        <ele>222.19999999999999</ele>
        <time>2026-07-13T12:46:17Z</time>
      </trkpt>
      <trkpt lat="50.497436989098787" lon="7.224904987961054">
        <ele>223.63999999999999</ele>
        <time>2026-07-13T12:46:25Z</time>
      </trkpt>
      <trkpt lat="50.49527496099472" lon="7.224254971370101">
        <ele>223.16</ele>
        <time>2026-07-13T12:46:32Z</time>
      </trkpt>
      <trkpt lat="50.492969015613198" lon="7.222791993990541">
        <ele>221.24000000000001</ele>
        <time>2026-07-13T12:46:40Z</time>
      </trkpt>
      <trkpt lat="50.489957984536886" lon="7.220079023391008">
        <ele>214.99000000000001</ele>
        <time>2026-07-13T12:46:51Z</time>
      </trkpt>
      <trkpt lat="50.487597975879908" lon="7.218813020735979">
        <ele>210.66999999999999</ele>
        <time>2026-07-13T12:46:59Z</time>
      </trkpt>
      <trkpt lat="50.485107963904738" lon="7.218360984697938">
        <ele>210.66999999999999</ele>
        <time>2026-07-13T12:47:07Z</time>
      </trkpt>
      <trkpt lat="50.483085997402668" lon="7.21868796274066">
        <ele>210.66999999999999</ele>
        <time>2026-07-13T12:47:14Z</time>
      </trkpt>
      <trkpt lat="50.480961017310619" lon="7.219704017043114">
        <ele>212.11000000000001</ele>
        <time>2026-07-13T12:47:22Z</time>
      </trkpt>
      <trkpt lat="50.478609977290034" lon="7.221651971340179">
        <ele>215.47</ele>
        <time>2026-07-13T12:47:31Z</time>
      </trkpt>
      <trkpt lat="50.476208981126547" lon="7.224152041599155">
        <ele>219.31999999999999</ele>
        <time>2026-07-13T12:47:41Z</time>
      </trkpt>
      <trkpt lat="50.473329965025187" lon="7.227177992463112">
        <ele>227.97</ele>
        <time>2026-07-13T12:47:53Z</time>
      </trkpt>
      <trkpt lat="50.470958976075053" lon="7.229553004726768">
        <ele>235.66</ele>
        <time>2026-07-13T12:48:03Z</time>
      </trkpt>
      <trkpt lat="50.46826696023345" lon="7.231647977605462">
        <ele>243.34999999999999</ele>
        <time>2026-07-13T12:48:14Z</time>
      </trkpt>
      <trkpt lat="50.465680975466967" lon="7.233004001900554">
        <ele>245.75</ele>
        <time>2026-07-13T12:48:24Z</time>
      </trkpt>
      <trkpt lat="50.462906984612346" lon="7.233753008767963">
        <ele>247.19999999999999</ele>
        <time>2026-07-13T12:48:34Z</time>
      </trkpt>
      <trkpt lat="50.460193008184433" lon="7.233896004036069">
        <ele>248.16</ele>
        <time>2026-07-13T12:48:43Z</time>
      </trkpt>
      <trkpt lat="50.457076029852033" lon="7.233353024348617">
        <ele>249.59999999999999</ele>
        <time>2026-07-13T12:48:53Z</time>
      </trkpt>
      <trkpt lat="50.45477201230824" lon="7.232511984184384">
        <ele>253.44</ele>
        <time>2026-07-13T12:49:01Z</time>
      </trkpt>
      <trkpt lat="50.452589029446244" lon="7.231435999274254">
        <ele>259.20999999999998</ele>
        <time>2026-07-13T12:49:10Z</time>
      </trkpt>
      <trkpt lat="50.449349004775286" lon="7.229645038023591">
        <ele>270.26999999999998</ele>
        <time>2026-07-13T12:49:23Z</time>
      </trkpt>
      <trkpt lat="50.447116987779737" lon="7.228339975699782">
        <ele>279.88</ele>
        <time>2026-07-13T12:49:32Z</time>
      </trkpt>
      <trkpt lat="50.443891966715455" lon="7.22650601528585">
        <ele>290.45999999999998</ele>
        <time>2026-07-13T12:49:45Z</time>
      </trkpt>
      <trkpt lat="50.440339967608452" lon="7.224824018776417">
        <ele>305.36000000000001</ele>
        <time>2026-07-13T12:49:59Z</time>
      </trkpt>
      <trkpt lat="50.438000997528434" lon="7.22412496805191">
        <ele>313.52999999999997</ele>
        <time>2026-07-13T12:50:08Z</time>
      </trkpt>
      <trkpt lat="50.435102032497525" lon="7.223946014419198">
        <ele>321.22000000000003</ele>
        <time>2026-07-13T12:50:19Z</time>
      </trkpt>
      <trkpt lat="50.43246902525425" lon="7.224406013265252">
        <ele>323.62</ele>
        <time>2026-07-13T12:50:29Z</time>
      </trkpt>
      <trkpt lat="50.429468974471092" lon="7.225700011476874">
        <ele>324.57999999999998</ele>
        <time>2026-07-13T12:50:41Z</time>
      </trkpt>
      <trkpt lat="50.426360964775085" lon="7.227758020162582">
        <ele>325.54000000000002</ele>
        <time>2026-07-13T12:50:54Z</time>
      </trkpt>
      <trkpt lat="50.422573015093803" lon="7.230416005477309">
        <ele>332.75</ele>
        <time>2026-07-13T12:51:10Z</time>
      </trkpt>
      <trkpt lat="50.419221008196473" lon="7.232626983895898">
        <ele>340.92000000000002</ele>
        <time>2026-07-13T12:51:24Z</time>
      </trkpt>
      <trkpt lat="50.416015014052391" lon="7.234275033697486">
        <ele>350.06</ele>
        <time>2026-07-13T12:51:37Z</time>
      </trkpt>
      <trkpt lat="50.412225974723697" lon="7.235687971115112">
        <ele>359.67000000000002</ele>
        <time>2026-07-13T12:51:52Z</time>
      </trkpt>
      <trkpt lat="50.409169010818005" lon="7.236663037911058">
        <ele>368.31999999999999</ele>
        <time>2026-07-13T12:52:04Z</time>
      </trkpt>
      <trkpt lat="50.406115986406803" lon="7.23772301338613">
        <ele>371.20999999999998</ele>
        <time>2026-07-13T12:52:16Z</time>
      </trkpt>
      <trkpt lat="50.403099004179239" lon="7.239039978012443">
        <ele>372.17000000000002</ele>
        <time>2026-07-13T12:52:28Z</time>
      </trkpt>
      <trkpt lat="50.399955958127975" lon="7.241126988083124">
        <ele>365.92000000000002</ele>
        <time>2026-07-13T12:52:41Z</time>
      </trkpt>
      <trkpt lat="50.39723502472043" lon="7.243548016995192">
        <ele>353.42000000000002</ele>
        <time>2026-07-13T12:52:53Z</time>
      </trkpt>
      <trkpt lat="50.395121024921536" lon="7.245934009552002">
        <ele>341.88999999999999</ele>
        <time>2026-07-13T12:53:03Z</time>
      </trkpt>
      <trkpt lat="50.39298196323216" lon="7.248930037021637">
        <ele>330.82999999999998</ele>
        <time>2026-07-13T12:53:14Z</time>
      </trkpt>
      <trkpt lat="50.391195025295019" lon="7.251893039792776">
        <ele>320.25999999999999</ele>
        <time>2026-07-13T12:53:24Z</time>
      </trkpt>
      <trkpt lat="50.390377035364509" lon="7.253503035753965">
        <ele>315.93000000000001</ele>
        <time>2026-07-13T12:53:30Z</time>
      </trkpt>
      <trkpt lat="50.389808993786573" lon="7.254192028194666">
        <ele>313.05000000000001</ele>
        <time>2026-07-13T12:53:36Z</time>
      </trkpt>
      <trkpt lat="50.38975803181529" lon="7.254260005429387">
        <ele>313.05000000000001</ele>
        <time>2026-07-13T12:53:37Z</time>
      </trkpt>
      <trkpt lat="50.389696005731821" lon="7.254346003755927">
        <ele>312.56999999999999</ele>
        <time>2026-07-13T12:53:38Z</time>
      </trkpt>
      <trkpt lat="50.38932996802032" lon="7.255235994234681">
        <ele>308.72000000000003</ele>
        <time>2026-07-13T12:53:50Z</time>
      </trkpt>
      <trkpt lat="50.389229971915483" lon="7.255480997264385">
        <ele>307.75999999999999</ele>
        <time>2026-07-13T12:53:53Z</time>
      </trkpt>
      <trkpt lat="50.389074990525842" lon="7.255858015269041">
        <ele>305.36000000000001</ele>
        <time>2026-07-13T12:54:01Z</time>
      </trkpt>
      <trkpt lat="50.389074990525842" lon="7.255858015269041">
        <ele>304.88</ele>
        <time>2026-07-13T12:54:21Z</time>
      </trkpt>
      <trkpt lat="50.389074990525842" lon="7.255858015269041">
        <ele>304.88</ele>
        <time>2026-07-13T12:54:49Z</time>
      </trkpt>
      <trkpt lat="50.389046994969249" lon="7.255867989733815">
        <ele>310.16000000000003</ele>
        <time>2026-07-13T13:01:33Z</time>
      </trkpt>
      <trkpt lat="50.389086976647377" lon="7.255908977240324">
        <ele>305.36000000000001</ele>
        <time>2026-07-13T13:02:01Z</time>
      </trkpt>
      <trkpt lat="50.389087982475758" lon="7.255903026089072">
        <ele>305.83999999999997</ele>
        <time>2026-07-13T13:02:31Z</time>
      </trkpt>
      <trkpt lat="50.389046994969249" lon="7.255925992503762">
        <ele>307.75999999999999</ele>
        <time>2026-07-13T13:02:45Z</time>
      </trkpt>
      <trkpt lat="50.38902897387743" lon="7.255971003323793">
        <ele>307.75999999999999</ele>
        <time>2026-07-13T13:02:46Z</time>
      </trkpt>
      <trkpt lat="50.389009024947882" lon="7.256019031628966">
        <ele>307.75999999999999</ele>
        <time>2026-07-13T13:02:47Z</time>
      </trkpt>
      <trkpt lat="50.388980023562908" lon="7.256148029118776">
        <ele>307.75999999999999</ele>
        <time>2026-07-13T13:02:48Z</time>
      </trkpt>
      <trkpt lat="50.388951022177935" lon="7.256275014951825">
        <ele>307.75999999999999</ele>
        <time>2026-07-13T13:02:49Z</time>
      </trkpt>
      <trkpt lat="50.388914979994297" lon="7.256431002169848">
        <ele>307.75999999999999</ele>
        <time>2026-07-13T13:02:50Z</time>
      </trkpt>
      <trkpt lat="50.388783970847726" lon="7.257007006555796">
        <ele>306.80000000000001</ele>
        <time>2026-07-13T13:02:54Z</time>
      </trkpt>
      <trkpt lat="50.388046028092504" lon="7.259231982752681">
        <ele>302.94999999999999</ele>
        <time>2026-07-13T13:03:01Z</time>
      </trkpt>
      <trkpt lat="50.387211022898555" lon="7.261975966393948">
        <ele>295.25999999999999</ele>
        <time>2026-07-13T13:03:08Z</time>
      </trkpt>
      <trkpt lat="50.38636302575469" lon="7.265252033248544">
        <ele>285.17000000000002</ele>
        <time>2026-07-13T13:03:16Z</time>
      </trkpt>
      <trkpt lat="50.385586023330688" lon="7.269426975399256">
        <ele>274.58999999999997</ele>
        <time>2026-07-13T13:03:27Z</time>
      </trkpt>
      <trkpt lat="50.385148990899324" lon="7.273303018882871">
        <ele>266.42000000000002</ele>
        <time>2026-07-13T13:03:37Z</time>
      </trkpt>
      <trkpt lat="50.384911028668284" lon="7.278371974825859">
        <ele>252.47999999999999</ele>
        <time>2026-07-13T13:03:50Z</time>
      </trkpt>
      <trkpt lat="50.384960984811187" lon="7.281428016722202">
        <ele>246.72</ele>
        <time>2026-07-13T13:03:57Z</time>
      </trkpt>
      <trkpt lat="50.385200036689639" lon="7.285559037700295">
        <ele>239.99000000000001</ele>
        <time>2026-07-13T13:04:06Z</time>
      </trkpt>
      <trkpt lat="50.385716026648879" lon="7.289458969607949">
        <ele>234.69999999999999</ele>
        <time>2026-07-13T13:04:16Z</time>
      </trkpt>
      <trkpt lat="50.38653502240777" lon="7.29371203109622">
        <ele>231.33000000000001</ele>
        <time>2026-07-13T13:04:27Z</time>
      </trkpt>
      <trkpt lat="50.387169029563665" lon="7.296443022787571">
        <ele>228.44999999999999</ele>
        <time>2026-07-13T13:04:35Z</time>
      </trkpt>
      <trkpt lat="50.388153987005353" lon="7.300016982480884">
        <ele>227.49000000000001</ele>
        <time>2026-07-13T13:04:46Z</time>
      </trkpt>
      <trkpt lat="50.389519985765219" lon="7.30437096208334">
        <ele>227.00999999999999</ele>
        <time>2026-07-13T13:05:00Z</time>
      </trkpt>
      <trkpt lat="50.390848014503717" lon="7.307934025302529">
        <ele>224.12</ele>
        <time>2026-07-13T13:05:11Z</time>
      </trkpt>
      <trkpt lat="50.392553983256221" lon="7.31234198436141">
        <ele>217.88</ele>
        <time>2026-07-13T13:05:24Z</time>
      </trkpt>
      <trkpt lat="50.394056020304561" lon="7.316344007849693">
        <ele>211.15000000000001</ele>
        <time>2026-07-13T13:05:35Z</time>
      </trkpt>
      <trkpt lat="50.394803015515208" lon="7.318564038723707">
        <ele>206.81999999999999</ele>
        <time>2026-07-13T13:05:40Z</time>
      </trkpt>
      <trkpt lat="50.395790990442038" lon="7.322528008371592">
        <ele>199.13</ele>
        <time>2026-07-13T13:05:48Z</time>
      </trkpt>
      <trkpt lat="50.396283008158207" lon="7.326362980529666">
        <ele>190.96000000000001</ele>
        <time>2026-07-13T13:05:56Z</time>
      </trkpt>
      <trkpt lat="50.396293988451362" lon="7.330304989591241">
        <ele>181.34999999999999</ele>
        <time>2026-07-13T13:06:04Z</time>
      </trkpt>
      <trkpt lat="50.39605401456356" lon="7.332743033766747">
        <ele>176.53999999999999</ele>
        <time>2026-07-13T13:06:09Z</time>
      </trkpt>
      <trkpt lat="50.395320011302829" lon="7.336964998394251">
        <ele>167.41</ele>
        <time>2026-07-13T13:06:18Z</time>
      </trkpt>
      <trkpt lat="50.393785033375025" lon="7.343368018046022">
        <ele>148.66</ele>
        <time>2026-07-13T13:06:32Z</time>
      </trkpt>
      <trkpt lat="50.39293996989727" lon="7.347077010199428">
        <ele>140.97</ele>
        <time>2026-07-13T13:06:40Z</time>
      </trkpt>
      <trkpt lat="50.392087027430534" lon="7.351761991158128">
        <ele>134.72</ele>
        <time>2026-07-13T13:06:50Z</time>
      </trkpt>
      <trkpt lat="50.391508005559444" lon="7.356555014848709">
        <ele>132.31999999999999</ele>
        <time>2026-07-13T13:07:00Z</time>
      </trkpt>
      <trkpt lat="50.39124196395278" lon="7.360146995633841">
        <ele>131.36000000000001</ele>
        <time>2026-07-13T13:07:08Z</time>
      </trkpt>
      <trkpt lat="50.390928983688354" lon="7.364402990788221">
        <ele>132.80000000000001</ele>
        <time>2026-07-13T13:07:18Z</time>
      </trkpt>
      <trkpt lat="50.390259018167853" lon="7.368513979017735">
        <ele>134.72</ele>
        <time>2026-07-13T13:07:27Z</time>
      </trkpt>
      <trkpt lat="50.389519985765219" lon="7.371020000427961">
        <ele>136.16</ele>
        <time>2026-07-13T13:07:33Z</time>
      </trkpt>
      <trkpt lat="50.388068994507194" lon="7.37413396127522">
        <ele>139.05000000000001</ele>
        <time>2026-07-13T13:07:41Z</time>
      </trkpt>
      <trkpt lat="50.38619102910161" lon="7.376793958246708">
        <ele>140.00999999999999</ele>
        <time>2026-07-13T13:07:49Z</time>
      </trkpt>
      <trkpt lat="50.383342020213604" lon="7.379783028736711">
        <ele>142.88999999999999</ele>
        <time>2026-07-13T13:08:00Z</time>
      </trkpt>
      <trkpt lat="50.380907999351621" lon="7.382790958508849">
        <ele>144.34</ele>
        <time>2026-07-13T13:08:10Z</time>
      </trkpt>
      <trkpt lat="50.379314012825489" lon="7.385787991806865">
        <ele>145.78</ele>
        <time>2026-07-13T13:08:18Z</time>
      </trkpt>
      <trkpt lat="50.378279015421867" lon="7.388800028711557">
        <ele>146.74000000000001</ele>
        <time>2026-07-13T13:08:25Z</time>
      </trkpt>
      <trkpt lat="50.377550963312387" lon="7.392555959522724">
        <ele>148.18000000000001</ele>
        <time>2026-07-13T13:08:33Z</time>
      </trkpt>
      <trkpt lat="50.37719096057117" lon="7.397390976548195">
        <ele>152.03</ele>
        <time>2026-07-13T13:08:43Z</time>
      </trkpt>
      <trkpt lat="50.376713024452329" lon="7.404185011982918">
        <ele>158.75</ele>
        <time>2026-07-13T13:08:57Z</time>
      </trkpt>
      <trkpt lat="50.376098966225982" lon="7.407359993085265">
        <ele>164.52000000000001</ele>
        <time>2026-07-13T13:09:04Z</time>
      </trkpt>
      <trkpt lat="50.375223979353905" lon="7.41020598448813">
        <ele>167.41</ele>
        <time>2026-07-13T13:09:12Z</time>
      </trkpt>
      <trkpt lat="50.373939033597708" lon="7.413117019459605">
        <ele>172.21000000000001</ele>
        <time>2026-07-13T13:09:21Z</time>
      </trkpt>
      <trkpt lat="50.372578985989094" lon="7.415376026183367">
        <ele>177.5</ele>
        <time>2026-07-13T13:09:29Z</time>
      </trkpt>
      <trkpt lat="50.370900006964803" lon="7.417464964091778">
        <ele>183.27000000000001</ele>
        <time>2026-07-13T13:09:38Z</time>
      </trkpt>
      <trkpt lat="50.368542009964585" lon="7.420110041275621">
        <ele>190.47999999999999</ele>
        <time>2026-07-13T13:09:50Z</time>
      </trkpt>
      <trkpt lat="50.366572011262178" lon="7.422649003565311">
        <ele>196.25</ele>
        <time>2026-07-13T13:10:01Z</time>
      </trkpt>
      <trkpt lat="50.365256974473596" lon="7.425049999728799">
        <ele>200.09</ele>
        <time>2026-07-13T13:10:10Z</time>
      </trkpt>
      <trkpt lat="50.364251984283328" lon="7.42776095867157">
        <ele>205.86000000000001</ele>
        <time>2026-07-13T13:10:19Z</time>
      </trkpt>
      <trkpt lat="50.363489985466003" lon="7.430947003886104">
        <ele>210.19</ele>
        <time>2026-07-13T13:10:28Z</time>
      </trkpt>
      <trkpt lat="50.363183962181211" lon="7.4340779799968">
        <ele>217.40000000000001</ele>
        <time>2026-07-13T13:10:36Z</time>
      </trkpt>
      <trkpt lat="50.363251017406583" lon="7.437672978267074">
        <ele>223.63999999999999</ele>
        <time>2026-07-13T13:10:45Z</time>
      </trkpt>
      <trkpt lat="50.363801959902048" lon="7.441278034821153">
        <ele>227.97</ele>
        <time>2026-07-13T13:10:54Z</time>
      </trkpt>
      <trkpt lat="50.36434200592339" lon="7.443546010181308">
        <ele>229.88999999999999</ele>
        <time>2026-07-13T13:11:00Z</time>
      </trkpt>
      <trkpt lat="50.365004008635879" lon="7.446115985512734">
        <ele>229.41</ele>
        <time>2026-07-13T13:11:06Z</time>
      </trkpt>
      <trkpt lat="50.366158029064536" lon="7.451071031391621">
        <ele>227.97</ele>
        <time>2026-07-13T13:11:17Z</time>
      </trkpt>
      <trkpt lat="50.366755994036794" lon="7.455704966560006">
        <ele>222.19999999999999</ele>
        <time>2026-07-13T13:11:27Z</time>
      </trkpt>
      <trkpt lat="50.366839980706573" lon="7.459337012842298">
        <ele>216.43000000000001</ele>
        <time>2026-07-13T13:11:35Z</time>
      </trkpt>
      <trkpt lat="50.36670402623713" lon="7.462347038090229">
        <ele>211.15000000000001</ele>
        <time>2026-07-13T13:11:43Z</time>
      </trkpt>
      <trkpt lat="50.366334971040487" lon="7.465495029464364">
        <ele>207.30000000000001</ele>
        <time>2026-07-13T13:11:52Z</time>
      </trkpt>
      <trkpt lat="50.36556500941515" lon="7.469207961112261">
        <ele>203.94</ele>
        <time>2026-07-13T13:12:04Z</time>
      </trkpt>
      <trkpt lat="50.364431021735072" lon="7.472877977415919">
        <ele>201.53</ele>
        <time>2026-07-13T13:12:17Z</time>
      </trkpt>
      <trkpt lat="50.363364005461335" lon="7.475359020754695">
        <ele>200.56999999999999</ele>
        <time>2026-07-13T13:12:27Z</time>
      </trkpt>
      <trkpt lat="50.3624920360744" lon="7.477148976176977">
        <ele>200.09</ele>
        <time>2026-07-13T13:12:35Z</time>
      </trkpt>
      <trkpt lat="50.361561980098486" lon="7.478990983217955">
        <ele>200.09</ele>
        <time>2026-07-13T13:12:43Z</time>
      </trkpt>
      <trkpt lat="50.359971011057496" lon="7.481660032644868">
        <ele>203.46000000000001</ele>
        <time>2026-07-13T13:12:55Z</time>
      </trkpt>
      <trkpt lat="50.35864700563252" lon="7.483920967206359">
        <ele>199.61000000000001</ele>
        <time>2026-07-13T13:13:06Z</time>
      </trkpt>
      <trkpt lat="50.358511973172426" lon="7.484162030741572">
        <ele>198.65000000000001</ele>
        <time>2026-07-13T13:13:07Z</time>
      </trkpt>
      <trkpt lat="50.358420023694634" lon="7.484294967725873">
        <ele>198.65000000000001</ele>
        <time>2026-07-13T13:13:08Z</time>
      </trkpt>
      <trkpt lat="50.358191030099988" lon="7.484638961032033">
        <ele>199.13</ele>
        <time>2026-07-13T13:13:11Z</time>
      </trkpt>
      <trkpt lat="50.358058009296656" lon="7.484586993232369">
        <ele>199.61000000000001</ele>
        <time>2026-07-13T13:13:12Z</time>
      </trkpt>
      <trkpt lat="50.357880983501673" lon="7.484710039570928">
        <ele>200.56999999999999</ele>
        <time>2026-07-13T13:13:14Z</time>
      </trkpt>
      <trkpt lat="50.35783002153039" lon="7.484707022085786">
        <ele>201.05000000000001</ele>
        <time>2026-07-13T13:13:15Z</time>
      </trkpt>
      <trkpt lat="50.357753997668624" lon="7.484693024307489">
        <ele>202.00999999999999</ele>
        <time>2026-07-13T13:13:16Z</time>
      </trkpt>
      <trkpt lat="50.357671016827226" lon="7.484677014872432">
        <ele>202.49000000000001</ele>
        <time>2026-07-13T13:13:17Z</time>
      </trkpt>
      <trkpt lat="50.357588035985827" lon="7.484662011265755">
        <ele>203.46000000000001</ele>
        <time>2026-07-13T13:13:18Z</time>
      </trkpt>
      <trkpt lat="50.357531039044261" lon="7.4846510309726">
        <ele>203.94</ele>
        <time>2026-07-13T13:13:19Z</time>
      </trkpt>
      <trkpt lat="50.357469012960792" lon="7.484568972140551">
        <ele>204.41999999999999</ele>
        <time>2026-07-13T13:13:20Z</time>
      </trkpt>
      <trkpt lat="50.357411010190845" lon="7.484491020441055">
        <ele>204.41999999999999</ele>
        <time>2026-07-13T13:13:21Z</time>
      </trkpt>
      <trkpt lat="50.35735703073442" lon="7.484419019892812">
        <ele>204.90000000000001</ele>
        <time>2026-07-13T13:13:22Z</time>
      </trkpt>
      <trkpt lat="50.357327023521066" lon="7.484338972717524">
        <ele>204.90000000000001</ele>
        <time>2026-07-13T13:13:23Z</time>
      </trkpt>
      <trkpt lat="50.357303973287344" lon="7.484216010197997">
        <ele>205.38</ele>
        <time>2026-07-13T13:13:24Z</time>
      </trkpt>
      <trkpt lat="50.357281006872654" lon="7.484091036021709">
        <ele>205.86000000000001</ele>
        <time>2026-07-13T13:13:25Z</time>
      </trkpt>
      <trkpt lat="50.357287963852286" lon="7.48396597802639">
        <ele>206.34</ele>
        <time>2026-07-13T13:13:26Z</time>
      </trkpt>
      <trkpt lat="50.357312019914389" lon="7.48383304104209">
        <ele>206.81999999999999</ele>
        <time>2026-07-13T13:13:27Z</time>
      </trkpt>
      <trkpt lat="50.35733800381422" lon="7.48368501663208">
        <ele>206.81999999999999</ele>
        <time>2026-07-13T13:13:28Z</time>
      </trkpt>
      <trkpt lat="50.357377985492349" lon="7.483576973900199">
        <ele>207.30000000000001</ele>
        <time>2026-07-13T13:13:29Z</time>
      </trkpt>
      <trkpt lat="50.357441017404199" lon="7.483478989452124">
        <ele>208.25999999999999</ele>
        <time>2026-07-13T13:13:30Z</time>
      </trkpt>
      <trkpt lat="50.357517041265965" lon="7.483411012217403">
        <ele>208.74000000000001</ele>
        <time>2026-07-13T13:13:31Z</time>
      </trkpt>
      <trkpt lat="50.35759499296546" lon="7.483342029154301">
        <ele>209.22</ele>
        <time>2026-07-13T13:13:32Z</time>
      </trkpt>
      <trkpt lat="50.357679985463619" lon="7.483332976698875">
        <ele>209.69999999999999</ele>
        <time>2026-07-13T13:13:33Z</time>
      </trkpt>
      <trkpt lat="50.357765983790159" lon="7.483325013890863">
        <ele>209.69999999999999</ele>
        <time>2026-07-13T13:13:34Z</time>
      </trkpt>
      <trkpt lat="50.357849970459938" lon="7.483335994184017">
        <ele>210.19</ele>
        <time>2026-07-13T13:13:35Z</time>
      </trkpt>
      <trkpt lat="50.35791702568531" lon="7.48336298391223">
        <ele>210.19</ele>
        <time>2026-07-13T13:13:36Z</time>
      </trkpt>
      <trkpt lat="50.358020961284637" lon="7.483460968360305">
        <ele>210.19</ele>
        <time>2026-07-13T13:13:37Z</time>
      </trkpt>
      <trkpt lat="50.358118023723364" lon="7.483553001657128">
        <ele>210.66999999999999</ele>
        <time>2026-07-13T13:13:38Z</time>
      </trkpt>
      <trkpt lat="50.358221959322691" lon="7.483650986105204">
        <ele>210.66999999999999</ele>
        <time>2026-07-13T13:13:39Z</time>
      </trkpt>
      <trkpt lat="50.358322039246559" lon="7.483753999695182">
        <ele>211.15000000000001</ele>
        <time>2026-07-13T13:13:40Z</time>
      </trkpt>
      <trkpt lat="50.358421029523015" lon="7.483894983306527">
        <ele>211.15000000000001</ele>
        <time>2026-07-13T13:13:41Z</time>
      </trkpt>
      <trkpt lat="50.359520986676216" lon="7.485448988154531">
        <ele>211.15000000000001</ele>
        <time>2026-07-13T13:13:51Z</time>
      </trkpt>
      <trkpt lat="50.361111033707857" lon="7.487815031781793">
        <ele>210.66999999999999</ele>
        <time>2026-07-13T13:14:03Z</time>
      </trkpt>
      <trkpt lat="50.362718012183905" lon="7.490102034062147">
        <ele>209.69999999999999</ele>
        <time>2026-07-13T13:14:14Z</time>
      </trkpt>
      <trkpt lat="50.364335970953107" lon="7.492347965016961">
        <ele>210.19</ele>
        <time>2026-07-13T13:14:24Z</time>
      </trkpt>
      <trkpt lat="50.365956025198102" lon="7.494825990870595">
        <ele>208.25999999999999</ele>
        <time>2026-07-13T13:14:32Z</time>
      </trkpt>
      <trkpt lat="50.367974974215031" lon="7.498564990237355">
        <ele>204.41999999999999</ele>
        <time>2026-07-13T13:14:42Z</time>
      </trkpt>
      <trkpt lat="50.369824022054672" lon="7.503118962049484">
        <ele>199.61000000000001</ele>
        <time>2026-07-13T13:14:53Z</time>
      </trkpt>
      <trkpt lat="50.371247017756104" lon="7.507459027692676">
        <ele>194.80000000000001</ele>
        <time>2026-07-13T13:15:03Z</time>
      </trkpt>
      <trkpt lat="50.373077038675547" lon="7.513122009113431">
        <ele>184.71000000000001</ele>
        <time>2026-07-13T13:15:16Z</time>
      </trkpt>
      <trkpt lat="50.374904964119196" lon="7.518840981647372">
        <ele>174.62</ele>
        <time>2026-07-13T13:15:29Z</time>
      </trkpt>
      <trkpt lat="50.37572898901999" lon="7.52167196944356">
        <ele>167.88999999999999</ele>
        <time>2026-07-13T13:15:36Z</time>
      </trkpt>
      <trkpt lat="50.376473972573876" lon="7.524476973339915">
        <ele>160.19999999999999</ele>
        <time>2026-07-13T13:15:43Z</time>
      </trkpt>
      <trkpt lat="50.377556998282671" lon="7.528518978506327">
        <ele>150.09999999999999</ele>
        <time>2026-07-13T13:15:52Z</time>
      </trkpt>
      <trkpt lat="50.379041014239192" lon="7.532833982259035">
        <ele>140.97</ele>
        <time>2026-07-13T13:16:02Z</time>
      </trkpt>
      <trkpt lat="50.380269968882203" lon="7.535062981769443">
        <ele>135.19999999999999</ele>
        <time>2026-07-13T13:16:08Z</time>
      </trkpt>
      <trkpt lat="50.382043998688459" lon="7.537073967978358">
        <ele>128.47</ele>
        <time>2026-07-13T13:16:15Z</time>
      </trkpt>
      <trkpt lat="50.383260967209935" lon="7.537972005084157">
        <ele>122.70999999999999</ele>
        <time>2026-07-13T13:16:20Z</time>
      </trkpt>
      <trkpt lat="50.384449018165469" lon="7.538545997813344">
        <ele>116.45999999999999</ele>
        <time>2026-07-13T13:16:27Z</time>
      </trkpt>
      <trkpt lat="50.385664980858564" lon="7.53903298638761">
        <ele>110.69</ele>
        <time>2026-07-13T13:16:34Z</time>
      </trkpt>
      <trkpt lat="50.387400034815073" lon="7.539692977443337">
        <ele>103</ele>
        <time>2026-07-13T13:16:43Z</time>
      </trkpt>
      <trkpt lat="50.388871980831027" lon="7.540366966277361">
        <ele>95.790000000000006</ele>
        <time>2026-07-13T13:16:52Z</time>
      </trkpt>
      <trkpt lat="50.38986599072814" lon="7.541058976203203">
        <ele>92.420000000000002</ele>
        <time>2026-07-13T13:17:01Z</time>
      </trkpt>
      <trkpt lat="50.389947965741158" lon="7.541138017550111">
        <ele>92.420000000000002</ele>
        <time>2026-07-13T13:17:02Z</time>
      </trkpt>
      <trkpt lat="50.390329007059336" lon="7.541505983099341">
        <ele>92.900000000000006</ele>
        <time>2026-07-13T13:17:07Z</time>
      </trkpt>
      <trkpt lat="50.39040301926434" lon="7.541576977819204">
        <ele>93.390000000000001</ele>
        <time>2026-07-13T13:17:08Z</time>
      </trkpt>
      <trkpt lat="50.390474013984203" lon="7.541645960882306">
        <ele>93.390000000000001</ele>
        <time>2026-07-13T13:17:09Z</time>
      </trkpt>
      <trkpt lat="50.390540985390544" lon="7.541709998622537">
        <ele>92.900000000000006</ele>
        <time>2026-07-13T13:17:10Z</time>
      </trkpt>
      <trkpt lat="50.390608040615916" lon="7.541775964200497">
        <ele>92.420000000000002</ele>
        <time>2026-07-13T13:17:11Z</time>
      </trkpt>
      <trkpt lat="50.390677023679018" lon="7.541842013597488">
        <ele>91.939999999999998</ele>
        <time>2026-07-13T13:17:12Z</time>
      </trkpt>
      <trkpt lat="50.391376996412873" lon="7.542622033506632">
        <ele>90.019999999999996</ele>
        <time>2026-07-13T13:17:24Z</time>
      </trkpt>
      <trkpt lat="50.391424018889666" lon="7.542680958285928">
        <ele>90.019999999999996</ele>
        <time>2026-07-13T13:17:25Z</time>
      </trkpt>
      <trkpt lat="50.391473975032568" lon="7.542743990197778">
        <ele>90.019999999999996</ele>
        <time>2026-07-13T13:17:26Z</time>
      </trkpt>
      <trkpt lat="50.391528038308024" lon="7.54281397908926">
        <ele>90.019999999999996</ele>
        <time>2026-07-13T13:17:27Z</time>
      </trkpt>
      <trkpt lat="50.39158696308732" lon="7.542888997122645">
        <ele>89.540000000000006</ele>
        <time>2026-07-13T13:17:28Z</time>
      </trkpt>
      <trkpt lat="50.391696011647582" lon="7.54302897490561">
        <ele>89.540000000000006</ele>
        <time>2026-07-13T13:17:30Z</time>
      </trkpt>
      <trkpt lat="50.39194998331368" lon="7.543400041759014">
        <ele>90.019999999999996</ele>
        <time>2026-07-13T13:17:35Z</time>
      </trkpt>
      <trkpt lat="50.392001029103994" lon="7.543484028428793">
        <ele>90.019999999999996</ele>
        <time>2026-07-13T13:17:36Z</time>
      </trkpt>
      <trkpt lat="50.392050985246897" lon="7.543566003441811">
        <ele>90.019999999999996</ele>
        <time>2026-07-13T13:17:37Z</time>
      </trkpt>
      <trkpt lat="50.392151987180114" lon="7.543731965124607">
        <ele>89.540000000000006</ele>
        <time>2026-07-13T13:17:39Z</time>
      </trkpt>
      <trkpt lat="50.392196998000145" lon="7.543803965672851">
        <ele>89.540000000000006</ele>
        <time>2026-07-13T13:17:40Z</time>
      </trkpt>
      <trkpt lat="50.392233040183783" lon="7.543863980099559">
        <ele>89.540000000000006</ele>
        <time>2026-07-13T13:17:41Z</time>
      </trkpt>
      <trkpt lat="50.392261035740376" lon="7.543909996747971">
        <ele>89.060000000000002</ele>
        <time>2026-07-13T13:17:42Z</time>
      </trkpt>
      <trkpt lat="50.392288025468588" lon="7.543954001739621">
        <ele>89.060000000000002</ele>
        <time>2026-07-13T13:17:43Z</time>
      </trkpt>
      <trkpt lat="50.392316021025181" lon="7.544000018388033">
        <ele>88.579999999999998</ele>
        <time>2026-07-13T13:17:44Z</time>
      </trkpt>
      <trkpt lat="50.39238098077476" lon="7.544105965644121">
        <ele>88.099999999999994</ele>
        <time>2026-07-13T13:17:46Z</time>
      </trkpt>
      <trkpt lat="50.39242004044354" lon="7.544170003384352">
        <ele>88.099999999999994</ele>
        <time>2026-07-13T13:17:47Z</time>
      </trkpt>
      <trkpt lat="50.392464967444539" lon="7.544244015589356">
        <ele>88.099999999999994</ele>
        <time>2026-07-13T13:17:48Z</time>
      </trkpt>
      <trkpt lat="50.392516013234854" lon="7.544328002259135">
        <ele>87.620000000000005</ele>
        <time>2026-07-13T13:17:49Z</time>
      </trkpt>
      <trkpt lat="50.39257301017642" lon="7.544421041384339">
        <ele>87.620000000000005</ele>
        <time>2026-07-13T13:17:50Z</time>
      </trkpt>
      <trkpt lat="50.393178015947342" lon="7.545701041817665">
        <ele>85.209999999999994</ele>
        <time>2026-07-13T13:18:01Z</time>
      </trkpt>
      <trkpt lat="50.393228977918625" lon="7.545816963538528">
        <ele>84.730000000000004</ele>
        <time>2026-07-13T13:18:02Z</time>
      </trkpt>
      <trkpt lat="50.393279017880559" lon="7.545931041240692">
        <ele>83.769999999999996</ele>
        <time>2026-07-13T13:18:03Z</time>
      </trkpt>
      <trkpt lat="50.393328974023461" lon="7.546045035123825">
        <ele>82.329999999999998</ele>
        <time>2026-07-13T13:18:04Z</time>
      </trkpt>
      <trkpt lat="50.393380019813776" lon="7.546162968501449">
        <ele>81.370000000000005</ele>
        <time>2026-07-13T13:18:05Z</time>
      </trkpt>
      <trkpt lat="50.39343198761344" lon="7.546281991526485">
        <ele>80.890000000000001</ele>
        <time>2026-07-13T13:18:06Z</time>
      </trkpt>
      <trkpt lat="50.393735999241471" lon="7.546985987573862">
        <ele>78</ele>
        <time>2026-07-13T13:18:12Z</time>
      </trkpt>
      <trkpt lat="50.393772963434458" lon="7.547114985063672">
        <ele>77.519999999999996</ele>
        <time>2026-07-13T13:18:13Z</time>
      </trkpt>
      <trkpt lat="50.393824009224772" lon="7.547230990603566">
        <ele>77.040000000000006</ele>
        <time>2026-07-13T13:18:14Z</time>
      </trkpt>
      <trkpt lat="50.394092984497547" lon="7.547901039943099">
        <ele>74.640000000000001</ele>
        <time>2026-07-13T13:18:21Z</time>
      </trkpt>
      <trkpt lat="50.394118968397379" lon="7.547964993864298">
        <ele>74.640000000000001</ele>
        <time>2026-07-13T13:18:22Z</time>
      </trkpt>
      <trkpt lat="50.394143024459481" lon="7.548022996634245">
        <ele>74.159999999999997</ele>
        <time>2026-07-13T13:18:23Z</time>
      </trkpt>
      <trkpt lat="50.394166996702552" lon="7.548083011060953">
        <ele>74.159999999999997</ele>
        <time>2026-07-13T13:18:24Z</time>
      </trkpt>
      <trkpt lat="50.394189041107893" lon="7.548135984688997">
        <ele>73.680000000000007</ele>
        <time>2026-07-13T13:18:25Z</time>
      </trkpt>
      <trkpt lat="50.394208990037441" lon="7.548186024650931">
        <ele>73.680000000000007</ele>
        <time>2026-07-13T13:18:26Z</time>
      </trkpt>
      <trkpt lat="50.394229022786021" lon="7.548235980793834">
        <ele>73.200000000000003</ele>
        <time>2026-07-13T13:18:27Z</time>
      </trkpt>
      <trkpt lat="50.394250983372331" lon="7.548288032412529">
        <ele>72.719999999999999</ele>
        <time>2026-07-13T13:18:28Z</time>
      </trkpt>
      <trkpt lat="50.394271016120911" lon="7.548336982727051">
        <ele>72.719999999999999</ele>
        <time>2026-07-13T13:18:29Z</time>
      </trkpt>
      <trkpt lat="50.394290965050459" lon="7.548386016860604">
        <ele>72.239999999999995</ele>
        <time>2026-07-13T13:18:30Z</time>
      </trkpt>
      <trkpt lat="50.394309991970658" lon="7.548433961346746">
        <ele>71.760000000000005</ele>
        <time>2026-07-13T13:18:31Z</time>
      </trkpt>
      <trkpt lat="50.394330024719238" lon="7.548482995480299">
        <ele>71.760000000000005</ele>
        <time>2026-07-13T13:18:32Z</time>
      </trkpt>
      <trkpt lat="50.394391966983676" lon="7.548634959384799">
        <ele>71.269999999999996</ele>
        <time>2026-07-13T13:18:35Z</time>
      </trkpt>
      <trkpt lat="50.394409988075495" lon="7.54867997020483">
        <ele>71.269999999999996</ele>
        <time>2026-07-13T13:18:36Z</time>
      </trkpt>
      <trkpt lat="50.394422980025411" lon="7.548710983246565">
        <ele>71.269999999999996</ele>
        <time>2026-07-13T13:18:37Z</time>
      </trkpt>
      <trkpt lat="50.394422980025411" lon="7.548710983246565">
        <ele>70.790000000000006</ele>
        <time>2026-07-13T13:18:38Z</time>
      </trkpt>
      <trkpt lat="50.394422980025411" lon="7.548710983246565">
        <ele>70.790000000000006</ele>
        <time>2026-07-13T13:18:49Z</time>
      </trkpt>
      <trkpt lat="50.394480982795358" lon="7.54885196685791">
        <ele>70.790000000000006</ele>
        <time>2026-07-13T13:18:51Z</time>
      </trkpt>
      <trkpt lat="50.39450503885746" lon="7.54891499876976">
        <ele>71.269999999999996</ele>
        <time>2026-07-13T13:18:53Z</time>
      </trkpt>
      <trkpt lat="50.394625989720225" lon="7.549223033711314">
        <ele>71.269999999999996</ele>
        <time>2026-07-13T13:18:57Z</time>
      </trkpt>
      <trkpt lat="50.394655996933579" lon="7.549298973754048">
        <ele>71.269999999999996</ele>
        <time>2026-07-13T13:18:58Z</time>
      </trkpt>
      <trkpt lat="50.394682986661792" lon="7.549368962645531">
        <ele>71.269999999999996</ele>
        <time>2026-07-13T13:18:59Z</time>
      </trkpt>
      <trkpt lat="50.394711988046765" lon="7.549441969022155">
        <ele>71.269999999999996</ele>
        <time>2026-07-13T13:19:00Z</time>
      </trkpt>
      <trkpt lat="50.3947430010885" lon="7.549521010369062">
        <ele>71.760000000000005</ele>
        <time>2026-07-13T13:19:01Z</time>
      </trkpt>
      <trkpt lat="50.394776025786996" lon="7.549603991210461">
        <ele>71.760000000000005</ele>
        <time>2026-07-13T13:19:02Z</time>
      </trkpt>
      <trkpt lat="50.39480896666646" lon="7.54968898370862">
        <ele>71.760000000000005</ele>
        <time>2026-07-13T13:19:03Z</time>
      </trkpt>
      <trkpt lat="50.394874010235071" lon="7.549856035038829">
        <ele>71.760000000000005</ele>
        <time>2026-07-13T13:19:05Z</time>
      </trkpt>
      <trkpt lat="50.395037960261106" lon="7.550274040549994">
        <ele>72.719999999999999</ele>
        <time>2026-07-13T13:19:10Z</time>
      </trkpt>
      <trkpt lat="50.395317999646068" lon="7.550990022718906">
        <ele>72.719999999999999</ele>
        <time>2026-07-13T13:19:18Z</time>
      </trkpt>
      <trkpt lat="50.395348006859422" lon="7.551065962761641">
        <ele>72.719999999999999</ele>
        <time>2026-07-13T13:19:19Z</time>
      </trkpt>
      <trkpt lat="50.395511034876108" lon="7.551473993808031">
        <ele>72.719999999999999</ele>
        <time>2026-07-13T13:19:24Z</time>
      </trkpt>
      <trkpt lat="50.395545987412333" lon="7.551551023498178">
        <ele>72.719999999999999</ele>
        <time>2026-07-13T13:19:25Z</time>
      </trkpt>
      <trkpt lat="50.395579012110829" lon="7.551622018218041">
        <ele>72.719999999999999</ele>
        <time>2026-07-13T13:19:26Z</time>
      </trkpt>
      <trkpt lat="50.395612036809325" lon="7.551693012937903">
        <ele>72.719999999999999</ele>
        <time>2026-07-13T13:19:27Z</time>
      </trkpt>
      <trkpt lat="50.395642966032028" lon="7.551763001829386">
        <ele>72.719999999999999</ele>
        <time>2026-07-13T13:19:28Z</time>
      </trkpt>
      <trkpt lat="50.395673979073763" lon="7.551830979064107">
        <ele>72.719999999999999</ele>
        <time>2026-07-13T13:19:29Z</time>
      </trkpt>
      <trkpt lat="50.395705997943878" lon="7.551904991269112">
        <ele>72.239999999999995</ele>
        <time>2026-07-13T13:19:30Z</time>
      </trkpt>
      <trkpt lat="50.395814040675759" lon="7.552152005955577">
        <ele>71.760000000000005</ele>
        <time>2026-07-13T13:19:33Z</time>
      </trkpt>
      <trkpt lat="50.395842958241701" lon="7.55222300067544">
        <ele>71.760000000000005</ele>
        <time>2026-07-13T13:19:34Z</time>
      </trkpt>
      <trkpt lat="50.395871037617326" lon="7.552291983738542">
        <ele>71.760000000000005</ele>
        <time>2026-07-13T13:19:35Z</time>
      </trkpt>
      <trkpt lat="50.395898027345538" lon="7.552357027307153">
        <ele>71.269999999999996</ele>
        <time>2026-07-13T13:19:36Z</time>
      </trkpt>
      <trkpt lat="50.395926022902131" lon="7.552425004541874">
        <ele>71.269999999999996</ele>
        <time>2026-07-13T13:19:37Z</time>
      </trkpt>
      <trkpt lat="50.395954018458724" lon="7.552494993433356">
        <ele>70.790000000000006</ele>
        <time>2026-07-13T13:19:38Z</time>
      </trkpt>
      <trkpt lat="50.395983019843698" lon="7.552563976496458">
        <ele>70.790000000000006</ele>
        <time>2026-07-13T13:19:39Z</time>
      </trkpt>
      <trkpt lat="50.396017972379923" lon="7.552642012014985">
        <ele>70.310000000000002</ele>
        <time>2026-07-13T13:19:40Z</time>
      </trkpt>
      <trkpt lat="50.396050997078419" lon="7.55271602421999">
        <ele>70.310000000000002</ele>
        <time>2026-07-13T13:19:41Z</time>
      </trkpt>
      <trkpt lat="50.396086033433676" lon="7.552793975919485">
        <ele>69.829999999999998</ele>
        <time>2026-07-13T13:19:42Z</time>
      </trkpt>
      <trkpt lat="50.396116962656379" lon="7.552862958982587">
        <ele>69.349999999999994</ele>
        <time>2026-07-13T13:19:43Z</time>
      </trkpt>
      <trkpt lat="50.396147975698113" lon="7.55293202586472">
        <ele>69.349999999999994</ele>
        <time>2026-07-13T13:19:44Z</time>
      </trkpt>
      <trkpt lat="50.396181000396609" lon="7.553005032241345">
        <ele>69.349999999999994</ele>
        <time>2026-07-13T13:19:45Z</time>
      </trkpt>
      <trkpt lat="50.396214025095105" lon="7.553077032789588">
        <ele>69.349999999999994</ele>
        <time>2026-07-13T13:19:46Z</time>
      </trkpt>
      <trkpt lat="50.396244032308459" lon="7.553144004195929">
        <ele>69.349999999999994</ele>
        <time>2026-07-13T13:19:47Z</time>
      </trkpt>
      <trkpt lat="50.396272027865052" lon="7.553207036107779">
        <ele>69.349999999999994</ele>
        <time>2026-07-13T13:19:48Z</time>
      </trkpt>
      <trkpt lat="50.396303040906787" lon="7.55327601917088">
        <ele>69.829999999999998</ele>
        <time>2026-07-13T13:19:49Z</time>
      </trkpt>
      <trkpt lat="50.39633397012949" lon="7.553345002233982">
        <ele>69.829999999999998</ele>
        <time>2026-07-13T13:19:50Z</time>
      </trkpt>
      <trkpt lat="50.396365988999605" lon="7.553415996953845">
        <ele>69.829999999999998</ele>
        <time>2026-07-13T13:19:51Z</time>
      </trkpt>
      <trkpt lat="50.396399013698101" lon="7.55349000915885">
        <ele>69.349999999999994</ele>
        <time>2026-07-13T13:19:52Z</time>
      </trkpt>
      <trkpt lat="50.396431032568216" lon="7.553559998050332">
        <ele>69.349999999999994</ele>
        <time>2026-07-13T13:19:53Z</time>
      </trkpt>
      <trkpt lat="50.39646003395319" lon="7.553624035790563">
        <ele>68.870000000000005</ele>
        <time>2026-07-13T13:19:54Z</time>
      </trkpt>
      <trkpt lat="50.396489035338163" lon="7.553688995540142">
        <ele>68.870000000000005</ele>
        <time>2026-07-13T13:19:55Z</time>
      </trkpt>
      <trkpt lat="50.396519964560866" lon="7.553756972774863">
        <ele>68.390000000000001</ele>
        <time>2026-07-13T13:19:56Z</time>
      </trkpt>
      <trkpt lat="50.39654997177422" lon="7.553824028000236">
        <ele>67.909999999999997</ele>
        <time>2026-07-13T13:19:57Z</time>
      </trkpt>
      <trkpt lat="50.396735966205597" lon="7.554200040176511">
        <ele>66.469999999999999</ele>
        <time>2026-07-13T13:20:03Z</time>
      </trkpt>
      <trkpt lat="50.396769996732473" lon="7.554268017411232">
        <ele>66.469999999999999</ele>
        <time>2026-07-13T13:20:04Z</time>
      </trkpt>
      <trkpt lat="50.396969988942146" lon="7.554666996002197">
        <ele>65.030000000000001</ele>
        <time>2026-07-13T13:20:10Z</time>
      </trkpt>
      <trkpt lat="50.397003013640642" lon="7.554732961580157">
        <ele>65.030000000000001</ele>
        <time>2026-07-13T13:20:11Z</time>
      </trkpt>
      <trkpt lat="50.397038972005248" lon="7.554804962128401">
        <ele>64.549999999999997</ele>
        <time>2026-07-13T13:20:12Z</time>
      </trkpt>
      <trkpt lat="50.397078031674027" lon="7.554881991818547">
        <ele>64.549999999999997</ele>
        <time>2026-07-13T13:20:13Z</time>
      </trkpt>
      <trkpt lat="50.397118013352156" lon="7.554962038993835">
        <ele>64.549999999999997</ele>
        <time>2026-07-13T13:20:14Z</time>
      </trkpt>
      <trkpt lat="50.397241981700063" lon="7.555211987346411">
        <ele>64.069999999999993</ele>
        <time>2026-07-13T13:20:17Z</time>
      </trkpt>
      <trkpt lat="50.397284980863333" lon="7.55529697984457">
        <ele>64.069999999999993</ele>
        <time>2026-07-13T13:20:18Z</time>
      </trkpt>
      <trkpt lat="50.397738022729754" lon="7.556202979758382">
        <ele>65.510000000000005</ele>
        <time>2026-07-13T13:20:28Z</time>
      </trkpt>
      <trkpt lat="50.398302963003516" lon="7.557304026558995">
        <ele>69.829999999999998</ele>
        <time>2026-07-13T13:20:36Z</time>
      </trkpt>
      <trkpt lat="50.399292027577758" lon="7.559067998081446">
        <ele>71.269999999999996</ele>
        <time>2026-07-13T13:20:48Z</time>
      </trkpt>
      <trkpt lat="50.400022007524967" lon="7.560294019058347">
        <ele>71.760000000000005</ele>
        <time>2026-07-13T13:20:58Z</time>
      </trkpt>
      <trkpt lat="50.400719968602061" lon="7.56143999285996">
        <ele>71.760000000000005</ele>
        <time>2026-07-13T13:21:06Z</time>
      </trkpt>
      <trkpt lat="50.401689000427723" lon="7.562869023531675">
        <ele>74.159999999999997</ele>
        <time>2026-07-13T13:21:18Z</time>
      </trkpt>
      <trkpt lat="50.402828017249703" lon="7.564549008384347">
        <ele>74.640000000000001</ele>
        <time>2026-07-13T13:21:31Z</time>
      </trkpt>
      <trkpt lat="50.40335901081562" lon="7.56528502330184">
        <ele>74.640000000000001</ele>
        <time>2026-07-13T13:21:39Z</time>
      </trkpt>
      <trkpt lat="50.403504017740488" lon="7.565484009683132">
        <ele>75.599999999999994</ele>
        <time>2026-07-13T13:21:43Z</time>
      </trkpt>
      <trkpt lat="50.403549028560519" lon="7.565545029938221">
        <ele>75.599999999999994</ele>
        <time>2026-07-13T13:21:44Z</time>
      </trkpt>
      <trkpt lat="50.403888998553157" lon="7.566015003249049">
        <ele>75.599999999999994</ele>
        <time>2026-07-13T13:21:51Z</time>
      </trkpt>
      <trkpt lat="50.404382022097707" lon="7.566692009568214">
        <ele>76.079999999999998</ele>
        <time>2026-07-13T13:21:59Z</time>
      </trkpt>
      <trkpt lat="50.404942017048597" lon="7.567457025870681">
        <ele>79.450000000000003</ele>
        <time>2026-07-13T13:22:08Z</time>
      </trkpt>
      <trkpt lat="50.405963016673923" lon="7.568867029622197">
        <ele>82.810000000000002</ele>
        <time>2026-07-13T13:22:20Z</time>
      </trkpt>
      <trkpt lat="50.406585959717631" lon="7.569718966260552">
        <ele>85.689999999999998</ele>
        <time>2026-07-13T13:22:29Z</time>
      </trkpt>
      <trkpt lat="50.40733203291893" lon="7.570750024169684">
        <ele>86.659999999999997</ele>
        <time>2026-07-13T13:22:40Z</time>
      </trkpt>
      <trkpt lat="50.408073998987675" lon="7.571790972724557">
        <ele>85.209999999999994</ele>
        <time>2026-07-13T13:22:48Z</time>
      </trkpt>
      <trkpt lat="50.408964995294809" lon="7.57299997843802">
        <ele>82.810000000000002</ele>
        <time>2026-07-13T13:22:55Z</time>
      </trkpt>
      <trkpt lat="50.410410035401583" lon="7.57497601211071">
        <ele>82.329999999999998</ele>
        <time>2026-07-13T13:23:04Z</time>
      </trkpt>
      <trkpt lat="50.412843972444534" lon="7.578448969870806">
        <ele>83.290000000000006</ele>
        <time>2026-07-13T13:23:18Z</time>
      </trkpt>
      <trkpt lat="50.413895985111594" lon="7.580976029857993">
        <ele>87.620000000000005</ele>
        <time>2026-07-13T13:23:26Z</time>
      </trkpt>
      <trkpt lat="50.414199996739626" lon="7.583264959976077">
        <ele>92.900000000000006</ele>
        <time>2026-07-13T13:23:32Z</time>
      </trkpt>
      <trkpt lat="50.413997992873192" lon="7.585522038862109">
        <ele>98.670000000000002</ele>
        <time>2026-07-13T13:23:38Z</time>
      </trkpt>
      <trkpt lat="50.413316041231155" lon="7.587562026455998">
        <ele>105.40000000000001</ele>
        <time>2026-07-13T13:23:44Z</time>
      </trkpt>
      <trkpt lat="50.412062024697661" lon="7.589530013501644">
        <ele>113.09</ele>
        <time>2026-07-13T13:23:51Z</time>
      </trkpt>
      <trkpt lat="50.409479979425669" lon="7.59338996373117">
        <ele>127.03</ele>
        <time>2026-07-13T13:24:05Z</time>
      </trkpt>
      <trkpt lat="50.408241972327232" lon="7.5958819873631">
        <ele>136.63999999999999</ele>
        <time>2026-07-13T13:24:13Z</time>
      </trkpt>
      <trkpt lat="50.407132040709257" lon="7.599871018901467">
        <ele>148.18000000000001</ele>
        <time>2026-07-13T13:24:24Z</time>
      </trkpt>
      <trkpt lat="50.406948979943991" lon="7.601793995127082">
        <ele>149.62</ele>
        <time>2026-07-13T13:24:29Z</time>
      </trkpt>
      <trkpt lat="50.407189037650824" lon="7.604146962985396">
        <ele>154.91</ele>
        <time>2026-07-13T13:24:35Z</time>
      </trkpt>
      <trkpt lat="50.407525990158319" lon="7.605201993137598">
        <ele>158.27000000000001</ele>
        <time>2026-07-13T13:24:38Z</time>
      </trkpt>
      <trkpt lat="50.407653981819749" lon="7.605539029464126">
        <ele>159.24000000000001</ele>
        <time>2026-07-13T13:24:39Z</time>
      </trkpt>
      <trkpt lat="50.408868016675115" lon="7.607530988752842">
        <ele>165.96000000000001</ele>
        <time>2026-07-13T13:24:46Z</time>
      </trkpt>
      <trkpt lat="50.410444987937808" lon="7.608723985031247">
        <ele>174.13999999999999</ele>
        <time>2026-07-13T13:24:53Z</time>
      </trkpt>
      <trkpt lat="50.412183981388807" lon="7.60926797054708">
        <ele>182.78999999999999</ele>
        <time>2026-07-13T13:25:00Z</time>
      </trkpt>
      <trkpt lat="50.414643986150622" lon="7.609612969681621">
        <ele>192.88</ele>
        <time>2026-07-13T13:25:09Z</time>
      </trkpt>
      <trkpt lat="50.417351005598903" lon="7.610486028715968">
        <ele>202.97999999999999</ele>
        <time>2026-07-13T13:25:18Z</time>
      </trkpt>
      <trkpt lat="50.419367020949721" lon="7.611772986128926">
        <ele>209.22</ele>
        <time>2026-07-13T13:25:25Z</time>
      </trkpt>
      <trkpt lat="50.421511027961969" lon="7.613859996199608">
        <ele>217.40000000000001</ele>
        <time>2026-07-13T13:25:33Z</time>
      </trkpt>
      <trkpt lat="50.42329897172749" lon="7.616480011492968">
        <ele>225.09</ele>
        <time>2026-07-13T13:25:41Z</time>
      </trkpt>
      <trkpt lat="50.424856999889016" lon="7.619760017842054">
        <ele>229.41</ele>
        <time>2026-07-13T13:25:50Z</time>
      </trkpt>
      <trkpt lat="50.426857005804777" lon="7.624581037089229">
        <ele>234.69999999999999</ele>
        <time>2026-07-13T13:26:02Z</time>
      </trkpt>
      <trkpt lat="50.428397012874484" lon="7.628288017585874">
        <ele>239.99000000000001</ele>
        <time>2026-07-13T13:26:11Z</time>
      </trkpt>
      <trkpt lat="50.429888991639018" lon="7.631440032273531">
        <ele>248.63999999999999</ele>
        <time>2026-07-13T13:26:19Z</time>
      </trkpt>
      <trkpt lat="50.431837029755116" lon="7.63466002419591">
        <ele>260.17000000000002</ele>
        <time>2026-07-13T13:26:28Z</time>
      </trkpt>
      <trkpt lat="50.434069968760014" lon="7.638128036633134">
        <ele>272.67000000000002</ele>
        <time>2026-07-13T13:26:38Z</time>
      </trkpt>
      <trkpt lat="50.436963988468051" lon="7.642634985968471">
        <ele>289.49000000000001</ele>
        <time>2026-07-13T13:26:51Z</time>
      </trkpt>
      <trkpt lat="50.438326969742775" lon="7.644745968282223">
        <ele>296.69999999999999</ele>
        <time>2026-07-13T13:26:58Z</time>
      </trkpt>
      <trkpt lat="50.439283009618521" lon="7.646223027259111">
        <ele>301.02999999999997</ele>
        <time>2026-07-13T13:27:06Z</time>
      </trkpt>
      <trkpt lat="50.440771970897913" lon="7.648512041196227">
        <ele>303.43000000000001</ele>
        <time>2026-07-13T13:27:18Z</time>
      </trkpt>
      <trkpt lat="50.441931020468473" lon="7.650362011045218">
        <ele>303.91000000000003</ele>
        <time>2026-07-13T13:27:27Z</time>
      </trkpt>
      <trkpt lat="50.443416964262724" lon="7.653019996359944">
        <ele>300.55000000000001</ele>
        <time>2026-07-13T13:27:38Z</time>
      </trkpt>
      <trkpt lat="50.443989029154181" lon="7.655225023627281">
        <ele>298.63</ele>
        <time>2026-07-13T13:27:46Z</time>
      </trkpt>
      <trkpt lat="50.444144010543823" lon="7.65752200037241">
        <ele>299.11000000000001</ele>
        <time>2026-07-13T13:27:53Z</time>
      </trkpt>
      <trkpt lat="50.443895990028977" lon="7.661073999479413">
        <ele>301.99000000000001</ele>
        <time>2026-07-13T13:28:04Z</time>
      </trkpt>
      <trkpt lat="50.443821977823973" lon="7.663856958970428">
        <ele>302.47000000000003</ele>
        <time>2026-07-13T13:28:13Z</time>
      </trkpt>
      <trkpt lat="50.443873023614287" lon="7.664429023861885">
        <ele>301.50999999999999</ele>
        <time>2026-07-13T13:28:15Z</time>
      </trkpt>
      <trkpt lat="50.444450033828616" lon="7.667108969762921">
        <ele>298.14999999999998</ele>
        <time>2026-07-13T13:28:24Z</time>
      </trkpt>
      <trkpt lat="50.445402972400188" lon="7.669534021988511">
        <ele>295.74000000000001</ele>
        <time>2026-07-13T13:28:32Z</time>
      </trkpt>
      <trkpt lat="50.446621030569077" lon="7.672553015872836">
        <ele>289.49000000000001</ele>
        <time>2026-07-13T13:28:41Z</time>
      </trkpt>
      <trkpt lat="50.447260988876224" lon="7.675143023952842">
        <ele>285.17000000000002</ele>
        <time>2026-07-13T13:28:48Z</time>
      </trkpt>
      <trkpt lat="50.447335001081228" lon="7.677854988723993">
        <ele>284.20999999999998</ele>
        <time>2026-07-13T13:28:55Z</time>
      </trkpt>
      <trkpt lat="50.446871984750032" lon="7.680463017895818">
        <ele>284.20999999999998</ele>
        <time>2026-07-13T13:29:02Z</time>
      </trkpt>
      <trkpt lat="50.446053994819522" lon="7.684647012501955">
        <ele>287.08999999999997</ele>
        <time>2026-07-13T13:29:13Z</time>
      </trkpt>
      <trkpt lat="50.446090959012508" lon="7.687050020322204">
        <ele>291.89999999999998</ele>
        <time>2026-07-13T13:29:19Z</time>
      </trkpt>
      <trkpt lat="50.446621030569077" lon="7.689498038962483">
        <ele>298.63</ele>
        <time>2026-07-13T13:29:25Z</time>
      </trkpt>
      <trkpt lat="50.447818972170353" lon="7.692774021998048">
        <ele>305.83999999999997</ele>
        <time>2026-07-13T13:29:34Z</time>
      </trkpt>
      <trkpt lat="50.448511987924576" lon="7.695404011756182">
        <ele>310.16000000000003</ele>
        <time>2026-07-13T13:29:40Z</time>
      </trkpt>
      <trkpt lat="50.448938962072134" lon="7.698790971189737">
        <ele>317.85000000000002</ele>
        <time>2026-07-13T13:29:47Z</time>
      </trkpt>
      <trkpt lat="50.449360990896821" lon="7.70378096960485">
        <ele>332.26999999999998</ele>
        <time>2026-07-13T13:29:57Z</time>
      </trkpt>
      <trkpt lat="50.44955100864172" lon="7.708307029679418">
        <ele>344.76999999999998</ele>
        <time>2026-07-13T13:30:06Z</time>
      </trkpt>
      <trkpt lat="50.449562994763255" lon="7.71417997777462">
        <ele>361.58999999999997</ele>
        <time>2026-07-13T13:30:18Z</time>
      </trkpt>
      <trkpt lat="50.44976701028645" lon="7.718051997944713">
        <ele>373.61000000000001</ele>
        <time>2026-07-13T13:30:26Z</time>
      </trkpt>
      <trkpt lat="50.450396994128823" lon="7.721335021778941">
        <ele>384.18000000000001</ele>
        <time>2026-07-13T13:30:33Z</time>
      </trkpt>
      <trkpt lat="50.451560989022255" lon="7.725929981097579">
        <ele>389.94999999999999</ele>
        <time>2026-07-13T13:30:43Z</time>
      </trkpt>
      <trkpt lat="50.451998021453619" lon="7.729823961853981">
        <ele>388.02999999999997</ele>
        <time>2026-07-13T13:30:51Z</time>
      </trkpt>
      <trkpt lat="50.452057030051947" lon="7.731304038316011">
        <ele>386.58999999999997</ele>
        <time>2026-07-13T13:30:54Z</time>
      </trkpt>
      <trkpt lat="50.452203964814544" lon="7.735245963558555">
        <ele>378.42000000000002</ele>
        <time>2026-07-13T13:31:02Z</time>
      </trkpt>
      <trkpt lat="50.452765971422195" lon="7.738068988546729">
        <ele>370.73000000000002</ele>
        <time>2026-07-13T13:31:08Z</time>
      </trkpt>
      <trkpt lat="50.454131970182061" lon="7.743597021326423">
        <ele>354.38</ele>
        <time>2026-07-13T13:31:20Z</time>
      </trkpt>
      <trkpt lat="50.455464022234082" lon="7.749143997207284">
        <ele>335.16000000000003</ele>
        <time>2026-07-13T13:31:32Z</time>
      </trkpt>
      <trkpt lat="50.456415032967925" lon="7.752942005172372">
        <ele>325.06</ele>
        <time>2026-07-13T13:31:41Z</time>
      </trkpt>
      <trkpt lat="50.457172002643347" lon="7.755994023755193">
        <ele>320.25999999999999</ele>
        <time>2026-07-13T13:31:49Z</time>
      </trkpt>
      <trkpt lat="50.458050007000566" lon="7.759419959038496">
        <ele>317.85000000000002</ele>
        <time>2026-07-13T13:31:57Z</time>
      </trkpt>
      <trkpt lat="50.458881994709373" lon="7.762807002291083">
        <ele>318.32999999999998</ele>
        <time>2026-07-13T13:32:05Z</time>
      </trkpt>
      <trkpt lat="50.459367977455258" lon="7.765036001801491">
        <ele>319.77999999999997</ele>
        <time>2026-07-13T13:32:11Z</time>
      </trkpt>
      <trkpt lat="50.459404019638896" lon="7.765375971794128">
        <ele>320.25999999999999</ele>
        <time>2026-07-13T13:32:12Z</time>
      </trkpt>
      <trkpt lat="50.459408964961767" lon="7.767588961869478">
        <ele>323.62</ele>
        <time>2026-07-13T13:32:19Z</time>
      </trkpt>
      <trkpt lat="50.45885500498116" lon="7.770121973007917">
        <ele>327.47000000000003</ele>
        <time>2026-07-13T13:32:27Z</time>
      </trkpt>
      <trkpt lat="50.457899970933795" lon="7.772170007228851">
        <ele>330.35000000000002</ele>
        <time>2026-07-13T13:32:35Z</time>
      </trkpt>
      <trkpt lat="50.456497007980943" lon="7.774631017819047">
        <ele>329.38999999999999</ele>
        <time>2026-07-13T13:32:45Z</time>
      </trkpt>
      <trkpt lat="50.455446001142263" lon="7.775832982733846">
        <ele>327.94999999999999</ele>
        <time>2026-07-13T13:32:50Z</time>
      </trkpt>
      <trkpt lat="50.453581027686596" lon="7.777211973443627">
        <ele>324.57999999999998</ele>
        <time>2026-07-13T13:32:57Z</time>
      </trkpt>
      <trkpt lat="50.451287990435958" lon="7.778876032680273">
        <ele>315.44999999999999</ele>
        <time>2026-07-13T13:33:06Z</time>
      </trkpt>
      <trkpt lat="50.449764998629689" lon="7.780623994767666">
        <ele>304.88</ele>
        <time>2026-07-13T13:33:12Z</time>
      </trkpt>
      <trkpt lat="50.448599997907877" lon="7.78288702480495">
        <ele>301.02999999999997</ele>
        <time>2026-07-13T13:33:18Z</time>
      </trkpt>
      <trkpt lat="50.447868006303906" lon="7.785376030951738">
        <ele>299.11000000000001</ele>
        <time>2026-07-13T13:33:24Z</time>
      </trkpt>
      <trkpt lat="50.447308011353016" lon="7.789429016411305">
        <ele>289.49000000000001</ele>
        <time>2026-07-13T13:33:33Z</time>
      </trkpt>
      <trkpt lat="50.44665296562016" lon="7.794280964881182">
        <ele>277.95999999999998</ele>
        <time>2026-07-13T13:33:43Z</time>
      </trkpt>
      <trkpt lat="50.446017030626535" lon="7.799117993563414">
        <ele>263.54000000000002</ele>
        <time>2026-07-13T13:33:53Z</time>
      </trkpt>
      <trkpt lat="50.445225024595857" lon="7.80592099763453">
        <ele>249.12</ele>
        <time>2026-07-13T13:34:07Z</time>
      </trkpt>
      <trkpt lat="50.445153024047613" lon="7.8107750415802">
        <ele>248.16</ele>
        <time>2026-07-13T13:34:17Z</time>
      </trkpt>
      <trkpt lat="50.445527024567127" lon="7.816672967746854">
        <ele>245.75</ele>
        <time>2026-07-13T13:34:29Z</time>
      </trkpt>
      <trkpt lat="50.446016024798155" lon="7.821983993053436">
        <ele>242.87</ele>
        <time>2026-07-13T13:34:40Z</time>
      </trkpt>
      <trkpt lat="50.446193972602487" lon="7.825613021850586">
        <ele>238.06</ele>
        <time>2026-07-13T13:34:47Z</time>
      </trkpt>
      <trkpt lat="50.445990962907672" lon="7.830495983362198">
        <ele>237.09999999999999</ele>
        <time>2026-07-13T13:34:57Z</time>
      </trkpt>
      <trkpt lat="50.445902030915022" lon="7.835307028144598">
        <ele>248.16</ele>
        <time>2026-07-13T13:35:07Z</time>
      </trkpt>
      <trkpt lat="50.446038991212845" lon="7.839018031954765">
        <ele>257.29000000000002</ele>
        <time>2026-07-13T13:35:15Z</time>
      </trkpt>
      <trkpt lat="50.446294974535704" lon="7.845263974741101">
        <ele>271.70999999999998</ele>
        <time>2026-07-13T13:35:28Z</time>
      </trkpt>
      <trkpt lat="50.446678027510643" lon="7.849139012396336">
        <ele>275.06999999999999</ele>
        <time>2026-07-13T13:35:36Z</time>
      </trkpt>
      <trkpt lat="50.447495011612773" lon="7.851790962740779">
        <ele>272.19</ele>
        <time>2026-07-13T13:35:42Z</time>
      </trkpt>
      <trkpt lat="50.448296992108226" lon="7.853390984237194">
        <ele>269.79000000000002</ele>
        <time>2026-07-13T13:35:47Z</time>
      </trkpt>
      <trkpt lat="50.449798023328185" lon="7.855542032048106">
        <ele>266.42000000000002</ele>
        <time>2026-07-13T13:35:55Z</time>
      </trkpt>
      <trkpt lat="50.452402029186487" lon="7.859219005331397">
        <ele>259.69</ele>
        <time>2026-07-13T13:36:07Z</time>
      </trkpt>
      <trkpt lat="50.453673982992768" lon="7.862085029482842">
        <ele>250.08000000000001</ele>
        <time>2026-07-13T13:36:14Z</time>
      </trkpt>
      <trkpt lat="50.454468000680208" lon="7.86528498865664">
        <ele>243.34999999999999</ele>
        <time>2026-07-13T13:36:21Z</time>
      </trkpt>
      <trkpt lat="50.454737981781363" lon="7.86867898888886">
        <ele>240.47</ele>
        <time>2026-07-13T13:36:28Z</time>
      </trkpt>
      <trkpt lat="50.454939985647798" lon="7.875477969646454">
        <ele>244.78999999999999</ele>
        <time>2026-07-13T13:36:42Z</time>
      </trkpt>
      <trkpt lat="50.454750973731279" lon="7.880815984681249">
        <ele>256.81</ele>
        <time>2026-07-13T13:36:53Z</time>
      </trkpt>
      <trkpt lat="50.454387031495571" lon="7.88616799749434">
        <ele>277.95999999999998</ele>
        <time>2026-07-13T13:37:04Z</time>
      </trkpt>
      <trkpt lat="50.453817984089255" lon="7.892488036304712">
        <ele>297.67000000000002</ele>
        <time>2026-07-13T13:37:17Z</time>
      </trkpt>
      <trkpt lat="50.452850963920355" lon="7.896687034517527">
        <ele>299.58999999999997</ele>
        <time>2026-07-13T13:37:26Z</time>
      </trkpt>
      <trkpt lat="50.451535005122423" lon="7.900095032528043">
        <ele>293.81999999999999</ele>
        <time>2026-07-13T13:37:34Z</time>
      </trkpt>
      <trkpt lat="50.449245991185308" lon="7.904823012650013">
        <ele>279.39999999999998</ele>
        <time>2026-07-13T13:37:46Z</time>
      </trkpt>
      <trkpt lat="50.446554981172085" lon="7.910332018509507">
        <ele>261.62</ele>
        <time>2026-07-13T13:38:00Z</time>
      </trkpt>
      <trkpt lat="50.444709034636617" lon="7.912981035187841">
        <ele>251.03999999999999</ele>
        <time>2026-07-13T13:38:08Z</time>
      </trkpt>
      <trkpt lat="50.442906003445387" lon="7.914808038622141">
        <ele>253.44</ele>
        <time>2026-07-13T13:38:15Z</time>
      </trkpt>
      <trkpt lat="50.440942961722612" lon="7.916206978261471">
        <ele>264.01999999999998</ele>
        <time>2026-07-13T13:38:22Z</time>
      </trkpt>
      <trkpt lat="50.438189003616571" lon="7.917287992313504">
        <ele>275.56</ele>
        <time>2026-07-13T13:38:31Z</time>
      </trkpt>
      <trkpt lat="50.434818975627422" lon="7.918476965278387">
        <ele>283.73000000000002</ele>
        <time>2026-07-13T13:38:42Z</time>
      </trkpt>
      <trkpt lat="50.432802038267255" lon="7.919672979041934">
        <ele>293.81999999999999</ele>
        <time>2026-07-13T13:38:49Z</time>
      </trkpt>
      <trkpt lat="50.430989032611251" lon="7.92155597358942">
        <ele>303.91000000000003</ele>
        <time>2026-07-13T13:38:56Z</time>
      </trkpt>
      <trkpt lat="50.428834967315197" lon="7.92445401661098">
        <ele>310.16000000000003</ele>
        <time>2026-07-13T13:39:05Z</time>
      </trkpt>
      <trkpt lat="50.426986003294587" lon="7.926307003945112">
        <ele>309.19999999999999</ele>
        <time>2026-07-13T13:39:12Z</time>
      </trkpt>
      <trkpt lat="50.425199987366796" lon="7.927174028009176">
        <ele>308.24000000000001</ele>
        <time>2026-07-13T13:39:18Z</time>
      </trkpt>
      <trkpt lat="50.42239598929882" lon="7.927617011591792">
        <ele>314.49000000000001</ele>
        <time>2026-07-13T13:39:27Z</time>
      </trkpt>
      <trkpt lat="50.418305033817887" lon="7.928277002647519">
        <ele>311.60000000000002</ele>
        <time>2026-07-13T13:39:40Z</time>
      </trkpt>
      <trkpt lat="50.416525974869728" lon="7.929221978411079">
        <ele>303.43000000000001</ele>
        <time>2026-07-13T13:39:46Z</time>
      </trkpt>
      <trkpt lat="50.414984039962292" lon="7.930873967707157">
        <ele>299.58999999999997</ele>
        <time>2026-07-13T13:39:52Z</time>
      </trkpt>
      <trkpt lat="50.413766987621784" lon="7.933057034388185">
        <ele>301.02999999999997</ele>
        <time>2026-07-13T13:39:58Z</time>
      </trkpt>
      <trkpt lat="50.412916978821158" lon="7.935645030811429">
        <ele>305.83999999999997</ele>
        <time>2026-07-13T13:40:04Z</time>
      </trkpt>
      <trkpt lat="50.412537027150393" lon="7.938546007499099">
        <ele>308.72000000000003</ele>
        <time>2026-07-13T13:40:10Z</time>
      </trkpt>
      <trkpt lat="50.41270500048995" lon="7.942005973309279">
        <ele>305.83999999999997</ele>
        <time>2026-07-13T13:40:17Z</time>
      </trkpt>
      <trkpt lat="50.413397010415792" lon="7.94682196341455">
        <ele>296.22000000000003</ele>
        <time>2026-07-13T13:40:27Z</time>
      </trkpt>
      <trkpt lat="50.413344036787748" lon="7.950734971091151">
        <ele>289.49000000000001</ele>
        <time>2026-07-13T13:40:35Z</time>
      </trkpt>
      <trkpt lat="50.413032984361053" lon="7.957520037889481">
        <ele>291.89999999999998</ele>
        <time>2026-07-13T13:40:49Z</time>
      </trkpt>
      <trkpt lat="50.412806002423167" lon="7.962620006874204">
        <ele>298.14999999999998</ele>
        <time>2026-07-13T13:41:00Z</time>
      </trkpt>
      <trkpt lat="50.412565022706985" lon="7.967969002202153">
        <ele>300.06999999999999</ele>
        <time>2026-07-13T13:41:13Z</time>
      </trkpt>
      <trkpt lat="50.412336029112339" lon="7.972985990345478">
        <ele>297.67000000000002</ele>
        <time>2026-07-13T13:41:26Z</time>
      </trkpt>
      <trkpt lat="50.412227986380458" lon="7.976489961147308">
        <ele>295.25999999999999</ele>
        <time>2026-07-13T13:41:35Z</time>
      </trkpt>
      <trkpt lat="50.412266962230206" lon="7.979551032185555">
        <ele>289.49000000000001</ele>
        <time>2026-07-13T13:41:44Z</time>
      </trkpt>
      <trkpt lat="50.412401994690299" lon="7.983530005440116">
        <ele>277.95999999999998</ele>
        <time>2026-07-13T13:41:55Z</time>
      </trkpt>
      <trkpt lat="50.412256987765431" lon="7.987263975664973">
        <ele>265.45999999999998</ele>
        <time>2026-07-13T13:42:04Z</time>
      </trkpt>
      <trkpt lat="50.411660028621554" lon="7.991095008328557">
        <ele>254.88999999999999</ele>
        <time>2026-07-13T13:42:13Z</time>
      </trkpt>
      <trkpt lat="50.410638023167849" lon="7.994635021314025">
        <ele>247.68000000000001</ele>
        <time>2026-07-13T13:42:22Z</time>
      </trkpt>
      <trkpt lat="50.409246040508151" lon="7.998053999617696">
        <ele>241.91</ele>
        <time>2026-07-13T13:42:32Z</time>
      </trkpt>
      <trkpt lat="50.407672002911568" lon="8.001771038398147">
        <ele>229.88999999999999</ele>
        <time>2026-07-13T13:42:42Z</time>
      </trkpt>
      <trkpt lat="50.40600199252367" lon="8.005954027175903">
        <ele>210.66999999999999</ele>
        <time>2026-07-13T13:42:53Z</time>
      </trkpt>
      <trkpt lat="50.404900023713708" lon="8.010005000978708">
        <ele>198.65000000000001</ele>
        <time>2026-07-13T13:43:03Z</time>
      </trkpt>
      <trkpt lat="50.404147999361157" lon="8.014523014426231">
        <ele>187.59</ele>
        <time>2026-07-13T13:43:13Z</time>
      </trkpt>
      <trkpt lat="50.40389796718955" lon="8.018830977380276">
        <ele>175.09999999999999</ele>
        <time>2026-07-13T13:43:22Z</time>
      </trkpt>
      <trkpt lat="50.40385496802628" lon="8.024311987683177">
        <ele>156.83000000000001</ele>
        <time>2026-07-13T13:43:33Z</time>
      </trkpt>
      <trkpt lat="50.403844993561506" lon="8.029747987166047">
        <ele>138.09</ele>
        <time>2026-07-13T13:43:44Z</time>
      </trkpt>
      <trkpt lat="50.403827978298068" lon="8.036587033420801">
        <ele>126.06999999999999</ele>
        <time>2026-07-13T13:43:58Z</time>
      </trkpt>
      <trkpt lat="50.403790008276701" lon="8.043431024998426">
        <ele>123.67</ele>
        <time>2026-07-13T13:44:12Z</time>
      </trkpt>
      <trkpt lat="50.403608037158847" lon="8.050298988819122">
        <ele>121.73999999999999</ele>
        <time>2026-07-13T13:44:26Z</time>
      </trkpt>
      <trkpt lat="50.403324980288744" lon="8.056103037670255">
        <ele>140.00999999999999</ele>
        <time>2026-07-13T13:44:38Z</time>
      </trkpt>
      <trkpt lat="50.402995990589261" lon="8.059894004836679">
        <ele>155.87</ele>
        <time>2026-07-13T13:44:46Z</time>
      </trkpt>
      <trkpt lat="50.40217699483037" lon="8.062890032306314">
        <ele>163.08000000000001</ele>
        <time>2026-07-13T13:44:53Z</time>
      </trkpt>
      <trkpt lat="50.400533974170685" lon="8.067419026046991">
        <ele>161.16</ele>
        <time>2026-07-13T13:45:04Z</time>
      </trkpt>
      <trkpt lat="50.39867302402854" lon="8.072206014767289">
        <ele>154.43000000000001</ele>
        <time>2026-07-13T13:45:16Z</time>
      </trkpt>
      <trkpt lat="50.396983986720443" lon="8.074745982885361">
        <ele>161.63999999999999</ele>
        <time>2026-07-13T13:45:24Z</time>
      </trkpt>
      <trkpt lat="50.395163018256426" lon="8.076401995494962">
        <ele>165.96000000000001</ele>
        <time>2026-07-13T13:45:31Z</time>
      </trkpt>
      <trkpt lat="50.391894998028874" lon="8.078381968662143">
        <ele>168.84999999999999</ele>
        <time>2026-07-13T13:45:42Z</time>
      </trkpt>
      <trkpt lat="50.388454981148243" lon="8.080417010933161">
        <ele>177.97999999999999</ele>
        <time>2026-07-13T13:45:54Z</time>
      </trkpt>
      <trkpt lat="50.384135032072663" lon="8.083035014569759">
        <ele>190</ele>
        <time>2026-07-13T13:46:09Z</time>
      </trkpt>
      <trkpt lat="50.381652982905507" lon="8.084953967481852">
        <ele>193.84</ele>
        <time>2026-07-13T13:46:18Z</time>
      </trkpt>
      <trkpt lat="50.380010968074203" lon="8.087156983092427">
        <ele>191.91999999999999</ele>
        <time>2026-07-13T13:46:25Z</time>
      </trkpt>
      <trkpt lat="50.378816965967417" lon="8.089494025334716">
        <ele>189.52000000000001</ele>
        <time>2026-07-13T13:46:32Z</time>
      </trkpt>
      <trkpt lat="50.377391958609223" lon="8.093033032491803">
        <ele>188.56</ele>
        <time>2026-07-13T13:46:42Z</time>
      </trkpt>
      <trkpt lat="50.376453017815948" lon="8.095398992300034">
        <ele>190</ele>
        <time>2026-07-13T13:46:48Z</time>
      </trkpt>
      <trkpt lat="50.374170960858464" lon="8.101141015067697">
        <ele>190.96000000000001</ele>
        <time>2026-07-13T13:47:02Z</time>
      </trkpt>
      <trkpt lat="50.37205696105957" lon="8.106468971818686">
        <ele>189.03999999999999</ele>
        <time>2026-07-13T13:47:15Z</time>
      </trkpt>
      <trkpt lat="50.370426010340452" lon="8.110580965876579">
        <ele>185.19</ele>
        <time>2026-07-13T13:47:25Z</time>
      </trkpt>
      <trkpt lat="50.368512002751231" lon="8.115526037290692">
        <ele>184.22999999999999</ele>
        <time>2026-07-13T13:47:37Z</time>
      </trkpt>
      <trkpt lat="50.36590900272131" lon="8.122119996696711">
        <ele>180.38</ele>
        <time>2026-07-13T13:47:53Z</time>
      </trkpt>
      <trkpt lat="50.36412600427866" lon="8.12663096934557">
        <ele>180.87</ele>
        <time>2026-07-13T13:48:04Z</time>
      </trkpt>
      <trkpt lat="50.362671995535493" lon="8.130310038104653">
        <ele>183.27000000000001</ele>
        <time>2026-07-13T13:48:13Z</time>
      </trkpt>
      <trkpt lat="50.360680036246777" lon="8.135748971253634">
        <ele>188.56</ele>
        <time>2026-07-13T13:48:26Z</time>
      </trkpt>
      <trkpt lat="50.359432976692915" lon="8.140697982162237">
        <ele>191.91999999999999</ele>
        <time>2026-07-13T13:48:37Z</time>
      </trkpt>
      <trkpt lat="50.357571020722389" lon="8.148475969210267">
        <ele>171.25</ele>
        <time>2026-07-13T13:48:54Z</time>
      </trkpt>
      <trkpt lat="50.355916013941169" lon="8.155178977176547">
        <ele>152.03</ele>
        <time>2026-07-13T13:49:09Z</time>
      </trkpt>
      <trkpt lat="50.354776997119188" lon="8.158009964972735">
        <ele>161.63999999999999</ele>
        <time>2026-07-13T13:49:16Z</time>
      </trkpt>
      <trkpt lat="50.353219974786043" lon="8.160454966127873">
        <ele>172.69</ele>
        <time>2026-07-13T13:49:23Z</time>
      </trkpt>
      <trkpt lat="50.350383035838604" lon="8.164566038176417">
        <ele>175.58000000000001</ele>
        <time>2026-07-13T13:49:35Z</time>
      </trkpt>
      <trkpt lat="50.347619019448757" lon="8.168596979230642">
        <ele>187.59</ele>
        <time>2026-07-13T13:49:47Z</time>
      </trkpt>
      <trkpt lat="50.34481099806726" lon="8.17267301492393">
        <ele>203.94</ele>
        <time>2026-07-13T13:49:59Z</time>
      </trkpt>
      <trkpt lat="50.341831985861063" lon="8.177144005894661">
        <ele>205.38</ele>
        <time>2026-07-13T13:50:12Z</time>
      </trkpt>
      <trkpt lat="50.340067008510232" lon="8.180642025545239">
        <ele>208.74000000000001</ele>
        <time>2026-07-13T13:50:21Z</time>
      </trkpt>
      <trkpt lat="50.338259031996131" lon="8.184838006272912">
        <ele>203.94</ele>
        <time>2026-07-13T13:50:31Z</time>
      </trkpt>
      <trkpt lat="50.335991978645325" lon="8.190173003822565">
        <ele>205.86000000000001</ele>
        <time>2026-07-13T13:50:44Z</time>
      </trkpt>
      <trkpt lat="50.333025036379695" lon="8.197172982618213">
        <ele>236.13999999999999</ele>
        <time>2026-07-13T13:51:01Z</time>
      </trkpt>
      <trkpt lat="50.331047996878624" lon="8.202334977686405">
        <ele>248.16</ele>
        <time>2026-07-13T13:51:13Z</time>
      </trkpt>
      <trkpt lat="50.328857973217964" lon="8.208400039002299">
        <ele>257.76999999999998</ele>
        <time>2026-07-13T13:51:27Z</time>
      </trkpt>
      <trkpt lat="50.326607013121247" lon="8.214426962658763">
        <ele>267.38</ele>
        <time>2026-07-13T13:51:41Z</time>
      </trkpt>
      <trkpt lat="50.324769029393792" lon="8.217850970104337">
        <ele>270.26999999999998</ele>
        <time>2026-07-13T13:51:50Z</time>
      </trkpt>
      <trkpt lat="50.322786960750818" lon="8.220328995957971">
        <ele>274.58999999999997</ele>
        <time>2026-07-13T13:51:58Z</time>
      </trkpt>
      <trkpt lat="50.320979990065098" lon="8.221919964998961">
        <ele>278.92000000000002</ele>
        <time>2026-07-13T13:52:05Z</time>
      </trkpt>
      <trkpt lat="50.318242963403463" lon="8.224208978936076">
        <ele>277.95999999999998</ele>
        <time>2026-07-13T13:52:15Z</time>
      </trkpt>
      <trkpt lat="50.314013035967946" lon="8.227744968608022">
        <ele>274.58999999999997</ele>
        <time>2026-07-13T13:52:30Z</time>
      </trkpt>
      <trkpt lat="50.31000598333776" lon="8.230846021324396">
        <ele>275.56</ele>
        <time>2026-07-13T13:52:44Z</time>
      </trkpt>
      <trkpt lat="50.307030994445086" lon="8.23248703032732">
        <ele>280.36000000000001</ele>
        <time>2026-07-13T13:52:54Z</time>
      </trkpt>
      <trkpt lat="50.303072975948453" lon="8.234492987394333">
        <ele>289.49000000000001</ele>
        <time>2026-07-13T13:53:07Z</time>
      </trkpt>
      <trkpt lat="50.298235025256872" lon="8.236958021298051">
        <ele>292.86000000000001</ele>
        <time>2026-07-13T13:53:23Z</time>
      </trkpt>
      <trkpt lat="50.295215025544167" lon="8.238480007275939">
        <ele>292.86000000000001</ele>
        <time>2026-07-13T13:53:33Z</time>
      </trkpt>
      <trkpt lat="50.291846003383398" lon="8.239951031282544">
        <ele>301.99000000000001</ele>
        <time>2026-07-13T13:53:44Z</time>
      </trkpt>
      <trkpt lat="50.289292959496379" lon="8.240299969911575">
        <ele>305.36000000000001</ele>
        <time>2026-07-13T13:53:52Z</time>
      </trkpt>
      <trkpt lat="50.284174969419837" lon="8.240558970719576">
        <ele>300.06999999999999</ele>
        <time>2026-07-13T13:54:08Z</time>
      </trkpt>
      <trkpt lat="50.28003397397697" lon="8.240871028974652">
        <ele>306.80000000000001</ele>
        <time>2026-07-13T13:54:21Z</time>
      </trkpt>
      <trkpt lat="50.27816497720778" lon="8.241638978943229">
        <ele>301.50999999999999</ele>
        <time>2026-07-13T13:54:27Z</time>
      </trkpt>
      <trkpt lat="50.275855008512735" lon="8.243404040113092">
        <ele>290.45999999999998</ele>
        <time>2026-07-13T13:54:35Z</time>
      </trkpt>
      <trkpt lat="50.27378199622035" lon="8.24507798999548">
        <ele>281.80000000000001</ele>
        <time>2026-07-13T13:54:43Z</time>
      </trkpt>
      <trkpt lat="50.270872972905636" lon="8.247424000874162">
        <ele>278.44</ele>
        <time>2026-07-13T13:54:54Z</time>
      </trkpt>
      <trkpt lat="50.267188036814332" lon="8.250321038067341">
        <ele>279.88</ele>
        <time>2026-07-13T13:55:08Z</time>
      </trkpt>
      <trkpt lat="50.265179984271526" lon="8.251112038269639">
        <ele>275.56</ele>
        <time>2026-07-13T13:55:15Z</time>
      </trkpt>
      <trkpt lat="50.263522965833545" lon="8.251113966107369">
        <ele>271.23000000000002</ele>
        <time>2026-07-13T13:55:21Z</time>
      </trkpt>
      <trkpt lat="50.261560007929802" lon="8.250444000586867">
        <ele>264.5</ele>
        <time>2026-07-13T13:55:29Z</time>
      </trkpt>
      <trkpt lat="50.259712971746922" lon="8.24909501709044">
        <ele>257.76999999999998</ele>
        <time>2026-07-13T13:55:37Z</time>
      </trkpt>
      <trkpt lat="50.257247015833855" lon="8.247324004769325">
        <ele>244.78999999999999</ele>
        <time>2026-07-13T13:55:47Z</time>
      </trkpt>
      <trkpt lat="50.255466029047966" lon="8.246697960421443">
        <ele>240.94999999999999</ele>
        <time>2026-07-13T13:55:54Z</time>
      </trkpt>
      <trkpt lat="50.253411959856749" lon="8.246693015098572">
        <ele>245.27000000000001</ele>
        <time>2026-07-13T13:56:02Z</time>
      </trkpt>
      <trkpt lat="50.251470962539315" lon="8.246961990371347">
        <ele>251.52000000000001</ele>
        <time>2026-07-13T13:56:09Z</time>
      </trkpt>
      <trkpt lat="50.249301977455616" lon="8.246905999258161">
        <ele>264.5</ele>
        <time>2026-07-13T13:56:17Z</time>
      </trkpt>
      <trkpt lat="50.247066020965576" lon="8.246314991265535">
        <ele>278.92000000000002</ele>
        <time>2026-07-13T13:56:26Z</time>
      </trkpt>
      <trkpt lat="50.24471003562212" lon="8.245694981887937">
        <ele>292.38</ele>
        <time>2026-07-13T13:56:35Z</time>
      </trkpt>
      <trkpt lat="50.242741964757442" lon="8.245484009385109">
        <ele>300.06999999999999</ele>
        <time>2026-07-13T13:56:42Z</time>
      </trkpt>
      <trkpt lat="50.240072999149561" lon="8.245565984398127">
        <ele>306.31999999999999</ele>
        <time>2026-07-13T13:56:51Z</time>
      </trkpt>
      <trkpt lat="50.236729960888624" lon="8.245857004076242">
        <ele>312.56999999999999</ele>
        <time>2026-07-13T13:57:02Z</time>
      </trkpt>
      <trkpt lat="50.234365006908774" lon="8.247050000354648">
        <ele>316.88999999999999</ele>
        <time>2026-07-13T13:57:10Z</time>
      </trkpt>
      <trkpt lat="50.230783000588417" lon="8.249041959643364">
        <ele>323.13999999999999</ele>
        <time>2026-07-13T13:57:22Z</time>
      </trkpt>
      <trkpt lat="50.228052008897066" lon="8.249712008982897">
        <ele>325.06</ele>
        <time>2026-07-13T13:57:31Z</time>
      </trkpt>
      <trkpt lat="50.224413005635142" lon="8.250619014725089">
        <ele>329.87</ele>
        <time>2026-07-13T13:57:43Z</time>
      </trkpt>
      <trkpt lat="50.221609007567167" lon="8.251049006357789">
        <ele>338.51999999999998</ele>
        <time>2026-07-13T13:57:52Z</time>
      </trkpt>
      <trkpt lat="50.219444967806339" lon="8.25062002055347">
        <ele>351.98000000000002</ele>
        <time>2026-07-13T13:57:59Z</time>
      </trkpt>
      <trkpt lat="50.215993970632553" lon="8.249958017840982">
        <ele>365.44</ele>
        <time>2026-07-13T13:58:10Z</time>
      </trkpt>
      <trkpt lat="50.213781986385584" lon="8.250261023640633">
        <ele>368.31999999999999</ele>
        <time>2026-07-13T13:58:17Z</time>
      </trkpt>
      <trkpt lat="50.210023038089275" lon="8.251163000240922">
        <ele>367.83999999999997</ele>
        <time>2026-07-13T13:58:29Z</time>
      </trkpt>
      <trkpt lat="50.20629602484405" lon="8.252148041501641">
        <ele>376.00999999999999</ele>
        <time>2026-07-13T13:58:41Z</time>
      </trkpt>
      <trkpt lat="50.202566999942064" lon="8.253562990576029">
        <ele>374.56999999999999</ele>
        <time>2026-07-13T13:58:53Z</time>
      </trkpt>
      <trkpt lat="50.198351992294192" lon="8.25584102421999">
        <ele>359.19</ele>
        <time>2026-07-13T13:59:07Z</time>
      </trkpt>
      <trkpt lat="50.195484962314367" lon="8.257814962416887">
        <ele>354.38</ele>
        <time>2026-07-13T13:59:17Z</time>
      </trkpt>
      <trkpt lat="50.192965026944876" lon="8.259896021336317">
        <ele>353.42000000000002</ele>
        <time>2026-07-13T13:59:26Z</time>
      </trkpt>
      <trkpt lat="50.189950978383422" lon="8.262608991935849">
        <ele>353.89999999999998</ele>
        <time>2026-07-13T13:59:37Z</time>
      </trkpt>
      <trkpt lat="50.187183022499084" lon="8.265019040554762">
        <ele>353.89999999999998</ele>
        <time>2026-07-13T13:59:47Z</time>
      </trkpt>
      <trkpt lat="50.184529982507229" lon="8.266644040122628">
        <ele>357.26999999999998</ele>
        <time>2026-07-13T13:59:56Z</time>
      </trkpt>
      <trkpt lat="50.181559016928077" lon="8.268263004720211">
        <ele>361.11000000000001</ele>
        <time>2026-07-13T14:00:06Z</time>
      </trkpt>
      <trkpt lat="50.179667975753546" lon="8.270092019811273">
        <ele>362.06999999999999</ele>
        <time>2026-07-13T14:00:13Z</time>
      </trkpt>
      <trkpt lat="50.178025038912892" lon="8.272467032074928">
        <ele>354.86000000000001</ele>
        <time>2026-07-13T14:00:20Z</time>
      </trkpt>
      <trkpt lat="50.176606988534331" lon="8.275669002905488">
        <ele>354.38</ele>
        <time>2026-07-13T14:00:28Z</time>
      </trkpt>
      <trkpt lat="50.174578987061977" lon="8.281197035685182">
        <ele>367.36000000000001</ele>
        <time>2026-07-13T14:00:41Z</time>
      </trkpt>
      <trkpt lat="50.172496000304818" lon="8.286789022386074">
        <ele>367.36000000000001</ele>
        <time>2026-07-13T14:00:54Z</time>
      </trkpt>
      <trkpt lat="50.170938977971673" lon="8.289890997111797">
        <ele>364.48000000000002</ele>
        <time>2026-07-13T14:01:02Z</time>
      </trkpt>
      <trkpt lat="50.169110968708992" lon="8.292429037392139">
        <ele>361.58999999999997</ele>
        <time>2026-07-13T14:01:10Z</time>
      </trkpt>
      <trkpt lat="50.167206013575196" lon="8.294232990592718">
        <ele>355.82999999999998</ele>
        <time>2026-07-13T14:01:18Z</time>
      </trkpt>
      <trkpt lat="50.164627991616726" lon="8.296592999249697">
        <ele>345.73000000000002</ele>
        <time>2026-07-13T14:01:28Z</time>
      </trkpt>
      <trkpt lat="50.162690011784434" lon="8.299227012321353">
        <ele>338.04000000000002</ele>
        <time>2026-07-13T14:01:36Z</time>
      </trkpt>
      <trkpt lat="50.161086972802877" lon="8.301610993221402">
        <ele>331.79000000000002</ele>
        <time>2026-07-13T14:01:43Z</time>
      </trkpt>
      <trkpt lat="50.159025024622679" lon="8.303847033530474">
        <ele>327.94999999999999</ele>
        <time>2026-07-13T14:01:51Z</time>
      </trkpt>
      <trkpt lat="50.157270021736622" lon="8.305519977584481">
        <ele>330.35000000000002</ele>
        <time>2026-07-13T14:01:58Z</time>
      </trkpt>
      <trkpt lat="50.154611030593514" lon="8.308023987337947">
        <ele>334.19999999999999</ele>
        <time>2026-07-13T14:02:08Z</time>
      </trkpt>
      <trkpt lat="50.151786999776959" lon="8.31084399484098">
        <ele>337.07999999999998</ele>
        <time>2026-07-13T14:02:19Z</time>
      </trkpt>
      <trkpt lat="50.150588974356651" lon="8.312832014635205">
        <ele>339</ele>
        <time>2026-07-13T14:02:25Z</time>
      </trkpt>
      <trkpt lat="50.149819012731314" lon="8.31529101356864">
        <ele>340.44</ele>
        <time>2026-07-13T14:02:31Z</time>
      </trkpt>
      <trkpt lat="50.149363959208131" lon="8.31842802464962">
        <ele>342.85000000000002</ele>
        <time>2026-07-13T14:02:38Z</time>
      </trkpt>
      <trkpt lat="50.148589974269271" lon="8.321436960250139">
        <ele>340.92000000000002</ele>
        <time>2026-07-13T14:02:45Z</time>
      </trkpt>
      <trkpt lat="50.147393960505724" lon="8.32349999807775">
        <ele>334.68000000000001</ele>
        <time>2026-07-13T14:02:51Z</time>
      </trkpt>
      <trkpt lat="50.145222041755915" lon="8.325899988412857">
        <ele>320.74000000000001</ele>
        <time>2026-07-13T14:03:06Z</time>
      </trkpt>
      <trkpt lat="50.142498007044196" lon="8.328951001167297">
        <ele>310.63999999999999</ele>
        <time>2026-07-13T14:03:18Z</time>
      </trkpt>
      <trkpt lat="50.136738969013095" lon="8.333168020471931">
        <ele>287.56999999999999</ele>
        <time>2026-07-13T14:03:31Z</time>
      </trkpt>
      <trkpt lat="50.132433017715812" lon="8.336148960515857">
        <ele>273.63</ele>
        <time>2026-07-13T14:03:46Z</time>
      </trkpt>
      <trkpt lat="50.129552995786071" lon="8.338156007230282">
        <ele>275.06999999999999</ele>
        <time>2026-07-13T14:03:56Z</time>
      </trkpt>
      <trkpt lat="50.126286987215281" lon="8.340072026476264">
        <ele>269.31</ele>
        <time>2026-07-13T14:04:07Z</time>
      </trkpt>
      <trkpt lat="50.123798986896873" lon="8.34085900336504">
        <ele>262.10000000000002</ele>
        <time>2026-07-13T14:04:15Z</time>
      </trkpt>
      <trkpt lat="50.120967999100685" lon="8.341093026101589">
        <ele>260.64999999999998</ele>
        <time>2026-07-13T14:04:24Z</time>
      </trkpt>
      <trkpt lat="50.117896031588316" lon="8.341319002211094">
        <ele>258.73000000000002</ele>
        <time>2026-07-13T14:04:34Z</time>
      </trkpt>
      <trkpt lat="50.1153480168432" lon="8.341969018802047">
        <ele>252</ele>
        <time>2026-07-13T14:04:43Z</time>
      </trkpt>
      <trkpt lat="50.112959006801248" lon="8.343065036460757">
        <ele>238.53999999999999</ele>
        <time>2026-07-13T14:04:52Z</time>
      </trkpt>
      <trkpt lat="50.110250981524587" lon="8.344560032710433">
        <ele>227.49000000000001</ele>
        <time>2026-07-13T14:05:01Z</time>
      </trkpt>
      <trkpt lat="50.107286972925067" lon="8.346229959279299">
        <ele>229.88999999999999</ele>
        <time>2026-07-13T14:05:11Z</time>
      </trkpt>
      <trkpt lat="50.103073976933956" lon="8.348580999299884">
        <ele>222.19999999999999</ele>
        <time>2026-07-13T14:05:25Z</time>
      </trkpt>
      <trkpt lat="50.099531030282378" lon="8.350557032972574">
        <ele>221.24000000000001</ele>
        <time>2026-07-13T14:05:43Z</time>
      </trkpt>
      <trkpt lat="50.092921983450651" lon="8.354209028184414">
        <ele>214.50999999999999</ele>
        <time>2026-07-13T14:05:59Z</time>
      </trkpt>
      <trkpt lat="50.088457027450204" lon="8.356897020712495">
        <ele>190</ele>
        <time>2026-07-13T14:06:14Z</time>
      </trkpt>
      <trkpt lat="50.08473102003336" lon="8.359632035717368">
        <ele>168.37</ele>
        <time>2026-07-13T14:06:27Z</time>
      </trkpt>
      <trkpt lat="50.080775013193488" lon="8.36262496188283">
        <ele>163.56</ele>
        <time>2026-07-13T14:06:41Z</time>
      </trkpt>
      <trkpt lat="50.077442033216357" lon="8.365397024899721">
        <ele>163.08000000000001</ele>
        <time>2026-07-13T14:06:53Z</time>
      </trkpt>
      <trkpt lat="50.075338007882237" lon="8.367827022448182">
        <ele>165.47999999999999</ele>
        <time>2026-07-13T14:07:02Z</time>
      </trkpt>
      <trkpt lat="50.07336700335145" lon="8.370365984737873">
        <ele>166.44999999999999</ele>
        <time>2026-07-13T14:07:12Z</time>
      </trkpt>
      <trkpt lat="50.071753989905119" lon="8.372448971495032">
        <ele>161.16</ele>
        <time>2026-07-13T14:07:20Z</time>
      </trkpt>
      <trkpt lat="50.069620963186026" lon="8.375197984278202">
        <ele>161.16</ele>
        <time>2026-07-13T14:07:31Z</time>
      </trkpt>
      <trkpt lat="50.067860009148717" lon="8.377299997955561">
        <ele>171.72999999999999</ele>
        <time>2026-07-13T14:07:41Z</time>
      </trkpt>
      <trkpt lat="50.065834019333124" lon="8.379206964746118">
        <ele>176.53999999999999</ele>
        <time>2026-07-13T14:07:51Z</time>
      </trkpt>
      <trkpt lat="50.063420031219721" lon="8.381262039765716">
        <ele>175.58000000000001</ele>
        <time>2026-07-13T14:08:03Z</time>
      </trkpt>
      <trkpt lat="50.060637993738055" lon="8.383589023724198">
        <ele>171.25</ele>
        <time>2026-07-13T14:08:16Z</time>
      </trkpt>
      <trkpt lat="50.058002974838018" lon="8.385856999084353">
        <ele>170.28999999999999</ele>
        <time>2026-07-13T14:08:29Z</time>
      </trkpt>
      <trkpt lat="50.057640038430691" lon="8.386185988783836">
        <ele>167.88999999999999</ele>
        <time>2026-07-13T14:08:38Z</time>
      </trkpt>
      <trkpt lat="50.055883023887873" lon="8.387495996430516">
        <ele>165.96000000000001</ele>
        <time>2026-07-13T14:08:52Z</time>
      </trkpt>
      <trkpt lat="50.054763033986092" lon="8.38793302886188">
        <ele>165</ele>
        <time>2026-07-13T14:08:54Z</time>
      </trkpt>
      <trkpt lat="50.054583996534348" lon="8.387221992015839">
        <ele>164.52000000000001</ele>
        <time>2026-07-13T14:08:55Z</time>
      </trkpt>
      <trkpt lat="50.054612997919321" lon="8.3870530128479">
        <ele>164.03999999999999</ele>
        <time>2026-07-13T14:08:56Z</time>
      </trkpt>
      <trkpt lat="50.054711988195777" lon="8.386899037286639">
        <ele>163.08000000000001</ele>
        <time>2026-07-13T14:08:57Z</time>
      </trkpt>
      <trkpt lat="50.054812990128994" lon="8.386750007048249">
        <ele>162.59999999999999</ele>
        <time>2026-07-13T14:08:58Z</time>
      </trkpt>
      <trkpt lat="50.054947016760707" lon="8.386700972914696">
        <ele>161.16</ele>
        <time>2026-07-13T14:08:59Z</time>
      </trkpt>
      <trkpt lat="50.055093029513955" lon="8.386700972914696">
        <ele>160.19999999999999</ele>
        <time>2026-07-13T14:09:00Z</time>
      </trkpt>
      <trkpt lat="50.055223032832146" lon="8.386786971241236">
        <ele>159.24000000000001</ele>
        <time>2026-07-13T14:09:01Z</time>
      </trkpt>
      <trkpt lat="50.055336020886898" lon="8.386930972337723">
        <ele>158.27000000000001</ele>
        <time>2026-07-13T14:09:02Z</time>
      </trkpt>
      <trkpt lat="50.055412966758013" lon="8.387121995911002">
        <ele>157.78999999999999</ele>
        <time>2026-07-13T14:09:03Z</time>
      </trkpt>
      <trkpt lat="50.055456971749663" lon="8.387337997555733">
        <ele>157.31</ele>
        <time>2026-07-13T14:09:04Z</time>
      </trkpt>
      <trkpt lat="50.055493013933301" lon="8.387566991150379">
        <ele>156.83000000000001</ele>
        <time>2026-07-13T14:09:05Z</time>
      </trkpt>
      <trkpt lat="50.05551396869123" lon="8.38780302554369">
        <ele>156.34999999999999</ele>
        <time>2026-07-13T14:09:06Z</time>
      </trkpt>
      <trkpt lat="50.055493013933301" lon="8.3880649600178">
        <ele>156.34999999999999</ele>
        <time>2026-07-13T14:09:07Z</time>
      </trkpt>
      <trkpt lat="50.055493013933301" lon="8.388340976089239">
        <ele>156.34999999999999</ele>
        <time>2026-07-13T14:09:08Z</time>
      </trkpt>
      <trkpt lat="50.055498965084553" lon="8.388613974675536">
        <ele>156.34999999999999</ele>
        <time>2026-07-13T14:09:09Z</time>
      </trkpt>
      <trkpt lat="50.05551396869123" lon="8.391230972483754">
        <ele>157.78999999999999</ele>
        <time>2026-07-13T14:09:17Z</time>
      </trkpt>
      <trkpt lat="50.0555569678545" lon="8.39442397467792">
        <ele>156.34999999999999</ele>
        <time>2026-07-13T14:09:26Z</time>
      </trkpt>
      <trkpt lat="50.055523021146655" lon="8.397398041561246">
        <ele>155.38999999999999</ele>
        <time>2026-07-13T14:09:33Z</time>
      </trkpt>
      <trkpt lat="50.055481027811766" lon="8.40125497430563">
        <ele>156.34999999999999</ele>
        <time>2026-07-13T14:09:42Z</time>
      </trkpt>
      <trkpt lat="50.055483039468527" lon="8.407282987609506">
        <ele>157.78999999999999</ele>
        <time>2026-07-13T14:09:55Z</time>
      </trkpt>
      <trkpt lat="50.055453032255173" lon="8.413668991997838">
        <ele>158.27000000000001</ele>
        <time>2026-07-13T14:10:09Z</time>
      </trkpt>
      <trkpt lat="50.055445991456509" lon="8.417207999154925">
        <ele>155.87</ele>
        <time>2026-07-13T14:10:17Z</time>
      </trkpt>
      <trkpt lat="50.055429982021451" lon="8.422320960089564">
        <ele>148.66</ele>
        <time>2026-07-13T14:10:28Z</time>
      </trkpt>
      <trkpt lat="50.05538497120142" lon="8.430449981242418">
        <ele>135.68000000000001</ele>
        <time>2026-07-13T14:10:46Z</time>
      </trkpt>
      <trkpt lat="50.055364016443491" lon="8.436051020398736">
        <ele>133.75999999999999</ele>
        <time>2026-07-13T14:10:59Z</time>
      </trkpt>
      <trkpt lat="50.055221021175385" lon="8.440429978072643">
        <ele>130.40000000000001</ele>
        <time>2026-07-13T14:11:09Z</time>
      </trkpt>
      <trkpt lat="50.055045001208782" lon="8.444323958829045">
        <ele>128.94999999999999</ele>
        <time>2026-07-13T14:11:18Z</time>
      </trkpt>
      <trkpt lat="50.055539030581713" lon="8.447176991030574">
        <ele>125.59</ele>
        <time>2026-07-13T14:11:25Z</time>
      </trkpt>
      <trkpt lat="50.056418040767312" lon="8.449256960302591">
        <ele>123.67</ele>
        <time>2026-07-13T14:11:31Z</time>
      </trkpt>
      <trkpt lat="50.057585975155234" lon="8.451025960966945">
        <ele>122.22</ele>
        <time>2026-07-13T14:11:38Z</time>
      </trkpt>
      <trkpt lat="50.05989502184093" lon="8.454379979521036">
        <ele>124.15000000000001</ele>
        <time>2026-07-13T14:11:51Z</time>
      </trkpt>
      <trkpt lat="50.062039028853178" lon="8.457365026697516">
        <ele>127.03</ele>
        <time>2026-07-13T14:12:03Z</time>
      </trkpt>
      <trkpt lat="50.063618011772633" lon="8.459719000384212">
        <ele>127.98999999999999</ele>
        <time>2026-07-13T14:12:12Z</time>
      </trkpt>
      <trkpt lat="50.065416013821959" lon="8.462807983160019">
        <ele>126.55</ele>
        <time>2026-07-13T14:12:23Z</time>
      </trkpt>
      <trkpt lat="50.066959038376808" lon="8.465694962069392">
        <ele>123.19</ele>
        <time>2026-07-13T14:12:34Z</time>
      </trkpt>
      <trkpt lat="50.067968973889947" lon="8.467569993808866">
        <ele>120.3</ele>
        <time>2026-07-13T14:12:43Z</time>
      </trkpt>
      <trkpt lat="50.068044997751713" lon="8.467777026817203">
        <ele>120.3</ele>
        <time>2026-07-13T14:12:44Z</time>
      </trkpt>
      <trkpt lat="50.068069975823164" lon="8.467962015420198">
        <ele>119.81999999999999</ele>
        <time>2026-07-13T14:12:45Z</time>
      </trkpt>
      <trkpt lat="50.068081961944699" lon="8.468148009851575">
        <ele>120.3</ele>
        <time>2026-07-13T14:12:46Z</time>
      </trkpt>
      <trkpt lat="50.06806100718677" lon="8.468302991241217">
        <ele>120.3</ele>
        <time>2026-07-13T14:12:47Z</time>
      </trkpt>
      <trkpt lat="50.068044997751713" lon="8.468421008437872">
        <ele>120.78</ele>
        <time>2026-07-13T14:12:48Z</time>
      </trkpt>
      <trkpt lat="50.068008033558726" lon="8.468526033684611">
        <ele>120.78</ele>
        <time>2026-07-13T14:12:49Z</time>
      </trkpt>
      <trkpt lat="50.06797500886023" lon="8.468624018132687">
        <ele>121.26000000000001</ele>
        <time>2026-07-13T14:12:50Z</time>
      </trkpt>
      <trkpt lat="50.067941984161735" lon="8.468716973438859">
        <ele>121.73999999999999</ele>
        <time>2026-07-13T14:12:51Z</time>
      </trkpt>
      <trkpt lat="50.06791097112" lon="8.468808000907302">
        <ele>121.73999999999999</ele>
        <time>2026-07-13T14:12:52Z</time>
      </trkpt>
      <trkpt lat="50.067874006927013" lon="8.468914031982422">
        <ele>122.22</ele>
        <time>2026-07-13T14:12:53Z</time>
      </trkpt>
      <trkpt lat="50.067828996106982" lon="8.468962982296944">
        <ele>122.70999999999999</ele>
        <time>2026-07-13T14:12:54Z</time>
      </trkpt>
      <trkpt lat="50.067764958366752" lon="8.469033977016807">
        <ele>122.70999999999999</ele>
        <time>2026-07-13T14:12:55Z</time>
      </trkpt>
      <trkpt lat="50.067690024152398" lon="8.469116035848856">
        <ele>123.19</ele>
        <time>2026-07-13T14:12:56Z</time>
      </trkpt>
      <trkpt lat="50.067606037482619" lon="8.469208991155028">
        <ele>122.70999999999999</ele>
        <time>2026-07-13T14:12:57Z</time>
      </trkpt>
      <trkpt lat="50.067273024469614" lon="8.469515014439821">
        <ele>121.73999999999999</ele>
        <time>2026-07-13T14:13:00Z</time>
      </trkpt>
      <trkpt lat="50.066110035404563" lon="8.470437023788691">
        <ele>115.98</ele>
        <time>2026-07-13T14:13:10Z</time>
      </trkpt>
      <trkpt lat="50.065475022420287" lon="8.470937004312873">
        <ele>113.56999999999999</ele>
        <time>2026-07-13T14:13:18Z</time>
      </trkpt>
      <trkpt lat="50.065475022420287" lon="8.470937004312873">
        <ele>113.56999999999999</ele>
        <time>2026-07-13T14:13:30Z</time>
      </trkpt>
      <trkpt lat="50.065430011600256" lon="8.470969023182988">
        <ele>113.09</ele>
        <time>2026-07-13T14:14:12Z</time>
      </trkpt>
      <trkpt lat="50.065376032143831" lon="8.471005987375975">
        <ele>112.61</ele>
        <time>2026-07-13T14:14:13Z</time>
      </trkpt>
      <trkpt lat="50.065319035202265" lon="8.471132973209024">
        <ele>112.61</ele>
        <time>2026-07-13T14:14:14Z</time>
      </trkpt>
      <trkpt lat="50.065343007445335" lon="8.471221989020705">
        <ele>112.13</ele>
        <time>2026-07-13T14:14:15Z</time>
      </trkpt>
      <trkpt lat="50.065373014658689" lon="8.471331959590316">
        <ele>112.13</ele>
        <time>2026-07-13T14:14:16Z</time>
      </trkpt>
      <trkpt lat="50.065406961366534" lon="8.471458023414016">
        <ele>111.65000000000001</ele>
        <time>2026-07-13T14:14:17Z</time>
      </trkpt>
      <trkpt lat="50.065837036818266" lon="8.473003981634975">
        <ele>110.69</ele>
        <time>2026-07-13T14:14:28Z</time>
      </trkpt>
      <trkpt lat="50.065879030153155" lon="8.473146976903081">
        <ele>110.69</ele>
        <time>2026-07-13T14:14:29Z</time>
      </trkpt>
      <trkpt lat="50.066350009292364" lon="8.474642978981137">
        <ele>107.81</ele>
        <time>2026-07-13T14:14:40Z</time>
      </trkpt>
      <trkpt lat="50.066372975707054" lon="8.474744986742735">
        <ele>107.81</ele>
        <time>2026-07-13T14:14:41Z</time>
      </trkpt>
      <trkpt lat="50.066350009292364" lon="8.474943973124027">
        <ele>107.81</ele>
        <time>2026-07-13T14:14:42Z</time>
      </trkpt>
      <trkpt lat="50.066354032605886" lon="8.47497196868062">
        <ele>107.81</ele>
        <time>2026-07-13T14:14:43Z</time>
      </trkpt>
      <trkpt lat="50.066367024555802" lon="8.475062996149063">
        <ele>108.29000000000001</ele>
        <time>2026-07-13T14:14:44Z</time>
      </trkpt>
      <trkpt lat="50.066427038982511" lon="8.475148994475603">
        <ele>108.29000000000001</ele>
        <time>2026-07-13T14:14:45Z</time>
      </trkpt>
      <trkpt lat="50.066436007618904" lon="8.475157963111997">
        <ele>108.77</ele>
        <time>2026-07-13T14:14:46Z</time>
      </trkpt>
      <trkpt lat="50.066582020372152" lon="8.475222000852227">
        <ele>108.77</ele>
        <time>2026-07-13T14:14:47Z</time>
      </trkpt>
      <trkpt lat="50.066633988171816" lon="8.47531302832067">
        <ele>109.25</ele>
        <time>2026-07-13T14:14:48Z</time>
      </trkpt>
      <trkpt lat="50.06668696179986" lon="8.475405983626843">
        <ele>109.25</ele>
        <time>2026-07-13T14:14:49Z</time>
      </trkpt>
      <trkpt lat="50.066944034770131" lon="8.475858019664884">
        <ele>110.20999999999999</ele>
        <time>2026-07-13T14:14:54Z</time>
      </trkpt>
      <trkpt lat="50.066987033933401" lon="8.475933959707618">
        <ele>110.20999999999999</ele>
        <time>2026-07-13T14:14:55Z</time>
      </trkpt>
      <trkpt lat="50.067117037251592" lon="8.476180974394083">
        <ele>108.77</ele>
        <time>2026-07-13T14:15:02Z</time>
      </trkpt>
      <trkpt lat="50.067239999771118" lon="8.476437963545322">
        <ele>107.81</ele>
        <time>2026-07-13T14:15:10Z</time>
      </trkpt>
      <trkpt lat="50.067481985315681" lon="8.477027965709567">
        <ele>106.36</ele>
        <time>2026-07-13T14:15:17Z</time>
      </trkpt>
      <trkpt lat="50.067519033327699" lon="8.477122010663152">
        <ele>106.36</ele>
        <time>2026-07-13T14:15:18Z</time>
      </trkpt>
      <trkpt lat="50.067558009177446" lon="8.477222006767988">
        <ele>106.84</ele>
        <time>2026-07-13T14:15:19Z</time>
      </trkpt>
      <trkpt lat="50.067635960876942" lon="8.477415964007378">
        <ele>106.36</ele>
        <time>2026-07-13T14:15:21Z</time>
      </trkpt>
      <trkpt lat="50.067712990567088" lon="8.477601958438754">
        <ele>106.36</ele>
        <time>2026-07-13T14:15:23Z</time>
      </trkpt>
      <trkpt lat="50.067789014428854" lon="8.477788036689162">
        <ele>106.84</ele>
        <time>2026-07-13T14:15:25Z</time>
      </trkpt>
      <trkpt lat="50.067826984450221" lon="8.477880991995335">
        <ele>106.84</ele>
        <time>2026-07-13T14:15:26Z</time>
      </trkpt>
      <trkpt lat="50.06786503829062" lon="8.477974031120539">
        <ele>106.84</ele>
        <time>2026-07-13T14:15:27Z</time>
      </trkpt>
      <trkpt lat="50.067964028567076" lon="8.478216016665101">
        <ele>107.81</ele>
        <time>2026-07-13T14:15:30Z</time>
      </trkpt>
      <trkpt lat="50.067981965839863" lon="8.478260021656752">
        <ele>108.29000000000001</ele>
        <time>2026-07-13T14:15:31Z</time>
      </trkpt>
      <trkpt lat="50.067990012466908" lon="8.4782799705863">
        <ele>108.29000000000001</ele>
        <time>2026-07-13T14:15:32Z</time>
      </trkpt>
      <trkpt lat="50.067990012466908" lon="8.4782799705863">
        <ele>108.29000000000001</ele>
        <time>2026-07-13T14:15:33Z</time>
      </trkpt>
    </trkseg>
  </trk>

</gpx>